<?xml version="1.0" encoding="UTF-8" standalone="no" ?>
<gpx xmlns="http://www.topografix.com/GPX/1/1" xmlns:xsi="http://www.w3.org/2001/XMLSchema-instance" xsi:schemaLocation="http://www.topografix.com/GPX/1/1 http://www.topografix.com/GPX/1/1/gpx.xsd" version="1.1" creator="VisuGPX - https://www.visugpx.com">
  <metadata>
    <name>2021-05-22 17:12:13 [Garmin]</name>
  </metadata>
  <trk>
    <name><![CDATA[2021-05-22 17:12:13 [Garmin]_1]]></name>
    <trkseg>
      <trkpt lat="47.8198" lon="7.17807">
        <ele>309.20001220703</ele>
        <time>2021-05-22T10:34:12Z</time>
      </trkpt>
      <trkpt lat="47.81984" lon="7.17796">
        <ele>310.39999389648</ele>
        <time>2021-05-22T10:34:14Z</time>
      </trkpt>
      <trkpt lat="47.81995" lon="7.17772">
        <ele>311</ele>
        <time>2021-05-22T10:34:19Z</time>
      </trkpt>
      <trkpt lat="47.8201" lon="7.17749">
        <ele>311.39999389648</ele>
        <time>2021-05-22T10:34:24Z</time>
      </trkpt>
      <trkpt lat="47.82016" lon="7.1774">
        <ele>311.60000610352</ele>
        <time>2021-05-22T10:34:26Z</time>
      </trkpt>
      <trkpt lat="47.8202" lon="7.1773">
        <ele>312</ele>
        <time>2021-05-22T10:34:28Z</time>
      </trkpt>
      <trkpt lat="47.82023" lon="7.17726">
        <ele>312.60000610352</ele>
        <time>2021-05-22T10:34:29Z</time>
      </trkpt>
      <trkpt lat="47.82027" lon="7.17723">
        <ele>312.79998779297</ele>
        <time>2021-05-22T10:34:30Z</time>
      </trkpt>
      <trkpt lat="47.82034" lon="7.17717">
        <ele>313.20001220703</ele>
        <time>2021-05-22T10:34:32Z</time>
      </trkpt>
      <trkpt lat="47.82048" lon="7.177">
        <ele>313.60000610352</ele>
        <time>2021-05-22T10:34:36Z</time>
      </trkpt>
      <trkpt lat="47.82051" lon="7.17696">
        <ele>313.79998779297</ele>
        <time>2021-05-22T10:34:37Z</time>
      </trkpt>
      <trkpt lat="47.82061" lon="7.17684">
        <ele>314</ele>
        <time>2021-05-22T10:34:40Z</time>
      </trkpt>
      <trkpt lat="47.82066" lon="7.17674">
        <ele>314.20001220703</ele>
        <time>2021-05-22T10:34:42Z</time>
      </trkpt>
      <trkpt lat="47.82069" lon="7.17669">
        <ele>314.39999389648</ele>
        <time>2021-05-22T10:34:43Z</time>
      </trkpt>
      <trkpt lat="47.82076" lon="7.17654">
        <ele>315</ele>
        <time>2021-05-22T10:34:46Z</time>
      </trkpt>
      <trkpt lat="47.8208" lon="7.17642">
        <ele>315.39999389648</ele>
        <time>2021-05-22T10:34:48Z</time>
      </trkpt>
      <trkpt lat="47.82081" lon="7.17636">
        <ele>315.60000610352</ele>
        <time>2021-05-22T10:34:49Z</time>
      </trkpt>
      <trkpt lat="47.82084" lon="7.17618">
        <ele>316</ele>
        <time>2021-05-22T10:34:52Z</time>
      </trkpt>
      <trkpt lat="47.82085" lon="7.17605">
        <ele>316.20001220703</ele>
        <time>2021-05-22T10:34:54Z</time>
      </trkpt>
      <trkpt lat="47.82087" lon="7.17591">
        <ele>316.20001220703</ele>
        <time>2021-05-22T10:34:56Z</time>
      </trkpt>
      <trkpt lat="47.82087" lon="7.17545">
        <ele>316.20001220703</ele>
        <time>2021-05-22T10:35:03Z</time>
      </trkpt>
      <trkpt lat="47.82088" lon="7.17539">
        <ele>316.39999389648</ele>
        <time>2021-05-22T10:35:04Z</time>
      </trkpt>
      <trkpt lat="47.8209" lon="7.17513">
        <ele>317.20001220703</ele>
        <time>2021-05-22T10:35:08Z</time>
      </trkpt>
      <trkpt lat="47.82091" lon="7.17507">
        <ele>317.60000610352</ele>
        <time>2021-05-22T10:35:09Z</time>
      </trkpt>
      <trkpt lat="47.82092" lon="7.17501">
        <ele>317.79998779297</ele>
        <time>2021-05-22T10:35:10Z</time>
      </trkpt>
      <trkpt lat="47.82093" lon="7.17495">
        <ele>318.20001220703</ele>
        <time>2021-05-22T10:35:11Z</time>
      </trkpt>
      <trkpt lat="47.82101" lon="7.17467">
        <ele>319.20001220703</ele>
        <time>2021-05-22T10:35:16Z</time>
      </trkpt>
      <trkpt lat="47.82108" lon="7.17436">
        <ele>320.20001220703</ele>
        <time>2021-05-22T10:35:21Z</time>
      </trkpt>
      <trkpt lat="47.8211" lon="7.17429">
        <ele>320.20001220703</ele>
        <time>2021-05-22T10:35:22Z</time>
      </trkpt>
      <trkpt lat="47.82113" lon="7.17417">
        <ele>320.60000610352</ele>
        <time>2021-05-22T10:35:24Z</time>
      </trkpt>
      <trkpt lat="47.82118" lon="7.17406">
        <ele>321.20001220703</ele>
        <time>2021-05-22T10:35:26Z</time>
      </trkpt>
      <trkpt lat="47.82121" lon="7.17393">
        <ele>321.39999389648</ele>
        <time>2021-05-22T10:35:28Z</time>
      </trkpt>
      <trkpt lat="47.82123" lon="7.17387">
        <ele>321.39999389648</ele>
        <time>2021-05-22T10:35:29Z</time>
      </trkpt>
      <trkpt lat="47.82126" lon="7.17377">
        <ele>321.39999389648</ele>
        <time>2021-05-22T10:35:31Z</time>
      </trkpt>
      <trkpt lat="47.82134" lon="7.17341">
        <ele>322.20001220703</ele>
        <time>2021-05-22T10:35:37Z</time>
      </trkpt>
      <trkpt lat="47.82136" lon="7.17337">
        <ele>322.39999389648</ele>
        <time>2021-05-22T10:35:38Z</time>
      </trkpt>
      <trkpt lat="47.82138" lon="7.17332">
        <ele>323</ele>
        <time>2021-05-22T10:35:39Z</time>
      </trkpt>
      <trkpt lat="47.82144" lon="7.17315">
        <ele>324</ele>
        <time>2021-05-22T10:35:42Z</time>
      </trkpt>
      <trkpt lat="47.82156" lon="7.17267">
        <ele>324.60000610352</ele>
        <time>2021-05-22T10:35:50Z</time>
      </trkpt>
      <trkpt lat="47.82161" lon="7.17256">
        <ele>324.79998779297</ele>
        <time>2021-05-22T10:35:52Z</time>
      </trkpt>
      <trkpt lat="47.82163" lon="7.17251">
        <ele>325.20001220703</ele>
        <time>2021-05-22T10:35:53Z</time>
      </trkpt>
      <trkpt lat="47.82167" lon="7.1724">
        <ele>325.79998779297</ele>
        <time>2021-05-22T10:35:55Z</time>
      </trkpt>
      <trkpt lat="47.82171" lon="7.17229">
        <ele>326.20001220703</ele>
        <time>2021-05-22T10:35:57Z</time>
      </trkpt>
      <trkpt lat="47.82177" lon="7.1722">
        <ele>326.39999389648</ele>
        <time>2021-05-22T10:35:59Z</time>
      </trkpt>
      <trkpt lat="47.82185" lon="7.17212">
        <ele>327</ele>
        <time>2021-05-22T10:36:01Z</time>
      </trkpt>
      <trkpt lat="47.82187" lon="7.17209">
        <ele>327</ele>
        <time>2021-05-22T10:36:02Z</time>
      </trkpt>
      <trkpt lat="47.8219" lon="7.17205">
        <ele>327.20001220703</ele>
        <time>2021-05-22T10:36:03Z</time>
      </trkpt>
      <trkpt lat="47.82195" lon="7.17195">
        <ele>328</ele>
        <time>2021-05-22T10:36:05Z</time>
      </trkpt>
      <trkpt lat="47.82198" lon="7.17191">
        <ele>328.20001220703</ele>
        <time>2021-05-22T10:36:06Z</time>
      </trkpt>
      <trkpt lat="47.82212" lon="7.1717">
        <ele>329.39999389648</ele>
        <time>2021-05-22T10:36:11Z</time>
      </trkpt>
      <trkpt lat="47.82216" lon="7.1716">
        <ele>329.60000610352</ele>
        <time>2021-05-22T10:36:13Z</time>
      </trkpt>
      <trkpt lat="47.82223" lon="7.17145">
        <ele>330.39999389648</ele>
        <time>2021-05-22T10:36:16Z</time>
      </trkpt>
      <trkpt lat="47.82232" lon="7.1712">
        <ele>331.60000610352</ele>
        <time>2021-05-22T10:36:21Z</time>
      </trkpt>
      <trkpt lat="47.8224" lon="7.17097">
        <ele>332.60000610352</ele>
        <time>2021-05-22T10:36:26Z</time>
      </trkpt>
      <trkpt lat="47.82246" lon="7.17077">
        <ele>333.39999389648</ele>
        <time>2021-05-22T10:36:30Z</time>
      </trkpt>
      <trkpt lat="47.82248" lon="7.17072">
        <ele>333.60000610352</ele>
        <time>2021-05-22T10:36:31Z</time>
      </trkpt>
      <trkpt lat="47.8225" lon="7.17061">
        <ele>334</ele>
        <time>2021-05-22T10:36:33Z</time>
      </trkpt>
      <trkpt lat="47.82256" lon="7.1704">
        <ele>334.79998779297</ele>
        <time>2021-05-22T10:36:37Z</time>
      </trkpt>
      <trkpt lat="47.82259" lon="7.17025">
        <ele>335.20001220703</ele>
        <time>2021-05-22T10:36:40Z</time>
      </trkpt>
      <trkpt lat="47.82263" lon="7.16999">
        <ele>336</ele>
        <time>2021-05-22T10:36:45Z</time>
      </trkpt>
      <trkpt lat="47.82265" lon="7.16979">
        <ele>336.79998779297</ele>
        <time>2021-05-22T10:36:49Z</time>
      </trkpt>
      <trkpt lat="47.82266" lon="7.16972">
        <ele>337</ele>
        <time>2021-05-22T10:36:50Z</time>
      </trkpt>
      <trkpt lat="47.82269" lon="7.16935">
        <ele>337.39999389648</ele>
        <time>2021-05-22T10:36:57Z</time>
      </trkpt>
      <trkpt lat="47.82274" lon="7.16905">
        <ele>337.79998779297</ele>
        <time>2021-05-22T10:37:03Z</time>
      </trkpt>
      <trkpt lat="47.82275" lon="7.16886">
        <ele>338.60000610352</ele>
        <time>2021-05-22T10:37:06Z</time>
      </trkpt>
      <trkpt lat="47.82275" lon="7.16882">
        <ele>338.79998779297</ele>
        <time>2021-05-22T10:37:07Z</time>
      </trkpt>
      <trkpt lat="47.82279" lon="7.16853">
        <ele>340</ele>
        <time>2021-05-22T10:37:12Z</time>
      </trkpt>
      <trkpt lat="47.82281" lon="7.16836">
        <ele>340.79998779297</ele>
        <time>2021-05-22T10:37:15Z</time>
      </trkpt>
      <trkpt lat="47.82282" lon="7.16831">
        <ele>341</ele>
        <time>2021-05-22T10:37:16Z</time>
      </trkpt>
      <trkpt lat="47.82286" lon="7.16796">
        <ele>342</ele>
        <time>2021-05-22T10:37:22Z</time>
      </trkpt>
      <trkpt lat="47.82288" lon="7.16769">
        <ele>343</ele>
        <time>2021-05-22T10:37:27Z</time>
      </trkpt>
      <trkpt lat="47.82289" lon="7.16764">
        <ele>343.20001220703</ele>
        <time>2021-05-22T10:37:28Z</time>
      </trkpt>
      <trkpt lat="47.82291" lon="7.16736">
        <ele>344.39999389648</ele>
        <time>2021-05-22T10:37:33Z</time>
      </trkpt>
      <trkpt lat="47.82292" lon="7.16718">
        <ele>345</ele>
        <time>2021-05-22T10:37:36Z</time>
      </trkpt>
      <trkpt lat="47.82296" lon="7.16697">
        <ele>345.60000610352</ele>
        <time>2021-05-22T10:37:40Z</time>
      </trkpt>
      <trkpt lat="47.82298" lon="7.16676">
        <ele>346.60000610352</ele>
        <time>2021-05-22T10:37:44Z</time>
      </trkpt>
      <trkpt lat="47.82304" lon="7.16644">
        <ele>347.79998779297</ele>
        <time>2021-05-22T10:37:50Z</time>
      </trkpt>
      <trkpt lat="47.82307" lon="7.16629">
        <ele>348.39999389648</ele>
        <time>2021-05-22T10:37:53Z</time>
      </trkpt>
      <trkpt lat="47.8231" lon="7.16613">
        <ele>349</ele>
        <time>2021-05-22T10:37:56Z</time>
      </trkpt>
      <trkpt lat="47.82316" lon="7.16579">
        <ele>350</ele>
        <time>2021-05-22T10:38:02Z</time>
      </trkpt>
      <trkpt lat="47.82317" lon="7.16574">
        <ele>350.20001220703</ele>
        <time>2021-05-22T10:38:03Z</time>
      </trkpt>
      <trkpt lat="47.82323" lon="7.16544">
        <ele>351.20001220703</ele>
        <time>2021-05-22T10:38:09Z</time>
      </trkpt>
      <trkpt lat="47.82324" lon="7.1654">
        <ele>351.39999389648</ele>
        <time>2021-05-22T10:38:10Z</time>
      </trkpt>
      <trkpt lat="47.82327" lon="7.16524">
        <ele>352.20001220703</ele>
        <time>2021-05-22T10:38:14Z</time>
      </trkpt>
      <trkpt lat="47.82329" lon="7.16517">
        <ele>352.39999389648</ele>
        <time>2021-05-22T10:38:16Z</time>
      </trkpt>
      <trkpt lat="47.82332" lon="7.16506">
        <ele>353.39999389648</ele>
        <time>2021-05-22T10:38:19Z</time>
      </trkpt>
      <trkpt lat="47.82335" lon="7.16493">
        <ele>354.39999389648</ele>
        <time>2021-05-22T10:38:22Z</time>
      </trkpt>
      <trkpt lat="47.82337" lon="7.16484">
        <ele>354.60000610352</ele>
        <time>2021-05-22T10:38:24Z</time>
      </trkpt>
      <trkpt lat="47.82342" lon="7.16468">
        <ele>355</ele>
        <time>2021-05-22T10:38:27Z</time>
      </trkpt>
      <trkpt lat="47.82345" lon="7.16449">
        <ele>355.20001220703</ele>
        <time>2021-05-22T10:38:30Z</time>
      </trkpt>
      <trkpt lat="47.82346" lon="7.16442">
        <ele>355.39999389648</ele>
        <time>2021-05-22T10:38:31Z</time>
      </trkpt>
      <trkpt lat="47.8235" lon="7.16424">
        <ele>356.39999389648</ele>
        <time>2021-05-22T10:38:34Z</time>
      </trkpt>
      <trkpt lat="47.82353" lon="7.16399">
        <ele>357.20001220703</ele>
        <time>2021-05-22T10:38:38Z</time>
      </trkpt>
      <trkpt lat="47.82354" lon="7.16388">
        <ele>357.79998779297</ele>
        <time>2021-05-22T10:38:40Z</time>
      </trkpt>
      <trkpt lat="47.82357" lon="7.1637">
        <ele>358.20001220703</ele>
        <time>2021-05-22T10:38:43Z</time>
      </trkpt>
      <trkpt lat="47.82361" lon="7.16353">
        <ele>358.79998779297</ele>
        <time>2021-05-22T10:38:46Z</time>
      </trkpt>
      <trkpt lat="47.82366" lon="7.16323">
        <ele>359.20001220703</ele>
        <time>2021-05-22T10:38:51Z</time>
      </trkpt>
      <trkpt lat="47.82371" lon="7.16301">
        <ele>359.79998779297</ele>
        <time>2021-05-22T10:38:55Z</time>
      </trkpt>
      <trkpt lat="47.82374" lon="7.16285">
        <ele>360</ele>
        <time>2021-05-22T10:38:58Z</time>
      </trkpt>
      <trkpt lat="47.82377" lon="7.16268">
        <ele>360.79998779297</ele>
        <time>2021-05-22T10:39:01Z</time>
      </trkpt>
      <trkpt lat="47.82381" lon="7.16251">
        <ele>361.60000610352</ele>
        <time>2021-05-22T10:39:04Z</time>
      </trkpt>
      <trkpt lat="47.82383" lon="7.1624">
        <ele>362</ele>
        <time>2021-05-22T10:39:06Z</time>
      </trkpt>
      <trkpt lat="47.82386" lon="7.16226">
        <ele>362.39999389648</ele>
        <time>2021-05-22T10:39:09Z</time>
      </trkpt>
      <trkpt lat="47.82385" lon="7.16214">
        <ele>362.60000610352</ele>
        <time>2021-05-22T10:39:12Z</time>
      </trkpt>
      <trkpt lat="47.8239" lon="7.16193">
        <ele>363</ele>
        <time>2021-05-22T10:39:16Z</time>
      </trkpt>
      <trkpt lat="47.82396" lon="7.1618">
        <ele>363.39999389648</ele>
        <time>2021-05-22T10:39:19Z</time>
      </trkpt>
      <trkpt lat="47.82397" lon="7.1617">
        <ele>364.20001220703</ele>
        <time>2021-05-22T10:39:21Z</time>
      </trkpt>
      <trkpt lat="47.824" lon="7.16151">
        <ele>365.79998779297</ele>
        <time>2021-05-22T10:39:25Z</time>
      </trkpt>
      <trkpt lat="47.82404" lon="7.16134">
        <ele>366.79998779297</ele>
        <time>2021-05-22T10:39:29Z</time>
      </trkpt>
      <trkpt lat="47.82407" lon="7.16123">
        <ele>367.39999389648</ele>
        <time>2021-05-22T10:39:31Z</time>
      </trkpt>
      <trkpt lat="47.82408" lon="7.16118">
        <ele>368</ele>
        <time>2021-05-22T10:39:32Z</time>
      </trkpt>
      <trkpt lat="47.82411" lon="7.16103">
        <ele>369</ele>
        <time>2021-05-22T10:39:35Z</time>
      </trkpt>
      <trkpt lat="47.82415" lon="7.16086">
        <ele>370.20001220703</ele>
        <time>2021-05-22T10:39:38Z</time>
      </trkpt>
      <trkpt lat="47.82417" lon="7.16072">
        <ele>371</ele>
        <time>2021-05-22T10:39:41Z</time>
      </trkpt>
      <trkpt lat="47.82419" lon="7.16063">
        <ele>371.39999389648</ele>
        <time>2021-05-22T10:39:43Z</time>
      </trkpt>
      <trkpt lat="47.82422" lon="7.1604">
        <ele>372.79998779297</ele>
        <time>2021-05-22T10:39:48Z</time>
      </trkpt>
      <trkpt lat="47.82423" lon="7.16036">
        <ele>373</ele>
        <time>2021-05-22T10:39:49Z</time>
      </trkpt>
      <trkpt lat="47.82424" lon="7.16027">
        <ele>373.39999389648</ele>
        <time>2021-05-22T10:39:51Z</time>
      </trkpt>
      <trkpt lat="47.82424" lon="7.16023">
        <ele>374</ele>
        <time>2021-05-22T10:39:52Z</time>
      </trkpt>
      <trkpt lat="47.82425" lon="7.16012">
        <ele>374.79998779297</ele>
        <time>2021-05-22T10:39:55Z</time>
      </trkpt>
      <trkpt lat="47.82428" lon="7.16003">
        <ele>375.20001220703</ele>
        <time>2021-05-22T10:39:57Z</time>
      </trkpt>
      <trkpt lat="47.82433" lon="7.15987">
        <ele>375.60000610352</ele>
        <time>2021-05-22T10:40:01Z</time>
      </trkpt>
      <trkpt lat="47.82444" lon="7.15952">
        <ele>375.79998779297</ele>
        <time>2021-05-22T10:40:09Z</time>
      </trkpt>
      <trkpt lat="47.82445" lon="7.15947">
        <ele>376</ele>
        <time>2021-05-22T10:40:10Z</time>
      </trkpt>
      <trkpt lat="47.82452" lon="7.15925">
        <ele>377.20001220703</ele>
        <time>2021-05-22T10:40:15Z</time>
      </trkpt>
      <trkpt lat="47.82453" lon="7.15921">
        <ele>377.60000610352</ele>
        <time>2021-05-22T10:40:16Z</time>
      </trkpt>
      <trkpt lat="47.82454" lon="7.15916">
        <ele>378.20001220703</ele>
        <time>2021-05-22T10:40:17Z</time>
      </trkpt>
      <trkpt lat="47.82457" lon="7.15908">
        <ele>379.20001220703</ele>
        <time>2021-05-22T10:40:19Z</time>
      </trkpt>
      <trkpt lat="47.82461" lon="7.15894">
        <ele>380.20001220703</ele>
        <time>2021-05-22T10:40:22Z</time>
      </trkpt>
      <trkpt lat="47.82463" lon="7.1589">
        <ele>380.39999389648</ele>
        <time>2021-05-22T10:40:23Z</time>
      </trkpt>
      <trkpt lat="47.82465" lon="7.15882">
        <ele>380.60000610352</ele>
        <time>2021-05-22T10:40:25Z</time>
      </trkpt>
      <trkpt lat="47.82467" lon="7.15874">
        <ele>381</ele>
        <time>2021-05-22T10:40:27Z</time>
      </trkpt>
      <trkpt lat="47.82471" lon="7.15863">
        <ele>381.79998779297</ele>
        <time>2021-05-22T10:40:30Z</time>
      </trkpt>
      <trkpt lat="47.82474" lon="7.15855">
        <ele>382.39999389648</ele>
        <time>2021-05-22T10:40:32Z</time>
      </trkpt>
      <trkpt lat="47.82478" lon="7.15845">
        <ele>383.20001220703</ele>
        <time>2021-05-22T10:40:34Z</time>
      </trkpt>
      <trkpt lat="47.82484" lon="7.15833">
        <ele>384.39999389648</ele>
        <time>2021-05-22T10:40:37Z</time>
      </trkpt>
      <trkpt lat="47.82486" lon="7.15825">
        <ele>385.20001220703</ele>
        <time>2021-05-22T10:40:39Z</time>
      </trkpt>
      <trkpt lat="47.82486" lon="7.15821">
        <ele>385.60000610352</ele>
        <time>2021-05-22T10:40:40Z</time>
      </trkpt>
      <trkpt lat="47.82492" lon="7.15804">
        <ele>386.60000610352</ele>
        <time>2021-05-22T10:40:44Z</time>
      </trkpt>
      <trkpt lat="47.82494" lon="7.15795">
        <ele>387</ele>
        <time>2021-05-22T10:40:46Z</time>
      </trkpt>
      <trkpt lat="47.82499" lon="7.15777">
        <ele>387.79998779297</ele>
        <time>2021-05-22T10:40:51Z</time>
      </trkpt>
      <trkpt lat="47.82503" lon="7.15766">
        <ele>388.20001220703</ele>
        <time>2021-05-22T10:40:54Z</time>
      </trkpt>
      <trkpt lat="47.82504" lon="7.15762">
        <ele>388.39999389648</ele>
        <time>2021-05-22T10:40:55Z</time>
      </trkpt>
      <trkpt lat="47.82509" lon="7.1575">
        <ele>389.39999389648</ele>
        <time>2021-05-22T10:40:58Z</time>
      </trkpt>
      <trkpt lat="47.82511" lon="7.15746">
        <ele>389.60000610352</ele>
        <time>2021-05-22T10:40:59Z</time>
      </trkpt>
      <trkpt lat="47.82516" lon="7.15734">
        <ele>390.79998779297</ele>
        <time>2021-05-22T10:41:02Z</time>
      </trkpt>
      <trkpt lat="47.82518" lon="7.15722">
        <ele>391.60000610352</ele>
        <time>2021-05-22T10:41:05Z</time>
      </trkpt>
      <trkpt lat="47.82519" lon="7.15719">
        <ele>392</ele>
        <time>2021-05-22T10:41:06Z</time>
      </trkpt>
      <trkpt lat="47.8252" lon="7.15715">
        <ele>392.20001220703</ele>
        <time>2021-05-22T10:41:07Z</time>
      </trkpt>
      <trkpt lat="47.82522" lon="7.15707">
        <ele>392.60000610352</ele>
        <time>2021-05-22T10:41:09Z</time>
      </trkpt>
      <trkpt lat="47.82524" lon="7.157">
        <ele>393.39999389648</ele>
        <time>2021-05-22T10:41:11Z</time>
      </trkpt>
      <trkpt lat="47.82524" lon="7.15695">
        <ele>393.60000610352</ele>
        <time>2021-05-22T10:41:12Z</time>
      </trkpt>
      <trkpt lat="47.82525" lon="7.15691">
        <ele>394</ele>
        <time>2021-05-22T10:41:13Z</time>
      </trkpt>
      <trkpt lat="47.82527" lon="7.15673">
        <ele>394.79998779297</ele>
        <time>2021-05-22T10:41:17Z</time>
      </trkpt>
      <trkpt lat="47.8253" lon="7.15657">
        <ele>395.79998779297</ele>
        <time>2021-05-22T10:41:20Z</time>
      </trkpt>
      <trkpt lat="47.82535" lon="7.15625">
        <ele>397.20001220703</ele>
        <time>2021-05-22T10:41:26Z</time>
      </trkpt>
      <trkpt lat="47.82536" lon="7.15619">
        <ele>397.60000610352</ele>
        <time>2021-05-22T10:41:27Z</time>
      </trkpt>
      <trkpt lat="47.82541" lon="7.15605">
        <ele>398.20001220703</ele>
        <time>2021-05-22T10:41:30Z</time>
      </trkpt>
      <trkpt lat="47.82544" lon="7.15601">
        <ele>398.20001220703</ele>
        <time>2021-05-22T10:41:31Z</time>
      </trkpt>
      <trkpt lat="47.82547" lon="7.15599">
        <ele>398.39999389648</ele>
        <time>2021-05-22T10:41:32Z</time>
      </trkpt>
      <trkpt lat="47.82554" lon="7.156">
        <ele>399</ele>
        <time>2021-05-22T10:41:34Z</time>
      </trkpt>
      <trkpt lat="47.82556" lon="7.15604">
        <ele>399.39999389648</ele>
        <time>2021-05-22T10:41:35Z</time>
      </trkpt>
      <trkpt lat="47.82558" lon="7.15608">
        <ele>399.60000610352</ele>
        <time>2021-05-22T10:41:36Z</time>
      </trkpt>
      <trkpt lat="47.8256" lon="7.15623">
        <ele>400.39999389648</ele>
        <time>2021-05-22T10:41:39Z</time>
      </trkpt>
      <trkpt lat="47.82559" lon="7.15627">
        <ele>400.60000610352</ele>
        <time>2021-05-22T10:41:40Z</time>
      </trkpt>
      <trkpt lat="47.82559" lon="7.15644">
        <ele>401.20001220703</ele>
        <time>2021-05-22T10:41:44Z</time>
      </trkpt>
      <trkpt lat="47.8256" lon="7.15648">
        <ele>401.20001220703</ele>
        <time>2021-05-22T10:41:45Z</time>
      </trkpt>
      <trkpt lat="47.82561" lon="7.15659">
        <ele>401.79998779297</ele>
        <time>2021-05-22T10:41:48Z</time>
      </trkpt>
      <trkpt lat="47.82561" lon="7.15663">
        <ele>402</ele>
        <time>2021-05-22T10:41:49Z</time>
      </trkpt>
      <trkpt lat="47.82561" lon="7.15669">
        <ele>402.39999389648</ele>
        <time>2021-05-22T10:41:51Z</time>
      </trkpt>
      <trkpt lat="47.82561" lon="7.15672">
        <ele>402.60000610352</ele>
        <time>2021-05-22T10:41:52Z</time>
      </trkpt>
      <trkpt lat="47.82561" lon="7.1568">
        <ele>403</ele>
        <time>2021-05-22T10:41:54Z</time>
      </trkpt>
      <trkpt lat="47.82562" lon="7.15688">
        <ele>403.79998779297</ele>
        <time>2021-05-22T10:41:56Z</time>
      </trkpt>
      <trkpt lat="47.82562" lon="7.15705">
        <ele>405</ele>
        <time>2021-05-22T10:42:00Z</time>
      </trkpt>
      <trkpt lat="47.82562" lon="7.15714">
        <ele>405.39999389648</ele>
        <time>2021-05-22T10:42:02Z</time>
      </trkpt>
      <trkpt lat="47.82563" lon="7.15727">
        <ele>406.20001220703</ele>
        <time>2021-05-22T10:42:05Z</time>
      </trkpt>
      <trkpt lat="47.82564" lon="7.15756">
        <ele>407.39999389648</ele>
        <time>2021-05-22T10:42:10Z</time>
      </trkpt>
      <trkpt lat="47.82565" lon="7.15768">
        <ele>407.79998779297</ele>
        <time>2021-05-22T10:42:12Z</time>
      </trkpt>
      <trkpt lat="47.82566" lon="7.15778">
        <ele>408.39999389648</ele>
        <time>2021-05-22T10:42:14Z</time>
      </trkpt>
      <trkpt lat="47.82566" lon="7.15798">
        <ele>409</ele>
        <time>2021-05-22T10:42:18Z</time>
      </trkpt>
      <trkpt lat="47.82566" lon="7.15812">
        <ele>409.39999389648</ele>
        <time>2021-05-22T10:42:21Z</time>
      </trkpt>
      <trkpt lat="47.82566" lon="7.15831">
        <ele>410.60000610352</ele>
        <time>2021-05-22T10:42:25Z</time>
      </trkpt>
      <trkpt lat="47.82565" lon="7.15843">
        <ele>411.60000610352</ele>
        <time>2021-05-22T10:42:28Z</time>
      </trkpt>
      <trkpt lat="47.82565" lon="7.15847">
        <ele>411.60000610352</ele>
        <time>2021-05-22T10:42:29Z</time>
      </trkpt>
      <trkpt lat="47.82563" lon="7.15865">
        <ele>412.79998779297</ele>
        <time>2021-05-22T10:42:33Z</time>
      </trkpt>
      <trkpt lat="47.82562" lon="7.15869">
        <ele>413</ele>
        <time>2021-05-22T10:42:34Z</time>
      </trkpt>
      <trkpt lat="47.82559" lon="7.15894">
        <ele>414</ele>
        <time>2021-05-22T10:42:39Z</time>
      </trkpt>
      <trkpt lat="47.82559" lon="7.15898">
        <ele>414.39999389648</ele>
        <time>2021-05-22T10:42:40Z</time>
      </trkpt>
      <trkpt lat="47.82559" lon="7.15906">
        <ele>414.79998779297</ele>
        <time>2021-05-22T10:42:42Z</time>
      </trkpt>
      <trkpt lat="47.82559" lon="7.15911">
        <ele>415.20001220703</ele>
        <time>2021-05-22T10:42:43Z</time>
      </trkpt>
      <trkpt lat="47.82558" lon="7.15916">
        <ele>415.20001220703</ele>
        <time>2021-05-22T10:42:44Z</time>
      </trkpt>
      <trkpt lat="47.82557" lon="7.15938">
        <ele>416.20001220703</ele>
        <time>2021-05-22T10:42:49Z</time>
      </trkpt>
      <trkpt lat="47.82557" lon="7.15942">
        <ele>416.39999389648</ele>
        <time>2021-05-22T10:42:50Z</time>
      </trkpt>
      <trkpt lat="47.82556" lon="7.15956">
        <ele>417.20001220703</ele>
        <time>2021-05-22T10:42:53Z</time>
      </trkpt>
      <trkpt lat="47.82555" lon="7.1597">
        <ele>417.79998779297</ele>
        <time>2021-05-22T10:42:56Z</time>
      </trkpt>
      <trkpt lat="47.82553" lon="7.15983">
        <ele>418.60000610352</ele>
        <time>2021-05-22T10:42:58Z</time>
      </trkpt>
      <trkpt lat="47.82553" lon="7.15996">
        <ele>419.60000610352</ele>
        <time>2021-05-22T10:43:01Z</time>
      </trkpt>
      <trkpt lat="47.82557" lon="7.16013">
        <ele>420.79998779297</ele>
        <time>2021-05-22T10:43:05Z</time>
      </trkpt>
      <trkpt lat="47.82559" lon="7.16017">
        <ele>421</ele>
        <time>2021-05-22T10:43:06Z</time>
      </trkpt>
      <trkpt lat="47.82571" lon="7.1603">
        <ele>422.20001220703</ele>
        <time>2021-05-22T10:43:10Z</time>
      </trkpt>
      <trkpt lat="47.82581" lon="7.16027">
        <ele>423</ele>
        <time>2021-05-22T10:43:14Z</time>
      </trkpt>
      <trkpt lat="47.8259" lon="7.16022">
        <ele>423.20001220703</ele>
        <time>2021-05-22T10:43:17Z</time>
      </trkpt>
      <trkpt lat="47.82598" lon="7.16019">
        <ele>423.60000610352</ele>
        <time>2021-05-22T10:43:20Z</time>
      </trkpt>
      <trkpt lat="47.82606" lon="7.16015">
        <ele>424.20001220703</ele>
        <time>2021-05-22T10:43:23Z</time>
      </trkpt>
      <trkpt lat="47.82613" lon="7.16011">
        <ele>424.79998779297</ele>
        <time>2021-05-22T10:43:25Z</time>
      </trkpt>
      <trkpt lat="47.82621" lon="7.16005">
        <ele>425.39999389648</ele>
        <time>2021-05-22T10:43:28Z</time>
      </trkpt>
      <trkpt lat="47.8263" lon="7.15997">
        <ele>426</ele>
        <time>2021-05-22T10:43:32Z</time>
      </trkpt>
      <trkpt lat="47.82639" lon="7.15993">
        <ele>426.79998779297</ele>
        <time>2021-05-22T10:43:35Z</time>
      </trkpt>
      <trkpt lat="47.82641" lon="7.15992">
        <ele>427</ele>
        <time>2021-05-22T10:43:36Z</time>
      </trkpt>
      <trkpt lat="47.82643" lon="7.1599">
        <ele>427.39999389648</ele>
        <time>2021-05-22T10:43:37Z</time>
      </trkpt>
      <trkpt lat="47.82647" lon="7.15988">
        <ele>427.79998779297</ele>
        <time>2021-05-22T10:43:38Z</time>
      </trkpt>
      <trkpt lat="47.82657" lon="7.15981">
        <ele>428.79998779297</ele>
        <time>2021-05-22T10:43:41Z</time>
      </trkpt>
      <trkpt lat="47.8266" lon="7.15977">
        <ele>429</ele>
        <time>2021-05-22T10:43:42Z</time>
      </trkpt>
      <trkpt lat="47.82675" lon="7.15964">
        <ele>429.60000610352</ele>
        <time>2021-05-22T10:43:46Z</time>
      </trkpt>
      <trkpt lat="47.82683" lon="7.15958">
        <ele>430</ele>
        <time>2021-05-22T10:43:49Z</time>
      </trkpt>
      <trkpt lat="47.8269" lon="7.15951">
        <ele>430.60000610352</ele>
        <time>2021-05-22T10:43:52Z</time>
      </trkpt>
      <trkpt lat="47.82693" lon="7.15948">
        <ele>430.79998779297</ele>
        <time>2021-05-22T10:43:53Z</time>
      </trkpt>
      <trkpt lat="47.82695" lon="7.15944">
        <ele>431</ele>
        <time>2021-05-22T10:43:54Z</time>
      </trkpt>
      <trkpt lat="47.82698" lon="7.15942">
        <ele>431.20001220703</ele>
        <time>2021-05-22T10:43:55Z</time>
      </trkpt>
      <trkpt lat="47.82704" lon="7.15937">
        <ele>431.39999389648</ele>
        <time>2021-05-22T10:43:57Z</time>
      </trkpt>
      <trkpt lat="47.82719" lon="7.15923">
        <ele>432.20001220703</ele>
        <time>2021-05-22T10:44:01Z</time>
      </trkpt>
      <trkpt lat="47.82725" lon="7.15916">
        <ele>432.39999389648</ele>
        <time>2021-05-22T10:44:03Z</time>
      </trkpt>
      <trkpt lat="47.82733" lon="7.15906">
        <ele>433.39999389648</ele>
        <time>2021-05-22T10:44:07Z</time>
      </trkpt>
      <trkpt lat="47.82736" lon="7.15903">
        <ele>433.60000610352</ele>
        <time>2021-05-22T10:44:08Z</time>
      </trkpt>
      <trkpt lat="47.82751" lon="7.15892">
        <ele>434.39999389648</ele>
        <time>2021-05-22T10:44:13Z</time>
      </trkpt>
      <trkpt lat="47.82757" lon="7.15888">
        <ele>434.60000610352</ele>
        <time>2021-05-22T10:44:15Z</time>
      </trkpt>
      <trkpt lat="47.82771" lon="7.1588">
        <ele>435.60000610352</ele>
        <time>2021-05-22T10:44:19Z</time>
      </trkpt>
      <trkpt lat="47.82777" lon="7.15875">
        <ele>435.79998779297</ele>
        <time>2021-05-22T10:44:21Z</time>
      </trkpt>
      <trkpt lat="47.82787" lon="7.15868">
        <ele>436.79998779297</ele>
        <time>2021-05-22T10:44:24Z</time>
      </trkpt>
      <trkpt lat="47.82795" lon="7.15864">
        <ele>437.60000610352</ele>
        <time>2021-05-22T10:44:26Z</time>
      </trkpt>
      <trkpt lat="47.82798" lon="7.15863">
        <ele>438</ele>
        <time>2021-05-22T10:44:27Z</time>
      </trkpt>
      <trkpt lat="47.82806" lon="7.15859">
        <ele>439.20001220703</ele>
        <time>2021-05-22T10:44:30Z</time>
      </trkpt>
      <trkpt lat="47.82809" lon="7.15859">
        <ele>439.39999389648</ele>
        <time>2021-05-22T10:44:31Z</time>
      </trkpt>
      <trkpt lat="47.82812" lon="7.15858">
        <ele>439.60000610352</ele>
        <time>2021-05-22T10:44:32Z</time>
      </trkpt>
      <trkpt lat="47.82821" lon="7.15853">
        <ele>440.79998779297</ele>
        <time>2021-05-22T10:44:35Z</time>
      </trkpt>
      <trkpt lat="47.82834" lon="7.15847">
        <ele>441.79998779297</ele>
        <time>2021-05-22T10:44:39Z</time>
      </trkpt>
      <trkpt lat="47.8284" lon="7.15843">
        <ele>442.20001220703</ele>
        <time>2021-05-22T10:44:41Z</time>
      </trkpt>
      <trkpt lat="47.8285" lon="7.15841">
        <ele>442.79998779297</ele>
        <time>2021-05-22T10:44:45Z</time>
      </trkpt>
      <trkpt lat="47.82864" lon="7.1585">
        <ele>443.39999389648</ele>
        <time>2021-05-22T10:44:50Z</time>
      </trkpt>
      <trkpt lat="47.82867" lon="7.15857">
        <ele>443.60000610352</ele>
        <time>2021-05-22T10:44:52Z</time>
      </trkpt>
      <trkpt lat="47.82869" lon="7.15865">
        <ele>443.60000610352</ele>
        <time>2021-05-22T10:44:54Z</time>
      </trkpt>
      <trkpt lat="47.82869" lon="7.15869">
        <ele>443.79998779297</ele>
        <time>2021-05-22T10:44:55Z</time>
      </trkpt>
      <trkpt lat="47.82869" lon="7.15873">
        <ele>443.79998779297</ele>
        <time>2021-05-22T10:44:56Z</time>
      </trkpt>
      <trkpt lat="47.8287" lon="7.15892">
        <ele>444.39999389648</ele>
        <time>2021-05-22T10:45:00Z</time>
      </trkpt>
      <trkpt lat="47.82871" lon="7.15895">
        <ele>444.60000610352</ele>
        <time>2021-05-22T10:45:01Z</time>
      </trkpt>
      <trkpt lat="47.82871" lon="7.15898">
        <ele>444.60000610352</ele>
        <time>2021-05-22T10:45:02Z</time>
      </trkpt>
      <trkpt lat="47.82871" lon="7.15903">
        <ele>445</ele>
        <time>2021-05-22T10:45:03Z</time>
      </trkpt>
      <trkpt lat="47.82873" lon="7.15915">
        <ele>445.39999389648</ele>
        <time>2021-05-22T10:45:06Z</time>
      </trkpt>
      <trkpt lat="47.82874" lon="7.15919">
        <ele>446</ele>
        <time>2021-05-22T10:45:07Z</time>
      </trkpt>
      <trkpt lat="47.82877" lon="7.15938">
        <ele>447</ele>
        <time>2021-05-22T10:45:11Z</time>
      </trkpt>
      <trkpt lat="47.82877" lon="7.15959">
        <ele>448.20001220703</ele>
        <time>2021-05-22T10:45:16Z</time>
      </trkpt>
      <trkpt lat="47.82877" lon="7.15962">
        <ele>448.79998779297</ele>
        <time>2021-05-22T10:45:17Z</time>
      </trkpt>
      <trkpt lat="47.82878" lon="7.1597">
        <ele>449.20001220703</ele>
        <time>2021-05-22T10:45:19Z</time>
      </trkpt>
      <trkpt lat="47.8288" lon="7.15984">
        <ele>449.79998779297</ele>
        <time>2021-05-22T10:45:23Z</time>
      </trkpt>
      <trkpt lat="47.8288" lon="7.15987">
        <ele>450</ele>
        <time>2021-05-22T10:45:24Z</time>
      </trkpt>
      <trkpt lat="47.8288" lon="7.15993">
        <ele>450.20001220703</ele>
        <time>2021-05-22T10:45:26Z</time>
      </trkpt>
      <trkpt lat="47.8288" lon="7.15996">
        <ele>450.39999389648</ele>
        <time>2021-05-22T10:45:27Z</time>
      </trkpt>
      <trkpt lat="47.82879" lon="7.1601">
        <ele>451.20001220703</ele>
        <time>2021-05-22T10:45:31Z</time>
      </trkpt>
      <trkpt lat="47.82879" lon="7.16017">
        <ele>451.60000610352</ele>
        <time>2021-05-22T10:45:33Z</time>
      </trkpt>
      <trkpt lat="47.82878" lon="7.1602">
        <ele>452</ele>
        <time>2021-05-22T10:45:34Z</time>
      </trkpt>
      <trkpt lat="47.82878" lon="7.16024">
        <ele>452.20001220703</ele>
        <time>2021-05-22T10:45:35Z</time>
      </trkpt>
      <trkpt lat="47.82875" lon="7.16043">
        <ele>453.60000610352</ele>
        <time>2021-05-22T10:45:40Z</time>
      </trkpt>
      <trkpt lat="47.82874" lon="7.1605">
        <ele>454</ele>
        <time>2021-05-22T10:45:42Z</time>
      </trkpt>
      <trkpt lat="47.82873" lon="7.16062">
        <ele>454.79998779297</ele>
        <time>2021-05-22T10:45:45Z</time>
      </trkpt>
      <trkpt lat="47.82872" lon="7.16068">
        <ele>455.39999389648</ele>
        <time>2021-05-22T10:45:47Z</time>
      </trkpt>
      <trkpt lat="47.8287" lon="7.16074">
        <ele>455.79998779297</ele>
        <time>2021-05-22T10:45:49Z</time>
      </trkpt>
      <trkpt lat="47.82868" lon="7.16083">
        <ele>456.60000610352</ele>
        <time>2021-05-22T10:45:52Z</time>
      </trkpt>
      <trkpt lat="47.82867" lon="7.16089">
        <ele>457</ele>
        <time>2021-05-22T10:45:54Z</time>
      </trkpt>
      <trkpt lat="47.82868" lon="7.16102">
        <ele>458</ele>
        <time>2021-05-22T10:45:58Z</time>
      </trkpt>
      <trkpt lat="47.82868" lon="7.16105">
        <ele>458.39999389648</ele>
        <time>2021-05-22T10:45:59Z</time>
      </trkpt>
      <trkpt lat="47.82869" lon="7.16116">
        <ele>459.39999389648</ele>
        <time>2021-05-22T10:46:03Z</time>
      </trkpt>
      <trkpt lat="47.8287" lon="7.16123">
        <ele>460</ele>
        <time>2021-05-22T10:46:05Z</time>
      </trkpt>
      <trkpt lat="47.82871" lon="7.16132">
        <ele>460.39999389648</ele>
        <time>2021-05-22T10:46:07Z</time>
      </trkpt>
      <trkpt lat="47.82872" lon="7.16144">
        <ele>461.79998779297</ele>
        <time>2021-05-22T10:46:10Z</time>
      </trkpt>
      <trkpt lat="47.82873" lon="7.16148">
        <ele>461.79998779297</ele>
        <time>2021-05-22T10:46:11Z</time>
      </trkpt>
      <trkpt lat="47.82877" lon="7.16162">
        <ele>463</ele>
        <time>2021-05-22T10:46:15Z</time>
      </trkpt>
      <trkpt lat="47.82881" lon="7.16178">
        <ele>464</ele>
        <time>2021-05-22T10:46:19Z</time>
      </trkpt>
      <trkpt lat="47.82882" lon="7.16182">
        <ele>464</ele>
        <time>2021-05-22T10:46:20Z</time>
      </trkpt>
      <trkpt lat="47.82891" lon="7.16206">
        <ele>465.20001220703</ele>
        <time>2021-05-22T10:46:26Z</time>
      </trkpt>
      <trkpt lat="47.82898" lon="7.16226">
        <ele>466.39999389648</ele>
        <time>2021-05-22T10:46:31Z</time>
      </trkpt>
      <trkpt lat="47.82897" lon="7.16229">
        <ele>466.60000610352</ele>
        <time>2021-05-22T10:46:32Z</time>
      </trkpt>
      <trkpt lat="47.82897" lon="7.16233">
        <ele>466.79998779297</ele>
        <time>2021-05-22T10:46:33Z</time>
      </trkpt>
      <trkpt lat="47.82899" lon="7.16246">
        <ele>467.39999389648</ele>
        <time>2021-05-22T10:46:36Z</time>
      </trkpt>
      <trkpt lat="47.82902" lon="7.16255">
        <ele>468.39999389648</ele>
        <time>2021-05-22T10:46:39Z</time>
      </trkpt>
      <trkpt lat="47.82903" lon="7.16271">
        <ele>469.60000610352</ele>
        <time>2021-05-22T10:46:44Z</time>
      </trkpt>
      <trkpt lat="47.82905" lon="7.16277">
        <ele>470.20001220703</ele>
        <time>2021-05-22T10:46:46Z</time>
      </trkpt>
      <trkpt lat="47.82909" lon="7.16289">
        <ele>470.60000610352</ele>
        <time>2021-05-22T10:46:49Z</time>
      </trkpt>
      <trkpt lat="47.82913" lon="7.16296">
        <ele>471</ele>
        <time>2021-05-22T10:46:51Z</time>
      </trkpt>
      <trkpt lat="47.82918" lon="7.16306">
        <ele>472</ele>
        <time>2021-05-22T10:46:54Z</time>
      </trkpt>
      <trkpt lat="47.82923" lon="7.1631">
        <ele>472.60000610352</ele>
        <time>2021-05-22T10:46:56Z</time>
      </trkpt>
      <trkpt lat="47.82929" lon="7.16312">
        <ele>473.20001220703</ele>
        <time>2021-05-22T10:46:58Z</time>
      </trkpt>
      <trkpt lat="47.82939" lon="7.1631">
        <ele>474</ele>
        <time>2021-05-22T10:47:02Z</time>
      </trkpt>
      <trkpt lat="47.82941" lon="7.16308">
        <ele>474.39999389648</ele>
        <time>2021-05-22T10:47:03Z</time>
      </trkpt>
      <trkpt lat="47.82951" lon="7.163">
        <ele>475.60000610352</ele>
        <time>2021-05-22T10:47:07Z</time>
      </trkpt>
      <trkpt lat="47.82953" lon="7.16296">
        <ele>475.79998779297</ele>
        <time>2021-05-22T10:47:08Z</time>
      </trkpt>
      <trkpt lat="47.82958" lon="7.16288">
        <ele>476.60000610352</ele>
        <time>2021-05-22T10:47:11Z</time>
      </trkpt>
      <trkpt lat="47.82962" lon="7.1628">
        <ele>477.20001220703</ele>
        <time>2021-05-22T10:47:14Z</time>
      </trkpt>
      <trkpt lat="47.82966" lon="7.16272">
        <ele>477.60000610352</ele>
        <time>2021-05-22T10:47:16Z</time>
      </trkpt>
      <trkpt lat="47.8297" lon="7.16262">
        <ele>478.60000610352</ele>
        <time>2021-05-22T10:47:19Z</time>
      </trkpt>
      <trkpt lat="47.82974" lon="7.16251">
        <ele>479.20001220703</ele>
        <time>2021-05-22T10:47:22Z</time>
      </trkpt>
      <trkpt lat="47.82983" lon="7.16236">
        <ele>479.60000610352</ele>
        <time>2021-05-22T10:47:27Z</time>
      </trkpt>
      <trkpt lat="47.82984" lon="7.16234">
        <ele>480</ele>
        <time>2021-05-22T10:47:28Z</time>
      </trkpt>
      <trkpt lat="47.82991" lon="7.16222">
        <ele>481</ele>
        <time>2021-05-22T10:47:32Z</time>
      </trkpt>
      <trkpt lat="47.82993" lon="7.16218">
        <ele>481.60000610352</ele>
        <time>2021-05-22T10:47:33Z</time>
      </trkpt>
      <trkpt lat="47.82995" lon="7.16215">
        <ele>482.20001220703</ele>
        <time>2021-05-22T10:47:34Z</time>
      </trkpt>
      <trkpt lat="47.82997" lon="7.16212">
        <ele>482.60000610352</ele>
        <time>2021-05-22T10:47:35Z</time>
      </trkpt>
      <trkpt lat="47.83002" lon="7.16206">
        <ele>483.20001220703</ele>
        <time>2021-05-22T10:47:37Z</time>
      </trkpt>
      <trkpt lat="47.83009" lon="7.16198">
        <ele>484.20001220703</ele>
        <time>2021-05-22T10:47:40Z</time>
      </trkpt>
      <trkpt lat="47.83014" lon="7.16192">
        <ele>485.20001220703</ele>
        <time>2021-05-22T10:47:43Z</time>
      </trkpt>
      <trkpt lat="47.83016" lon="7.16189">
        <ele>485.39999389648</ele>
        <time>2021-05-22T10:47:44Z</time>
      </trkpt>
      <trkpt lat="47.83025" lon="7.16174">
        <ele>486.39999389648</ele>
        <time>2021-05-22T10:47:48Z</time>
      </trkpt>
      <trkpt lat="47.83028" lon="7.16169">
        <ele>487</ele>
        <time>2021-05-22T10:47:50Z</time>
      </trkpt>
      <trkpt lat="47.83035" lon="7.16162">
        <ele>487.60000610352</ele>
        <time>2021-05-22T10:47:53Z</time>
      </trkpt>
      <trkpt lat="47.83041" lon="7.16152">
        <ele>488.79998779297</ele>
        <time>2021-05-22T10:47:56Z</time>
      </trkpt>
      <trkpt lat="47.83048" lon="7.16141">
        <ele>489.79998779297</ele>
        <time>2021-05-22T10:48:00Z</time>
      </trkpt>
      <trkpt lat="47.8305" lon="7.16139">
        <ele>490.20001220703</ele>
        <time>2021-05-22T10:48:01Z</time>
      </trkpt>
      <trkpt lat="47.8306" lon="7.16123">
        <ele>491.39999389648</ele>
        <time>2021-05-22T10:48:06Z</time>
      </trkpt>
      <trkpt lat="47.83064" lon="7.16119">
        <ele>491.79998779297</ele>
        <time>2021-05-22T10:48:08Z</time>
      </trkpt>
      <trkpt lat="47.83071" lon="7.16107">
        <ele>492.60000610352</ele>
        <time>2021-05-22T10:48:12Z</time>
      </trkpt>
      <trkpt lat="47.83078" lon="7.161">
        <ele>493.20001220703</ele>
        <time>2021-05-22T10:48:16Z</time>
      </trkpt>
      <trkpt lat="47.83081" lon="7.16097">
        <ele>493.60000610352</ele>
        <time>2021-05-22T10:48:18Z</time>
      </trkpt>
      <trkpt lat="47.83083" lon="7.16092">
        <ele>494.39999389648</ele>
        <time>2021-05-22T10:48:20Z</time>
      </trkpt>
      <trkpt lat="47.83085" lon="7.1609">
        <ele>494.60000610352</ele>
        <time>2021-05-22T10:48:21Z</time>
      </trkpt>
      <trkpt lat="47.83087" lon="7.16088">
        <ele>495</ele>
        <time>2021-05-22T10:48:22Z</time>
      </trkpt>
      <trkpt lat="47.83091" lon="7.16084">
        <ele>496</ele>
        <time>2021-05-22T10:48:24Z</time>
      </trkpt>
      <trkpt lat="47.83092" lon="7.16082">
        <ele>496.20001220703</ele>
        <time>2021-05-22T10:48:25Z</time>
      </trkpt>
      <trkpt lat="47.83098" lon="7.16074">
        <ele>497</ele>
        <time>2021-05-22T10:48:29Z</time>
      </trkpt>
      <trkpt lat="47.83101" lon="7.16068">
        <ele>497.20001220703</ele>
        <time>2021-05-22T10:48:31Z</time>
      </trkpt>
      <trkpt lat="47.83105" lon="7.16065">
        <ele>497.39999389648</ele>
        <time>2021-05-22T10:48:33Z</time>
      </trkpt>
      <trkpt lat="47.83108" lon="7.16061">
        <ele>497.60000610352</ele>
        <time>2021-05-22T10:48:35Z</time>
      </trkpt>
      <trkpt lat="47.83114" lon="7.1605">
        <ele>498.20001220703</ele>
        <time>2021-05-22T10:48:38Z</time>
      </trkpt>
      <trkpt lat="47.83121" lon="7.16036">
        <ele>498.39999389648</ele>
        <time>2021-05-22T10:48:41Z</time>
      </trkpt>
      <trkpt lat="47.83125" lon="7.16027">
        <ele>499.39999389648</ele>
        <time>2021-05-22T10:48:43Z</time>
      </trkpt>
      <trkpt lat="47.83134" lon="7.16012">
        <ele>500.60000610352</ele>
        <time>2021-05-22T10:48:47Z</time>
      </trkpt>
      <trkpt lat="47.83144" lon="7.15994">
        <ele>501.60000610352</ele>
        <time>2021-05-22T10:48:52Z</time>
      </trkpt>
      <trkpt lat="47.83147" lon="7.1599">
        <ele>501.60000610352</ele>
        <time>2021-05-22T10:48:53Z</time>
      </trkpt>
      <trkpt lat="47.83157" lon="7.15979">
        <ele>502</ele>
        <time>2021-05-22T10:48:57Z</time>
      </trkpt>
      <trkpt lat="47.83161" lon="7.15973">
        <ele>502.79998779297</ele>
        <time>2021-05-22T10:48:59Z</time>
      </trkpt>
      <trkpt lat="47.83173" lon="7.15956">
        <ele>503.79998779297</ele>
        <time>2021-05-22T10:49:04Z</time>
      </trkpt>
      <trkpt lat="47.83175" lon="7.15953">
        <ele>504.20001220703</ele>
        <time>2021-05-22T10:49:05Z</time>
      </trkpt>
      <trkpt lat="47.83185" lon="7.15936">
        <ele>505.20001220703</ele>
        <time>2021-05-22T10:49:10Z</time>
      </trkpt>
      <trkpt lat="47.83193" lon="7.15924">
        <ele>506.20001220703</ele>
        <time>2021-05-22T10:49:14Z</time>
      </trkpt>
      <trkpt lat="47.83197" lon="7.15917">
        <ele>506.79998779297</ele>
        <time>2021-05-22T10:49:16Z</time>
      </trkpt>
      <trkpt lat="47.83199" lon="7.15915">
        <ele>506.79998779297</ele>
        <time>2021-05-22T10:49:17Z</time>
      </trkpt>
      <trkpt lat="47.83206" lon="7.15906">
        <ele>507.20001220703</ele>
        <time>2021-05-22T10:49:20Z</time>
      </trkpt>
      <trkpt lat="47.8321" lon="7.15902">
        <ele>507.39999389648</ele>
        <time>2021-05-22T10:49:22Z</time>
      </trkpt>
      <trkpt lat="47.83214" lon="7.15899">
        <ele>507.79998779297</ele>
        <time>2021-05-22T10:49:24Z</time>
      </trkpt>
      <trkpt lat="47.83216" lon="7.15896">
        <ele>508</ele>
        <time>2021-05-22T10:49:25Z</time>
      </trkpt>
      <trkpt lat="47.83225" lon="7.15884">
        <ele>508.60000610352</ele>
        <time>2021-05-22T10:49:29Z</time>
      </trkpt>
      <trkpt lat="47.83231" lon="7.15875">
        <ele>508.60000610352</ele>
        <time>2021-05-22T10:49:32Z</time>
      </trkpt>
      <trkpt lat="47.83241" lon="7.15861">
        <ele>509.20001220703</ele>
        <time>2021-05-22T10:49:37Z</time>
      </trkpt>
      <trkpt lat="47.83247" lon="7.15852">
        <ele>509.79998779297</ele>
        <time>2021-05-22T10:49:40Z</time>
      </trkpt>
      <trkpt lat="47.8325" lon="7.15848">
        <ele>510</ele>
        <time>2021-05-22T10:49:41Z</time>
      </trkpt>
      <trkpt lat="47.83261" lon="7.15826">
        <ele>511</ele>
        <time>2021-05-22T10:49:47Z</time>
      </trkpt>
      <trkpt lat="47.83272" lon="7.1581">
        <ele>512.20001220703</ele>
        <time>2021-05-22T10:49:52Z</time>
      </trkpt>
      <trkpt lat="47.83273" lon="7.15808">
        <ele>512.40002441406</ele>
        <time>2021-05-22T10:49:53Z</time>
      </trkpt>
      <trkpt lat="47.83283" lon="7.15793">
        <ele>513.40002441406</ele>
        <time>2021-05-22T10:49:58Z</time>
      </trkpt>
      <trkpt lat="47.83292" lon="7.15777">
        <ele>514.59997558594</ele>
        <time>2021-05-22T10:50:03Z</time>
      </trkpt>
      <trkpt lat="47.83299" lon="7.15763">
        <ele>515.40002441406</ele>
        <time>2021-05-22T10:50:07Z</time>
      </trkpt>
      <trkpt lat="47.833" lon="7.15759">
        <ele>515.79998779297</ele>
        <time>2021-05-22T10:50:08Z</time>
      </trkpt>
      <trkpt lat="47.83309" lon="7.15742">
        <ele>517</ele>
        <time>2021-05-22T10:50:13Z</time>
      </trkpt>
      <trkpt lat="47.83315" lon="7.15729">
        <ele>517.59997558594</ele>
        <time>2021-05-22T10:50:17Z</time>
      </trkpt>
      <trkpt lat="47.83319" lon="7.15722">
        <ele>518</ele>
        <time>2021-05-22T10:50:19Z</time>
      </trkpt>
      <trkpt lat="47.83326" lon="7.15705">
        <ele>519.40002441406</ele>
        <time>2021-05-22T10:50:24Z</time>
      </trkpt>
      <trkpt lat="47.8333" lon="7.15699">
        <ele>519.59997558594</ele>
        <time>2021-05-22T10:50:26Z</time>
      </trkpt>
      <trkpt lat="47.83334" lon="7.15693">
        <ele>520.40002441406</ele>
        <time>2021-05-22T10:50:29Z</time>
      </trkpt>
      <trkpt lat="47.83337" lon="7.15687">
        <ele>520.79998779297</ele>
        <time>2021-05-22T10:50:31Z</time>
      </trkpt>
      <trkpt lat="47.83339" lon="7.15682">
        <ele>521.40002441406</ele>
        <time>2021-05-22T10:50:33Z</time>
      </trkpt>
      <trkpt lat="47.83344" lon="7.15676">
        <ele>522.40002441406</ele>
        <time>2021-05-22T10:50:36Z</time>
      </trkpt>
      <trkpt lat="47.83345" lon="7.15674">
        <ele>522.59997558594</ele>
        <time>2021-05-22T10:50:37Z</time>
      </trkpt>
      <trkpt lat="47.83347" lon="7.15669">
        <ele>523</ele>
        <time>2021-05-22T10:50:39Z</time>
      </trkpt>
      <trkpt lat="47.83349" lon="7.15667">
        <ele>523.20001220703</ele>
        <time>2021-05-22T10:50:40Z</time>
      </trkpt>
      <trkpt lat="47.8335" lon="7.15663">
        <ele>523.79998779297</ele>
        <time>2021-05-22T10:50:41Z</time>
      </trkpt>
      <trkpt lat="47.83353" lon="7.15654">
        <ele>524.59997558594</ele>
        <time>2021-05-22T10:50:44Z</time>
      </trkpt>
      <trkpt lat="47.83355" lon="7.15651">
        <ele>524.79998779297</ele>
        <time>2021-05-22T10:50:45Z</time>
      </trkpt>
      <trkpt lat="47.83356" lon="7.15649">
        <ele>525</ele>
        <time>2021-05-22T10:50:46Z</time>
      </trkpt>
      <trkpt lat="47.83358" lon="7.15643">
        <ele>525.40002441406</ele>
        <time>2021-05-22T10:50:48Z</time>
      </trkpt>
      <trkpt lat="47.83359" lon="7.1564">
        <ele>525.59997558594</ele>
        <time>2021-05-22T10:50:49Z</time>
      </trkpt>
      <trkpt lat="47.83362" lon="7.15632">
        <ele>526</ele>
        <time>2021-05-22T10:50:51Z</time>
      </trkpt>
      <trkpt lat="47.83368" lon="7.15615">
        <ele>526.79998779297</ele>
        <time>2021-05-22T10:50:55Z</time>
      </trkpt>
      <trkpt lat="47.8337" lon="7.15611">
        <ele>527</ele>
        <time>2021-05-22T10:50:56Z</time>
      </trkpt>
      <trkpt lat="47.83377" lon="7.1559">
        <ele>527.79998779297</ele>
        <time>2021-05-22T10:51:01Z</time>
      </trkpt>
      <trkpt lat="47.83378" lon="7.15579">
        <ele>528.40002441406</ele>
        <time>2021-05-22T10:51:03Z</time>
      </trkpt>
      <trkpt lat="47.8338" lon="7.15575">
        <ele>529</ele>
        <time>2021-05-22T10:51:04Z</time>
      </trkpt>
      <trkpt lat="47.83383" lon="7.15566">
        <ele>529.40002441406</ele>
        <time>2021-05-22T10:51:06Z</time>
      </trkpt>
      <trkpt lat="47.83387" lon="7.15556">
        <ele>529.79998779297</ele>
        <time>2021-05-22T10:51:08Z</time>
      </trkpt>
      <trkpt lat="47.83396" lon="7.15535">
        <ele>530.59997558594</ele>
        <time>2021-05-22T10:51:13Z</time>
      </trkpt>
      <trkpt lat="47.83398" lon="7.15532">
        <ele>530.79998779297</ele>
        <time>2021-05-22T10:51:14Z</time>
      </trkpt>
      <trkpt lat="47.83403" lon="7.15515">
        <ele>531.59997558594</ele>
        <time>2021-05-22T10:51:19Z</time>
      </trkpt>
      <trkpt lat="47.83405" lon="7.15512">
        <ele>532</ele>
        <time>2021-05-22T10:51:20Z</time>
      </trkpt>
      <trkpt lat="47.83413" lon="7.15492">
        <ele>533</ele>
        <time>2021-05-22T10:51:26Z</time>
      </trkpt>
      <trkpt lat="47.83415" lon="7.1549">
        <ele>533.20001220703</ele>
        <time>2021-05-22T10:51:27Z</time>
      </trkpt>
      <trkpt lat="47.8342" lon="7.15478">
        <ele>534.20001220703</ele>
        <time>2021-05-22T10:51:31Z</time>
      </trkpt>
      <trkpt lat="47.83429" lon="7.15459">
        <ele>535.20001220703</ele>
        <time>2021-05-22T10:51:37Z</time>
      </trkpt>
      <trkpt lat="47.83435" lon="7.15445">
        <ele>536.40002441406</ele>
        <time>2021-05-22T10:51:41Z</time>
      </trkpt>
      <trkpt lat="47.83438" lon="7.15438">
        <ele>536.79998779297</ele>
        <time>2021-05-22T10:51:43Z</time>
      </trkpt>
      <trkpt lat="47.83444" lon="7.15424">
        <ele>537.40002441406</ele>
        <time>2021-05-22T10:51:47Z</time>
      </trkpt>
      <trkpt lat="47.8345" lon="7.15414">
        <ele>538.20001220703</ele>
        <time>2021-05-22T10:51:51Z</time>
      </trkpt>
      <trkpt lat="47.83452" lon="7.1541">
        <ele>538.40002441406</ele>
        <time>2021-05-22T10:51:52Z</time>
      </trkpt>
      <trkpt lat="47.83459" lon="7.15396">
        <ele>539.20001220703</ele>
        <time>2021-05-22T10:51:56Z</time>
      </trkpt>
      <trkpt lat="47.83461" lon="7.15394">
        <ele>539.40002441406</ele>
        <time>2021-05-22T10:51:57Z</time>
      </trkpt>
      <trkpt lat="47.83463" lon="7.15375">
        <ele>540</ele>
        <time>2021-05-22T10:52:01Z</time>
      </trkpt>
      <trkpt lat="47.83465" lon="7.15359">
        <ele>540.40002441406</ele>
        <time>2021-05-22T10:52:04Z</time>
      </trkpt>
      <trkpt lat="47.83472" lon="7.15345">
        <ele>541</ele>
        <time>2021-05-22T10:52:08Z</time>
      </trkpt>
      <trkpt lat="47.83483" lon="7.15338">
        <ele>541.40002441406</ele>
        <time>2021-05-22T10:52:12Z</time>
      </trkpt>
      <trkpt lat="47.83486" lon="7.15339">
        <ele>541.59997558594</ele>
        <time>2021-05-22T10:52:13Z</time>
      </trkpt>
      <trkpt lat="47.83491" lon="7.15348">
        <ele>542</ele>
        <time>2021-05-22T10:52:16Z</time>
      </trkpt>
      <trkpt lat="47.83495" lon="7.15364">
        <ele>542.79998779297</ele>
        <time>2021-05-22T10:52:20Z</time>
      </trkpt>
      <trkpt lat="47.83496" lon="7.15372">
        <ele>543.20001220703</ele>
        <time>2021-05-22T10:52:22Z</time>
      </trkpt>
      <trkpt lat="47.83497" lon="7.15376">
        <ele>543.40002441406</ele>
        <time>2021-05-22T10:52:23Z</time>
      </trkpt>
      <trkpt lat="47.83499" lon="7.15388">
        <ele>543.79998779297</ele>
        <time>2021-05-22T10:52:26Z</time>
      </trkpt>
      <trkpt lat="47.83502" lon="7.15399">
        <ele>544.40002441406</ele>
        <time>2021-05-22T10:52:29Z</time>
      </trkpt>
      <trkpt lat="47.83505" lon="7.1541">
        <ele>545</ele>
        <time>2021-05-22T10:52:32Z</time>
      </trkpt>
      <trkpt lat="47.83508" lon="7.15417">
        <ele>545.79998779297</ele>
        <time>2021-05-22T10:52:34Z</time>
      </trkpt>
      <trkpt lat="47.8351" lon="7.15426">
        <ele>546.20001220703</ele>
        <time>2021-05-22T10:52:37Z</time>
      </trkpt>
      <trkpt lat="47.83515" lon="7.15438">
        <ele>547</ele>
        <time>2021-05-22T10:52:41Z</time>
      </trkpt>
      <trkpt lat="47.83517" lon="7.15444">
        <ele>547.40002441406</ele>
        <time>2021-05-22T10:52:43Z</time>
      </trkpt>
      <trkpt lat="47.83526" lon="7.15458">
        <ele>548.59997558594</ele>
        <time>2021-05-22T10:52:48Z</time>
      </trkpt>
      <trkpt lat="47.83543" lon="7.15481">
        <ele>549.79998779297</ele>
        <time>2021-05-22T10:52:56Z</time>
      </trkpt>
      <trkpt lat="47.83546" lon="7.15484">
        <ele>550</ele>
        <time>2021-05-22T10:52:57Z</time>
      </trkpt>
      <trkpt lat="47.83554" lon="7.15495">
        <ele>551</ele>
        <time>2021-05-22T10:53:01Z</time>
      </trkpt>
      <trkpt lat="47.8356" lon="7.15503">
        <ele>551.59997558594</ele>
        <time>2021-05-22T10:53:04Z</time>
      </trkpt>
      <trkpt lat="47.83561" lon="7.15505">
        <ele>552</ele>
        <time>2021-05-22T10:53:05Z</time>
      </trkpt>
      <trkpt lat="47.8357" lon="7.15517">
        <ele>553.20001220703</ele>
        <time>2021-05-22T10:53:10Z</time>
      </trkpt>
      <trkpt lat="47.83576" lon="7.15524">
        <ele>554.20001220703</ele>
        <time>2021-05-22T10:53:13Z</time>
      </trkpt>
      <trkpt lat="47.83585" lon="7.15535">
        <ele>555.20001220703</ele>
        <time>2021-05-22T10:53:17Z</time>
      </trkpt>
      <trkpt lat="47.83591" lon="7.15542">
        <ele>556.20001220703</ele>
        <time>2021-05-22T10:53:20Z</time>
      </trkpt>
      <trkpt lat="47.83593" lon="7.15544">
        <ele>556.20001220703</ele>
        <time>2021-05-22T10:53:21Z</time>
      </trkpt>
      <trkpt lat="47.83601" lon="7.15555">
        <ele>557.40002441406</ele>
        <time>2021-05-22T10:53:25Z</time>
      </trkpt>
      <trkpt lat="47.83604" lon="7.1556">
        <ele>558</ele>
        <time>2021-05-22T10:53:27Z</time>
      </trkpt>
      <trkpt lat="47.83607" lon="7.15565">
        <ele>558.59997558594</ele>
        <time>2021-05-22T10:53:29Z</time>
      </trkpt>
      <trkpt lat="47.83613" lon="7.15573">
        <ele>559.59997558594</ele>
        <time>2021-05-22T10:53:32Z</time>
      </trkpt>
      <trkpt lat="47.83618" lon="7.15583">
        <ele>560.79998779297</ele>
        <time>2021-05-22T10:53:35Z</time>
      </trkpt>
      <trkpt lat="47.83627" lon="7.15597">
        <ele>562</ele>
        <time>2021-05-22T10:53:40Z</time>
      </trkpt>
      <trkpt lat="47.83628" lon="7.156">
        <ele>562.20001220703</ele>
        <time>2021-05-22T10:53:41Z</time>
      </trkpt>
      <trkpt lat="47.8364" lon="7.1562">
        <ele>562.79998779297</ele>
        <time>2021-05-22T10:53:48Z</time>
      </trkpt>
      <trkpt lat="47.83643" lon="7.15627">
        <ele>563.20001220703</ele>
        <time>2021-05-22T10:53:50Z</time>
      </trkpt>
      <trkpt lat="47.83649" lon="7.1564">
        <ele>564</ele>
        <time>2021-05-22T10:53:54Z</time>
      </trkpt>
      <trkpt lat="47.83652" lon="7.15647">
        <ele>564.20001220703</ele>
        <time>2021-05-22T10:53:56Z</time>
      </trkpt>
      <trkpt lat="47.83657" lon="7.15657">
        <ele>565.20001220703</ele>
        <time>2021-05-22T10:53:59Z</time>
      </trkpt>
      <trkpt lat="47.83662" lon="7.15668">
        <ele>565.79998779297</ele>
        <time>2021-05-22T10:54:02Z</time>
      </trkpt>
      <trkpt lat="47.83668" lon="7.15678">
        <ele>566.40002441406</ele>
        <time>2021-05-22T10:54:05Z</time>
      </trkpt>
      <trkpt lat="47.83674" lon="7.1569">
        <ele>566.79998779297</ele>
        <time>2021-05-22T10:54:08Z</time>
      </trkpt>
      <trkpt lat="47.83679" lon="7.15698">
        <ele>567.40002441406</ele>
        <time>2021-05-22T10:54:12Z</time>
      </trkpt>
      <trkpt lat="47.8368" lon="7.15701">
        <ele>567.59997558594</ele>
        <time>2021-05-22T10:54:13Z</time>
      </trkpt>
      <trkpt lat="47.83694" lon="7.1571">
        <ele>568.40002441406</ele>
        <time>2021-05-22T10:54:18Z</time>
      </trkpt>
      <trkpt lat="47.83696" lon="7.15711">
        <ele>568.40002441406</ele>
        <time>2021-05-22T10:54:19Z</time>
      </trkpt>
      <trkpt lat="47.83711" lon="7.1571">
        <ele>569.59997558594</ele>
        <time>2021-05-22T10:54:24Z</time>
      </trkpt>
      <trkpt lat="47.83716" lon="7.15707">
        <ele>570.20001220703</ele>
        <time>2021-05-22T10:54:26Z</time>
      </trkpt>
      <trkpt lat="47.83718" lon="7.15705">
        <ele>570.59997558594</ele>
        <time>2021-05-22T10:54:27Z</time>
      </trkpt>
      <trkpt lat="47.83731" lon="7.15688">
        <ele>571.79998779297</ele>
        <time>2021-05-22T10:54:33Z</time>
      </trkpt>
      <trkpt lat="47.83741" lon="7.1567">
        <ele>572.79998779297</ele>
        <time>2021-05-22T10:54:39Z</time>
      </trkpt>
      <trkpt lat="47.83748" lon="7.15662">
        <ele>573.79998779297</ele>
        <time>2021-05-22T10:54:43Z</time>
      </trkpt>
      <trkpt lat="47.83753" lon="7.15656">
        <ele>575</ele>
        <time>2021-05-22T10:54:46Z</time>
      </trkpt>
      <trkpt lat="47.83757" lon="7.15653">
        <ele>575.79998779297</ele>
        <time>2021-05-22T10:54:48Z</time>
      </trkpt>
      <trkpt lat="47.83761" lon="7.1565">
        <ele>576</ele>
        <time>2021-05-22T10:54:50Z</time>
      </trkpt>
      <trkpt lat="47.83774" lon="7.15644">
        <ele>577.20001220703</ele>
        <time>2021-05-22T10:54:55Z</time>
      </trkpt>
      <trkpt lat="47.83777" lon="7.15643">
        <ele>577.59997558594</ele>
        <time>2021-05-22T10:54:56Z</time>
      </trkpt>
      <trkpt lat="47.83787" lon="7.15645">
        <ele>578.40002441406</ele>
        <time>2021-05-22T10:55:00Z</time>
      </trkpt>
      <trkpt lat="47.83793" lon="7.15649">
        <ele>578.59997558594</ele>
        <time>2021-05-22T10:55:02Z</time>
      </trkpt>
      <trkpt lat="47.83804" lon="7.15656">
        <ele>579.40002441406</ele>
        <time>2021-05-22T10:55:06Z</time>
      </trkpt>
      <trkpt lat="47.83811" lon="7.15664">
        <ele>580</ele>
        <time>2021-05-22T10:55:09Z</time>
      </trkpt>
      <trkpt lat="47.83818" lon="7.15673">
        <ele>580.40002441406</ele>
        <time>2021-05-22T10:55:12Z</time>
      </trkpt>
      <trkpt lat="47.83823" lon="7.15679">
        <ele>581.20001220703</ele>
        <time>2021-05-22T10:55:14Z</time>
      </trkpt>
      <trkpt lat="47.83826" lon="7.15682">
        <ele>581.59997558594</ele>
        <time>2021-05-22T10:55:15Z</time>
      </trkpt>
      <trkpt lat="47.83838" lon="7.15704">
        <ele>582.40002441406</ele>
        <time>2021-05-22T10:55:21Z</time>
      </trkpt>
      <trkpt lat="47.83841" lon="7.15706">
        <ele>582.79998779297</ele>
        <time>2021-05-22T10:55:22Z</time>
      </trkpt>
      <trkpt lat="47.83852" lon="7.15722">
        <ele>583.79998779297</ele>
        <time>2021-05-22T10:55:27Z</time>
      </trkpt>
      <trkpt lat="47.83855" lon="7.15724">
        <ele>584</ele>
        <time>2021-05-22T10:55:28Z</time>
      </trkpt>
      <trkpt lat="47.8387" lon="7.15729">
        <ele>584.59997558594</ele>
        <time>2021-05-22T10:55:33Z</time>
      </trkpt>
      <trkpt lat="47.83878" lon="7.15722">
        <ele>585.20001220703</ele>
        <time>2021-05-22T10:55:36Z</time>
      </trkpt>
      <trkpt lat="47.83879" lon="7.15717">
        <ele>585.40002441406</ele>
        <time>2021-05-22T10:55:37Z</time>
      </trkpt>
      <trkpt lat="47.8388" lon="7.15703">
        <ele>586.20001220703</ele>
        <time>2021-05-22T10:55:40Z</time>
      </trkpt>
      <trkpt lat="47.83878" lon="7.15698">
        <ele>586.40002441406</ele>
        <time>2021-05-22T10:55:41Z</time>
      </trkpt>
      <trkpt lat="47.83866" lon="7.15675">
        <ele>587</ele>
        <time>2021-05-22T10:55:47Z</time>
      </trkpt>
      <trkpt lat="47.83853" lon="7.15655">
        <ele>587.20001220703</ele>
        <time>2021-05-22T10:55:54Z</time>
      </trkpt>
      <trkpt lat="47.83852" lon="7.15653">
        <ele>587.20001220703</ele>
        <time>2021-05-22T10:55:55Z</time>
      </trkpt>
      <trkpt lat="47.83848" lon="7.15644">
        <ele>588.20001220703</ele>
        <time>2021-05-22T10:55:59Z</time>
      </trkpt>
      <trkpt lat="47.83847" lon="7.15639">
        <ele>589</ele>
        <time>2021-05-22T10:56:01Z</time>
      </trkpt>
      <trkpt lat="47.83846" lon="7.15633">
        <ele>589.40002441406</ele>
        <time>2021-05-22T10:56:03Z</time>
      </trkpt>
      <trkpt lat="47.83842" lon="7.15622">
        <ele>590</ele>
        <time>2021-05-22T10:56:07Z</time>
      </trkpt>
      <trkpt lat="47.83842" lon="7.15618">
        <ele>590.20001220703</ele>
        <time>2021-05-22T10:56:08Z</time>
      </trkpt>
      <trkpt lat="47.83842" lon="7.15615">
        <ele>590.40002441406</ele>
        <time>2021-05-22T10:56:09Z</time>
      </trkpt>
      <trkpt lat="47.83843" lon="7.15599">
        <ele>591.59997558594</ele>
        <time>2021-05-22T10:56:14Z</time>
      </trkpt>
      <trkpt lat="47.83842" lon="7.15586">
        <ele>592.59997558594</ele>
        <time>2021-05-22T10:56:17Z</time>
      </trkpt>
      <trkpt lat="47.8384" lon="7.15563">
        <ele>593.79998779297</ele>
        <time>2021-05-22T10:56:21Z</time>
      </trkpt>
      <trkpt lat="47.83839" lon="7.15549">
        <ele>594.59997558594</ele>
        <time>2021-05-22T10:56:24Z</time>
      </trkpt>
      <trkpt lat="47.8384" lon="7.15547">
        <ele>594.79998779297</ele>
        <time>2021-05-22T10:56:25Z</time>
      </trkpt>
      <trkpt lat="47.83843" lon="7.15537">
        <ele>595.79998779297</ele>
        <time>2021-05-22T10:56:28Z</time>
      </trkpt>
      <trkpt lat="47.83844" lon="7.15533">
        <ele>595.79998779297</ele>
        <time>2021-05-22T10:56:29Z</time>
      </trkpt>
      <trkpt lat="47.83845" lon="7.15528">
        <ele>596</ele>
        <time>2021-05-22T10:56:30Z</time>
      </trkpt>
      <trkpt lat="47.83846" lon="7.15516">
        <ele>596.40002441406</ele>
        <time>2021-05-22T10:56:33Z</time>
      </trkpt>
      <trkpt lat="47.83845" lon="7.15508">
        <ele>596.79998779297</ele>
        <time>2021-05-22T10:56:35Z</time>
      </trkpt>
      <trkpt lat="47.83843" lon="7.15504">
        <ele>597</ele>
        <time>2021-05-22T10:56:36Z</time>
      </trkpt>
      <trkpt lat="47.83845" lon="7.15495">
        <ele>598.20001220703</ele>
        <time>2021-05-22T10:56:39Z</time>
      </trkpt>
      <trkpt lat="47.83846" lon="7.15487">
        <ele>599</ele>
        <time>2021-05-22T10:56:42Z</time>
      </trkpt>
      <trkpt lat="47.83847" lon="7.15486">
        <ele>599.40002441406</ele>
        <time>2021-05-22T10:56:43Z</time>
      </trkpt>
      <trkpt lat="47.83846" lon="7.15469">
        <ele>600</ele>
        <time>2021-05-22T10:56:47Z</time>
      </trkpt>
      <trkpt lat="47.83844" lon="7.15465">
        <ele>600.20001220703</ele>
        <time>2021-05-22T10:56:48Z</time>
      </trkpt>
      <trkpt lat="47.83841" lon="7.15451">
        <ele>601.59997558594</ele>
        <time>2021-05-22T10:56:52Z</time>
      </trkpt>
      <trkpt lat="47.83838" lon="7.15445">
        <ele>602</ele>
        <time>2021-05-22T10:56:54Z</time>
      </trkpt>
      <trkpt lat="47.83835" lon="7.15436">
        <ele>602.59997558594</ele>
        <time>2021-05-22T10:56:56Z</time>
      </trkpt>
      <trkpt lat="47.83829" lon="7.15423">
        <ele>603.79998779297</ele>
        <time>2021-05-22T10:57:00Z</time>
      </trkpt>
      <trkpt lat="47.83829" lon="7.15419">
        <ele>604.20001220703</ele>
        <time>2021-05-22T10:57:01Z</time>
      </trkpt>
      <trkpt lat="47.83823" lon="7.15403">
        <ele>605</ele>
        <time>2021-05-22T10:57:06Z</time>
      </trkpt>
      <trkpt lat="47.83822" lon="7.154">
        <ele>605.20001220703</ele>
        <time>2021-05-22T10:57:07Z</time>
      </trkpt>
      <trkpt lat="47.83819" lon="7.15393">
        <ele>605.59997558594</ele>
        <time>2021-05-22T10:57:09Z</time>
      </trkpt>
      <trkpt lat="47.83818" lon="7.1539">
        <ele>606</ele>
        <time>2021-05-22T10:57:10Z</time>
      </trkpt>
      <trkpt lat="47.83818" lon="7.15388">
        <ele>606.20001220703</ele>
        <time>2021-05-22T10:57:11Z</time>
      </trkpt>
      <trkpt lat="47.83813" lon="7.15375">
        <ele>606.59997558594</ele>
        <time>2021-05-22T10:57:14Z</time>
      </trkpt>
      <trkpt lat="47.83812" lon="7.15371">
        <ele>607</ele>
        <time>2021-05-22T10:57:15Z</time>
      </trkpt>
      <trkpt lat="47.83808" lon="7.15364">
        <ele>607.40002441406</ele>
        <time>2021-05-22T10:57:17Z</time>
      </trkpt>
      <trkpt lat="47.83806" lon="7.15355">
        <ele>608</ele>
        <time>2021-05-22T10:57:20Z</time>
      </trkpt>
      <trkpt lat="47.83803" lon="7.15343">
        <ele>608.40002441406</ele>
        <time>2021-05-22T10:57:24Z</time>
      </trkpt>
      <trkpt lat="47.83799" lon="7.15333">
        <ele>609.40002441406</ele>
        <time>2021-05-22T10:57:27Z</time>
      </trkpt>
      <trkpt lat="47.83796" lon="7.15326">
        <ele>609.79998779297</ele>
        <time>2021-05-22T10:57:29Z</time>
      </trkpt>
      <trkpt lat="47.83792" lon="7.15315">
        <ele>611.20001220703</ele>
        <time>2021-05-22T10:57:32Z</time>
      </trkpt>
      <trkpt lat="47.83791" lon="7.15308">
        <ele>611.79998779297</ele>
        <time>2021-05-22T10:57:34Z</time>
      </trkpt>
      <trkpt lat="47.83789" lon="7.153">
        <ele>612.20001220703</ele>
        <time>2021-05-22T10:57:37Z</time>
      </trkpt>
      <trkpt lat="47.8379" lon="7.15294">
        <ele>612.79998779297</ele>
        <time>2021-05-22T10:57:39Z</time>
      </trkpt>
      <trkpt lat="47.83783" lon="7.15275">
        <ele>613.40002441406</ele>
        <time>2021-05-22T10:57:45Z</time>
      </trkpt>
      <trkpt lat="47.83783" lon="7.15269">
        <ele>613.59997558594</ele>
        <time>2021-05-22T10:57:47Z</time>
      </trkpt>
      <trkpt lat="47.83783" lon="7.15263">
        <ele>614.40002441406</ele>
        <time>2021-05-22T10:57:49Z</time>
      </trkpt>
      <trkpt lat="47.83783" lon="7.15256">
        <ele>614.20001220703</ele>
        <time>2021-05-22T10:57:51Z</time>
      </trkpt>
      <trkpt lat="47.83783" lon="7.15253">
        <ele>614.59997558594</ele>
        <time>2021-05-22T10:57:52Z</time>
      </trkpt>
      <trkpt lat="47.83783" lon="7.15244">
        <ele>615.59997558594</ele>
        <time>2021-05-22T10:57:55Z</time>
      </trkpt>
      <trkpt lat="47.83784" lon="7.15225">
        <ele>616.79998779297</ele>
        <time>2021-05-22T10:58:01Z</time>
      </trkpt>
      <trkpt lat="47.83785" lon="7.15204">
        <ele>617.79998779297</ele>
        <time>2021-05-22T10:58:07Z</time>
      </trkpt>
      <trkpt lat="47.83785" lon="7.15201">
        <ele>618.20001220703</ele>
        <time>2021-05-22T10:58:08Z</time>
      </trkpt>
      <trkpt lat="47.83785" lon="7.15186">
        <ele>619.20001220703</ele>
        <time>2021-05-22T10:58:12Z</time>
      </trkpt>
      <trkpt lat="47.83785" lon="7.15177">
        <ele>619.59997558594</ele>
        <time>2021-05-22T10:58:14Z</time>
      </trkpt>
      <trkpt lat="47.83787" lon="7.15151">
        <ele>620.20001220703</ele>
        <time>2021-05-22T10:58:21Z</time>
      </trkpt>
      <trkpt lat="47.83787" lon="7.15148">
        <ele>620.20001220703</ele>
        <time>2021-05-22T10:58:22Z</time>
      </trkpt>
      <trkpt lat="47.83787" lon="7.1512">
        <ele>620.79998779297</ele>
        <time>2021-05-22T10:58:28Z</time>
      </trkpt>
      <trkpt lat="47.83789" lon="7.15111">
        <ele>621.20001220703</ele>
        <time>2021-05-22T10:58:30Z</time>
      </trkpt>
      <trkpt lat="47.83795" lon="7.15101">
        <ele>621.59997558594</ele>
        <time>2021-05-22T10:58:33Z</time>
      </trkpt>
      <trkpt lat="47.83798" lon="7.15101">
        <ele>622</ele>
        <time>2021-05-22T10:58:34Z</time>
      </trkpt>
      <trkpt lat="47.83805" lon="7.15106">
        <ele>622.40002441406</ele>
        <time>2021-05-22T10:58:37Z</time>
      </trkpt>
      <trkpt lat="47.83807" lon="7.1511">
        <ele>622.59997558594</ele>
        <time>2021-05-22T10:58:38Z</time>
      </trkpt>
      <trkpt lat="47.83805" lon="7.15133">
        <ele>623</ele>
        <time>2021-05-22T10:58:43Z</time>
      </trkpt>
      <trkpt lat="47.83803" lon="7.15142">
        <ele>623.40002441406</ele>
        <time>2021-05-22T10:58:45Z</time>
      </trkpt>
      <trkpt lat="47.838" lon="7.15164">
        <ele>624.59997558594</ele>
        <time>2021-05-22T10:58:50Z</time>
      </trkpt>
      <trkpt lat="47.83799" lon="7.15173">
        <ele>625.20001220703</ele>
        <time>2021-05-22T10:58:52Z</time>
      </trkpt>
      <trkpt lat="47.838" lon="7.15177">
        <ele>625.79998779297</ele>
        <time>2021-05-22T10:58:53Z</time>
      </trkpt>
      <trkpt lat="47.83801" lon="7.1519">
        <ele>627</ele>
        <time>2021-05-22T10:58:56Z</time>
      </trkpt>
      <trkpt lat="47.83804" lon="7.15201">
        <ele>627.59997558594</ele>
        <time>2021-05-22T10:58:59Z</time>
      </trkpt>
      <trkpt lat="47.83808" lon="7.15212">
        <ele>628.20001220703</ele>
        <time>2021-05-22T10:59:02Z</time>
      </trkpt>
      <trkpt lat="47.83813" lon="7.15229">
        <ele>629.40002441406</ele>
        <time>2021-05-22T10:59:07Z</time>
      </trkpt>
      <trkpt lat="47.83821" lon="7.15243">
        <ele>630.59997558594</ele>
        <time>2021-05-22T10:59:12Z</time>
      </trkpt>
      <trkpt lat="47.83829" lon="7.15253">
        <ele>631.59997558594</ele>
        <time>2021-05-22T10:59:16Z</time>
      </trkpt>
      <trkpt lat="47.83834" lon="7.15259">
        <ele>632.20001220703</ele>
        <time>2021-05-22T10:59:19Z</time>
      </trkpt>
      <trkpt lat="47.83838" lon="7.15262">
        <ele>632.59997558594</ele>
        <time>2021-05-22T10:59:21Z</time>
      </trkpt>
      <trkpt lat="47.83841" lon="7.15267">
        <ele>633.79998779297</ele>
        <time>2021-05-22T10:59:23Z</time>
      </trkpt>
      <trkpt lat="47.83844" lon="7.15272">
        <ele>634</ele>
        <time>2021-05-22T10:59:25Z</time>
      </trkpt>
      <trkpt lat="47.83848" lon="7.15277">
        <ele>634.40002441406</ele>
        <time>2021-05-22T10:59:27Z</time>
      </trkpt>
      <trkpt lat="47.83852" lon="7.1528">
        <ele>635</ele>
        <time>2021-05-22T10:59:29Z</time>
      </trkpt>
      <trkpt lat="47.83854" lon="7.15282">
        <ele>635.40002441406</ele>
        <time>2021-05-22T10:59:30Z</time>
      </trkpt>
      <trkpt lat="47.8386" lon="7.15291">
        <ele>636</ele>
        <time>2021-05-22T10:59:33Z</time>
      </trkpt>
      <trkpt lat="47.83862" lon="7.15293">
        <ele>636.40002441406</ele>
        <time>2021-05-22T10:59:34Z</time>
      </trkpt>
      <trkpt lat="47.83863" lon="7.15294">
        <ele>636.59997558594</ele>
        <time>2021-05-22T10:59:35Z</time>
      </trkpt>
      <trkpt lat="47.83866" lon="7.15296">
        <ele>637.40002441406</ele>
        <time>2021-05-22T10:59:37Z</time>
      </trkpt>
      <trkpt lat="47.83876" lon="7.15304">
        <ele>638.40002441406</ele>
        <time>2021-05-22T10:59:41Z</time>
      </trkpt>
      <trkpt lat="47.83879" lon="7.15308">
        <ele>639</ele>
        <time>2021-05-22T10:59:43Z</time>
      </trkpt>
      <trkpt lat="47.83881" lon="7.1531">
        <ele>639.59997558594</ele>
        <time>2021-05-22T10:59:45Z</time>
      </trkpt>
      <trkpt lat="47.83889" lon="7.15317">
        <ele>640.59997558594</ele>
        <time>2021-05-22T10:59:48Z</time>
      </trkpt>
      <trkpt lat="47.83892" lon="7.15318">
        <ele>640.79998779297</ele>
        <time>2021-05-22T10:59:49Z</time>
      </trkpt>
      <trkpt lat="47.83901" lon="7.15324">
        <ele>641.79998779297</ele>
        <time>2021-05-22T10:59:53Z</time>
      </trkpt>
      <trkpt lat="47.83912" lon="7.15331">
        <ele>642.79998779297</ele>
        <time>2021-05-22T10:59:58Z</time>
      </trkpt>
      <trkpt lat="47.83915" lon="7.15332">
        <ele>642.79998779297</ele>
        <time>2021-05-22T10:59:59Z</time>
      </trkpt>
      <trkpt lat="47.83925" lon="7.15326">
        <ele>644</ele>
        <time>2021-05-22T11:00:02Z</time>
      </trkpt>
      <trkpt lat="47.83934" lon="7.15323">
        <ele>645</ele>
        <time>2021-05-22T11:00:06Z</time>
      </trkpt>
      <trkpt lat="47.83936" lon="7.15322">
        <ele>645.59997558594</ele>
        <time>2021-05-22T11:00:07Z</time>
      </trkpt>
      <trkpt lat="47.83947" lon="7.15312">
        <ele>646.59997558594</ele>
        <time>2021-05-22T11:00:11Z</time>
      </trkpt>
      <trkpt lat="47.8395" lon="7.15308">
        <ele>647</ele>
        <time>2021-05-22T11:00:13Z</time>
      </trkpt>
      <trkpt lat="47.83962" lon="7.15302">
        <ele>648</ele>
        <time>2021-05-22T11:00:18Z</time>
      </trkpt>
      <trkpt lat="47.83972" lon="7.15295">
        <ele>649.20001220703</ele>
        <time>2021-05-22T11:00:22Z</time>
      </trkpt>
      <trkpt lat="47.83984" lon="7.15294">
        <ele>650.20001220703</ele>
        <time>2021-05-22T11:00:27Z</time>
      </trkpt>
      <trkpt lat="47.83986" lon="7.15293">
        <ele>650.40002441406</ele>
        <time>2021-05-22T11:00:28Z</time>
      </trkpt>
      <trkpt lat="47.83988" lon="7.15294">
        <ele>650.59997558594</ele>
        <time>2021-05-22T11:00:29Z</time>
      </trkpt>
      <trkpt lat="47.83992" lon="7.15299">
        <ele>651.40002441406</ele>
        <time>2021-05-22T11:00:32Z</time>
      </trkpt>
      <trkpt lat="47.83994" lon="7.15304">
        <ele>651.59997558594</ele>
        <time>2021-05-22T11:00:34Z</time>
      </trkpt>
      <trkpt lat="47.84002" lon="7.15318">
        <ele>652.40002441406</ele>
        <time>2021-05-22T11:00:39Z</time>
      </trkpt>
      <trkpt lat="47.84003" lon="7.15321">
        <ele>652.40002441406</ele>
        <time>2021-05-22T11:00:40Z</time>
      </trkpt>
      <trkpt lat="47.84007" lon="7.15332">
        <ele>653.59997558594</ele>
        <time>2021-05-22T11:00:44Z</time>
      </trkpt>
      <trkpt lat="47.84008" lon="7.1534">
        <ele>654.59997558594</ele>
        <time>2021-05-22T11:00:47Z</time>
      </trkpt>
      <trkpt lat="47.84009" lon="7.15342">
        <ele>655.20001220703</ele>
        <time>2021-05-22T11:00:48Z</time>
      </trkpt>
      <trkpt lat="47.84012" lon="7.15352">
        <ele>656</ele>
        <time>2021-05-22T11:00:52Z</time>
      </trkpt>
      <trkpt lat="47.84016" lon="7.15362">
        <ele>656.40002441406</ele>
        <time>2021-05-22T11:00:55Z</time>
      </trkpt>
      <trkpt lat="47.84023" lon="7.15375">
        <ele>657.40002441406</ele>
        <time>2021-05-22T11:01:00Z</time>
      </trkpt>
      <trkpt lat="47.84024" lon="7.15378">
        <ele>657.40002441406</ele>
        <time>2021-05-22T11:01:01Z</time>
      </trkpt>
      <trkpt lat="47.8403" lon="7.15388">
        <ele>658.40002441406</ele>
        <time>2021-05-22T11:01:05Z</time>
      </trkpt>
      <trkpt lat="47.84032" lon="7.15393">
        <ele>659</ele>
        <time>2021-05-22T11:01:07Z</time>
      </trkpt>
      <trkpt lat="47.8404" lon="7.15401">
        <ele>659.59997558594</ele>
        <time>2021-05-22T11:01:11Z</time>
      </trkpt>
      <trkpt lat="47.84041" lon="7.15403">
        <ele>659.79998779297</ele>
        <time>2021-05-22T11:01:12Z</time>
      </trkpt>
      <trkpt lat="47.84043" lon="7.15406">
        <ele>659.79998779297</ele>
        <time>2021-05-22T11:01:13Z</time>
      </trkpt>
      <trkpt lat="47.84048" lon="7.15411">
        <ele>660.59997558594</ele>
        <time>2021-05-22T11:01:16Z</time>
      </trkpt>
      <trkpt lat="47.84052" lon="7.15415">
        <ele>661</ele>
        <time>2021-05-22T11:01:18Z</time>
      </trkpt>
      <trkpt lat="47.84057" lon="7.15422">
        <ele>661.79998779297</ele>
        <time>2021-05-22T11:01:21Z</time>
      </trkpt>
      <trkpt lat="47.84064" lon="7.15431">
        <ele>662.79998779297</ele>
        <time>2021-05-22T11:01:25Z</time>
      </trkpt>
      <trkpt lat="47.84065" lon="7.15433">
        <ele>663</ele>
        <time>2021-05-22T11:01:26Z</time>
      </trkpt>
      <trkpt lat="47.84072" lon="7.15444">
        <ele>664</ele>
        <time>2021-05-22T11:01:31Z</time>
      </trkpt>
      <trkpt lat="47.84074" lon="7.15447">
        <ele>664.40002441406</ele>
        <time>2021-05-22T11:01:32Z</time>
      </trkpt>
      <trkpt lat="47.8408" lon="7.15454">
        <ele>665.20001220703</ele>
        <time>2021-05-22T11:01:35Z</time>
      </trkpt>
      <trkpt lat="47.84086" lon="7.15461">
        <ele>666.20001220703</ele>
        <time>2021-05-22T11:01:38Z</time>
      </trkpt>
      <trkpt lat="47.84088" lon="7.15464">
        <ele>666.40002441406</ele>
        <time>2021-05-22T11:01:39Z</time>
      </trkpt>
      <trkpt lat="47.841" lon="7.15481">
        <ele>667.40002441406</ele>
        <time>2021-05-22T11:01:45Z</time>
      </trkpt>
      <trkpt lat="47.84104" lon="7.15486">
        <ele>667.79998779297</ele>
        <time>2021-05-22T11:01:47Z</time>
      </trkpt>
      <trkpt lat="47.84114" lon="7.15495">
        <ele>668.79998779297</ele>
        <time>2021-05-22T11:01:51Z</time>
      </trkpt>
      <trkpt lat="47.8412" lon="7.15499">
        <ele>669.20001220703</ele>
        <time>2021-05-22T11:01:53Z</time>
      </trkpt>
      <trkpt lat="47.84125" lon="7.15499">
        <ele>669.40002441406</ele>
        <time>2021-05-22T11:01:55Z</time>
      </trkpt>
      <trkpt lat="47.84132" lon="7.15492">
        <ele>669.79998779297</ele>
        <time>2021-05-22T11:01:58Z</time>
      </trkpt>
      <trkpt lat="47.84134" lon="7.1549">
        <ele>669.79998779297</ele>
        <time>2021-05-22T11:01:59Z</time>
      </trkpt>
      <trkpt lat="47.84137" lon="7.15475">
        <ele>670.59997558594</ele>
        <time>2021-05-22T11:02:02Z</time>
      </trkpt>
      <trkpt lat="47.84136" lon="7.15471">
        <ele>671</ele>
        <time>2021-05-22T11:02:03Z</time>
      </trkpt>
      <trkpt lat="47.8413" lon="7.15462">
        <ele>671.59997558594</ele>
        <time>2021-05-22T11:02:06Z</time>
      </trkpt>
      <trkpt lat="47.84112" lon="7.15447">
        <ele>672</ele>
        <time>2021-05-22T11:02:13Z</time>
      </trkpt>
      <trkpt lat="47.84102" lon="7.1544">
        <ele>673.40002441406</ele>
        <time>2021-05-22T11:02:17Z</time>
      </trkpt>
      <trkpt lat="47.84095" lon="7.15428">
        <ele>673.59997558594</ele>
        <time>2021-05-22T11:02:22Z</time>
      </trkpt>
      <trkpt lat="47.84088" lon="7.15408">
        <ele>674.20001220703</ele>
        <time>2021-05-22T11:02:28Z</time>
      </trkpt>
      <trkpt lat="47.84086" lon="7.15405">
        <ele>674.40002441406</ele>
        <time>2021-05-22T11:02:29Z</time>
      </trkpt>
      <trkpt lat="47.84085" lon="7.15402">
        <ele>674.59997558594</ele>
        <time>2021-05-22T11:02:30Z</time>
      </trkpt>
      <trkpt lat="47.84083" lon="7.15395">
        <ele>674.79998779297</ele>
        <time>2021-05-22T11:02:32Z</time>
      </trkpt>
      <trkpt lat="47.84082" lon="7.15383">
        <ele>675.40002441406</ele>
        <time>2021-05-22T11:02:35Z</time>
      </trkpt>
      <trkpt lat="47.8408" lon="7.15371">
        <ele>675.79998779297</ele>
        <time>2021-05-22T11:02:38Z</time>
      </trkpt>
      <trkpt lat="47.8408" lon="7.15364">
        <ele>675.79998779297</ele>
        <time>2021-05-22T11:02:40Z</time>
      </trkpt>
      <trkpt lat="47.84079" lon="7.15356">
        <ele>676</ele>
        <time>2021-05-22T11:02:42Z</time>
      </trkpt>
      <trkpt lat="47.84079" lon="7.15353">
        <ele>676.20001220703</ele>
        <time>2021-05-22T11:02:43Z</time>
      </trkpt>
      <trkpt lat="47.84077" lon="7.15345">
        <ele>676.40002441406</ele>
        <time>2021-05-22T11:02:45Z</time>
      </trkpt>
      <trkpt lat="47.84073" lon="7.15335">
        <ele>676.59997558594</ele>
        <time>2021-05-22T11:02:47Z</time>
      </trkpt>
      <trkpt lat="47.84075" lon="7.15327">
        <ele>676.79998779297</ele>
        <time>2021-05-22T11:02:49Z</time>
      </trkpt>
      <trkpt lat="47.84076" lon="7.1532">
        <ele>677.59997558594</ele>
        <time>2021-05-22T11:02:51Z</time>
      </trkpt>
      <trkpt lat="47.84076" lon="7.15308">
        <ele>678.79998779297</ele>
        <time>2021-05-22T11:02:54Z</time>
      </trkpt>
      <trkpt lat="47.84075" lon="7.153">
        <ele>679.79998779297</ele>
        <time>2021-05-22T11:02:56Z</time>
      </trkpt>
      <trkpt lat="47.84073" lon="7.15278">
        <ele>681</ele>
        <time>2021-05-22T11:03:00Z</time>
      </trkpt>
      <trkpt lat="47.84071" lon="7.15272">
        <ele>681.20001220703</ele>
        <time>2021-05-22T11:03:01Z</time>
      </trkpt>
      <trkpt lat="47.84065" lon="7.15249">
        <ele>681.59997558594</ele>
        <time>2021-05-22T11:03:06Z</time>
      </trkpt>
      <trkpt lat="47.84061" lon="7.1523">
        <ele>681.79998779297</ele>
        <time>2021-05-22T11:03:10Z</time>
      </trkpt>
      <trkpt lat="47.84063" lon="7.15219">
        <ele>681.79998779297</ele>
        <time>2021-05-22T11:03:12Z</time>
      </trkpt>
      <trkpt lat="47.84068" lon="7.15213">
        <ele>682</ele>
        <time>2021-05-22T11:03:14Z</time>
      </trkpt>
      <trkpt lat="47.84076" lon="7.15216">
        <ele>682.79998779297</ele>
        <time>2021-05-22T11:03:17Z</time>
      </trkpt>
      <trkpt lat="47.84077" lon="7.1522">
        <ele>683.20001220703</ele>
        <time>2021-05-22T11:03:18Z</time>
      </trkpt>
      <trkpt lat="47.8408" lon="7.15239">
        <ele>684.20001220703</ele>
        <time>2021-05-22T11:03:22Z</time>
      </trkpt>
      <trkpt lat="47.8408" lon="7.15243">
        <ele>684.40002441406</ele>
        <time>2021-05-22T11:03:23Z</time>
      </trkpt>
      <trkpt lat="47.84082" lon="7.15261">
        <ele>685.20001220703</ele>
        <time>2021-05-22T11:03:27Z</time>
      </trkpt>
      <trkpt lat="47.84086" lon="7.15275">
        <ele>686</ele>
        <time>2021-05-22T11:03:30Z</time>
      </trkpt>
      <trkpt lat="47.84087" lon="7.15278">
        <ele>686.79998779297</ele>
        <time>2021-05-22T11:03:31Z</time>
      </trkpt>
      <trkpt lat="47.84093" lon="7.15295">
        <ele>687.20001220703</ele>
        <time>2021-05-22T11:03:35Z</time>
      </trkpt>
      <trkpt lat="47.84096" lon="7.15303">
        <ele>687.59997558594</ele>
        <time>2021-05-22T11:03:37Z</time>
      </trkpt>
      <trkpt lat="47.84101" lon="7.15318">
        <ele>688.20001220703</ele>
        <time>2021-05-22T11:03:41Z</time>
      </trkpt>
      <trkpt lat="47.84105" lon="7.15347">
        <ele>688.79998779297</ele>
        <time>2021-05-22T11:03:47Z</time>
      </trkpt>
      <trkpt lat="47.84107" lon="7.15356">
        <ele>689.20001220703</ele>
        <time>2021-05-22T11:03:49Z</time>
      </trkpt>
      <trkpt lat="47.8411" lon="7.15373">
        <ele>690</ele>
        <time>2021-05-22T11:03:53Z</time>
      </trkpt>
      <trkpt lat="47.84114" lon="7.15385">
        <ele>690.59997558594</ele>
        <time>2021-05-22T11:03:56Z</time>
      </trkpt>
      <trkpt lat="47.84119" lon="7.1539">
        <ele>690.79998779297</ele>
        <time>2021-05-22T11:03:58Z</time>
      </trkpt>
      <trkpt lat="47.84125" lon="7.1539">
        <ele>691.20001220703</ele>
        <time>2021-05-22T11:04:00Z</time>
      </trkpt>
      <trkpt lat="47.84134" lon="7.15381">
        <ele>691.59997558594</ele>
        <time>2021-05-22T11:04:04Z</time>
      </trkpt>
      <trkpt lat="47.84134" lon="7.15357">
        <ele>692</ele>
        <time>2021-05-22T11:04:09Z</time>
      </trkpt>
      <trkpt lat="47.84133" lon="7.15353">
        <ele>692.40002441406</ele>
        <time>2021-05-22T11:04:10Z</time>
      </trkpt>
      <trkpt lat="47.84123" lon="7.15325">
        <ele>697.59997558594</ele>
        <time>2021-05-22T11:04:17Z</time>
      </trkpt>
      <trkpt lat="47.84122" lon="7.15321">
        <ele>693.40002441406</ele>
        <time>2021-05-22T11:04:18Z</time>
      </trkpt>
      <trkpt lat="47.84119" lon="7.153">
        <ele>694.59997558594</ele>
        <time>2021-05-22T11:04:23Z</time>
      </trkpt>
      <trkpt lat="47.84118" lon="7.15287">
        <ele>695.20001220703</ele>
        <time>2021-05-22T11:04:26Z</time>
      </trkpt>
      <trkpt lat="47.84117" lon="7.1528">
        <ele>695.79998779297</ele>
        <time>2021-05-22T11:04:28Z</time>
      </trkpt>
      <trkpt lat="47.84116" lon="7.15265">
        <ele>696.59997558594</ele>
        <time>2021-05-22T11:04:32Z</time>
      </trkpt>
      <trkpt lat="47.84116" lon="7.1526">
        <ele>696.79998779297</ele>
        <time>2021-05-22T11:04:33Z</time>
      </trkpt>
      <trkpt lat="47.84115" lon="7.15241">
        <ele>698</ele>
        <time>2021-05-22T11:04:37Z</time>
      </trkpt>
      <trkpt lat="47.84114" lon="7.15238">
        <ele>698.20001220703</ele>
        <time>2021-05-22T11:04:38Z</time>
      </trkpt>
      <trkpt lat="47.84113" lon="7.15224">
        <ele>699.20001220703</ele>
        <time>2021-05-22T11:04:42Z</time>
      </trkpt>
      <trkpt lat="47.84112" lon="7.1522">
        <ele>699.20001220703</ele>
        <time>2021-05-22T11:04:43Z</time>
      </trkpt>
      <trkpt lat="47.84111" lon="7.15217">
        <ele>699.20001220703</ele>
        <time>2021-05-22T11:04:44Z</time>
      </trkpt>
      <trkpt lat="47.84108" lon="7.15198">
        <ele>700.40002441406</ele>
        <time>2021-05-22T11:04:49Z</time>
      </trkpt>
      <trkpt lat="47.84107" lon="7.15187">
        <ele>701.40002441406</ele>
        <time>2021-05-22T11:04:52Z</time>
      </trkpt>
      <trkpt lat="47.84108" lon="7.15183">
        <ele>701.59997558594</ele>
        <time>2021-05-22T11:04:53Z</time>
      </trkpt>
      <trkpt lat="47.84106" lon="7.15173">
        <ele>702.59997558594</ele>
        <time>2021-05-22T11:04:56Z</time>
      </trkpt>
      <trkpt lat="47.84103" lon="7.15162">
        <ele>703.79998779297</ele>
        <time>2021-05-22T11:04:59Z</time>
      </trkpt>
      <trkpt lat="47.84103" lon="7.15149">
        <ele>704.20001220703</ele>
        <time>2021-05-22T11:05:02Z</time>
      </trkpt>
      <trkpt lat="47.84102" lon="7.15146">
        <ele>704.79998779297</ele>
        <time>2021-05-22T11:05:03Z</time>
      </trkpt>
      <trkpt lat="47.84101" lon="7.15143">
        <ele>705</ele>
        <time>2021-05-22T11:05:04Z</time>
      </trkpt>
      <trkpt lat="47.84098" lon="7.15135">
        <ele>706</ele>
        <time>2021-05-22T11:05:06Z</time>
      </trkpt>
      <trkpt lat="47.84097" lon="7.15131">
        <ele>706.40002441406</ele>
        <time>2021-05-22T11:05:07Z</time>
      </trkpt>
      <trkpt lat="47.84093" lon="7.15119">
        <ele>707</ele>
        <time>2021-05-22T11:05:10Z</time>
      </trkpt>
      <trkpt lat="47.8409" lon="7.15113">
        <ele>707.59997558594</ele>
        <time>2021-05-22T11:05:12Z</time>
      </trkpt>
      <trkpt lat="47.84089" lon="7.15107">
        <ele>708</ele>
        <time>2021-05-22T11:05:14Z</time>
      </trkpt>
      <trkpt lat="47.84082" lon="7.15098">
        <ele>709</ele>
        <time>2021-05-22T11:05:18Z</time>
      </trkpt>
      <trkpt lat="47.8408" lon="7.15096">
        <ele>709.40002441406</ele>
        <time>2021-05-22T11:05:19Z</time>
      </trkpt>
      <trkpt lat="47.8407" lon="7.15091">
        <ele>710.40002441406</ele>
        <time>2021-05-22T11:05:23Z</time>
      </trkpt>
      <trkpt lat="47.84067" lon="7.1509">
        <ele>710.59997558594</ele>
        <time>2021-05-22T11:05:24Z</time>
      </trkpt>
      <trkpt lat="47.84055" lon="7.15085">
        <ele>711.40002441406</ele>
        <time>2021-05-22T11:05:29Z</time>
      </trkpt>
      <trkpt lat="47.84048" lon="7.15082">
        <ele>712</ele>
        <time>2021-05-22T11:05:32Z</time>
      </trkpt>
      <trkpt lat="47.84042" lon="7.15078">
        <ele>712.59997558594</ele>
        <time>2021-05-22T11:05:35Z</time>
      </trkpt>
      <trkpt lat="47.84032" lon="7.15068">
        <ele>713.59997558594</ele>
        <time>2021-05-22T11:05:40Z</time>
      </trkpt>
      <trkpt lat="47.8403" lon="7.15066">
        <ele>713.59997558594</ele>
        <time>2021-05-22T11:05:41Z</time>
      </trkpt>
      <trkpt lat="47.84028" lon="7.15061">
        <ele>714.59997558594</ele>
        <time>2021-05-22T11:05:43Z</time>
      </trkpt>
      <trkpt lat="47.84025" lon="7.15051">
        <ele>715.59997558594</ele>
        <time>2021-05-22T11:05:46Z</time>
      </trkpt>
      <trkpt lat="47.84025" lon="7.15048">
        <ele>715.79998779297</ele>
        <time>2021-05-22T11:05:47Z</time>
      </trkpt>
      <trkpt lat="47.84024" lon="7.15034">
        <ele>717</ele>
        <time>2021-05-22T11:05:51Z</time>
      </trkpt>
      <trkpt lat="47.84025" lon="7.15026">
        <ele>717.40002441406</ele>
        <time>2021-05-22T11:05:53Z</time>
      </trkpt>
      <trkpt lat="47.8403" lon="7.15012">
        <ele>718.20001220703</ele>
        <time>2021-05-22T11:05:57Z</time>
      </trkpt>
      <trkpt lat="47.84032" lon="7.15001">
        <ele>718.79998779297</ele>
        <time>2021-05-22T11:06:00Z</time>
      </trkpt>
      <trkpt lat="47.84035" lon="7.14989">
        <ele>719.40002441406</ele>
        <time>2021-05-22T11:06:03Z</time>
      </trkpt>
      <trkpt lat="47.84038" lon="7.14975">
        <ele>720.40002441406</ele>
        <time>2021-05-22T11:06:07Z</time>
      </trkpt>
      <trkpt lat="47.8404" lon="7.14953">
        <ele>721.59997558594</ele>
        <time>2021-05-22T11:06:13Z</time>
      </trkpt>
      <trkpt lat="47.84048" lon="7.14927">
        <ele>722.59997558594</ele>
        <time>2021-05-22T11:06:21Z</time>
      </trkpt>
      <trkpt lat="47.84049" lon="7.14924">
        <ele>722.79998779297</ele>
        <time>2021-05-22T11:06:22Z</time>
      </trkpt>
      <trkpt lat="47.84056" lon="7.14905">
        <ele>723.79998779297</ele>
        <time>2021-05-22T11:06:28Z</time>
      </trkpt>
      <trkpt lat="47.84064" lon="7.14881">
        <ele>725</ele>
        <time>2021-05-22T11:06:36Z</time>
      </trkpt>
      <trkpt lat="47.84065" lon="7.14877">
        <ele>725</ele>
        <time>2021-05-22T11:06:37Z</time>
      </trkpt>
      <trkpt lat="47.84069" lon="7.14865">
        <ele>726.20001220703</ele>
        <time>2021-05-22T11:06:41Z</time>
      </trkpt>
      <trkpt lat="47.84072" lon="7.14855">
        <ele>727.40002441406</ele>
        <time>2021-05-22T11:06:44Z</time>
      </trkpt>
      <trkpt lat="47.84073" lon="7.14852">
        <ele>727.79998779297</ele>
        <time>2021-05-22T11:06:45Z</time>
      </trkpt>
      <trkpt lat="47.84075" lon="7.14841">
        <ele>728.40002441406</ele>
        <time>2021-05-22T11:06:48Z</time>
      </trkpt>
      <trkpt lat="47.84077" lon="7.14831">
        <ele>728.79998779297</ele>
        <time>2021-05-22T11:06:51Z</time>
      </trkpt>
      <trkpt lat="47.84079" lon="7.14823">
        <ele>729</ele>
        <time>2021-05-22T11:06:53Z</time>
      </trkpt>
      <trkpt lat="47.84082" lon="7.14816">
        <ele>729.40002441406</ele>
        <time>2021-05-22T11:06:55Z</time>
      </trkpt>
      <trkpt lat="47.84086" lon="7.14799">
        <ele>730.40002441406</ele>
        <time>2021-05-22T11:07:00Z</time>
      </trkpt>
      <trkpt lat="47.84087" lon="7.14795">
        <ele>730.59997558594</ele>
        <time>2021-05-22T11:07:01Z</time>
      </trkpt>
      <trkpt lat="47.84093" lon="7.14776">
        <ele>731.59997558594</ele>
        <time>2021-05-22T11:07:07Z</time>
      </trkpt>
      <trkpt lat="47.84094" lon="7.14773">
        <ele>731.79998779297</ele>
        <time>2021-05-22T11:07:08Z</time>
      </trkpt>
      <trkpt lat="47.841" lon="7.14758">
        <ele>733</ele>
        <time>2021-05-22T11:07:13Z</time>
      </trkpt>
      <trkpt lat="47.84107" lon="7.1474">
        <ele>733.79998779297</ele>
        <time>2021-05-22T11:07:19Z</time>
      </trkpt>
      <trkpt lat="47.8411" lon="7.14734">
        <ele>734</ele>
        <time>2021-05-22T11:07:21Z</time>
      </trkpt>
      <trkpt lat="47.84115" lon="7.14721">
        <ele>735.20001220703</ele>
        <time>2021-05-22T11:07:25Z</time>
      </trkpt>
      <trkpt lat="47.8412" lon="7.14709">
        <ele>736.20001220703</ele>
        <time>2021-05-22T11:07:29Z</time>
      </trkpt>
      <trkpt lat="47.84126" lon="7.14691">
        <ele>737.40002441406</ele>
        <time>2021-05-22T11:07:35Z</time>
      </trkpt>
      <trkpt lat="47.84132" lon="7.14668">
        <ele>738.59997558594</ele>
        <time>2021-05-22T11:07:41Z</time>
      </trkpt>
      <trkpt lat="47.84133" lon="7.14652">
        <ele>739.59997558594</ele>
        <time>2021-05-22T11:07:45Z</time>
      </trkpt>
      <trkpt lat="47.84134" lon="7.14641">
        <ele>740</ele>
        <time>2021-05-22T11:07:48Z</time>
      </trkpt>
      <trkpt lat="47.84132" lon="7.14623">
        <ele>741.20001220703</ele>
        <time>2021-05-22T11:07:52Z</time>
      </trkpt>
      <trkpt lat="47.84132" lon="7.14614">
        <ele>742.40002441406</ele>
        <time>2021-05-22T11:07:54Z</time>
      </trkpt>
      <trkpt lat="47.84132" lon="7.14609">
        <ele>742.79998779297</ele>
        <time>2021-05-22T11:07:55Z</time>
      </trkpt>
      <trkpt lat="47.8413" lon="7.14596">
        <ele>743.40002441406</ele>
        <time>2021-05-22T11:07:58Z</time>
      </trkpt>
      <trkpt lat="47.84127" lon="7.14582">
        <ele>744</ele>
        <time>2021-05-22T11:08:01Z</time>
      </trkpt>
      <trkpt lat="47.84127" lon="7.14568">
        <ele>744.40002441406</ele>
        <time>2021-05-22T11:08:04Z</time>
      </trkpt>
      <trkpt lat="47.84126" lon="7.14557">
        <ele>744.79998779297</ele>
        <time>2021-05-22T11:08:06Z</time>
      </trkpt>
      <trkpt lat="47.84124" lon="7.14545">
        <ele>745.40002441406</ele>
        <time>2021-05-22T11:08:09Z</time>
      </trkpt>
      <trkpt lat="47.84121" lon="7.14528">
        <ele>746.40002441406</ele>
        <time>2021-05-22T11:08:13Z</time>
      </trkpt>
      <trkpt lat="47.8411" lon="7.14508">
        <ele>747.59997558594</ele>
        <time>2021-05-22T11:08:18Z</time>
      </trkpt>
      <trkpt lat="47.84106" lon="7.14505">
        <ele>747.59997558594</ele>
        <time>2021-05-22T11:08:19Z</time>
      </trkpt>
      <trkpt lat="47.84083" lon="7.14489">
        <ele>747.79998779297</ele>
        <time>2021-05-22T11:08:26Z</time>
      </trkpt>
      <trkpt lat="47.84072" lon="7.14471">
        <ele>748</ele>
        <time>2021-05-22T11:08:31Z</time>
      </trkpt>
      <trkpt lat="47.84073" lon="7.14448">
        <ele>748.59997558594</ele>
        <time>2021-05-22T11:08:36Z</time>
      </trkpt>
      <trkpt lat="47.84074" lon="7.14443">
        <ele>748.79998779297</ele>
        <time>2021-05-22T11:08:37Z</time>
      </trkpt>
      <trkpt lat="47.84083" lon="7.14422">
        <ele>749.59997558594</ele>
        <time>2021-05-22T11:08:42Z</time>
      </trkpt>
      <trkpt lat="47.84085" lon="7.14418">
        <ele>749.79998779297</ele>
        <time>2021-05-22T11:08:43Z</time>
      </trkpt>
      <trkpt lat="47.84087" lon="7.14414">
        <ele>750</ele>
        <time>2021-05-22T11:08:44Z</time>
      </trkpt>
      <trkpt lat="47.84099" lon="7.14397">
        <ele>751</ele>
        <time>2021-05-22T11:08:49Z</time>
      </trkpt>
      <trkpt lat="47.84101" lon="7.14394">
        <ele>751</ele>
        <time>2021-05-22T11:08:50Z</time>
      </trkpt>
      <trkpt lat="47.8411" lon="7.14384">
        <ele>752.20001220703</ele>
        <time>2021-05-22T11:08:53Z</time>
      </trkpt>
      <trkpt lat="47.84121" lon="7.14371">
        <ele>753</ele>
        <time>2021-05-22T11:08:57Z</time>
      </trkpt>
      <trkpt lat="47.84124" lon="7.14368">
        <ele>753.20001220703</ele>
        <time>2021-05-22T11:08:58Z</time>
      </trkpt>
      <trkpt lat="47.84141" lon="7.14352">
        <ele>753.40002441406</ele>
        <time>2021-05-22T11:09:04Z</time>
      </trkpt>
      <trkpt lat="47.84158" lon="7.14339">
        <ele>753.59997558594</ele>
        <time>2021-05-22T11:09:10Z</time>
      </trkpt>
      <trkpt lat="47.84159" lon="7.14337">
        <ele>753.59997558594</ele>
        <time>2021-05-22T11:09:11Z</time>
      </trkpt>
      <trkpt lat="47.84164" lon="7.14334">
        <ele>754.40002441406</ele>
        <time>2021-05-22T11:09:13Z</time>
      </trkpt>
      <trkpt lat="47.84172" lon="7.14328">
        <ele>755.79998779297</ele>
        <time>2021-05-22T11:09:16Z</time>
      </trkpt>
      <trkpt lat="47.84174" lon="7.14327">
        <ele>756.20001220703</ele>
        <time>2021-05-22T11:09:17Z</time>
      </trkpt>
      <trkpt lat="47.84178" lon="7.14323">
        <ele>757.40002441406</ele>
        <time>2021-05-22T11:09:19Z</time>
      </trkpt>
      <trkpt lat="47.84183" lon="7.14318">
        <ele>758.59997558594</ele>
        <time>2021-05-22T11:09:22Z</time>
      </trkpt>
      <trkpt lat="47.84186" lon="7.14316">
        <ele>758.79998779297</ele>
        <time>2021-05-22T11:09:23Z</time>
      </trkpt>
      <trkpt lat="47.84193" lon="7.14308">
        <ele>759.59997558594</ele>
        <time>2021-05-22T11:09:26Z</time>
      </trkpt>
      <trkpt lat="47.84204" lon="7.14298">
        <ele>760.59997558594</ele>
        <time>2021-05-22T11:09:30Z</time>
      </trkpt>
      <trkpt lat="47.84215" lon="7.14284">
        <ele>761.59997558594</ele>
        <time>2021-05-22T11:09:35Z</time>
      </trkpt>
      <trkpt lat="47.84221" lon="7.14277">
        <ele>761.59997558594</ele>
        <time>2021-05-22T11:09:37Z</time>
      </trkpt>
      <trkpt lat="47.84236" lon="7.14261">
        <ele>762.20001220703</ele>
        <time>2021-05-22T11:09:42Z</time>
      </trkpt>
      <trkpt lat="47.84247" lon="7.14246">
        <ele>762.59997558594</ele>
        <time>2021-05-22T11:09:47Z</time>
      </trkpt>
      <trkpt lat="47.8425" lon="7.14241">
        <ele>762.79998779297</ele>
        <time>2021-05-22T11:09:49Z</time>
      </trkpt>
      <trkpt lat="47.84258" lon="7.14232">
        <ele>763.59997558594</ele>
        <time>2021-05-22T11:09:53Z</time>
      </trkpt>
      <trkpt lat="47.8426" lon="7.1423">
        <ele>764.20001220703</ele>
        <time>2021-05-22T11:09:54Z</time>
      </trkpt>
      <trkpt lat="47.84267" lon="7.14223">
        <ele>764.79998779297</ele>
        <time>2021-05-22T11:09:57Z</time>
      </trkpt>
      <trkpt lat="47.84269" lon="7.1422">
        <ele>765.20001220703</ele>
        <time>2021-05-22T11:09:58Z</time>
      </trkpt>
      <trkpt lat="47.84281" lon="7.14204">
        <ele>766</ele>
        <time>2021-05-22T11:10:05Z</time>
      </trkpt>
      <trkpt lat="47.84286" lon="7.14196">
        <ele>766.20001220703</ele>
        <time>2021-05-22T11:10:08Z</time>
      </trkpt>
      <trkpt lat="47.84299" lon="7.14179">
        <ele>767</ele>
        <time>2021-05-22T11:10:15Z</time>
      </trkpt>
      <trkpt lat="47.84301" lon="7.14177">
        <ele>767.20001220703</ele>
        <time>2021-05-22T11:10:16Z</time>
      </trkpt>
      <trkpt lat="47.8431" lon="7.14165">
        <ele>768.40002441406</ele>
        <time>2021-05-22T11:10:21Z</time>
      </trkpt>
      <trkpt lat="47.84314" lon="7.14161">
        <ele>769.20001220703</ele>
        <time>2021-05-22T11:10:23Z</time>
      </trkpt>
      <trkpt lat="47.84315" lon="7.14159">
        <ele>769.59997558594</ele>
        <time>2021-05-22T11:10:24Z</time>
      </trkpt>
      <trkpt lat="47.84321" lon="7.14152">
        <ele>770.79998779297</ele>
        <time>2021-05-22T11:10:27Z</time>
      </trkpt>
      <trkpt lat="47.84327" lon="7.14146">
        <ele>772</ele>
        <time>2021-05-22T11:10:30Z</time>
      </trkpt>
      <trkpt lat="47.8433" lon="7.14144">
        <ele>772.20001220703</ele>
        <time>2021-05-22T11:10:31Z</time>
      </trkpt>
      <trkpt lat="47.84338" lon="7.14137">
        <ele>773.20001220703</ele>
        <time>2021-05-22T11:10:35Z</time>
      </trkpt>
      <trkpt lat="47.8435" lon="7.14131">
        <ele>774.20001220703</ele>
        <time>2021-05-22T11:10:40Z</time>
      </trkpt>
      <trkpt lat="47.84361" lon="7.14128">
        <ele>775.40002441406</ele>
        <time>2021-05-22T11:10:45Z</time>
      </trkpt>
      <trkpt lat="47.84371" lon="7.14125">
        <ele>776.40002441406</ele>
        <time>2021-05-22T11:10:49Z</time>
      </trkpt>
      <trkpt lat="47.84373" lon="7.14125">
        <ele>776.40002441406</ele>
        <time>2021-05-22T11:10:50Z</time>
      </trkpt>
      <trkpt lat="47.84383" lon="7.14124">
        <ele>777.59997558594</ele>
        <time>2021-05-22T11:10:55Z</time>
      </trkpt>
      <trkpt lat="47.84384" lon="7.14123">
        <ele>777.79998779297</ele>
        <time>2021-05-22T11:10:56Z</time>
      </trkpt>
      <trkpt lat="47.84394" lon="7.14122">
        <ele>778.59997558594</ele>
        <time>2021-05-22T11:11:00Z</time>
      </trkpt>
      <trkpt lat="47.84399" lon="7.14121">
        <ele>779.40002441406</ele>
        <time>2021-05-22T11:11:02Z</time>
      </trkpt>
      <trkpt lat="47.84401" lon="7.1412">
        <ele>779.79998779297</ele>
        <time>2021-05-22T11:11:03Z</time>
      </trkpt>
      <trkpt lat="47.84411" lon="7.14117">
        <ele>780.40002441406</ele>
        <time>2021-05-22T11:11:07Z</time>
      </trkpt>
      <trkpt lat="47.84423" lon="7.14114">
        <ele>780.79998779297</ele>
        <time>2021-05-22T11:11:12Z</time>
      </trkpt>
      <trkpt lat="47.84427" lon="7.14113">
        <ele>781</ele>
        <time>2021-05-22T11:11:14Z</time>
      </trkpt>
      <trkpt lat="47.84441" lon="7.14113">
        <ele>781.40002441406</ele>
        <time>2021-05-22T11:11:20Z</time>
      </trkpt>
      <trkpt lat="47.84446" lon="7.14113">
        <ele>782</ele>
        <time>2021-05-22T11:11:22Z</time>
      </trkpt>
      <trkpt lat="47.84453" lon="7.14111">
        <ele>783.20001220703</ele>
        <time>2021-05-22T11:11:25Z</time>
      </trkpt>
      <trkpt lat="47.84456" lon="7.1411">
        <ele>784.20001220703</ele>
        <time>2021-05-22T11:11:27Z</time>
      </trkpt>
      <trkpt lat="47.84459" lon="7.14111">
        <ele>785.40002441406</ele>
        <time>2021-05-22T11:11:29Z</time>
      </trkpt>
      <trkpt lat="47.84462" lon="7.14111">
        <ele>785.79998779297</ele>
        <time>2021-05-22T11:11:31Z</time>
      </trkpt>
      <trkpt lat="47.84465" lon="7.1411">
        <ele>786.59997558594</ele>
        <time>2021-05-22T11:11:33Z</time>
      </trkpt>
      <trkpt lat="47.84466" lon="7.1411">
        <ele>786.79998779297</ele>
        <time>2021-05-22T11:11:34Z</time>
      </trkpt>
      <trkpt lat="47.84475" lon="7.14113">
        <ele>787.59997558594</ele>
        <time>2021-05-22T11:11:38Z</time>
      </trkpt>
      <trkpt lat="47.84478" lon="7.14112">
        <ele>787.79998779297</ele>
        <time>2021-05-22T11:11:39Z</time>
      </trkpt>
      <trkpt lat="47.84488" lon="7.14108">
        <ele>788.59997558594</ele>
        <time>2021-05-22T11:11:44Z</time>
      </trkpt>
      <trkpt lat="47.84494" lon="7.14104">
        <ele>789</ele>
        <time>2021-05-22T11:11:46Z</time>
      </trkpt>
      <trkpt lat="47.84502" lon="7.14098">
        <ele>789.79998779297</ele>
        <time>2021-05-22T11:11:49Z</time>
      </trkpt>
      <trkpt lat="47.84509" lon="7.14092">
        <ele>790.79998779297</ele>
        <time>2021-05-22T11:11:52Z</time>
      </trkpt>
      <trkpt lat="47.8451" lon="7.14088">
        <ele>791</ele>
        <time>2021-05-22T11:11:53Z</time>
      </trkpt>
      <trkpt lat="47.84516" lon="7.14079">
        <ele>792.59997558594</ele>
        <time>2021-05-22T11:11:56Z</time>
      </trkpt>
      <trkpt lat="47.84518" lon="7.14071">
        <ele>793.40002441406</ele>
        <time>2021-05-22T11:11:58Z</time>
      </trkpt>
      <trkpt lat="47.84519" lon="7.14067">
        <ele>793.79998779297</ele>
        <time>2021-05-22T11:11:59Z</time>
      </trkpt>
      <trkpt lat="47.84524" lon="7.14048">
        <ele>794.79998779297</ele>
        <time>2021-05-22T11:12:04Z</time>
      </trkpt>
      <trkpt lat="47.84525" lon="7.14045">
        <ele>795</ele>
        <time>2021-05-22T11:12:05Z</time>
      </trkpt>
      <trkpt lat="47.84528" lon="7.14032">
        <ele>795.79998779297</ele>
        <time>2021-05-22T11:12:09Z</time>
      </trkpt>
      <trkpt lat="47.84528" lon="7.14029">
        <ele>796</ele>
        <time>2021-05-22T11:12:10Z</time>
      </trkpt>
      <trkpt lat="47.8453" lon="7.14025">
        <ele>796.20001220703</ele>
        <time>2021-05-22T11:12:11Z</time>
      </trkpt>
      <trkpt lat="47.84533" lon="7.14014">
        <ele>797</ele>
        <time>2021-05-22T11:12:15Z</time>
      </trkpt>
      <trkpt lat="47.84534" lon="7.14009">
        <ele>797.59997558594</ele>
        <time>2021-05-22T11:12:17Z</time>
      </trkpt>
      <trkpt lat="47.84536" lon="7.14002">
        <ele>798.20001220703</ele>
        <time>2021-05-22T11:12:19Z</time>
      </trkpt>
      <trkpt lat="47.84541" lon="7.1399">
        <ele>798.59997558594</ele>
        <time>2021-05-22T11:12:23Z</time>
      </trkpt>
      <trkpt lat="47.84545" lon="7.13967">
        <ele>798.79998779297</ele>
        <time>2021-05-22T11:12:29Z</time>
      </trkpt>
      <trkpt lat="47.8455" lon="7.13955">
        <ele>799.20001220703</ele>
        <time>2021-05-22T11:12:32Z</time>
      </trkpt>
      <trkpt lat="47.84552" lon="7.13954">
        <ele>799.79998779297</ele>
        <time>2021-05-22T11:12:33Z</time>
      </trkpt>
      <trkpt lat="47.84558" lon="7.13955">
        <ele>800.40002441406</ele>
        <time>2021-05-22T11:12:35Z</time>
      </trkpt>
      <trkpt lat="47.8456" lon="7.13957">
        <ele>801.20001220703</ele>
        <time>2021-05-22T11:12:36Z</time>
      </trkpt>
      <trkpt lat="47.84561" lon="7.1396">
        <ele>801.59997558594</ele>
        <time>2021-05-22T11:12:37Z</time>
      </trkpt>
      <trkpt lat="47.84562" lon="7.13964">
        <ele>802.40002441406</ele>
        <time>2021-05-22T11:12:38Z</time>
      </trkpt>
      <trkpt lat="47.84561" lon="7.1398">
        <ele>803.59997558594</ele>
        <time>2021-05-22T11:12:42Z</time>
      </trkpt>
      <trkpt lat="47.84552" lon="7.14003">
        <ele>804.40002441406</ele>
        <time>2021-05-22T11:12:48Z</time>
      </trkpt>
      <trkpt lat="47.84549" lon="7.14013">
        <ele>804.79998779297</ele>
        <time>2021-05-22T11:12:51Z</time>
      </trkpt>
      <trkpt lat="47.84549" lon="7.14025">
        <ele>805.20001220703</ele>
        <time>2021-05-22T11:12:54Z</time>
      </trkpt>
      <trkpt lat="47.84549" lon="7.14031">
        <ele>805.79998779297</ele>
        <time>2021-05-22T11:12:56Z</time>
      </trkpt>
      <trkpt lat="47.84548" lon="7.1404">
        <ele>806.79998779297</ele>
        <time>2021-05-22T11:12:59Z</time>
      </trkpt>
      <trkpt lat="47.84547" lon="7.1405">
        <ele>807.20001220703</ele>
        <time>2021-05-22T11:13:02Z</time>
      </trkpt>
      <trkpt lat="47.84544" lon="7.14079">
        <ele>807.40002441406</ele>
        <time>2021-05-22T11:13:09Z</time>
      </trkpt>
      <trkpt lat="47.84542" lon="7.14101">
        <ele>808</ele>
        <time>2021-05-22T11:13:15Z</time>
      </trkpt>
      <trkpt lat="47.84541" lon="7.14113">
        <ele>808.40002441406</ele>
        <time>2021-05-22T11:13:18Z</time>
      </trkpt>
      <trkpt lat="47.8454" lon="7.14121">
        <ele>809</ele>
        <time>2021-05-22T11:13:20Z</time>
      </trkpt>
      <trkpt lat="47.84538" lon="7.14134">
        <ele>809.59997558594</ele>
        <time>2021-05-22T11:13:23Z</time>
      </trkpt>
      <trkpt lat="47.84538" lon="7.14138">
        <ele>810.20001220703</ele>
        <time>2021-05-22T11:13:24Z</time>
      </trkpt>
      <trkpt lat="47.84535" lon="7.14154">
        <ele>811.20001220703</ele>
        <time>2021-05-22T11:13:28Z</time>
      </trkpt>
      <trkpt lat="47.84532" lon="7.14166">
        <ele>812.20001220703</ele>
        <time>2021-05-22T11:13:31Z</time>
      </trkpt>
      <trkpt lat="47.84531" lon="7.14173">
        <ele>813.40002441406</ele>
        <time>2021-05-22T11:13:33Z</time>
      </trkpt>
      <trkpt lat="47.84529" lon="7.14179">
        <ele>814.59997558594</ele>
        <time>2021-05-22T11:13:35Z</time>
      </trkpt>
      <trkpt lat="47.84524" lon="7.14191">
        <ele>815.59997558594</ele>
        <time>2021-05-22T11:13:39Z</time>
      </trkpt>
      <trkpt lat="47.84522" lon="7.14195">
        <ele>816</ele>
        <time>2021-05-22T11:13:41Z</time>
      </trkpt>
      <trkpt lat="47.84517" lon="7.14205">
        <ele>816.79998779297</ele>
        <time>2021-05-22T11:13:45Z</time>
      </trkpt>
      <trkpt lat="47.84513" lon="7.14209">
        <ele>817.40002441406</ele>
        <time>2021-05-22T11:13:47Z</time>
      </trkpt>
      <trkpt lat="47.84506" lon="7.14216">
        <ele>817.79998779297</ele>
        <time>2021-05-22T11:13:50Z</time>
      </trkpt>
      <trkpt lat="47.84498" lon="7.14222">
        <ele>818.20001220703</ele>
        <time>2021-05-22T11:13:54Z</time>
      </trkpt>
      <trkpt lat="47.84482" lon="7.1423">
        <ele>818.59997558594</ele>
        <time>2021-05-22T11:14:01Z</time>
      </trkpt>
      <trkpt lat="47.84478" lon="7.14231">
        <ele>819</ele>
        <time>2021-05-22T11:14:03Z</time>
      </trkpt>
      <trkpt lat="47.84472" lon="7.14232">
        <ele>820</ele>
        <time>2021-05-22T11:14:06Z</time>
      </trkpt>
      <trkpt lat="47.84467" lon="7.14233">
        <ele>821</ele>
        <time>2021-05-22T11:14:08Z</time>
      </trkpt>
      <trkpt lat="47.84465" lon="7.14234">
        <ele>821.40002441406</ele>
        <time>2021-05-22T11:14:09Z</time>
      </trkpt>
      <trkpt lat="47.8446" lon="7.14235">
        <ele>822.40002441406</ele>
        <time>2021-05-22T11:14:11Z</time>
      </trkpt>
      <trkpt lat="47.8445" lon="7.14238">
        <ele>823.20001220703</ele>
        <time>2021-05-22T11:14:15Z</time>
      </trkpt>
      <trkpt lat="47.84443" lon="7.14241">
        <ele>823.20001220703</ele>
        <time>2021-05-22T11:14:18Z</time>
      </trkpt>
      <trkpt lat="47.84433" lon="7.14248">
        <ele>823.59997558594</ele>
        <time>2021-05-22T11:14:22Z</time>
      </trkpt>
      <trkpt lat="47.84428" lon="7.14252">
        <ele>823.79998779297</ele>
        <time>2021-05-22T11:14:24Z</time>
      </trkpt>
      <trkpt lat="47.84419" lon="7.14258">
        <ele>824.20001220703</ele>
        <time>2021-05-22T11:14:28Z</time>
      </trkpt>
      <trkpt lat="47.84414" lon="7.14259">
        <ele>824.40002441406</ele>
        <time>2021-05-22T11:14:30Z</time>
      </trkpt>
      <trkpt lat="47.8441" lon="7.14264">
        <ele>824.79998779297</ele>
        <time>2021-05-22T11:14:31Z</time>
      </trkpt>
      <trkpt lat="47.84401" lon="7.14273">
        <ele>826.20001220703</ele>
        <time>2021-05-22T11:14:34Z</time>
      </trkpt>
      <trkpt lat="47.84391" lon="7.14285">
        <ele>827.40002441406</ele>
        <time>2021-05-22T11:14:38Z</time>
      </trkpt>
      <trkpt lat="47.84389" lon="7.14287">
        <ele>827.59997558594</ele>
        <time>2021-05-22T11:14:39Z</time>
      </trkpt>
      <trkpt lat="47.84386" lon="7.143">
        <ele>828.79998779297</ele>
        <time>2021-05-22T11:14:44Z</time>
      </trkpt>
      <trkpt lat="47.84382" lon="7.14308">
        <ele>829.79998779297</ele>
        <time>2021-05-22T11:14:47Z</time>
      </trkpt>
      <trkpt lat="47.8438" lon="7.14311">
        <ele>829.79998779297</ele>
        <time>2021-05-22T11:14:48Z</time>
      </trkpt>
      <trkpt lat="47.84373" lon="7.14326">
        <ele>831</ele>
        <time>2021-05-22T11:14:54Z</time>
      </trkpt>
      <trkpt lat="47.84367" lon="7.14343">
        <ele>832.20001220703</ele>
        <time>2021-05-22T11:14:59Z</time>
      </trkpt>
      <trkpt lat="47.84367" lon="7.14347">
        <ele>832.20001220703</ele>
        <time>2021-05-22T11:15:00Z</time>
      </trkpt>
      <trkpt lat="47.84362" lon="7.14367">
        <ele>833.40002441406</ele>
        <time>2021-05-22T11:15:05Z</time>
      </trkpt>
      <trkpt lat="47.8436" lon="7.14377">
        <ele>834.79998779297</ele>
        <time>2021-05-22T11:15:08Z</time>
      </trkpt>
      <trkpt lat="47.8436" lon="7.1438">
        <ele>835</ele>
        <time>2021-05-22T11:15:09Z</time>
      </trkpt>
      <trkpt lat="47.84355" lon="7.14399">
        <ele>836.20001220703</ele>
        <time>2021-05-22T11:15:15Z</time>
      </trkpt>
      <trkpt lat="47.84353" lon="7.14405">
        <ele>836.79998779297</ele>
        <time>2021-05-22T11:15:17Z</time>
      </trkpt>
      <trkpt lat="47.84352" lon="7.14408">
        <ele>837.40002441406</ele>
        <time>2021-05-22T11:15:18Z</time>
      </trkpt>
      <trkpt lat="47.84348" lon="7.14418">
        <ele>838.59997558594</ele>
        <time>2021-05-22T11:15:21Z</time>
      </trkpt>
      <trkpt lat="47.84345" lon="7.14424">
        <ele>839.59997558594</ele>
        <time>2021-05-22T11:15:23Z</time>
      </trkpt>
      <trkpt lat="47.84342" lon="7.14434">
        <ele>840.79998779297</ele>
        <time>2021-05-22T11:15:26Z</time>
      </trkpt>
      <trkpt lat="47.84339" lon="7.1444">
        <ele>841.40002441406</ele>
        <time>2021-05-22T11:15:28Z</time>
      </trkpt>
      <trkpt lat="47.84337" lon="7.14446">
        <ele>842</ele>
        <time>2021-05-22T11:15:30Z</time>
      </trkpt>
      <trkpt lat="47.84328" lon="7.1447">
        <ele>842.79998779297</ele>
        <time>2021-05-22T11:15:37Z</time>
      </trkpt>
      <trkpt lat="47.84326" lon="7.14478">
        <ele>843</ele>
        <time>2021-05-22T11:15:39Z</time>
      </trkpt>
      <trkpt lat="47.84321" lon="7.14491">
        <ele>843.59997558594</ele>
        <time>2021-05-22T11:15:43Z</time>
      </trkpt>
      <trkpt lat="47.8432" lon="7.14497">
        <ele>844.40002441406</ele>
        <time>2021-05-22T11:15:45Z</time>
      </trkpt>
      <trkpt lat="47.84317" lon="7.14507">
        <ele>845.59997558594</ele>
        <time>2021-05-22T11:15:48Z</time>
      </trkpt>
      <trkpt lat="47.84314" lon="7.14514">
        <ele>846</ele>
        <time>2021-05-22T11:15:50Z</time>
      </trkpt>
      <trkpt lat="47.8431" lon="7.14526">
        <ele>846.79998779297</ele>
        <time>2021-05-22T11:15:53Z</time>
      </trkpt>
      <trkpt lat="47.84307" lon="7.14533">
        <ele>847.79998779297</ele>
        <time>2021-05-22T11:15:55Z</time>
      </trkpt>
      <trkpt lat="47.84306" lon="7.14543">
        <ele>848.79998779297</ele>
        <time>2021-05-22T11:15:58Z</time>
      </trkpt>
      <trkpt lat="47.84305" lon="7.14547">
        <ele>849</ele>
        <time>2021-05-22T11:15:59Z</time>
      </trkpt>
      <trkpt lat="47.84305" lon="7.14563">
        <ele>850</ele>
        <time>2021-05-22T11:16:03Z</time>
      </trkpt>
      <trkpt lat="47.84306" lon="7.14567">
        <ele>850.59997558594</ele>
        <time>2021-05-22T11:16:04Z</time>
      </trkpt>
      <trkpt lat="47.84309" lon="7.14576">
        <ele>851.20001220703</ele>
        <time>2021-05-22T11:16:06Z</time>
      </trkpt>
      <trkpt lat="47.84317" lon="7.14591">
        <ele>851.79998779297</ele>
        <time>2021-05-22T11:16:10Z</time>
      </trkpt>
      <trkpt lat="47.84326" lon="7.14597">
        <ele>852.20001220703</ele>
        <time>2021-05-22T11:16:14Z</time>
      </trkpt>
      <trkpt lat="47.84329" lon="7.14597">
        <ele>852.59997558594</ele>
        <time>2021-05-22T11:16:15Z</time>
      </trkpt>
      <trkpt lat="47.84334" lon="7.14597">
        <ele>852.59997558594</ele>
        <time>2021-05-22T11:16:16Z</time>
      </trkpt>
      <trkpt lat="47.84343" lon="7.14593">
        <ele>853</ele>
        <time>2021-05-22T11:16:18Z</time>
      </trkpt>
      <trkpt lat="47.84371" lon="7.14586">
        <ele>852.40002441406</ele>
        <time>2021-05-22T11:16:23Z</time>
      </trkpt>
      <trkpt lat="47.8439" lon="7.14584">
        <ele>850.79998779297</ele>
        <time>2021-05-22T11:16:26Z</time>
      </trkpt>
      <trkpt lat="47.84413" lon="7.14583">
        <ele>849</ele>
        <time>2021-05-22T11:16:29Z</time>
      </trkpt>
      <trkpt lat="47.84429" lon="7.14583">
        <ele>847.59997558594</ele>
        <time>2021-05-22T11:16:31Z</time>
      </trkpt>
      <trkpt lat="47.84438" lon="7.14583">
        <ele>847.20001220703</ele>
        <time>2021-05-22T11:16:32Z</time>
      </trkpt>
      <trkpt lat="47.84447" lon="7.14582">
        <ele>846.59997558594</ele>
        <time>2021-05-22T11:16:33Z</time>
      </trkpt>
      <trkpt lat="47.84456" lon="7.14579">
        <ele>846.20001220703</ele>
        <time>2021-05-22T11:16:34Z</time>
      </trkpt>
      <trkpt lat="47.84473" lon="7.14566">
        <ele>845.40002441406</ele>
        <time>2021-05-22T11:16:36Z</time>
      </trkpt>
      <trkpt lat="47.84481" lon="7.14557">
        <ele>845</ele>
        <time>2021-05-22T11:16:37Z</time>
      </trkpt>
      <trkpt lat="47.84487" lon="7.14547">
        <ele>844.59997558594</ele>
        <time>2021-05-22T11:16:38Z</time>
      </trkpt>
      <trkpt lat="47.845" lon="7.14522">
        <ele>844</ele>
        <time>2021-05-22T11:16:40Z</time>
      </trkpt>
      <trkpt lat="47.84509" lon="7.14498">
        <ele>843.40002441406</ele>
        <time>2021-05-22T11:16:42Z</time>
      </trkpt>
      <trkpt lat="47.84515" lon="7.14483">
        <ele>843.20001220703</ele>
        <time>2021-05-22T11:16:43Z</time>
      </trkpt>
      <trkpt lat="47.84523" lon="7.14459">
        <ele>842.79998779297</ele>
        <time>2021-05-22T11:16:45Z</time>
      </trkpt>
      <trkpt lat="47.84529" lon="7.14432">
        <ele>842.40002441406</ele>
        <time>2021-05-22T11:16:47Z</time>
      </trkpt>
      <trkpt lat="47.84536" lon="7.14395">
        <ele>841.59997558594</ele>
        <time>2021-05-22T11:16:50Z</time>
      </trkpt>
      <trkpt lat="47.84537" lon="7.14386">
        <ele>841.59997558594</ele>
        <time>2021-05-22T11:16:51Z</time>
      </trkpt>
      <trkpt lat="47.84547" lon="7.14345">
        <ele>840.40002441406</ele>
        <time>2021-05-22T11:16:55Z</time>
      </trkpt>
      <trkpt lat="47.84551" lon="7.14337">
        <ele>840.20001220703</ele>
        <time>2021-05-22T11:16:56Z</time>
      </trkpt>
      <trkpt lat="47.84563" lon="7.1433">
        <ele>840.20001220703</ele>
        <time>2021-05-22T11:16:58Z</time>
      </trkpt>
      <trkpt lat="47.84574" lon="7.14332">
        <ele>840</ele>
        <time>2021-05-22T11:17:00Z</time>
      </trkpt>
      <trkpt lat="47.84581" lon="7.14335">
        <ele>840</ele>
        <time>2021-05-22T11:17:01Z</time>
      </trkpt>
      <trkpt lat="47.84594" lon="7.14337">
        <ele>840</ele>
        <time>2021-05-22T11:17:03Z</time>
      </trkpt>
      <trkpt lat="47.84602" lon="7.14336">
        <ele>839.59997558594</ele>
        <time>2021-05-22T11:17:04Z</time>
      </trkpt>
      <trkpt lat="47.84607" lon="7.14336">
        <ele>839.40002441406</ele>
        <time>2021-05-22T11:17:05Z</time>
      </trkpt>
      <trkpt lat="47.84614" lon="7.14332">
        <ele>839.40002441406</ele>
        <time>2021-05-22T11:17:06Z</time>
      </trkpt>
      <trkpt lat="47.84622" lon="7.14327">
        <ele>839.40002441406</ele>
        <time>2021-05-22T11:17:07Z</time>
      </trkpt>
      <trkpt lat="47.8463" lon="7.14324">
        <ele>839.20001220703</ele>
        <time>2021-05-22T11:17:08Z</time>
      </trkpt>
      <trkpt lat="47.84644" lon="7.14318">
        <ele>839</ele>
        <time>2021-05-22T11:17:10Z</time>
      </trkpt>
      <trkpt lat="47.84663" lon="7.14326">
        <ele>838.40002441406</ele>
        <time>2021-05-22T11:17:12Z</time>
      </trkpt>
      <trkpt lat="47.84675" lon="7.1435">
        <ele>837.20001220703</ele>
        <time>2021-05-22T11:17:14Z</time>
      </trkpt>
      <trkpt lat="47.84682" lon="7.14366">
        <ele>836.59997558594</ele>
        <time>2021-05-22T11:17:15Z</time>
      </trkpt>
      <trkpt lat="47.84685" lon="7.14379">
        <ele>836.40002441406</ele>
        <time>2021-05-22T11:17:16Z</time>
      </trkpt>
      <trkpt lat="47.84688" lon="7.14391">
        <ele>836.20001220703</ele>
        <time>2021-05-22T11:17:17Z</time>
      </trkpt>
      <trkpt lat="47.84693" lon="7.14402">
        <ele>835.40002441406</ele>
        <time>2021-05-22T11:17:18Z</time>
      </trkpt>
      <trkpt lat="47.84698" lon="7.14411">
        <ele>835.20001220703</ele>
        <time>2021-05-22T11:17:19Z</time>
      </trkpt>
      <trkpt lat="47.84706" lon="7.14424">
        <ele>834.59997558594</ele>
        <time>2021-05-22T11:17:20Z</time>
      </trkpt>
      <trkpt lat="47.84724" lon="7.14451">
        <ele>833.59997558594</ele>
        <time>2021-05-22T11:17:23Z</time>
      </trkpt>
      <trkpt lat="47.84732" lon="7.14463">
        <ele>832.79998779297</ele>
        <time>2021-05-22T11:17:24Z</time>
      </trkpt>
      <trkpt lat="47.84738" lon="7.14474">
        <ele>832</ele>
        <time>2021-05-22T11:17:25Z</time>
      </trkpt>
      <trkpt lat="47.84745" lon="7.14484">
        <ele>831.59997558594</ele>
        <time>2021-05-22T11:17:26Z</time>
      </trkpt>
      <trkpt lat="47.84752" lon="7.14494">
        <ele>830.79998779297</ele>
        <time>2021-05-22T11:17:27Z</time>
      </trkpt>
      <trkpt lat="47.84759" lon="7.14501">
        <ele>830.40002441406</ele>
        <time>2021-05-22T11:17:28Z</time>
      </trkpt>
      <trkpt lat="47.84774" lon="7.14523">
        <ele>829.40002441406</ele>
        <time>2021-05-22T11:17:30Z</time>
      </trkpt>
      <trkpt lat="47.84782" lon="7.14532">
        <ele>829</ele>
        <time>2021-05-22T11:17:31Z</time>
      </trkpt>
      <trkpt lat="47.84789" lon="7.14539">
        <ele>828.59997558594</ele>
        <time>2021-05-22T11:17:32Z</time>
      </trkpt>
      <trkpt lat="47.84797" lon="7.14548">
        <ele>828.40002441406</ele>
        <time>2021-05-22T11:17:33Z</time>
      </trkpt>
      <trkpt lat="47.84812" lon="7.14565">
        <ele>827</ele>
        <time>2021-05-22T11:17:35Z</time>
      </trkpt>
      <trkpt lat="47.8482" lon="7.14574">
        <ele>826</ele>
        <time>2021-05-22T11:17:36Z</time>
      </trkpt>
      <trkpt lat="47.84842" lon="7.146">
        <ele>824.79998779297</ele>
        <time>2021-05-22T11:17:39Z</time>
      </trkpt>
      <trkpt lat="47.84856" lon="7.14617">
        <ele>824.40002441406</ele>
        <time>2021-05-22T11:17:41Z</time>
      </trkpt>
      <trkpt lat="47.84882" lon="7.14646">
        <ele>823.59997558594</ele>
        <time>2021-05-22T11:17:45Z</time>
      </trkpt>
      <trkpt lat="47.84894" lon="7.1466">
        <ele>823.40002441406</ele>
        <time>2021-05-22T11:17:47Z</time>
      </trkpt>
      <trkpt lat="47.84907" lon="7.14679">
        <ele>823.20001220703</ele>
        <time>2021-05-22T11:17:49Z</time>
      </trkpt>
      <trkpt lat="47.84919" lon="7.14707">
        <ele>823.40002441406</ele>
        <time>2021-05-22T11:17:52Z</time>
      </trkpt>
      <trkpt lat="47.84921" lon="7.14716">
        <ele>823.40002441406</ele>
        <time>2021-05-22T11:17:53Z</time>
      </trkpt>
      <trkpt lat="47.84929" lon="7.14758">
        <ele>823.59997558594</ele>
        <time>2021-05-22T11:17:57Z</time>
      </trkpt>
      <trkpt lat="47.84931" lon="7.14769">
        <ele>823.59997558594</ele>
        <time>2021-05-22T11:17:58Z</time>
      </trkpt>
      <trkpt lat="47.84936" lon="7.14786">
        <ele>823.59997558594</ele>
        <time>2021-05-22T11:18:00Z</time>
      </trkpt>
      <trkpt lat="47.84941" lon="7.14802">
        <ele>823.79998779297</ele>
        <time>2021-05-22T11:18:02Z</time>
      </trkpt>
      <trkpt lat="47.84956" lon="7.14813">
        <ele>824</ele>
        <time>2021-05-22T11:18:05Z</time>
      </trkpt>
      <trkpt lat="47.84969" lon="7.14811">
        <ele>824.40002441406</ele>
        <time>2021-05-22T11:18:07Z</time>
      </trkpt>
      <trkpt lat="47.84973" lon="7.14808">
        <ele>824.40002441406</ele>
        <time>2021-05-22T11:18:08Z</time>
      </trkpt>
      <trkpt lat="47.84991" lon="7.14798">
        <ele>824.59997558594</ele>
        <time>2021-05-22T11:18:11Z</time>
      </trkpt>
      <trkpt lat="47.85006" lon="7.14787">
        <ele>824.59997558594</ele>
        <time>2021-05-22T11:18:14Z</time>
      </trkpt>
      <trkpt lat="47.85011" lon="7.14784">
        <ele>824.79998779297</ele>
        <time>2021-05-22T11:18:15Z</time>
      </trkpt>
      <trkpt lat="47.85015" lon="7.14781">
        <ele>824.79998779297</ele>
        <time>2021-05-22T11:18:16Z</time>
      </trkpt>
      <trkpt lat="47.85023" lon="7.14777">
        <ele>825.59997558594</ele>
        <time>2021-05-22T11:18:18Z</time>
      </trkpt>
      <trkpt lat="47.85026" lon="7.14776">
        <ele>825.79998779297</ele>
        <time>2021-05-22T11:18:19Z</time>
      </trkpt>
      <trkpt lat="47.85037" lon="7.14768">
        <ele>827</ele>
        <time>2021-05-22T11:18:22Z</time>
      </trkpt>
      <trkpt lat="47.85041" lon="7.14764">
        <ele>827</ele>
        <time>2021-05-22T11:18:23Z</time>
      </trkpt>
      <trkpt lat="47.85054" lon="7.14754">
        <ele>828</ele>
        <time>2021-05-22T11:18:27Z</time>
      </trkpt>
      <trkpt lat="47.85061" lon="7.14751">
        <ele>828.40002441406</ele>
        <time>2021-05-22T11:18:29Z</time>
      </trkpt>
      <trkpt lat="47.85068" lon="7.14747">
        <ele>829</ele>
        <time>2021-05-22T11:18:31Z</time>
      </trkpt>
      <trkpt lat="47.8508" lon="7.14739">
        <ele>830</ele>
        <time>2021-05-22T11:18:34Z</time>
      </trkpt>
      <trkpt lat="47.85084" lon="7.14735">
        <ele>830.20001220703</ele>
        <time>2021-05-22T11:18:35Z</time>
      </trkpt>
      <trkpt lat="47.85095" lon="7.14726">
        <ele>831</ele>
        <time>2021-05-22T11:18:39Z</time>
      </trkpt>
      <trkpt lat="47.85097" lon="7.14722">
        <ele>831.20001220703</ele>
        <time>2021-05-22T11:18:40Z</time>
      </trkpt>
      <trkpt lat="47.85113" lon="7.14706">
        <ele>832.59997558594</ele>
        <time>2021-05-22T11:18:45Z</time>
      </trkpt>
      <trkpt lat="47.85115" lon="7.14702">
        <ele>832.59997558594</ele>
        <time>2021-05-22T11:18:46Z</time>
      </trkpt>
      <trkpt lat="47.85126" lon="7.1469">
        <ele>833.40002441406</ele>
        <time>2021-05-22T11:18:50Z</time>
      </trkpt>
      <trkpt lat="47.8513" lon="7.14687">
        <ele>833.59997558594</ele>
        <time>2021-05-22T11:18:51Z</time>
      </trkpt>
      <trkpt lat="47.85148" lon="7.14673">
        <ele>834.59997558594</ele>
        <time>2021-05-22T11:18:56Z</time>
      </trkpt>
      <trkpt lat="47.85152" lon="7.14671">
        <ele>835</ele>
        <time>2021-05-22T11:18:57Z</time>
      </trkpt>
      <trkpt lat="47.85161" lon="7.14666">
        <ele>835.59997558594</ele>
        <time>2021-05-22T11:19:00Z</time>
      </trkpt>
      <trkpt lat="47.85163" lon="7.14662">
        <ele>836</ele>
        <time>2021-05-22T11:19:01Z</time>
      </trkpt>
      <trkpt lat="47.85175" lon="7.1465">
        <ele>836.59997558594</ele>
        <time>2021-05-22T11:19:05Z</time>
      </trkpt>
      <trkpt lat="47.85178" lon="7.14648">
        <ele>836.59997558594</ele>
        <time>2021-05-22T11:19:06Z</time>
      </trkpt>
      <trkpt lat="47.85191" lon="7.14633">
        <ele>837.40002441406</ele>
        <time>2021-05-22T11:19:11Z</time>
      </trkpt>
      <trkpt lat="47.852" lon="7.14624">
        <ele>837.79998779297</ele>
        <time>2021-05-22T11:19:14Z</time>
      </trkpt>
      <trkpt lat="47.85208" lon="7.14615">
        <ele>838.59997558594</ele>
        <time>2021-05-22T11:19:17Z</time>
      </trkpt>
      <trkpt lat="47.85217" lon="7.14608">
        <ele>839.20001220703</ele>
        <time>2021-05-22T11:19:20Z</time>
      </trkpt>
      <trkpt lat="47.8522" lon="7.14607">
        <ele>839.20001220703</ele>
        <time>2021-05-22T11:19:21Z</time>
      </trkpt>
      <trkpt lat="47.85225" lon="7.14603">
        <ele>839.59997558594</ele>
        <time>2021-05-22T11:19:23Z</time>
      </trkpt>
      <trkpt lat="47.8523" lon="7.14596">
        <ele>840</ele>
        <time>2021-05-22T11:19:25Z</time>
      </trkpt>
      <trkpt lat="47.85241" lon="7.14581">
        <ele>840.79998779297</ele>
        <time>2021-05-22T11:19:29Z</time>
      </trkpt>
      <trkpt lat="47.85248" lon="7.14569">
        <ele>841.20001220703</ele>
        <time>2021-05-22T11:19:32Z</time>
      </trkpt>
      <trkpt lat="47.85253" lon="7.14562">
        <ele>841.40002441406</ele>
        <time>2021-05-22T11:19:34Z</time>
      </trkpt>
      <trkpt lat="47.85269" lon="7.14536">
        <ele>842</ele>
        <time>2021-05-22T11:19:41Z</time>
      </trkpt>
      <trkpt lat="47.85273" lon="7.14528">
        <ele>842.40002441406</ele>
        <time>2021-05-22T11:19:43Z</time>
      </trkpt>
      <trkpt lat="47.85278" lon="7.14516">
        <ele>843</ele>
        <time>2021-05-22T11:19:46Z</time>
      </trkpt>
      <trkpt lat="47.85282" lon="7.14508">
        <ele>843.40002441406</ele>
        <time>2021-05-22T11:19:48Z</time>
      </trkpt>
      <trkpt lat="47.85293" lon="7.14488">
        <ele>844</ele>
        <time>2021-05-22T11:19:53Z</time>
      </trkpt>
      <trkpt lat="47.85297" lon="7.1448">
        <ele>845</ele>
        <time>2021-05-22T11:19:55Z</time>
      </trkpt>
      <trkpt lat="47.85301" lon="7.14473">
        <ele>845.40002441406</ele>
        <time>2021-05-22T11:19:57Z</time>
      </trkpt>
      <trkpt lat="47.85313" lon="7.14453">
        <ele>846.20001220703</ele>
        <time>2021-05-22T11:20:02Z</time>
      </trkpt>
      <trkpt lat="47.85314" lon="7.1445">
        <ele>846.40002441406</ele>
        <time>2021-05-22T11:20:03Z</time>
      </trkpt>
      <trkpt lat="47.85321" lon="7.14437">
        <ele>847.40002441406</ele>
        <time>2021-05-22T11:20:07Z</time>
      </trkpt>
      <trkpt lat="47.85324" lon="7.14434">
        <ele>847.59997558594</ele>
        <time>2021-05-22T11:20:08Z</time>
      </trkpt>
      <trkpt lat="47.8533" lon="7.14428">
        <ele>848.40002441406</ele>
        <time>2021-05-22T11:20:10Z</time>
      </trkpt>
      <trkpt lat="47.85332" lon="7.14424">
        <ele>848.79998779297</ele>
        <time>2021-05-22T11:20:11Z</time>
      </trkpt>
      <trkpt lat="47.85334" lon="7.1442">
        <ele>849</ele>
        <time>2021-05-22T11:20:12Z</time>
      </trkpt>
      <trkpt lat="47.85339" lon="7.14413">
        <ele>849.40002441406</ele>
        <time>2021-05-22T11:20:14Z</time>
      </trkpt>
      <trkpt lat="47.85341" lon="7.14409">
        <ele>849.59997558594</ele>
        <time>2021-05-22T11:20:15Z</time>
      </trkpt>
      <trkpt lat="47.85344" lon="7.14405">
        <ele>849.79998779297</ele>
        <time>2021-05-22T11:20:16Z</time>
      </trkpt>
      <trkpt lat="47.85352" lon="7.14395">
        <ele>850.40002441406</ele>
        <time>2021-05-22T11:20:19Z</time>
      </trkpt>
      <trkpt lat="47.85359" lon="7.14386">
        <ele>850.79998779297</ele>
        <time>2021-05-22T11:20:22Z</time>
      </trkpt>
      <trkpt lat="47.85361" lon="7.14383">
        <ele>850.79998779297</ele>
        <time>2021-05-22T11:20:23Z</time>
      </trkpt>
      <trkpt lat="47.85372" lon="7.14364">
        <ele>851.59997558594</ele>
        <time>2021-05-22T11:20:28Z</time>
      </trkpt>
      <trkpt lat="47.85376" lon="7.14357">
        <ele>851.79998779297</ele>
        <time>2021-05-22T11:20:30Z</time>
      </trkpt>
      <trkpt lat="47.85382" lon="7.14345">
        <ele>852.59997558594</ele>
        <time>2021-05-22T11:20:34Z</time>
      </trkpt>
      <trkpt lat="47.85385" lon="7.14339">
        <ele>853</ele>
        <time>2021-05-22T11:20:36Z</time>
      </trkpt>
      <trkpt lat="47.85392" lon="7.1433">
        <ele>853.20001220703</ele>
        <time>2021-05-22T11:20:39Z</time>
      </trkpt>
      <trkpt lat="47.854" lon="7.14321">
        <ele>853.79998779297</ele>
        <time>2021-05-22T11:20:42Z</time>
      </trkpt>
      <trkpt lat="47.85402" lon="7.14318">
        <ele>854.40002441406</ele>
        <time>2021-05-22T11:20:43Z</time>
      </trkpt>
      <trkpt lat="47.8541" lon="7.14313">
        <ele>855</ele>
        <time>2021-05-22T11:20:46Z</time>
      </trkpt>
      <trkpt lat="47.85417" lon="7.14313">
        <ele>855.59997558594</ele>
        <time>2021-05-22T11:20:48Z</time>
      </trkpt>
      <trkpt lat="47.85423" lon="7.14313">
        <ele>856</ele>
        <time>2021-05-22T11:20:50Z</time>
      </trkpt>
      <trkpt lat="47.85434" lon="7.14321">
        <ele>856.59997558594</ele>
        <time>2021-05-22T11:20:54Z</time>
      </trkpt>
      <trkpt lat="47.85435" lon="7.14323">
        <ele>857</ele>
        <time>2021-05-22T11:20:55Z</time>
      </trkpt>
      <trkpt lat="47.85442" lon="7.14336">
        <ele>857.79998779297</ele>
        <time>2021-05-22T11:20:59Z</time>
      </trkpt>
      <trkpt lat="47.85445" lon="7.14344">
        <ele>858.40002441406</ele>
        <time>2021-05-22T11:21:01Z</time>
      </trkpt>
      <trkpt lat="47.85452" lon="7.14357">
        <ele>859.20001220703</ele>
        <time>2021-05-22T11:21:05Z</time>
      </trkpt>
      <trkpt lat="47.85454" lon="7.1436">
        <ele>859.59997558594</ele>
        <time>2021-05-22T11:21:06Z</time>
      </trkpt>
      <trkpt lat="47.85459" lon="7.1437">
        <ele>860.79998779297</ele>
        <time>2021-05-22T11:21:09Z</time>
      </trkpt>
      <trkpt lat="47.85466" lon="7.14384">
        <ele>861.79998779297</ele>
        <time>2021-05-22T11:21:13Z</time>
      </trkpt>
      <trkpt lat="47.85467" lon="7.14388">
        <ele>861.79998779297</ele>
        <time>2021-05-22T11:21:14Z</time>
      </trkpt>
      <trkpt lat="47.8547" lon="7.14394">
        <ele>862.20001220703</ele>
        <time>2021-05-22T11:21:16Z</time>
      </trkpt>
      <trkpt lat="47.85473" lon="7.14399">
        <ele>862.79998779297</ele>
        <time>2021-05-22T11:21:18Z</time>
      </trkpt>
      <trkpt lat="47.85476" lon="7.14406">
        <ele>863.40002441406</ele>
        <time>2021-05-22T11:21:20Z</time>
      </trkpt>
      <trkpt lat="47.85477" lon="7.14414">
        <ele>864</ele>
        <time>2021-05-22T11:21:22Z</time>
      </trkpt>
      <trkpt lat="47.85483" lon="7.14429">
        <ele>865.40002441406</ele>
        <time>2021-05-22T11:21:27Z</time>
      </trkpt>
      <trkpt lat="47.85488" lon="7.14442">
        <ele>866.59997558594</ele>
        <time>2021-05-22T11:21:31Z</time>
      </trkpt>
      <trkpt lat="47.85491" lon="7.1445">
        <ele>867.20001220703</ele>
        <time>2021-05-22T11:21:34Z</time>
      </trkpt>
      <trkpt lat="47.85493" lon="7.14455">
        <ele>867.79998779297</ele>
        <time>2021-05-22T11:21:36Z</time>
      </trkpt>
      <trkpt lat="47.85498" lon="7.14468">
        <ele>868.79998779297</ele>
        <time>2021-05-22T11:21:40Z</time>
      </trkpt>
      <trkpt lat="47.85499" lon="7.14471">
        <ele>869.20001220703</ele>
        <time>2021-05-22T11:21:41Z</time>
      </trkpt>
      <trkpt lat="47.85506" lon="7.14485">
        <ele>870</ele>
        <time>2021-05-22T11:21:46Z</time>
      </trkpt>
      <trkpt lat="47.8551" lon="7.14495">
        <ele>870.40002441406</ele>
        <time>2021-05-22T11:21:49Z</time>
      </trkpt>
      <trkpt lat="47.85515" lon="7.14503">
        <ele>871</ele>
        <time>2021-05-22T11:21:52Z</time>
      </trkpt>
      <trkpt lat="47.8552" lon="7.14511">
        <ele>871.59997558594</ele>
        <time>2021-05-22T11:21:55Z</time>
      </trkpt>
      <trkpt lat="47.85527" lon="7.14523">
        <ele>872.20001220703</ele>
        <time>2021-05-22T11:21:59Z</time>
      </trkpt>
      <trkpt lat="47.85528" lon="7.14526">
        <ele>872.20001220703</ele>
        <time>2021-05-22T11:22:00Z</time>
      </trkpt>
      <trkpt lat="47.8554" lon="7.14549">
        <ele>872.79998779297</ele>
        <time>2021-05-22T11:22:08Z</time>
      </trkpt>
      <trkpt lat="47.85544" lon="7.14557">
        <ele>873.20001220703</ele>
        <time>2021-05-22T11:22:11Z</time>
      </trkpt>
      <trkpt lat="47.85553" lon="7.14577">
        <ele>873.79998779297</ele>
        <time>2021-05-22T11:22:17Z</time>
      </trkpt>
      <trkpt lat="47.85559" lon="7.14588">
        <ele>874.40002441406</ele>
        <time>2021-05-22T11:22:21Z</time>
      </trkpt>
      <trkpt lat="47.85562" lon="7.14594">
        <ele>874.79998779297</ele>
        <time>2021-05-22T11:22:23Z</time>
      </trkpt>
      <trkpt lat="47.85563" lon="7.14597">
        <ele>875</ele>
        <time>2021-05-22T11:22:24Z</time>
      </trkpt>
      <trkpt lat="47.85565" lon="7.14602">
        <ele>875.40002441406</ele>
        <time>2021-05-22T11:22:26Z</time>
      </trkpt>
      <trkpt lat="47.85569" lon="7.14615">
        <ele>875.79998779297</ele>
        <time>2021-05-22T11:22:30Z</time>
      </trkpt>
      <trkpt lat="47.85573" lon="7.1462">
        <ele>876.59997558594</ele>
        <time>2021-05-22T11:22:32Z</time>
      </trkpt>
      <trkpt lat="47.85582" lon="7.14636">
        <ele>877.59997558594</ele>
        <time>2021-05-22T11:22:37Z</time>
      </trkpt>
      <trkpt lat="47.85584" lon="7.14639">
        <ele>878</ele>
        <time>2021-05-22T11:22:38Z</time>
      </trkpt>
      <trkpt lat="47.85589" lon="7.14647">
        <ele>878.79998779297</ele>
        <time>2021-05-22T11:22:41Z</time>
      </trkpt>
      <trkpt lat="47.85595" lon="7.14655">
        <ele>879.20001220703</ele>
        <time>2021-05-22T11:22:44Z</time>
      </trkpt>
      <trkpt lat="47.85598" lon="7.14665">
        <ele>880</ele>
        <time>2021-05-22T11:22:47Z</time>
      </trkpt>
      <trkpt lat="47.85601" lon="7.14671">
        <ele>880.59997558594</ele>
        <time>2021-05-22T11:22:49Z</time>
      </trkpt>
      <trkpt lat="47.85606" lon="7.1468">
        <ele>881.20001220703</ele>
        <time>2021-05-22T11:22:52Z</time>
      </trkpt>
      <trkpt lat="47.85613" lon="7.14692">
        <ele>882.20001220703</ele>
        <time>2021-05-22T11:22:55Z</time>
      </trkpt>
      <trkpt lat="47.85615" lon="7.14694">
        <ele>882.40002441406</ele>
        <time>2021-05-22T11:22:56Z</time>
      </trkpt>
      <trkpt lat="47.85615" lon="7.14696">
        <ele>883</ele>
        <time>2021-05-22T11:22:58Z</time>
      </trkpt>
      <trkpt lat="47.85617" lon="7.14698">
        <ele>883.59997558594</ele>
        <time>2021-05-22T11:22:59Z</time>
      </trkpt>
      <trkpt lat="47.8562" lon="7.14702">
        <ele>883.59997558594</ele>
        <time>2021-05-22T11:23:00Z</time>
      </trkpt>
      <trkpt lat="47.85629" lon="7.14713">
        <ele>884.79998779297</ele>
        <time>2021-05-22T11:23:04Z</time>
      </trkpt>
      <trkpt lat="47.85632" lon="7.14722">
        <ele>885.59997558594</ele>
        <time>2021-05-22T11:23:07Z</time>
      </trkpt>
      <trkpt lat="47.85632" lon="7.14725">
        <ele>885.79998779297</ele>
        <time>2021-05-22T11:23:08Z</time>
      </trkpt>
      <trkpt lat="47.85639" lon="7.14735">
        <ele>887</ele>
        <time>2021-05-22T11:23:12Z</time>
      </trkpt>
      <trkpt lat="47.85641" lon="7.14739">
        <ele>887.40002441406</ele>
        <time>2021-05-22T11:23:13Z</time>
      </trkpt>
      <trkpt lat="47.85648" lon="7.14747">
        <ele>888</ele>
        <time>2021-05-22T11:23:16Z</time>
      </trkpt>
      <trkpt lat="47.85653" lon="7.14751">
        <ele>889.40002441406</ele>
        <time>2021-05-22T11:23:18Z</time>
      </trkpt>
      <trkpt lat="47.85661" lon="7.14757">
        <ele>890.40002441406</ele>
        <time>2021-05-22T11:23:21Z</time>
      </trkpt>
      <trkpt lat="47.85666" lon="7.14761">
        <ele>891</ele>
        <time>2021-05-22T11:23:23Z</time>
      </trkpt>
      <trkpt lat="47.85672" lon="7.14767">
        <ele>891.59997558594</ele>
        <time>2021-05-22T11:23:26Z</time>
      </trkpt>
      <trkpt lat="47.85683" lon="7.14776">
        <ele>892.59997558594</ele>
        <time>2021-05-22T11:23:31Z</time>
      </trkpt>
      <trkpt lat="47.85692" lon="7.14784">
        <ele>893</ele>
        <time>2021-05-22T11:23:35Z</time>
      </trkpt>
      <trkpt lat="47.85708" lon="7.14796">
        <ele>893.59997558594</ele>
        <time>2021-05-22T11:23:42Z</time>
      </trkpt>
      <trkpt lat="47.85712" lon="7.14799">
        <ele>893.59997558594</ele>
        <time>2021-05-22T11:23:44Z</time>
      </trkpt>
      <trkpt lat="47.85726" lon="7.1481">
        <ele>894.59997558594</ele>
        <time>2021-05-22T11:23:50Z</time>
      </trkpt>
      <trkpt lat="47.85729" lon="7.14813">
        <ele>894.79998779297</ele>
        <time>2021-05-22T11:23:52Z</time>
      </trkpt>
      <trkpt lat="47.85735" lon="7.14818">
        <ele>896</ele>
        <time>2021-05-22T11:23:55Z</time>
      </trkpt>
      <trkpt lat="47.85743" lon="7.14823">
        <ele>897.40002441406</ele>
        <time>2021-05-22T11:23:59Z</time>
      </trkpt>
      <trkpt lat="47.8575" lon="7.14829">
        <ele>898.40002441406</ele>
        <time>2021-05-22T11:24:02Z</time>
      </trkpt>
      <trkpt lat="47.85759" lon="7.14839">
        <ele>899.59997558594</ele>
        <time>2021-05-22T11:24:06Z</time>
      </trkpt>
      <trkpt lat="47.85769" lon="7.14848">
        <ele>900.79998779297</ele>
        <time>2021-05-22T11:24:10Z</time>
      </trkpt>
      <trkpt lat="47.85779" lon="7.14857">
        <ele>901.79998779297</ele>
        <time>2021-05-22T11:24:15Z</time>
      </trkpt>
      <trkpt lat="47.85785" lon="7.14863">
        <ele>902.20001220703</ele>
        <time>2021-05-22T11:24:18Z</time>
      </trkpt>
      <trkpt lat="47.85787" lon="7.14866">
        <ele>902.20001220703</ele>
        <time>2021-05-22T11:24:19Z</time>
      </trkpt>
      <trkpt lat="47.85796" lon="7.14874">
        <ele>903</ele>
        <time>2021-05-22T11:24:23Z</time>
      </trkpt>
      <trkpt lat="47.85808" lon="7.1488">
        <ele>903.79998779297</ele>
        <time>2021-05-22T11:24:28Z</time>
      </trkpt>
      <trkpt lat="47.85814" lon="7.1488">
        <ele>904</ele>
        <time>2021-05-22T11:24:30Z</time>
      </trkpt>
      <trkpt lat="47.85828" lon="7.14878">
        <ele>904.20001220703</ele>
        <time>2021-05-22T11:24:35Z</time>
      </trkpt>
      <trkpt lat="47.85837" lon="7.14875">
        <ele>905</ele>
        <time>2021-05-22T11:24:39Z</time>
      </trkpt>
      <trkpt lat="47.85843" lon="7.14872">
        <ele>905.59997558594</ele>
        <time>2021-05-22T11:24:42Z</time>
      </trkpt>
      <trkpt lat="47.85848" lon="7.14871">
        <ele>906.20001220703</ele>
        <time>2021-05-22T11:24:45Z</time>
      </trkpt>
      <trkpt lat="47.85851" lon="7.14871">
        <ele>906.79998779297</ele>
        <time>2021-05-22T11:24:47Z</time>
      </trkpt>
      <trkpt lat="47.85853" lon="7.14871">
        <ele>907</ele>
        <time>2021-05-22T11:24:49Z</time>
      </trkpt>
      <trkpt lat="47.85853" lon="7.1487">
        <ele>907.20001220703</ele>
        <time>2021-05-22T11:24:50Z</time>
      </trkpt>
      <trkpt lat="47.85853" lon="7.1487">
        <ele>907.59997558594</ele>
        <time>2021-05-22T11:24:51Z</time>
      </trkpt>
      <trkpt lat="47.85856" lon="7.14865">
        <ele>908.20001220703</ele>
        <time>2021-05-22T11:25:24Z</time>
      </trkpt>
      <trkpt lat="47.85858" lon="7.14863">
        <ele>908.20001220703</ele>
        <time>2021-05-22T11:25:26Z</time>
      </trkpt>
      <trkpt lat="47.85867" lon="7.14847">
        <ele>907.40002441406</ele>
        <time>2021-05-22T11:25:32Z</time>
      </trkpt>
      <trkpt lat="47.85875" lon="7.14828">
        <ele>907</ele>
        <time>2021-05-22T11:25:38Z</time>
      </trkpt>
      <trkpt lat="47.85876" lon="7.14826">
        <ele>906.79998779297</ele>
        <time>2021-05-22T11:25:39Z</time>
      </trkpt>
      <trkpt lat="47.85879" lon="7.14823">
        <ele>906.79998779297</ele>
        <time>2021-05-22T11:25:41Z</time>
      </trkpt>
      <trkpt lat="47.85881" lon="7.1482">
        <ele>906.79998779297</ele>
        <time>2021-05-22T11:25:43Z</time>
      </trkpt>
      <trkpt lat="47.85881" lon="7.1482">
        <ele>906.79998779297</ele>
        <time>2021-05-22T11:25:44Z</time>
      </trkpt>
      <trkpt lat="47.85881" lon="7.1482">
        <ele>907</ele>
        <time>2021-05-22T11:25:46Z</time>
      </trkpt>
      <trkpt lat="47.85885" lon="7.1481">
        <ele>909.59997558594</ele>
        <time>2021-05-22T11:34:08Z</time>
      </trkpt>
      <trkpt lat="47.85886" lon="7.14807">
        <ele>909.59997558594</ele>
        <time>2021-05-22T11:34:09Z</time>
      </trkpt>
      <trkpt lat="47.85891" lon="7.14796">
        <ele>909.20001220703</ele>
        <time>2021-05-22T11:34:13Z</time>
      </trkpt>
      <trkpt lat="47.85893" lon="7.14786">
        <ele>909</ele>
        <time>2021-05-22T11:34:16Z</time>
      </trkpt>
      <trkpt lat="47.85896" lon="7.14772">
        <ele>908.59997558594</ele>
        <time>2021-05-22T11:34:19Z</time>
      </trkpt>
      <trkpt lat="47.85895" lon="7.14766">
        <ele>908.40002441406</ele>
        <time>2021-05-22T11:34:20Z</time>
      </trkpt>
      <trkpt lat="47.85897" lon="7.14752">
        <ele>908.40002441406</ele>
        <time>2021-05-22T11:34:23Z</time>
      </trkpt>
      <trkpt lat="47.85898" lon="7.14746">
        <ele>908.40002441406</ele>
        <time>2021-05-22T11:34:24Z</time>
      </trkpt>
      <trkpt lat="47.85901" lon="7.14717">
        <ele>909</ele>
        <time>2021-05-22T11:34:29Z</time>
      </trkpt>
      <trkpt lat="47.8591" lon="7.14701">
        <ele>909.20001220703</ele>
        <time>2021-05-22T11:34:33Z</time>
      </trkpt>
      <trkpt lat="47.85919" lon="7.14677">
        <ele>908.40002441406</ele>
        <time>2021-05-22T11:34:38Z</time>
      </trkpt>
      <trkpt lat="47.85921" lon="7.14657">
        <ele>908.20001220703</ele>
        <time>2021-05-22T11:34:39Z</time>
      </trkpt>
      <trkpt lat="47.85912" lon="7.14636">
        <ele>908</ele>
        <time>2021-05-22T11:34:41Z</time>
      </trkpt>
      <trkpt lat="47.85914" lon="7.14626">
        <ele>908</ele>
        <time>2021-05-22T11:34:42Z</time>
      </trkpt>
      <trkpt lat="47.8592" lon="7.14606">
        <ele>907.59997558594</ele>
        <time>2021-05-22T11:34:44Z</time>
      </trkpt>
      <trkpt lat="47.85923" lon="7.14597">
        <ele>907.40002441406</ele>
        <time>2021-05-22T11:34:45Z</time>
      </trkpt>
      <trkpt lat="47.85934" lon="7.14577">
        <ele>907.40002441406</ele>
        <time>2021-05-22T11:34:48Z</time>
      </trkpt>
      <trkpt lat="47.85937" lon="7.14572">
        <ele>907.40002441406</ele>
        <time>2021-05-22T11:34:49Z</time>
      </trkpt>
      <trkpt lat="47.85943" lon="7.14557">
        <ele>907.40002441406</ele>
        <time>2021-05-22T11:34:51Z</time>
      </trkpt>
      <trkpt lat="47.85949" lon="7.14541">
        <ele>907.40002441406</ele>
        <time>2021-05-22T11:34:53Z</time>
      </trkpt>
      <trkpt lat="47.85952" lon="7.1453">
        <ele>907.40002441406</ele>
        <time>2021-05-22T11:34:54Z</time>
      </trkpt>
      <trkpt lat="47.85962" lon="7.14505">
        <ele>907.40002441406</ele>
        <time>2021-05-22T11:34:57Z</time>
      </trkpt>
      <trkpt lat="47.85972" lon="7.14472">
        <ele>907.40002441406</ele>
        <time>2021-05-22T11:35:01Z</time>
      </trkpt>
      <trkpt lat="47.85978" lon="7.14429">
        <ele>907</ele>
        <time>2021-05-22T11:35:06Z</time>
      </trkpt>
      <trkpt lat="47.85978" lon="7.144">
        <ele>906.59997558594</ele>
        <time>2021-05-22T11:35:09Z</time>
      </trkpt>
      <trkpt lat="47.85978" lon="7.14393">
        <ele>906.40002441406</ele>
        <time>2021-05-22T11:35:10Z</time>
      </trkpt>
      <trkpt lat="47.85977" lon="7.14367">
        <ele>905.20001220703</ele>
        <time>2021-05-22T11:35:13Z</time>
      </trkpt>
      <trkpt lat="47.85974" lon="7.14348">
        <ele>905</ele>
        <time>2021-05-22T11:35:15Z</time>
      </trkpt>
      <trkpt lat="47.85972" lon="7.14337">
        <ele>905</ele>
        <time>2021-05-22T11:35:16Z</time>
      </trkpt>
      <trkpt lat="47.85971" lon="7.14328">
        <ele>905</ele>
        <time>2021-05-22T11:35:17Z</time>
      </trkpt>
      <trkpt lat="47.85969" lon="7.14303">
        <ele>905.20001220703</ele>
        <time>2021-05-22T11:35:20Z</time>
      </trkpt>
      <trkpt lat="47.85966" lon="7.1428">
        <ele>905.20001220703</ele>
        <time>2021-05-22T11:35:22Z</time>
      </trkpt>
      <trkpt lat="47.85956" lon="7.14257">
        <ele>905.20001220703</ele>
        <time>2021-05-22T11:35:25Z</time>
      </trkpt>
      <trkpt lat="47.85948" lon="7.14201">
        <ele>904.20001220703</ele>
        <time>2021-05-22T11:35:29Z</time>
      </trkpt>
      <trkpt lat="47.85949" lon="7.14191">
        <ele>904</ele>
        <time>2021-05-22T11:35:30Z</time>
      </trkpt>
      <trkpt lat="47.85947" lon="7.1418">
        <ele>903.59997558594</ele>
        <time>2021-05-22T11:35:31Z</time>
      </trkpt>
      <trkpt lat="47.85939" lon="7.14147">
        <ele>903</ele>
        <time>2021-05-22T11:35:34Z</time>
      </trkpt>
      <trkpt lat="47.85933" lon="7.14119">
        <ele>902.79998779297</ele>
        <time>2021-05-22T11:35:36Z</time>
      </trkpt>
      <trkpt lat="47.85923" lon="7.14077">
        <ele>902.59997558594</ele>
        <time>2021-05-22T11:35:39Z</time>
      </trkpt>
      <trkpt lat="47.8592" lon="7.14061">
        <ele>902.59997558594</ele>
        <time>2021-05-22T11:35:40Z</time>
      </trkpt>
      <trkpt lat="47.85922" lon="7.14047">
        <ele>902.59997558594</ele>
        <time>2021-05-22T11:35:41Z</time>
      </trkpt>
      <trkpt lat="47.85927" lon="7.14026">
        <ele>901.79998779297</ele>
        <time>2021-05-22T11:35:43Z</time>
      </trkpt>
      <trkpt lat="47.8593" lon="7.14021">
        <ele>901.79998779297</ele>
        <time>2021-05-22T11:35:44Z</time>
      </trkpt>
      <trkpt lat="47.85933" lon="7.1401">
        <ele>901.59997558594</ele>
        <time>2021-05-22T11:35:45Z</time>
      </trkpt>
      <trkpt lat="47.85938" lon="7.13992">
        <ele>901.20001220703</ele>
        <time>2021-05-22T11:35:47Z</time>
      </trkpt>
      <trkpt lat="47.85942" lon="7.13959">
        <ele>900.59997558594</ele>
        <time>2021-05-22T11:35:50Z</time>
      </trkpt>
      <trkpt lat="47.85945" lon="7.13932">
        <ele>900.40002441406</ele>
        <time>2021-05-22T11:35:52Z</time>
      </trkpt>
      <trkpt lat="47.85952" lon="7.13911">
        <ele>900.20001220703</ele>
        <time>2021-05-22T11:35:54Z</time>
      </trkpt>
      <trkpt lat="47.85961" lon="7.13892">
        <ele>899.59997558594</ele>
        <time>2021-05-22T11:35:56Z</time>
      </trkpt>
      <trkpt lat="47.85966" lon="7.13882">
        <ele>899.40002441406</ele>
        <time>2021-05-22T11:35:57Z</time>
      </trkpt>
      <trkpt lat="47.85988" lon="7.13837">
        <ele>898.59997558594</ele>
        <time>2021-05-22T11:36:02Z</time>
      </trkpt>
      <trkpt lat="47.85994" lon="7.13828">
        <ele>898.40002441406</ele>
        <time>2021-05-22T11:36:03Z</time>
      </trkpt>
      <trkpt lat="47.86007" lon="7.13802">
        <ele>898</ele>
        <time>2021-05-22T11:36:06Z</time>
      </trkpt>
      <trkpt lat="47.86011" lon="7.13792">
        <ele>898</ele>
        <time>2021-05-22T11:36:07Z</time>
      </trkpt>
      <trkpt lat="47.86011" lon="7.13792">
        <ele>898</ele>
        <time>2021-05-22T11:36:08Z</time>
      </trkpt>
      <trkpt lat="47.86012" lon="7.13771">
        <ele>898</ele>
        <time>2021-05-22T11:36:09Z</time>
      </trkpt>
      <trkpt lat="47.86011" lon="7.1376">
        <ele>897.79998779297</ele>
        <time>2021-05-22T11:36:10Z</time>
      </trkpt>
      <trkpt lat="47.86005" lon="7.13726">
        <ele>897.40002441406</ele>
        <time>2021-05-22T11:36:13Z</time>
      </trkpt>
      <trkpt lat="47.86004" lon="7.13714">
        <ele>897.20001220703</ele>
        <time>2021-05-22T11:36:14Z</time>
      </trkpt>
      <trkpt lat="47.86003" lon="7.13702">
        <ele>897.20001220703</ele>
        <time>2021-05-22T11:36:15Z</time>
      </trkpt>
      <trkpt lat="47.85999" lon="7.13677">
        <ele>897</ele>
        <time>2021-05-22T11:36:17Z</time>
      </trkpt>
      <trkpt lat="47.85998" lon="7.13654">
        <ele>896.79998779297</ele>
        <time>2021-05-22T11:36:19Z</time>
      </trkpt>
      <trkpt lat="47.86" lon="7.13644">
        <ele>896.79998779297</ele>
        <time>2021-05-22T11:36:20Z</time>
      </trkpt>
      <trkpt lat="47.86001" lon="7.13633">
        <ele>896.79998779297</ele>
        <time>2021-05-22T11:36:21Z</time>
      </trkpt>
      <trkpt lat="47.86003" lon="7.13611">
        <ele>896.59997558594</ele>
        <time>2021-05-22T11:36:23Z</time>
      </trkpt>
      <trkpt lat="47.86004" lon="7.13601">
        <ele>896.20001220703</ele>
        <time>2021-05-22T11:36:24Z</time>
      </trkpt>
      <trkpt lat="47.86005" lon="7.13579">
        <ele>896</ele>
        <time>2021-05-22T11:36:26Z</time>
      </trkpt>
      <trkpt lat="47.86004" lon="7.13548">
        <ele>896</ele>
        <time>2021-05-22T11:36:29Z</time>
      </trkpt>
      <trkpt lat="47.86003" lon="7.1351">
        <ele>896</ele>
        <time>2021-05-22T11:36:33Z</time>
      </trkpt>
      <trkpt lat="47.86004" lon="7.13501">
        <ele>896</ele>
        <time>2021-05-22T11:36:34Z</time>
      </trkpt>
      <trkpt lat="47.86006" lon="7.13493">
        <ele>896.20001220703</ele>
        <time>2021-05-22T11:36:35Z</time>
      </trkpt>
      <trkpt lat="47.86015" lon="7.13471">
        <ele>896.40002441406</ele>
        <time>2021-05-22T11:36:38Z</time>
      </trkpt>
      <trkpt lat="47.86018" lon="7.13464">
        <ele>896.40002441406</ele>
        <time>2021-05-22T11:36:39Z</time>
      </trkpt>
      <trkpt lat="47.86023" lon="7.13449">
        <ele>896.40002441406</ele>
        <time>2021-05-22T11:36:41Z</time>
      </trkpt>
      <trkpt lat="47.86025" lon="7.13441">
        <ele>896.40002441406</ele>
        <time>2021-05-22T11:36:42Z</time>
      </trkpt>
      <trkpt lat="47.86027" lon="7.13433">
        <ele>896.59997558594</ele>
        <time>2021-05-22T11:36:43Z</time>
      </trkpt>
      <trkpt lat="47.86031" lon="7.13419">
        <ele>896.79998779297</ele>
        <time>2021-05-22T11:36:45Z</time>
      </trkpt>
      <trkpt lat="47.86034" lon="7.13404">
        <ele>897</ele>
        <time>2021-05-22T11:36:47Z</time>
      </trkpt>
      <trkpt lat="47.86036" lon="7.13396">
        <ele>897</ele>
        <time>2021-05-22T11:36:48Z</time>
      </trkpt>
      <trkpt lat="47.8604" lon="7.13381">
        <ele>897.40002441406</ele>
        <time>2021-05-22T11:36:50Z</time>
      </trkpt>
      <trkpt lat="47.86044" lon="7.13367">
        <ele>897.59997558594</ele>
        <time>2021-05-22T11:36:52Z</time>
      </trkpt>
      <trkpt lat="47.86046" lon="7.1336">
        <ele>897.79998779297</ele>
        <time>2021-05-22T11:36:53Z</time>
      </trkpt>
      <trkpt lat="47.8605" lon="7.13346">
        <ele>898</ele>
        <time>2021-05-22T11:36:55Z</time>
      </trkpt>
      <trkpt lat="47.86053" lon="7.1333">
        <ele>898.20001220703</ele>
        <time>2021-05-22T11:36:57Z</time>
      </trkpt>
      <trkpt lat="47.86056" lon="7.13315">
        <ele>898.40002441406</ele>
        <time>2021-05-22T11:36:59Z</time>
      </trkpt>
      <trkpt lat="47.86058" lon="7.13308">
        <ele>898.40002441406</ele>
        <time>2021-05-22T11:37:00Z</time>
      </trkpt>
      <trkpt lat="47.86059" lon="7.13302">
        <ele>898.40002441406</ele>
        <time>2021-05-22T11:37:01Z</time>
      </trkpt>
      <trkpt lat="47.86062" lon="7.13295">
        <ele>898.59997558594</ele>
        <time>2021-05-22T11:37:02Z</time>
      </trkpt>
      <trkpt lat="47.86064" lon="7.13288">
        <ele>898.59997558594</ele>
        <time>2021-05-22T11:37:03Z</time>
      </trkpt>
      <trkpt lat="47.8607" lon="7.13268">
        <ele>899.20001220703</ele>
        <time>2021-05-22T11:37:06Z</time>
      </trkpt>
      <trkpt lat="47.86079" lon="7.1325">
        <ele>899.59997558594</ele>
        <time>2021-05-22T11:37:09Z</time>
      </trkpt>
      <trkpt lat="47.86087" lon="7.13241">
        <ele>899.79998779297</ele>
        <time>2021-05-22T11:37:11Z</time>
      </trkpt>
      <trkpt lat="47.86093" lon="7.13233">
        <ele>900</ele>
        <time>2021-05-22T11:37:13Z</time>
      </trkpt>
      <trkpt lat="47.86103" lon="7.1323">
        <ele>900.20001220703</ele>
        <time>2021-05-22T11:37:15Z</time>
      </trkpt>
      <trkpt lat="47.86108" lon="7.13229">
        <ele>900.20001220703</ele>
        <time>2021-05-22T11:37:16Z</time>
      </trkpt>
      <trkpt lat="47.86114" lon="7.13229">
        <ele>900.40002441406</ele>
        <time>2021-05-22T11:37:17Z</time>
      </trkpt>
      <trkpt lat="47.8612" lon="7.13229">
        <ele>900.59997558594</ele>
        <time>2021-05-22T11:37:18Z</time>
      </trkpt>
      <trkpt lat="47.86131" lon="7.13232">
        <ele>901</ele>
        <time>2021-05-22T11:37:20Z</time>
      </trkpt>
      <trkpt lat="47.86135" lon="7.13235">
        <ele>901</ele>
        <time>2021-05-22T11:37:21Z</time>
      </trkpt>
      <trkpt lat="47.86149" lon="7.13244">
        <ele>901.59997558594</ele>
        <time>2021-05-22T11:37:24Z</time>
      </trkpt>
      <trkpt lat="47.86153" lon="7.13246">
        <ele>901.59997558594</ele>
        <time>2021-05-22T11:37:25Z</time>
      </trkpt>
      <trkpt lat="47.86162" lon="7.13251">
        <ele>901.79998779297</ele>
        <time>2021-05-22T11:37:27Z</time>
      </trkpt>
      <trkpt lat="47.86167" lon="7.13252">
        <ele>902</ele>
        <time>2021-05-22T11:37:28Z</time>
      </trkpt>
      <trkpt lat="47.86177" lon="7.13255">
        <ele>902.20001220703</ele>
        <time>2021-05-22T11:37:30Z</time>
      </trkpt>
      <trkpt lat="47.86186" lon="7.13256">
        <ele>902.59997558594</ele>
        <time>2021-05-22T11:37:32Z</time>
      </trkpt>
      <trkpt lat="47.86191" lon="7.13257">
        <ele>902.79998779297</ele>
        <time>2021-05-22T11:37:33Z</time>
      </trkpt>
      <trkpt lat="47.862" lon="7.13258">
        <ele>903.20001220703</ele>
        <time>2021-05-22T11:37:35Z</time>
      </trkpt>
      <trkpt lat="47.86219" lon="7.1326">
        <ele>903.59997558594</ele>
        <time>2021-05-22T11:37:39Z</time>
      </trkpt>
      <trkpt lat="47.86232" lon="7.13261">
        <ele>904.20001220703</ele>
        <time>2021-05-22T11:37:42Z</time>
      </trkpt>
      <trkpt lat="47.86257" lon="7.13266">
        <ele>904.59997558594</ele>
        <time>2021-05-22T11:37:47Z</time>
      </trkpt>
      <trkpt lat="47.86262" lon="7.13266">
        <ele>904.59997558594</ele>
        <time>2021-05-22T11:37:48Z</time>
      </trkpt>
      <trkpt lat="47.86266" lon="7.13267">
        <ele>904.79998779297</ele>
        <time>2021-05-22T11:37:49Z</time>
      </trkpt>
      <trkpt lat="47.86296" lon="7.13264">
        <ele>905.79998779297</ele>
        <time>2021-05-22T11:37:55Z</time>
      </trkpt>
      <trkpt lat="47.86302" lon="7.13263">
        <ele>906</ele>
        <time>2021-05-22T11:37:56Z</time>
      </trkpt>
      <trkpt lat="47.86307" lon="7.1326">
        <ele>906.20001220703</ele>
        <time>2021-05-22T11:37:57Z</time>
      </trkpt>
      <trkpt lat="47.86316" lon="7.13254">
        <ele>906.59997558594</ele>
        <time>2021-05-22T11:37:59Z</time>
      </trkpt>
      <trkpt lat="47.86319" lon="7.13249">
        <ele>906.79998779297</ele>
        <time>2021-05-22T11:38:00Z</time>
      </trkpt>
      <trkpt lat="47.86322" lon="7.13245">
        <ele>907</ele>
        <time>2021-05-22T11:38:01Z</time>
      </trkpt>
      <trkpt lat="47.86331" lon="7.13239">
        <ele>907</ele>
        <time>2021-05-22T11:38:03Z</time>
      </trkpt>
      <trkpt lat="47.86335" lon="7.13234">
        <ele>907.20001220703</ele>
        <time>2021-05-22T11:38:04Z</time>
      </trkpt>
      <trkpt lat="47.86347" lon="7.13211">
        <ele>907.59997558594</ele>
        <time>2021-05-22T11:38:08Z</time>
      </trkpt>
      <trkpt lat="47.86352" lon="7.13199">
        <ele>907.79998779297</ele>
        <time>2021-05-22T11:38:10Z</time>
      </trkpt>
      <trkpt lat="47.86356" lon="7.13188">
        <ele>908</ele>
        <time>2021-05-22T11:38:12Z</time>
      </trkpt>
      <trkpt lat="47.86361" lon="7.13177">
        <ele>908.20001220703</ele>
        <time>2021-05-22T11:38:14Z</time>
      </trkpt>
      <trkpt lat="47.86362" lon="7.13172">
        <ele>908.40002441406</ele>
        <time>2021-05-22T11:38:15Z</time>
      </trkpt>
      <trkpt lat="47.86366" lon="7.1316">
        <ele>908.59997558594</ele>
        <time>2021-05-22T11:38:17Z</time>
      </trkpt>
      <trkpt lat="47.86369" lon="7.13151">
        <ele>908.79998779297</ele>
        <time>2021-05-22T11:38:19Z</time>
      </trkpt>
      <trkpt lat="47.86371" lon="7.13131">
        <ele>909</ele>
        <time>2021-05-22T11:38:22Z</time>
      </trkpt>
      <trkpt lat="47.86371" lon="7.1312">
        <ele>909</ele>
        <time>2021-05-22T11:38:23Z</time>
      </trkpt>
      <trkpt lat="47.86371" lon="7.13113">
        <ele>909.20001220703</ele>
        <time>2021-05-22T11:38:24Z</time>
      </trkpt>
      <trkpt lat="47.86372" lon="7.13105">
        <ele>909.20001220703</ele>
        <time>2021-05-22T11:38:25Z</time>
      </trkpt>
      <trkpt lat="47.86368" lon="7.13072">
        <ele>909.59997558594</ele>
        <time>2021-05-22T11:38:29Z</time>
      </trkpt>
      <trkpt lat="47.86368" lon="7.13057">
        <ele>909.79998779297</ele>
        <time>2021-05-22T11:38:31Z</time>
      </trkpt>
      <trkpt lat="47.86369" lon="7.13046">
        <ele>910.20001220703</ele>
        <time>2021-05-22T11:38:33Z</time>
      </trkpt>
      <trkpt lat="47.8637" lon="7.13033">
        <ele>910.59997558594</ele>
        <time>2021-05-22T11:38:35Z</time>
      </trkpt>
      <trkpt lat="47.86372" lon="7.13013">
        <ele>911.20001220703</ele>
        <time>2021-05-22T11:38:38Z</time>
      </trkpt>
      <trkpt lat="47.86376" lon="7.13">
        <ele>911.40002441406</ele>
        <time>2021-05-22T11:38:40Z</time>
      </trkpt>
      <trkpt lat="47.8638" lon="7.12987">
        <ele>911.79998779297</ele>
        <time>2021-05-22T11:38:42Z</time>
      </trkpt>
      <trkpt lat="47.86384" lon="7.12977">
        <ele>912</ele>
        <time>2021-05-22T11:38:44Z</time>
      </trkpt>
      <trkpt lat="47.86387" lon="7.12972">
        <ele>912.20001220703</ele>
        <time>2021-05-22T11:38:45Z</time>
      </trkpt>
      <trkpt lat="47.86393" lon="7.12959">
        <ele>912.59997558594</ele>
        <time>2021-05-22T11:38:48Z</time>
      </trkpt>
      <trkpt lat="47.86396" lon="7.12953">
        <ele>912.79998779297</ele>
        <time>2021-05-22T11:38:49Z</time>
      </trkpt>
      <trkpt lat="47.86397" lon="7.12948">
        <ele>912.79998779297</ele>
        <time>2021-05-22T11:38:50Z</time>
      </trkpt>
      <trkpt lat="47.864" lon="7.12937">
        <ele>913</ele>
        <time>2021-05-22T11:38:52Z</time>
      </trkpt>
      <trkpt lat="47.86407" lon="7.12922">
        <ele>913.59997558594</ele>
        <time>2021-05-22T11:38:55Z</time>
      </trkpt>
      <trkpt lat="47.86413" lon="7.12907">
        <ele>914.20001220703</ele>
        <time>2021-05-22T11:38:59Z</time>
      </trkpt>
      <trkpt lat="47.86419" lon="7.12884">
        <ele>914.59997558594</ele>
        <time>2021-05-22T11:39:02Z</time>
      </trkpt>
      <trkpt lat="47.86422" lon="7.12865">
        <ele>914.59997558594</ele>
        <time>2021-05-22T11:39:05Z</time>
      </trkpt>
      <trkpt lat="47.86424" lon="7.12855">
        <ele>914.79998779297</ele>
        <time>2021-05-22T11:39:07Z</time>
      </trkpt>
      <trkpt lat="47.86427" lon="7.1284">
        <ele>915.20001220703</ele>
        <time>2021-05-22T11:39:10Z</time>
      </trkpt>
      <trkpt lat="47.86427" lon="7.12833">
        <ele>915.40002441406</ele>
        <time>2021-05-22T11:39:11Z</time>
      </trkpt>
      <trkpt lat="47.86427" lon="7.12826">
        <ele>915.59997558594</ele>
        <time>2021-05-22T11:39:12Z</time>
      </trkpt>
      <trkpt lat="47.86427" lon="7.12819">
        <ele>915.59997558594</ele>
        <time>2021-05-22T11:39:13Z</time>
      </trkpt>
      <trkpt lat="47.86432" lon="7.12779">
        <ele>916.20001220703</ele>
        <time>2021-05-22T11:39:19Z</time>
      </trkpt>
      <trkpt lat="47.86442" lon="7.12756">
        <ele>916.79998779297</ele>
        <time>2021-05-22T11:39:23Z</time>
      </trkpt>
      <trkpt lat="47.86447" lon="7.12745">
        <ele>917</ele>
        <time>2021-05-22T11:39:25Z</time>
      </trkpt>
      <trkpt lat="47.86454" lon="7.12727">
        <ele>917.40002441406</ele>
        <time>2021-05-22T11:39:28Z</time>
      </trkpt>
      <trkpt lat="47.8646" lon="7.12717">
        <ele>917.79998779297</ele>
        <time>2021-05-22T11:39:30Z</time>
      </trkpt>
      <trkpt lat="47.86463" lon="7.12712">
        <ele>918</ele>
        <time>2021-05-22T11:39:31Z</time>
      </trkpt>
      <trkpt lat="47.86465" lon="7.12707">
        <ele>918.20001220703</ele>
        <time>2021-05-22T11:39:32Z</time>
      </trkpt>
      <trkpt lat="47.86471" lon="7.12695">
        <ele>918.59997558594</ele>
        <time>2021-05-22T11:39:34Z</time>
      </trkpt>
      <trkpt lat="47.86475" lon="7.1269">
        <ele>918.79998779297</ele>
        <time>2021-05-22T11:39:35Z</time>
      </trkpt>
      <trkpt lat="47.86478" lon="7.12686">
        <ele>919</ele>
        <time>2021-05-22T11:39:36Z</time>
      </trkpt>
      <trkpt lat="47.86485" lon="7.12678">
        <ele>919.20001220703</ele>
        <time>2021-05-22T11:39:38Z</time>
      </trkpt>
      <trkpt lat="47.86499" lon="7.12672">
        <ele>919.59997558594</ele>
        <time>2021-05-22T11:39:41Z</time>
      </trkpt>
      <trkpt lat="47.86504" lon="7.12671">
        <ele>919.59997558594</ele>
        <time>2021-05-22T11:39:42Z</time>
      </trkpt>
      <trkpt lat="47.86512" lon="7.12667">
        <ele>920</ele>
        <time>2021-05-22T11:39:44Z</time>
      </trkpt>
      <trkpt lat="47.8652" lon="7.12663">
        <ele>920.40002441406</ele>
        <time>2021-05-22T11:39:46Z</time>
      </trkpt>
      <trkpt lat="47.86529" lon="7.12657">
        <ele>920.79998779297</ele>
        <time>2021-05-22T11:39:48Z</time>
      </trkpt>
      <trkpt lat="47.86533" lon="7.12653">
        <ele>921</ele>
        <time>2021-05-22T11:39:49Z</time>
      </trkpt>
      <trkpt lat="47.86537" lon="7.12643">
        <ele>921.20001220703</ele>
        <time>2021-05-22T11:39:51Z</time>
      </trkpt>
      <trkpt lat="47.86539" lon="7.12637">
        <ele>921.20001220703</ele>
        <time>2021-05-22T11:39:52Z</time>
      </trkpt>
      <trkpt lat="47.86542" lon="7.12624">
        <ele>921.59997558594</ele>
        <time>2021-05-22T11:39:54Z</time>
      </trkpt>
      <trkpt lat="47.86542" lon="7.12601">
        <ele>921.59997558594</ele>
        <time>2021-05-22T11:39:57Z</time>
      </trkpt>
      <trkpt lat="47.86542" lon="7.12581">
        <ele>921.59997558594</ele>
        <time>2021-05-22T11:40:00Z</time>
      </trkpt>
      <trkpt lat="47.86539" lon="7.1256">
        <ele>921</ele>
        <time>2021-05-22T11:40:03Z</time>
      </trkpt>
      <trkpt lat="47.86534" lon="7.12541">
        <ele>920.59997558594</ele>
        <time>2021-05-22T11:40:06Z</time>
      </trkpt>
      <trkpt lat="47.86532" lon="7.12535">
        <ele>920.20001220703</ele>
        <time>2021-05-22T11:40:07Z</time>
      </trkpt>
      <trkpt lat="47.86528" lon="7.12525">
        <ele>919.79998779297</ele>
        <time>2021-05-22T11:40:09Z</time>
      </trkpt>
      <trkpt lat="47.86519" lon="7.12507">
        <ele>918.79998779297</ele>
        <time>2021-05-22T11:40:12Z</time>
      </trkpt>
      <trkpt lat="47.86509" lon="7.12488">
        <ele>917.79998779297</ele>
        <time>2021-05-22T11:40:15Z</time>
      </trkpt>
      <trkpt lat="47.86505" lon="7.12481">
        <ele>917.20001220703</ele>
        <time>2021-05-22T11:40:16Z</time>
      </trkpt>
      <trkpt lat="47.86495" lon="7.12469">
        <ele>916.40002441406</ele>
        <time>2021-05-22T11:40:18Z</time>
      </trkpt>
      <trkpt lat="47.8649" lon="7.12464">
        <ele>916</ele>
        <time>2021-05-22T11:40:19Z</time>
      </trkpt>
      <trkpt lat="47.86484" lon="7.1246">
        <ele>916</ele>
        <time>2021-05-22T11:40:20Z</time>
      </trkpt>
      <trkpt lat="47.86464" lon="7.12448">
        <ele>914.79998779297</ele>
        <time>2021-05-22T11:40:23Z</time>
      </trkpt>
      <trkpt lat="47.8645" lon="7.12441">
        <ele>913.59997558594</ele>
        <time>2021-05-22T11:40:25Z</time>
      </trkpt>
      <trkpt lat="47.86443" lon="7.12437">
        <ele>912.40002441406</ele>
        <time>2021-05-22T11:40:26Z</time>
      </trkpt>
      <trkpt lat="47.8643" lon="7.12429">
        <ele>911</ele>
        <time>2021-05-22T11:40:28Z</time>
      </trkpt>
      <trkpt lat="47.86416" lon="7.12421">
        <ele>910.20001220703</ele>
        <time>2021-05-22T11:40:30Z</time>
      </trkpt>
      <trkpt lat="47.86411" lon="7.12415">
        <ele>909.59997558594</ele>
        <time>2021-05-22T11:40:31Z</time>
      </trkpt>
      <trkpt lat="47.86406" lon="7.12408">
        <ele>909.20001220703</ele>
        <time>2021-05-22T11:40:32Z</time>
      </trkpt>
      <trkpt lat="47.86404" lon="7.124">
        <ele>908.40002441406</ele>
        <time>2021-05-22T11:40:33Z</time>
      </trkpt>
      <trkpt lat="47.86404" lon="7.12392">
        <ele>908</ele>
        <time>2021-05-22T11:40:34Z</time>
      </trkpt>
      <trkpt lat="47.86407" lon="7.12388">
        <ele>907.20001220703</ele>
        <time>2021-05-22T11:40:35Z</time>
      </trkpt>
      <trkpt lat="47.86412" lon="7.12388">
        <ele>906.79998779297</ele>
        <time>2021-05-22T11:40:36Z</time>
      </trkpt>
      <trkpt lat="47.86417" lon="7.12391">
        <ele>906.40002441406</ele>
        <time>2021-05-22T11:40:37Z</time>
      </trkpt>
      <trkpt lat="47.86423" lon="7.12397">
        <ele>906.20001220703</ele>
        <time>2021-05-22T11:40:38Z</time>
      </trkpt>
      <trkpt lat="47.86429" lon="7.12403">
        <ele>905.59997558594</ele>
        <time>2021-05-22T11:40:39Z</time>
      </trkpt>
      <trkpt lat="47.86435" lon="7.12408">
        <ele>905</ele>
        <time>2021-05-22T11:40:40Z</time>
      </trkpt>
      <trkpt lat="47.86443" lon="7.12413">
        <ele>904.79998779297</ele>
        <time>2021-05-22T11:40:41Z</time>
      </trkpt>
      <trkpt lat="47.8646" lon="7.12417">
        <ele>904.59997558594</ele>
        <time>2021-05-22T11:40:43Z</time>
      </trkpt>
      <trkpt lat="47.86479" lon="7.12417">
        <ele>903.59997558594</ele>
        <time>2021-05-22T11:40:45Z</time>
      </trkpt>
      <trkpt lat="47.865" lon="7.12418">
        <ele>902.40002441406</ele>
        <time>2021-05-22T11:40:47Z</time>
      </trkpt>
      <trkpt lat="47.86523" lon="7.12419">
        <ele>900.79998779297</ele>
        <time>2021-05-22T11:40:49Z</time>
      </trkpt>
      <trkpt lat="47.86548" lon="7.12421">
        <ele>899.79998779297</ele>
        <time>2021-05-22T11:40:51Z</time>
      </trkpt>
      <trkpt lat="47.8656" lon="7.12421">
        <ele>899.40002441406</ele>
        <time>2021-05-22T11:40:52Z</time>
      </trkpt>
      <trkpt lat="47.8656" lon="7.12421">
        <ele>898.79998779297</ele>
        <time>2021-05-22T11:40:53Z</time>
      </trkpt>
      <trkpt lat="47.86584" lon="7.1242">
        <ele>897.59997558594</ele>
        <time>2021-05-22T11:40:54Z</time>
      </trkpt>
      <trkpt lat="47.86605" lon="7.12417">
        <ele>895.40002441406</ele>
        <time>2021-05-22T11:40:56Z</time>
      </trkpt>
      <trkpt lat="47.86616" lon="7.12415">
        <ele>894.40002441406</ele>
        <time>2021-05-22T11:40:57Z</time>
      </trkpt>
      <trkpt lat="47.86626" lon="7.12412">
        <ele>892.79998779297</ele>
        <time>2021-05-22T11:40:58Z</time>
      </trkpt>
      <trkpt lat="47.86646" lon="7.12405">
        <ele>891.20001220703</ele>
        <time>2021-05-22T11:41:00Z</time>
      </trkpt>
      <trkpt lat="47.86666" lon="7.12397">
        <ele>888.59997558594</ele>
        <time>2021-05-22T11:41:02Z</time>
      </trkpt>
      <trkpt lat="47.86676" lon="7.12393">
        <ele>886.59997558594</ele>
        <time>2021-05-22T11:41:03Z</time>
      </trkpt>
      <trkpt lat="47.86692" lon="7.12386">
        <ele>884.79998779297</ele>
        <time>2021-05-22T11:41:05Z</time>
      </trkpt>
      <trkpt lat="47.86699" lon="7.12382">
        <ele>884.40002441406</ele>
        <time>2021-05-22T11:41:06Z</time>
      </trkpt>
      <trkpt lat="47.86706" lon="7.12376">
        <ele>883.79998779297</ele>
        <time>2021-05-22T11:41:07Z</time>
      </trkpt>
      <trkpt lat="47.86711" lon="7.12368">
        <ele>883.59997558594</ele>
        <time>2021-05-22T11:41:08Z</time>
      </trkpt>
      <trkpt lat="47.86714" lon="7.12358">
        <ele>882.79998779297</ele>
        <time>2021-05-22T11:41:09Z</time>
      </trkpt>
      <trkpt lat="47.86716" lon="7.12347">
        <ele>882.40002441406</ele>
        <time>2021-05-22T11:41:10Z</time>
      </trkpt>
      <trkpt lat="47.86716" lon="7.12336">
        <ele>881.59997558594</ele>
        <time>2021-05-22T11:41:12Z</time>
      </trkpt>
      <trkpt lat="47.8671" lon="7.12317">
        <ele>881</ele>
        <time>2021-05-22T11:41:13Z</time>
      </trkpt>
      <trkpt lat="47.86706" lon="7.12308">
        <ele>880</ele>
        <time>2021-05-22T11:41:14Z</time>
      </trkpt>
      <trkpt lat="47.86696" lon="7.12293">
        <ele>877.79998779297</ele>
        <time>2021-05-22T11:41:16Z</time>
      </trkpt>
      <trkpt lat="47.86687" lon="7.12277">
        <ele>876.40002441406</ele>
        <time>2021-05-22T11:41:18Z</time>
      </trkpt>
      <trkpt lat="47.86683" lon="7.12267">
        <ele>875.20001220703</ele>
        <time>2021-05-22T11:41:19Z</time>
      </trkpt>
      <trkpt lat="47.8668" lon="7.12257">
        <ele>874.79998779297</ele>
        <time>2021-05-22T11:41:20Z</time>
      </trkpt>
      <trkpt lat="47.86677" lon="7.12246">
        <ele>874</ele>
        <time>2021-05-22T11:41:21Z</time>
      </trkpt>
      <trkpt lat="47.86675" lon="7.12234">
        <ele>873.40002441406</ele>
        <time>2021-05-22T11:41:22Z</time>
      </trkpt>
      <trkpt lat="47.86674" lon="7.12225">
        <ele>872.20001220703</ele>
        <time>2021-05-22T11:41:23Z</time>
      </trkpt>
      <trkpt lat="47.86673" lon="7.12193">
        <ele>871.40002441406</ele>
        <time>2021-05-22T11:41:26Z</time>
      </trkpt>
      <trkpt lat="47.86676" lon="7.1218">
        <ele>871.20001220703</ele>
        <time>2021-05-22T11:41:27Z</time>
      </trkpt>
      <trkpt lat="47.86678" lon="7.12173">
        <ele>871</ele>
        <time>2021-05-22T11:41:28Z</time>
      </trkpt>
      <trkpt lat="47.86689" lon="7.12161">
        <ele>870.59997558594</ele>
        <time>2021-05-22T11:41:30Z</time>
      </trkpt>
      <trkpt lat="47.86703" lon="7.12162">
        <ele>870.20001220703</ele>
        <time>2021-05-22T11:41:32Z</time>
      </trkpt>
      <trkpt lat="47.86712" lon="7.12169">
        <ele>870</ele>
        <time>2021-05-22T11:41:33Z</time>
      </trkpt>
      <trkpt lat="47.86719" lon="7.12177">
        <ele>870</ele>
        <time>2021-05-22T11:41:34Z</time>
      </trkpt>
      <trkpt lat="47.8675" lon="7.12213">
        <ele>869</ele>
        <time>2021-05-22T11:41:38Z</time>
      </trkpt>
      <trkpt lat="47.86757" lon="7.12222">
        <ele>868.20001220703</ele>
        <time>2021-05-22T11:41:39Z</time>
      </trkpt>
      <trkpt lat="47.86773" lon="7.12239">
        <ele>867.59997558594</ele>
        <time>2021-05-22T11:41:41Z</time>
      </trkpt>
      <trkpt lat="47.86791" lon="7.12257">
        <ele>866.79998779297</ele>
        <time>2021-05-22T11:41:43Z</time>
      </trkpt>
      <trkpt lat="47.868" lon="7.12265">
        <ele>866</ele>
        <time>2021-05-22T11:41:44Z</time>
      </trkpt>
      <trkpt lat="47.86811" lon="7.1227">
        <ele>865.59997558594</ele>
        <time>2021-05-22T11:41:45Z</time>
      </trkpt>
      <trkpt lat="47.86822" lon="7.12273">
        <ele>864.79998779297</ele>
        <time>2021-05-22T11:41:46Z</time>
      </trkpt>
      <trkpt lat="47.86833" lon="7.12273">
        <ele>864.40002441406</ele>
        <time>2021-05-22T11:41:47Z</time>
      </trkpt>
      <trkpt lat="47.86853" lon="7.12261">
        <ele>863.79998779297</ele>
        <time>2021-05-22T11:41:49Z</time>
      </trkpt>
      <trkpt lat="47.86859" lon="7.12254">
        <ele>863.59997558594</ele>
        <time>2021-05-22T11:41:50Z</time>
      </trkpt>
      <trkpt lat="47.86878" lon="7.12228">
        <ele>862.59997558594</ele>
        <time>2021-05-22T11:41:53Z</time>
      </trkpt>
      <trkpt lat="47.86889" lon="7.12211">
        <ele>861.79998779297</ele>
        <time>2021-05-22T11:41:55Z</time>
      </trkpt>
      <trkpt lat="47.86895" lon="7.12203">
        <ele>861.59997558594</ele>
        <time>2021-05-22T11:41:56Z</time>
      </trkpt>
      <trkpt lat="47.86901" lon="7.12196">
        <ele>861.40002441406</ele>
        <time>2021-05-22T11:41:57Z</time>
      </trkpt>
      <trkpt lat="47.86915" lon="7.12187">
        <ele>861</ele>
        <time>2021-05-22T11:41:59Z</time>
      </trkpt>
      <trkpt lat="47.8693" lon="7.12187">
        <ele>860.59997558594</ele>
        <time>2021-05-22T11:42:01Z</time>
      </trkpt>
      <trkpt lat="47.86937" lon="7.1219">
        <ele>860.40002441406</ele>
        <time>2021-05-22T11:42:02Z</time>
      </trkpt>
      <trkpt lat="47.86973" lon="7.12213">
        <ele>860.59997558594</ele>
        <time>2021-05-22T11:42:07Z</time>
      </trkpt>
      <trkpt lat="47.87025" lon="7.12241">
        <ele>860.20001220703</ele>
        <time>2021-05-22T11:42:14Z</time>
      </trkpt>
      <trkpt lat="47.87063" lon="7.12252">
        <ele>860.20001220703</ele>
        <time>2021-05-22T11:42:19Z</time>
      </trkpt>
      <trkpt lat="47.87077" lon="7.12264">
        <ele>860.20001220703</ele>
        <time>2021-05-22T11:42:21Z</time>
      </trkpt>
      <trkpt lat="47.87084" lon="7.12284">
        <ele>860.59997558594</ele>
        <time>2021-05-22T11:42:23Z</time>
      </trkpt>
      <trkpt lat="47.87086" lon="7.12295">
        <ele>860.59997558594</ele>
        <time>2021-05-22T11:42:24Z</time>
      </trkpt>
      <trkpt lat="47.87085" lon="7.12344">
        <ele>861.20001220703</ele>
        <time>2021-05-22T11:42:29Z</time>
      </trkpt>
      <trkpt lat="47.87086" lon="7.12367">
        <ele>861.20001220703</ele>
        <time>2021-05-22T11:42:31Z</time>
      </trkpt>
      <trkpt lat="47.87088" lon="7.12387">
        <ele>861.40002441406</ele>
        <time>2021-05-22T11:42:33Z</time>
      </trkpt>
      <trkpt lat="47.8709" lon="7.12395">
        <ele>861.59997558594</ele>
        <time>2021-05-22T11:42:34Z</time>
      </trkpt>
      <trkpt lat="47.87096" lon="7.12426">
        <ele>861.59997558594</ele>
        <time>2021-05-22T11:42:37Z</time>
      </trkpt>
      <trkpt lat="47.87105" lon="7.12453">
        <ele>861.59997558594</ele>
        <time>2021-05-22T11:42:40Z</time>
      </trkpt>
      <trkpt lat="47.87108" lon="7.12461">
        <ele>861.59997558594</ele>
        <time>2021-05-22T11:42:41Z</time>
      </trkpt>
      <trkpt lat="47.87119" lon="7.12493">
        <ele>861.59997558594</ele>
        <time>2021-05-22T11:42:45Z</time>
      </trkpt>
      <trkpt lat="47.87144" lon="7.12557">
        <ele>862.40002441406</ele>
        <time>2021-05-22T11:42:53Z</time>
      </trkpt>
      <trkpt lat="47.8715" lon="7.1257">
        <ele>862.79998779297</ele>
        <time>2021-05-22T11:42:55Z</time>
      </trkpt>
      <trkpt lat="47.87158" lon="7.12589">
        <ele>863.20001220703</ele>
        <time>2021-05-22T11:42:58Z</time>
      </trkpt>
      <trkpt lat="47.87164" lon="7.12599">
        <ele>863.20001220703</ele>
        <time>2021-05-22T11:43:00Z</time>
      </trkpt>
      <trkpt lat="47.87187" lon="7.12652">
        <ele>863.59997558594</ele>
        <time>2021-05-22T11:43:08Z</time>
      </trkpt>
      <trkpt lat="47.87211" lon="7.12706">
        <ele>863.20001220703</ele>
        <time>2021-05-22T11:43:16Z</time>
      </trkpt>
      <trkpt lat="47.87223" lon="7.12724">
        <ele>863.20001220703</ele>
        <time>2021-05-22T11:43:19Z</time>
      </trkpt>
      <trkpt lat="47.87233" lon="7.12732">
        <ele>863.20001220703</ele>
        <time>2021-05-22T11:43:21Z</time>
      </trkpt>
      <trkpt lat="47.87271" lon="7.12753">
        <ele>863.40002441406</ele>
        <time>2021-05-22T11:43:28Z</time>
      </trkpt>
      <trkpt lat="47.87282" lon="7.12762">
        <ele>863.59997558594</ele>
        <time>2021-05-22T11:43:30Z</time>
      </trkpt>
      <trkpt lat="47.87292" lon="7.12773">
        <ele>864</ele>
        <time>2021-05-22T11:43:32Z</time>
      </trkpt>
      <trkpt lat="47.87298" lon="7.1278">
        <ele>864</ele>
        <time>2021-05-22T11:43:33Z</time>
      </trkpt>
      <trkpt lat="47.87308" lon="7.12795">
        <ele>864</ele>
        <time>2021-05-22T11:43:35Z</time>
      </trkpt>
      <trkpt lat="47.87314" lon="7.12818">
        <ele>864</ele>
        <time>2021-05-22T11:43:37Z</time>
      </trkpt>
      <trkpt lat="47.87311" lon="7.12844">
        <ele>863.40002441406</ele>
        <time>2021-05-22T11:43:39Z</time>
      </trkpt>
      <trkpt lat="47.87308" lon="7.12855">
        <ele>863.20001220703</ele>
        <time>2021-05-22T11:43:40Z</time>
      </trkpt>
      <trkpt lat="47.87305" lon="7.12865">
        <ele>862.79998779297</ele>
        <time>2021-05-22T11:43:41Z</time>
      </trkpt>
      <trkpt lat="47.873" lon="7.12881">
        <ele>861.40002441406</ele>
        <time>2021-05-22T11:43:43Z</time>
      </trkpt>
      <trkpt lat="47.87299" lon="7.12888">
        <ele>860.40002441406</ele>
        <time>2021-05-22T11:43:44Z</time>
      </trkpt>
      <trkpt lat="47.87298" lon="7.12893">
        <ele>860</ele>
        <time>2021-05-22T11:43:45Z</time>
      </trkpt>
      <trkpt lat="47.87298" lon="7.129">
        <ele>859</ele>
        <time>2021-05-22T11:43:46Z</time>
      </trkpt>
      <trkpt lat="47.87301" lon="7.12906">
        <ele>858.59997558594</ele>
        <time>2021-05-22T11:43:47Z</time>
      </trkpt>
      <trkpt lat="47.87304" lon="7.1291">
        <ele>857.59997558594</ele>
        <time>2021-05-22T11:43:48Z</time>
      </trkpt>
      <trkpt lat="47.87309" lon="7.12912">
        <ele>857.20001220703</ele>
        <time>2021-05-22T11:43:49Z</time>
      </trkpt>
      <trkpt lat="47.87315" lon="7.12912">
        <ele>856.20001220703</ele>
        <time>2021-05-22T11:43:50Z</time>
      </trkpt>
      <trkpt lat="47.87324" lon="7.12905">
        <ele>855.40002441406</ele>
        <time>2021-05-22T11:43:52Z</time>
      </trkpt>
      <trkpt lat="47.87327" lon="7.12897">
        <ele>855</ele>
        <time>2021-05-22T11:43:53Z</time>
      </trkpt>
      <trkpt lat="47.87341" lon="7.12872">
        <ele>854.79998779297</ele>
        <time>2021-05-22T11:43:56Z</time>
      </trkpt>
      <trkpt lat="47.87355" lon="7.12862">
        <ele>854.20001220703</ele>
        <time>2021-05-22T11:43:58Z</time>
      </trkpt>
      <trkpt lat="47.87361" lon="7.1286">
        <ele>853.40002441406</ele>
        <time>2021-05-22T11:43:59Z</time>
      </trkpt>
      <trkpt lat="47.87369" lon="7.12861">
        <ele>852.59997558594</ele>
        <time>2021-05-22T11:44:00Z</time>
      </trkpt>
      <trkpt lat="47.87378" lon="7.12863">
        <ele>852.20001220703</ele>
        <time>2021-05-22T11:44:01Z</time>
      </trkpt>
      <trkpt lat="47.87408" lon="7.12869">
        <ele>851</ele>
        <time>2021-05-22T11:44:04Z</time>
      </trkpt>
      <trkpt lat="47.87419" lon="7.12867">
        <ele>850.79998779297</ele>
        <time>2021-05-22T11:44:05Z</time>
      </trkpt>
      <trkpt lat="47.87431" lon="7.1286">
        <ele>850</ele>
        <time>2021-05-22T11:44:06Z</time>
      </trkpt>
      <trkpt lat="47.8744" lon="7.1285">
        <ele>848.59997558594</ele>
        <time>2021-05-22T11:44:07Z</time>
      </trkpt>
      <trkpt lat="47.87449" lon="7.12836">
        <ele>848</ele>
        <time>2021-05-22T11:44:08Z</time>
      </trkpt>
      <trkpt lat="47.87454" lon="7.12827">
        <ele>847.20001220703</ele>
        <time>2021-05-22T11:44:09Z</time>
      </trkpt>
      <trkpt lat="47.87459" lon="7.12818">
        <ele>847</ele>
        <time>2021-05-22T11:44:10Z</time>
      </trkpt>
      <trkpt lat="47.87463" lon="7.12811">
        <ele>845.59997558594</ele>
        <time>2021-05-22T11:44:11Z</time>
      </trkpt>
      <trkpt lat="47.87472" lon="7.12799">
        <ele>843.40002441406</ele>
        <time>2021-05-22T11:44:13Z</time>
      </trkpt>
      <trkpt lat="47.87478" lon="7.12794">
        <ele>842.40002441406</ele>
        <time>2021-05-22T11:44:14Z</time>
      </trkpt>
      <trkpt lat="47.87492" lon="7.12784">
        <ele>841.40002441406</ele>
        <time>2021-05-22T11:44:17Z</time>
      </trkpt>
      <trkpt lat="47.87502" lon="7.12778">
        <ele>840</ele>
        <time>2021-05-22T11:44:19Z</time>
      </trkpt>
      <trkpt lat="47.87514" lon="7.1277">
        <ele>838.40002441406</ele>
        <time>2021-05-22T11:44:22Z</time>
      </trkpt>
      <trkpt lat="47.87517" lon="7.12768">
        <ele>837.79998779297</ele>
        <time>2021-05-22T11:44:23Z</time>
      </trkpt>
      <trkpt lat="47.87521" lon="7.12765">
        <ele>837.40002441406</ele>
        <time>2021-05-22T11:44:24Z</time>
      </trkpt>
      <trkpt lat="47.87524" lon="7.12763">
        <ele>837</ele>
        <time>2021-05-22T11:44:25Z</time>
      </trkpt>
      <trkpt lat="47.87534" lon="7.12755">
        <ele>836.40002441406</ele>
        <time>2021-05-22T11:44:28Z</time>
      </trkpt>
      <trkpt lat="47.87539" lon="7.12748">
        <ele>835.79998779297</ele>
        <time>2021-05-22T11:44:30Z</time>
      </trkpt>
      <trkpt lat="47.87553" lon="7.12729">
        <ele>834.59997558594</ele>
        <time>2021-05-22T11:44:35Z</time>
      </trkpt>
      <trkpt lat="47.87564" lon="7.12711">
        <ele>834.20001220703</ele>
        <time>2021-05-22T11:44:41Z</time>
      </trkpt>
      <trkpt lat="47.87561" lon="7.12709">
        <ele>834.59997558594</ele>
        <time>2021-05-22T11:44:44Z</time>
      </trkpt>
      <trkpt lat="47.87559" lon="7.12712">
        <ele>835</ele>
        <time>2021-05-22T11:44:45Z</time>
      </trkpt>
      <trkpt lat="47.8755" lon="7.1272">
        <ele>835.20001220703</ele>
        <time>2021-05-22T11:44:48Z</time>
      </trkpt>
      <trkpt lat="47.87542" lon="7.1273">
        <ele>835.20001220703</ele>
        <time>2021-05-22T11:44:52Z</time>
      </trkpt>
      <trkpt lat="47.87542" lon="7.1273">
        <ele>834.79998779297</ele>
        <time>2021-05-22T11:44:54Z</time>
      </trkpt>
      <trkpt lat="47.87542" lon="7.12732">
        <ele>834.59997558594</ele>
        <time>2021-05-22T11:44:55Z</time>
      </trkpt>
      <trkpt lat="47.87545" lon="7.12737">
        <ele>834.40002441406</ele>
        <time>2021-05-22T11:44:57Z</time>
      </trkpt>
      <trkpt lat="47.87548" lon="7.12739">
        <ele>834.20001220703</ele>
        <time>2021-05-22T11:44:59Z</time>
      </trkpt>
      <trkpt lat="47.87552" lon="7.12736">
        <ele>834</ele>
        <time>2021-05-22T11:45:01Z</time>
      </trkpt>
      <trkpt lat="47.87553" lon="7.12733">
        <ele>833.79998779297</ele>
        <time>2021-05-22T11:45:02Z</time>
      </trkpt>
      <trkpt lat="47.87554" lon="7.1273">
        <ele>833.79998779297</ele>
        <time>2021-05-22T11:45:03Z</time>
      </trkpt>
      <trkpt lat="47.87563" lon="7.12717">
        <ele>833.59997558594</ele>
        <time>2021-05-22T11:45:07Z</time>
      </trkpt>
      <trkpt lat="47.87581" lon="7.12692">
        <ele>834.59997558594</ele>
        <time>2021-05-22T11:45:14Z</time>
      </trkpt>
      <trkpt lat="47.87584" lon="7.12689">
        <ele>834.79998779297</ele>
        <time>2021-05-22T11:45:15Z</time>
      </trkpt>
      <trkpt lat="47.87596" lon="7.12682">
        <ele>836</ele>
        <time>2021-05-22T11:45:19Z</time>
      </trkpt>
      <trkpt lat="47.87606" lon="7.12677">
        <ele>836.59997558594</ele>
        <time>2021-05-22T11:45:22Z</time>
      </trkpt>
      <trkpt lat="47.87609" lon="7.12676">
        <ele>837</ele>
        <time>2021-05-22T11:45:23Z</time>
      </trkpt>
      <trkpt lat="47.87617" lon="7.12673">
        <ele>838.20001220703</ele>
        <time>2021-05-22T11:45:26Z</time>
      </trkpt>
      <trkpt lat="47.87623" lon="7.12672">
        <ele>838.79998779297</ele>
        <time>2021-05-22T11:45:28Z</time>
      </trkpt>
      <trkpt lat="47.87625" lon="7.12672">
        <ele>839.20001220703</ele>
        <time>2021-05-22T11:45:29Z</time>
      </trkpt>
      <trkpt lat="47.87634" lon="7.1267">
        <ele>840.59997558594</ele>
        <time>2021-05-22T11:45:32Z</time>
      </trkpt>
      <trkpt lat="47.87641" lon="7.12669">
        <ele>841</ele>
        <time>2021-05-22T11:45:34Z</time>
      </trkpt>
      <trkpt lat="47.87653" lon="7.12668">
        <ele>842</ele>
        <time>2021-05-22T11:45:38Z</time>
      </trkpt>
      <trkpt lat="47.87656" lon="7.12669">
        <ele>842.20001220703</ele>
        <time>2021-05-22T11:45:39Z</time>
      </trkpt>
      <trkpt lat="47.87667" lon="7.12669">
        <ele>843.40002441406</ele>
        <time>2021-05-22T11:45:43Z</time>
      </trkpt>
      <trkpt lat="47.87671" lon="7.12671">
        <ele>843.79998779297</ele>
        <time>2021-05-22T11:45:45Z</time>
      </trkpt>
      <trkpt lat="47.87674" lon="7.12672">
        <ele>844.40002441406</ele>
        <time>2021-05-22T11:45:46Z</time>
      </trkpt>
      <trkpt lat="47.87684" lon="7.12675">
        <ele>846</ele>
        <time>2021-05-22T11:45:50Z</time>
      </trkpt>
      <trkpt lat="47.87686" lon="7.12675">
        <ele>846.20001220703</ele>
        <time>2021-05-22T11:45:51Z</time>
      </trkpt>
      <trkpt lat="47.87692" lon="7.12676">
        <ele>847</ele>
        <time>2021-05-22T11:45:54Z</time>
      </trkpt>
      <trkpt lat="47.87699" lon="7.12678">
        <ele>848.20001220703</ele>
        <time>2021-05-22T11:45:57Z</time>
      </trkpt>
      <trkpt lat="47.87708" lon="7.1268">
        <ele>849.20001220703</ele>
        <time>2021-05-22T11:46:01Z</time>
      </trkpt>
      <trkpt lat="47.87719" lon="7.12684">
        <ele>850</ele>
        <time>2021-05-22T11:46:05Z</time>
      </trkpt>
      <trkpt lat="47.87726" lon="7.12686">
        <ele>850.59997558594</ele>
        <time>2021-05-22T11:46:08Z</time>
      </trkpt>
      <trkpt lat="47.87738" lon="7.12686">
        <ele>851.79998779297</ele>
        <time>2021-05-22T11:46:13Z</time>
      </trkpt>
      <trkpt lat="47.87752" lon="7.12679">
        <ele>852.79998779297</ele>
        <time>2021-05-22T11:46:19Z</time>
      </trkpt>
      <trkpt lat="47.87762" lon="7.12675">
        <ele>854</ele>
        <time>2021-05-22T11:46:23Z</time>
      </trkpt>
      <trkpt lat="47.8777" lon="7.12671">
        <ele>854.79998779297</ele>
        <time>2021-05-22T11:46:27Z</time>
      </trkpt>
      <trkpt lat="47.87775" lon="7.12669">
        <ele>855.20001220703</ele>
        <time>2021-05-22T11:46:29Z</time>
      </trkpt>
      <trkpt lat="47.87782" lon="7.12669">
        <ele>856.20001220703</ele>
        <time>2021-05-22T11:46:32Z</time>
      </trkpt>
      <trkpt lat="47.87787" lon="7.12669">
        <ele>856.59997558594</ele>
        <time>2021-05-22T11:46:34Z</time>
      </trkpt>
      <trkpt lat="47.87801" lon="7.12668">
        <ele>857.40002441406</ele>
        <time>2021-05-22T11:46:40Z</time>
      </trkpt>
      <trkpt lat="47.87803" lon="7.12668">
        <ele>857.59997558594</ele>
        <time>2021-05-22T11:46:41Z</time>
      </trkpt>
      <trkpt lat="47.87812" lon="7.12669">
        <ele>858.59997558594</ele>
        <time>2021-05-22T11:46:45Z</time>
      </trkpt>
      <trkpt lat="47.87817" lon="7.12668">
        <ele>858.79998779297</ele>
        <time>2021-05-22T11:46:47Z</time>
      </trkpt>
      <trkpt lat="47.87826" lon="7.12668">
        <ele>859.59997558594</ele>
        <time>2021-05-22T11:46:51Z</time>
      </trkpt>
      <trkpt lat="47.87838" lon="7.12666">
        <ele>861</ele>
        <time>2021-05-22T11:46:56Z</time>
      </trkpt>
      <trkpt lat="47.87845" lon="7.12665">
        <ele>862.20001220703</ele>
        <time>2021-05-22T11:46:59Z</time>
      </trkpt>
      <trkpt lat="47.87851" lon="7.12665">
        <ele>862.79998779297</ele>
        <time>2021-05-22T11:47:02Z</time>
      </trkpt>
      <trkpt lat="47.87855" lon="7.12665">
        <ele>863.20001220703</ele>
        <time>2021-05-22T11:47:04Z</time>
      </trkpt>
      <trkpt lat="47.87864" lon="7.12665">
        <ele>864</ele>
        <time>2021-05-22T11:47:08Z</time>
      </trkpt>
      <trkpt lat="47.87869" lon="7.12664">
        <ele>864.40002441406</ele>
        <time>2021-05-22T11:47:10Z</time>
      </trkpt>
      <trkpt lat="47.87881" lon="7.12664">
        <ele>865.59997558594</ele>
        <time>2021-05-22T11:47:15Z</time>
      </trkpt>
      <trkpt lat="47.87898" lon="7.12666">
        <ele>866.79998779297</ele>
        <time>2021-05-22T11:47:22Z</time>
      </trkpt>
      <trkpt lat="47.87903" lon="7.12667">
        <ele>867.20001220703</ele>
        <time>2021-05-22T11:47:24Z</time>
      </trkpt>
      <trkpt lat="47.87911" lon="7.12672">
        <ele>868</ele>
        <time>2021-05-22T11:47:27Z</time>
      </trkpt>
      <trkpt lat="47.87921" lon="7.12676">
        <ele>869</ele>
        <time>2021-05-22T11:47:31Z</time>
      </trkpt>
      <trkpt lat="47.87932" lon="7.12681">
        <ele>870</ele>
        <time>2021-05-22T11:47:35Z</time>
      </trkpt>
      <trkpt lat="47.87941" lon="7.12688">
        <ele>871</ele>
        <time>2021-05-22T11:47:39Z</time>
      </trkpt>
      <trkpt lat="47.87943" lon="7.12689">
        <ele>871.20001220703</ele>
        <time>2021-05-22T11:47:40Z</time>
      </trkpt>
      <trkpt lat="47.87953" lon="7.12692">
        <ele>872.20001220703</ele>
        <time>2021-05-22T11:47:44Z</time>
      </trkpt>
      <trkpt lat="47.87959" lon="7.12694">
        <ele>873.20001220703</ele>
        <time>2021-05-22T11:47:47Z</time>
      </trkpt>
      <trkpt lat="47.87964" lon="7.12694">
        <ele>873.79998779297</ele>
        <time>2021-05-22T11:47:49Z</time>
      </trkpt>
      <trkpt lat="47.87969" lon="7.12694">
        <ele>874.40002441406</ele>
        <time>2021-05-22T11:47:51Z</time>
      </trkpt>
      <trkpt lat="47.87987" lon="7.12698">
        <ele>875.59997558594</ele>
        <time>2021-05-22T11:47:57Z</time>
      </trkpt>
      <trkpt lat="47.87995" lon="7.12709">
        <ele>876</ele>
        <time>2021-05-22T11:48:01Z</time>
      </trkpt>
      <trkpt lat="47.87994" lon="7.12716">
        <ele>876.40002441406</ele>
        <time>2021-05-22T11:48:03Z</time>
      </trkpt>
      <trkpt lat="47.8799" lon="7.1272">
        <ele>877</ele>
        <time>2021-05-22T11:48:05Z</time>
      </trkpt>
      <trkpt lat="47.87987" lon="7.12722">
        <ele>877.59997558594</ele>
        <time>2021-05-22T11:48:06Z</time>
      </trkpt>
      <trkpt lat="47.87979" lon="7.12722">
        <ele>878</ele>
        <time>2021-05-22T11:48:09Z</time>
      </trkpt>
      <trkpt lat="47.87977" lon="7.12721">
        <ele>878.40002441406</ele>
        <time>2021-05-22T11:48:10Z</time>
      </trkpt>
      <trkpt lat="47.87971" lon="7.1272">
        <ele>879.40002441406</ele>
        <time>2021-05-22T11:48:12Z</time>
      </trkpt>
      <trkpt lat="47.87964" lon="7.1272">
        <ele>880.40002441406</ele>
        <time>2021-05-22T11:48:15Z</time>
      </trkpt>
      <trkpt lat="47.87962" lon="7.1272">
        <ele>880.59997558594</ele>
        <time>2021-05-22T11:48:16Z</time>
      </trkpt>
      <trkpt lat="47.87954" lon="7.12723">
        <ele>881.40002441406</ele>
        <time>2021-05-22T11:48:20Z</time>
      </trkpt>
      <trkpt lat="47.87952" lon="7.12723">
        <ele>881.59997558594</ele>
        <time>2021-05-22T11:48:21Z</time>
      </trkpt>
      <trkpt lat="47.87933" lon="7.12725">
        <ele>882.59997558594</ele>
        <time>2021-05-22T11:48:28Z</time>
      </trkpt>
      <trkpt lat="47.87922" lon="7.12728">
        <ele>883.79998779297</ele>
        <time>2021-05-22T11:48:32Z</time>
      </trkpt>
      <trkpt lat="47.87915" lon="7.12731">
        <ele>884.59997558594</ele>
        <time>2021-05-22T11:48:34Z</time>
      </trkpt>
      <trkpt lat="47.87913" lon="7.12734">
        <ele>885</ele>
        <time>2021-05-22T11:48:35Z</time>
      </trkpt>
      <trkpt lat="47.8791" lon="7.1274">
        <ele>885.79998779297</ele>
        <time>2021-05-22T11:48:37Z</time>
      </trkpt>
      <trkpt lat="47.87908" lon="7.12744">
        <ele>886</ele>
        <time>2021-05-22T11:48:38Z</time>
      </trkpt>
      <trkpt lat="47.87907" lon="7.12747">
        <ele>886.40002441406</ele>
        <time>2021-05-22T11:48:39Z</time>
      </trkpt>
      <trkpt lat="47.87903" lon="7.1276">
        <ele>887.20001220703</ele>
        <time>2021-05-22T11:48:42Z</time>
      </trkpt>
      <trkpt lat="47.87905" lon="7.12771">
        <ele>887.59997558594</ele>
        <time>2021-05-22T11:48:45Z</time>
      </trkpt>
      <trkpt lat="47.87906" lon="7.12774">
        <ele>887.79998779297</ele>
        <time>2021-05-22T11:48:46Z</time>
      </trkpt>
      <trkpt lat="47.87908" lon="7.12777">
        <ele>888.20001220703</ele>
        <time>2021-05-22T11:48:47Z</time>
      </trkpt>
      <trkpt lat="47.87911" lon="7.12784">
        <ele>888.59997558594</ele>
        <time>2021-05-22T11:48:49Z</time>
      </trkpt>
      <trkpt lat="47.87913" lon="7.12788">
        <ele>888.79998779297</ele>
        <time>2021-05-22T11:48:50Z</time>
      </trkpt>
      <trkpt lat="47.87921" lon="7.12796">
        <ele>889</ele>
        <time>2021-05-22T11:48:53Z</time>
      </trkpt>
      <trkpt lat="47.87925" lon="7.12799">
        <ele>889.20001220703</ele>
        <time>2021-05-22T11:48:55Z</time>
      </trkpt>
      <trkpt lat="47.87933" lon="7.12803">
        <ele>890</ele>
        <time>2021-05-22T11:48:58Z</time>
      </trkpt>
      <trkpt lat="47.87939" lon="7.12807">
        <ele>890.40002441406</ele>
        <time>2021-05-22T11:49:00Z</time>
      </trkpt>
      <trkpt lat="47.87942" lon="7.12814">
        <ele>891.20001220703</ele>
        <time>2021-05-22T11:49:03Z</time>
      </trkpt>
      <trkpt lat="47.87944" lon="7.12816">
        <ele>891.20001220703</ele>
        <time>2021-05-22T11:49:04Z</time>
      </trkpt>
      <trkpt lat="47.87945" lon="7.12818">
        <ele>891.59997558594</ele>
        <time>2021-05-22T11:49:05Z</time>
      </trkpt>
      <trkpt lat="47.87945" lon="7.1282">
        <ele>891.79998779297</ele>
        <time>2021-05-22T11:49:06Z</time>
      </trkpt>
      <trkpt lat="47.87951" lon="7.12828">
        <ele>893</ele>
        <time>2021-05-22T11:49:10Z</time>
      </trkpt>
      <trkpt lat="47.87957" lon="7.12836">
        <ele>893.79998779297</ele>
        <time>2021-05-22T11:49:13Z</time>
      </trkpt>
      <trkpt lat="47.87959" lon="7.12839">
        <ele>894.20001220703</ele>
        <time>2021-05-22T11:49:14Z</time>
      </trkpt>
      <trkpt lat="47.8796" lon="7.12841">
        <ele>894.40002441406</ele>
        <time>2021-05-22T11:49:15Z</time>
      </trkpt>
      <trkpt lat="47.87964" lon="7.12845">
        <ele>894.79998779297</ele>
        <time>2021-05-22T11:49:17Z</time>
      </trkpt>
      <trkpt lat="47.87966" lon="7.12847">
        <ele>894.79998779297</ele>
        <time>2021-05-22T11:49:18Z</time>
      </trkpt>
      <trkpt lat="47.8797" lon="7.12851">
        <ele>895.20001220703</ele>
        <time>2021-05-22T11:49:20Z</time>
      </trkpt>
      <trkpt lat="47.87978" lon="7.12854">
        <ele>896</ele>
        <time>2021-05-22T11:49:23Z</time>
      </trkpt>
      <trkpt lat="47.8798" lon="7.12856">
        <ele>896.20001220703</ele>
        <time>2021-05-22T11:49:24Z</time>
      </trkpt>
      <trkpt lat="47.87982" lon="7.12857">
        <ele>896.20001220703</ele>
        <time>2021-05-22T11:49:25Z</time>
      </trkpt>
      <trkpt lat="47.87994" lon="7.12866">
        <ele>896.79998779297</ele>
        <time>2021-05-22T11:49:30Z</time>
      </trkpt>
      <trkpt lat="47.88002" lon="7.12867">
        <ele>897.20001220703</ele>
        <time>2021-05-22T11:49:32Z</time>
      </trkpt>
      <trkpt lat="47.88004" lon="7.12868">
        <ele>897.59997558594</ele>
        <time>2021-05-22T11:49:33Z</time>
      </trkpt>
      <trkpt lat="47.88016" lon="7.12871">
        <ele>899.20001220703</ele>
        <time>2021-05-22T11:49:38Z</time>
      </trkpt>
      <trkpt lat="47.88033" lon="7.12877">
        <ele>900.40002441406</ele>
        <time>2021-05-22T11:49:43Z</time>
      </trkpt>
      <trkpt lat="47.88039" lon="7.12876">
        <ele>901.20001220703</ele>
        <time>2021-05-22T11:49:46Z</time>
      </trkpt>
      <trkpt lat="47.88041" lon="7.12876">
        <ele>901.59997558594</ele>
        <time>2021-05-22T11:49:47Z</time>
      </trkpt>
      <trkpt lat="47.88064" lon="7.12882">
        <ele>901.59997558594</ele>
        <time>2021-05-22T11:49:55Z</time>
      </trkpt>
      <trkpt lat="47.88082" lon="7.12871">
        <ele>902</ele>
        <time>2021-05-22T11:50:00Z</time>
      </trkpt>
      <trkpt lat="47.88093" lon="7.12853">
        <ele>903</ele>
        <time>2021-05-22T11:50:05Z</time>
      </trkpt>
      <trkpt lat="47.88093" lon="7.12853">
        <ele>903.40002441406</ele>
        <time>2021-05-22T11:50:06Z</time>
      </trkpt>
      <trkpt lat="47.881" lon="7.12842">
        <ele>904.40002441406</ele>
        <time>2021-05-22T11:50:08Z</time>
      </trkpt>
      <trkpt lat="47.88108" lon="7.12837">
        <ele>904.79998779297</ele>
        <time>2021-05-22T11:50:11Z</time>
      </trkpt>
      <trkpt lat="47.88117" lon="7.12835">
        <ele>905.40002441406</ele>
        <time>2021-05-22T11:50:14Z</time>
      </trkpt>
      <trkpt lat="47.88129" lon="7.12836">
        <ele>906</ele>
        <time>2021-05-22T11:50:18Z</time>
      </trkpt>
      <trkpt lat="47.88146" lon="7.12836">
        <ele>906.40002441406</ele>
        <time>2021-05-22T11:50:23Z</time>
      </trkpt>
      <trkpt lat="47.88149" lon="7.12836">
        <ele>906.40002441406</ele>
        <time>2021-05-22T11:50:24Z</time>
      </trkpt>
      <trkpt lat="47.8816" lon="7.12839">
        <ele>907.59997558594</ele>
        <time>2021-05-22T11:50:28Z</time>
      </trkpt>
      <trkpt lat="47.88163" lon="7.12841">
        <ele>908.20001220703</ele>
        <time>2021-05-22T11:50:30Z</time>
      </trkpt>
      <trkpt lat="47.88165" lon="7.12842">
        <ele>908.59997558594</ele>
        <time>2021-05-22T11:50:31Z</time>
      </trkpt>
      <trkpt lat="47.88169" lon="7.12844">
        <ele>908.79998779297</ele>
        <time>2021-05-22T11:50:33Z</time>
      </trkpt>
      <trkpt lat="47.88181" lon="7.1285">
        <ele>909.79998779297</ele>
        <time>2021-05-22T11:50:38Z</time>
      </trkpt>
      <trkpt lat="47.88187" lon="7.12853">
        <ele>911</ele>
        <time>2021-05-22T11:50:41Z</time>
      </trkpt>
      <trkpt lat="47.88197" lon="7.12857">
        <ele>912</ele>
        <time>2021-05-22T11:50:45Z</time>
      </trkpt>
      <trkpt lat="47.88199" lon="7.12857">
        <ele>912</ele>
        <time>2021-05-22T11:50:46Z</time>
      </trkpt>
      <trkpt lat="47.88209" lon="7.12862">
        <ele>913.20001220703</ele>
        <time>2021-05-22T11:50:50Z</time>
      </trkpt>
      <trkpt lat="47.88212" lon="7.12864">
        <ele>913.59997558594</ele>
        <time>2021-05-22T11:50:51Z</time>
      </trkpt>
      <trkpt lat="47.88222" lon="7.12871">
        <ele>914.20001220703</ele>
        <time>2021-05-22T11:50:55Z</time>
      </trkpt>
      <trkpt lat="47.8823" lon="7.12873">
        <ele>914.79998779297</ele>
        <time>2021-05-22T11:50:58Z</time>
      </trkpt>
      <trkpt lat="47.88237" lon="7.12875">
        <ele>915.59997558594</ele>
        <time>2021-05-22T11:51:01Z</time>
      </trkpt>
      <trkpt lat="47.88246" lon="7.12875">
        <ele>916</ele>
        <time>2021-05-22T11:51:04Z</time>
      </trkpt>
      <trkpt lat="47.88249" lon="7.12874">
        <ele>916.40002441406</ele>
        <time>2021-05-22T11:51:05Z</time>
      </trkpt>
      <trkpt lat="47.88262" lon="7.12874">
        <ele>917.40002441406</ele>
        <time>2021-05-22T11:51:10Z</time>
      </trkpt>
      <trkpt lat="47.88279" lon="7.12877">
        <ele>918.40002441406</ele>
        <time>2021-05-22T11:51:16Z</time>
      </trkpt>
      <trkpt lat="47.8828" lon="7.12878">
        <ele>918.40002441406</ele>
        <time>2021-05-22T11:51:17Z</time>
      </trkpt>
      <trkpt lat="47.88291" lon="7.1288">
        <ele>919</ele>
        <time>2021-05-22T11:51:21Z</time>
      </trkpt>
      <trkpt lat="47.88299" lon="7.12882">
        <ele>919.59997558594</ele>
        <time>2021-05-22T11:51:24Z</time>
      </trkpt>
      <trkpt lat="47.88307" lon="7.12885">
        <ele>920.20001220703</ele>
        <time>2021-05-22T11:51:27Z</time>
      </trkpt>
      <trkpt lat="47.88312" lon="7.12886">
        <ele>920.59997558594</ele>
        <time>2021-05-22T11:51:29Z</time>
      </trkpt>
      <trkpt lat="47.88319" lon="7.12889">
        <ele>921.59997558594</ele>
        <time>2021-05-22T11:51:32Z</time>
      </trkpt>
      <trkpt lat="47.88322" lon="7.1289">
        <ele>921.79998779297</ele>
        <time>2021-05-22T11:51:33Z</time>
      </trkpt>
      <trkpt lat="47.88331" lon="7.12895">
        <ele>922.59997558594</ele>
        <time>2021-05-22T11:51:37Z</time>
      </trkpt>
      <trkpt lat="47.88337" lon="7.12899">
        <ele>923.20001220703</ele>
        <time>2021-05-22T11:51:40Z</time>
      </trkpt>
      <trkpt lat="47.88346" lon="7.12903">
        <ele>923.79998779297</ele>
        <time>2021-05-22T11:51:44Z</time>
      </trkpt>
      <trkpt lat="47.88352" lon="7.12906">
        <ele>924.20001220703</ele>
        <time>2021-05-22T11:51:46Z</time>
      </trkpt>
      <trkpt lat="47.88358" lon="7.1291">
        <ele>924.79998779297</ele>
        <time>2021-05-22T11:51:48Z</time>
      </trkpt>
      <trkpt lat="47.88372" lon="7.12918">
        <ele>925.79998779297</ele>
        <time>2021-05-22T11:51:52Z</time>
      </trkpt>
      <trkpt lat="47.88384" lon="7.12922">
        <ele>926.79998779297</ele>
        <time>2021-05-22T11:51:56Z</time>
      </trkpt>
      <trkpt lat="47.88394" lon="7.12921">
        <ele>927.20001220703</ele>
        <time>2021-05-22T11:51:59Z</time>
      </trkpt>
      <trkpt lat="47.88401" lon="7.12916">
        <ele>927.40002441406</ele>
        <time>2021-05-22T11:52:02Z</time>
      </trkpt>
      <trkpt lat="47.88407" lon="7.12912">
        <ele>927.40002441406</ele>
        <time>2021-05-22T11:52:04Z</time>
      </trkpt>
      <trkpt lat="47.88422" lon="7.12901">
        <ele>927.79998779297</ele>
        <time>2021-05-22T11:52:09Z</time>
      </trkpt>
      <trkpt lat="47.88424" lon="7.12898">
        <ele>928</ele>
        <time>2021-05-22T11:52:10Z</time>
      </trkpt>
      <trkpt lat="47.88436" lon="7.12877">
        <ele>929</ele>
        <time>2021-05-22T11:52:16Z</time>
      </trkpt>
      <trkpt lat="47.8844" lon="7.12865">
        <ele>929.79998779297</ele>
        <time>2021-05-22T11:52:19Z</time>
      </trkpt>
      <trkpt lat="47.88445" lon="7.12858">
        <ele>930.20001220703</ele>
        <time>2021-05-22T11:52:21Z</time>
      </trkpt>
      <trkpt lat="47.88457" lon="7.12844">
        <ele>931</ele>
        <time>2021-05-22T11:52:26Z</time>
      </trkpt>
      <trkpt lat="47.8846" lon="7.12838">
        <ele>931.40002441406</ele>
        <time>2021-05-22T11:52:28Z</time>
      </trkpt>
      <trkpt lat="47.88469" lon="7.12828">
        <ele>932</ele>
        <time>2021-05-22T11:52:32Z</time>
      </trkpt>
      <trkpt lat="47.88474" lon="7.12825">
        <ele>932.40002441406</ele>
        <time>2021-05-22T11:52:34Z</time>
      </trkpt>
      <trkpt lat="47.88478" lon="7.12821">
        <ele>932.79998779297</ele>
        <time>2021-05-22T11:52:36Z</time>
      </trkpt>
      <trkpt lat="47.88488" lon="7.12813">
        <ele>933.59997558594</ele>
        <time>2021-05-22T11:52:40Z</time>
      </trkpt>
      <trkpt lat="47.88498" lon="7.12809">
        <ele>934.79998779297</ele>
        <time>2021-05-22T11:52:44Z</time>
      </trkpt>
      <trkpt lat="47.88504" lon="7.12808">
        <ele>935.20001220703</ele>
        <time>2021-05-22T11:52:46Z</time>
      </trkpt>
      <trkpt lat="47.88509" lon="7.12807">
        <ele>935.79998779297</ele>
        <time>2021-05-22T11:52:48Z</time>
      </trkpt>
      <trkpt lat="47.88512" lon="7.12807">
        <ele>936.40002441406</ele>
        <time>2021-05-22T11:52:49Z</time>
      </trkpt>
      <trkpt lat="47.88522" lon="7.12805">
        <ele>937.79998779297</ele>
        <time>2021-05-22T11:52:53Z</time>
      </trkpt>
      <trkpt lat="47.88525" lon="7.12804">
        <ele>938</ele>
        <time>2021-05-22T11:52:54Z</time>
      </trkpt>
      <trkpt lat="47.88533" lon="7.12801">
        <ele>938.79998779297</ele>
        <time>2021-05-22T11:52:57Z</time>
      </trkpt>
      <trkpt lat="47.88546" lon="7.12798">
        <ele>939.59997558594</ele>
        <time>2021-05-22T11:53:01Z</time>
      </trkpt>
      <trkpt lat="47.88549" lon="7.12797">
        <ele>940</ele>
        <time>2021-05-22T11:53:02Z</time>
      </trkpt>
      <trkpt lat="47.88558" lon="7.12796">
        <ele>941</ele>
        <time>2021-05-22T11:53:05Z</time>
      </trkpt>
      <trkpt lat="47.88561" lon="7.12796">
        <ele>941</ele>
        <time>2021-05-22T11:53:06Z</time>
      </trkpt>
      <trkpt lat="47.88575" lon="7.1279">
        <ele>942</ele>
        <time>2021-05-22T11:53:10Z</time>
      </trkpt>
      <trkpt lat="47.8858" lon="7.12786">
        <ele>942.40002441406</ele>
        <time>2021-05-22T11:53:12Z</time>
      </trkpt>
      <trkpt lat="47.88588" lon="7.1278">
        <ele>943</ele>
        <time>2021-05-22T11:53:15Z</time>
      </trkpt>
      <trkpt lat="47.88598" lon="7.12766">
        <ele>943.79998779297</ele>
        <time>2021-05-22T11:53:19Z</time>
      </trkpt>
      <trkpt lat="47.88601" lon="7.12759">
        <ele>944</ele>
        <time>2021-05-22T11:53:21Z</time>
      </trkpt>
      <trkpt lat="47.88606" lon="7.12738">
        <ele>944.40002441406</ele>
        <time>2021-05-22T11:53:25Z</time>
      </trkpt>
      <trkpt lat="47.88608" lon="7.12704">
        <ele>945</ele>
        <time>2021-05-22T11:53:31Z</time>
      </trkpt>
      <trkpt lat="47.88607" lon="7.12699">
        <ele>945.40002441406</ele>
        <time>2021-05-22T11:53:32Z</time>
      </trkpt>
      <trkpt lat="47.88606" lon="7.12676">
        <ele>946.59997558594</ele>
        <time>2021-05-22T11:53:37Z</time>
      </trkpt>
      <trkpt lat="47.88606" lon="7.12668">
        <ele>946.79998779297</ele>
        <time>2021-05-22T11:53:39Z</time>
      </trkpt>
      <trkpt lat="47.88605" lon="7.12648">
        <ele>947.59997558594</ele>
        <time>2021-05-22T11:53:44Z</time>
      </trkpt>
      <trkpt lat="47.88604" lon="7.12641">
        <ele>948</ele>
        <time>2021-05-22T11:53:46Z</time>
      </trkpt>
      <trkpt lat="47.88603" lon="7.12621">
        <ele>948.79998779297</ele>
        <time>2021-05-22T11:53:51Z</time>
      </trkpt>
      <trkpt lat="47.88601" lon="7.12606">
        <ele>949.59997558594</ele>
        <time>2021-05-22T11:53:55Z</time>
      </trkpt>
      <trkpt lat="47.88601" lon="7.12602">
        <ele>949.79998779297</ele>
        <time>2021-05-22T11:53:56Z</time>
      </trkpt>
      <trkpt lat="47.88597" lon="7.12588">
        <ele>951.20001220703</ele>
        <time>2021-05-22T11:54:00Z</time>
      </trkpt>
      <trkpt lat="47.88594" lon="7.12573">
        <ele>951.79998779297</ele>
        <time>2021-05-22T11:54:04Z</time>
      </trkpt>
      <trkpt lat="47.88593" lon="7.12566">
        <ele>952.20001220703</ele>
        <time>2021-05-22T11:54:06Z</time>
      </trkpt>
      <trkpt lat="47.88591" lon="7.12555">
        <ele>953.59997558594</ele>
        <time>2021-05-22T11:54:09Z</time>
      </trkpt>
      <trkpt lat="47.88588" lon="7.12544">
        <ele>954.20001220703</ele>
        <time>2021-05-22T11:54:12Z</time>
      </trkpt>
      <trkpt lat="47.88586" lon="7.12537">
        <ele>954.59997558594</ele>
        <time>2021-05-22T11:54:14Z</time>
      </trkpt>
      <trkpt lat="47.88585" lon="7.12522">
        <ele>955.40002441406</ele>
        <time>2021-05-22T11:54:18Z</time>
      </trkpt>
      <trkpt lat="47.88584" lon="7.12514">
        <ele>955.79998779297</ele>
        <time>2021-05-22T11:54:20Z</time>
      </trkpt>
      <trkpt lat="47.88583" lon="7.12505">
        <ele>956.79998779297</ele>
        <time>2021-05-22T11:54:23Z</time>
      </trkpt>
      <trkpt lat="47.88584" lon="7.125">
        <ele>957.20001220703</ele>
        <time>2021-05-22T11:54:25Z</time>
      </trkpt>
      <trkpt lat="47.88584" lon="7.1249">
        <ele>958</ele>
        <time>2021-05-22T11:54:28Z</time>
      </trkpt>
      <trkpt lat="47.88582" lon="7.12482">
        <ele>959</ele>
        <time>2021-05-22T11:54:31Z</time>
      </trkpt>
      <trkpt lat="47.88582" lon="7.12479">
        <ele>959.40002441406</ele>
        <time>2021-05-22T11:54:32Z</time>
      </trkpt>
      <trkpt lat="47.88581" lon="7.12474">
        <ele>959.79998779297</ele>
        <time>2021-05-22T11:54:34Z</time>
      </trkpt>
      <trkpt lat="47.88581" lon="7.12469">
        <ele>960.40002441406</ele>
        <time>2021-05-22T11:54:36Z</time>
      </trkpt>
      <trkpt lat="47.88577" lon="7.12448">
        <ele>961</ele>
        <time>2021-05-22T11:54:40Z</time>
      </trkpt>
      <trkpt lat="47.88577" lon="7.12443">
        <ele>961.40002441406</ele>
        <time>2021-05-22T11:54:41Z</time>
      </trkpt>
      <trkpt lat="47.88574" lon="7.12425">
        <ele>962.59997558594</ele>
        <time>2021-05-22T11:54:45Z</time>
      </trkpt>
      <trkpt lat="47.88572" lon="7.1242">
        <ele>963</ele>
        <time>2021-05-22T11:54:46Z</time>
      </trkpt>
      <trkpt lat="47.88568" lon="7.12402">
        <ele>963.59997558594</ele>
        <time>2021-05-22T11:54:50Z</time>
      </trkpt>
      <trkpt lat="47.88564" lon="7.1239">
        <ele>964.59997558594</ele>
        <time>2021-05-22T11:54:53Z</time>
      </trkpt>
      <trkpt lat="47.88561" lon="7.12382">
        <ele>965</ele>
        <time>2021-05-22T11:54:55Z</time>
      </trkpt>
      <trkpt lat="47.88557" lon="7.12375">
        <ele>965.79998779297</ele>
        <time>2021-05-22T11:54:57Z</time>
      </trkpt>
      <trkpt lat="47.88556" lon="7.12368">
        <ele>966.40002441406</ele>
        <time>2021-05-22T11:54:59Z</time>
      </trkpt>
      <trkpt lat="47.8855" lon="7.12349">
        <ele>967.20001220703</ele>
        <time>2021-05-22T11:55:04Z</time>
      </trkpt>
      <trkpt lat="47.88549" lon="7.12345">
        <ele>967.40002441406</ele>
        <time>2021-05-22T11:55:05Z</time>
      </trkpt>
      <trkpt lat="47.88547" lon="7.12332">
        <ele>968.40002441406</ele>
        <time>2021-05-22T11:55:09Z</time>
      </trkpt>
      <trkpt lat="47.88546" lon="7.12325">
        <ele>968.79998779297</ele>
        <time>2021-05-22T11:55:11Z</time>
      </trkpt>
      <trkpt lat="47.88545" lon="7.12314">
        <ele>969.40002441406</ele>
        <time>2021-05-22T11:55:14Z</time>
      </trkpt>
      <trkpt lat="47.88544" lon="7.12307">
        <ele>970</ele>
        <time>2021-05-22T11:55:16Z</time>
      </trkpt>
      <trkpt lat="47.88543" lon="7.123">
        <ele>970.79998779297</ele>
        <time>2021-05-22T11:55:18Z</time>
      </trkpt>
      <trkpt lat="47.8854" lon="7.12284">
        <ele>971.79998779297</ele>
        <time>2021-05-22T11:55:23Z</time>
      </trkpt>
      <trkpt lat="47.8854" lon="7.12281">
        <ele>972</ele>
        <time>2021-05-22T11:55:24Z</time>
      </trkpt>
      <trkpt lat="47.88538" lon="7.12264">
        <ele>973</ele>
        <time>2021-05-22T11:55:29Z</time>
      </trkpt>
      <trkpt lat="47.88537" lon="7.12257">
        <ele>973.40002441406</ele>
        <time>2021-05-22T11:55:31Z</time>
      </trkpt>
      <trkpt lat="47.88534" lon="7.12243">
        <ele>974.20001220703</ele>
        <time>2021-05-22T11:55:35Z</time>
      </trkpt>
      <trkpt lat="47.88533" lon="7.12236">
        <ele>974.59997558594</ele>
        <time>2021-05-22T11:55:37Z</time>
      </trkpt>
      <trkpt lat="47.88532" lon="7.12229">
        <ele>975.20001220703</ele>
        <time>2021-05-22T11:55:39Z</time>
      </trkpt>
      <trkpt lat="47.88532" lon="7.12217">
        <ele>976.40002441406</ele>
        <time>2021-05-22T11:55:42Z</time>
      </trkpt>
      <trkpt lat="47.88532" lon="7.12205">
        <ele>977.59997558594</ele>
        <time>2021-05-22T11:55:46Z</time>
      </trkpt>
      <trkpt lat="47.88532" lon="7.12202">
        <ele>977.79998779297</ele>
        <time>2021-05-22T11:55:47Z</time>
      </trkpt>
      <trkpt lat="47.88532" lon="7.12188">
        <ele>978.59997558594</ele>
        <time>2021-05-22T11:55:51Z</time>
      </trkpt>
      <trkpt lat="47.88531" lon="7.12181">
        <ele>979.20001220703</ele>
        <time>2021-05-22T11:55:53Z</time>
      </trkpt>
      <trkpt lat="47.88531" lon="7.12176">
        <ele>979.79998779297</ele>
        <time>2021-05-22T11:55:55Z</time>
      </trkpt>
      <trkpt lat="47.88528" lon="7.12148">
        <ele>981</ele>
        <time>2021-05-22T11:56:03Z</time>
      </trkpt>
      <trkpt lat="47.88525" lon="7.1213">
        <ele>982.40002441406</ele>
        <time>2021-05-22T11:56:08Z</time>
      </trkpt>
      <trkpt lat="47.88524" lon="7.12117">
        <ele>982.79998779297</ele>
        <time>2021-05-22T11:56:12Z</time>
      </trkpt>
      <trkpt lat="47.88523" lon="7.12111">
        <ele>983.40002441406</ele>
        <time>2021-05-22T11:56:14Z</time>
      </trkpt>
      <trkpt lat="47.88522" lon="7.12098">
        <ele>984.40002441406</ele>
        <time>2021-05-22T11:56:18Z</time>
      </trkpt>
      <trkpt lat="47.88522" lon="7.12076">
        <ele>985.79998779297</ele>
        <time>2021-05-22T11:56:24Z</time>
      </trkpt>
      <trkpt lat="47.88522" lon="7.12073">
        <ele>986</ele>
        <time>2021-05-22T11:56:25Z</time>
      </trkpt>
      <trkpt lat="47.88522" lon="7.12057">
        <ele>987</ele>
        <time>2021-05-22T11:56:29Z</time>
      </trkpt>
      <trkpt lat="47.88526" lon="7.12044">
        <ele>987.79998779297</ele>
        <time>2021-05-22T11:56:33Z</time>
      </trkpt>
      <trkpt lat="47.88526" lon="7.1204">
        <ele>988.20001220703</ele>
        <time>2021-05-22T11:56:34Z</time>
      </trkpt>
      <trkpt lat="47.88531" lon="7.12029">
        <ele>989.40002441406</ele>
        <time>2021-05-22T11:56:38Z</time>
      </trkpt>
      <trkpt lat="47.88534" lon="7.12015">
        <ele>990</ele>
        <time>2021-05-22T11:56:42Z</time>
      </trkpt>
      <trkpt lat="47.88535" lon="7.12012">
        <ele>990.40002441406</ele>
        <time>2021-05-22T11:56:43Z</time>
      </trkpt>
      <trkpt lat="47.88539" lon="7.11989">
        <ele>991.40002441406</ele>
        <time>2021-05-22T11:56:49Z</time>
      </trkpt>
      <trkpt lat="47.88542" lon="7.11978">
        <ele>992</ele>
        <time>2021-05-22T11:56:52Z</time>
      </trkpt>
      <trkpt lat="47.88545" lon="7.11962">
        <ele>992.79998779297</ele>
        <time>2021-05-22T11:56:56Z</time>
      </trkpt>
      <trkpt lat="47.88548" lon="7.11955">
        <ele>993</ele>
        <time>2021-05-22T11:56:58Z</time>
      </trkpt>
      <trkpt lat="47.88554" lon="7.11949">
        <ele>993.59997558594</ele>
        <time>2021-05-22T11:57:01Z</time>
      </trkpt>
      <trkpt lat="47.88556" lon="7.11949">
        <ele>993.59997558594</ele>
        <time>2021-05-22T11:57:02Z</time>
      </trkpt>
      <trkpt lat="47.88559" lon="7.1195">
        <ele>993.59997558594</ele>
        <time>2021-05-22T11:57:03Z</time>
      </trkpt>
      <trkpt lat="47.88561" lon="7.11953">
        <ele>993.79998779297</ele>
        <time>2021-05-22T11:57:04Z</time>
      </trkpt>
      <trkpt lat="47.88562" lon="7.11956">
        <ele>993.79998779297</ele>
        <time>2021-05-22T11:57:05Z</time>
      </trkpt>
      <trkpt lat="47.88561" lon="7.1196">
        <ele>994.20001220703</ele>
        <time>2021-05-22T11:57:06Z</time>
      </trkpt>
      <trkpt lat="47.88557" lon="7.11975">
        <ele>995</ele>
        <time>2021-05-22T11:57:10Z</time>
      </trkpt>
      <trkpt lat="47.88554" lon="7.11982">
        <ele>995.59997558594</ele>
        <time>2021-05-22T11:57:12Z</time>
      </trkpt>
      <trkpt lat="47.88551" lon="7.11994">
        <ele>996</ele>
        <time>2021-05-22T11:57:15Z</time>
      </trkpt>
      <trkpt lat="47.88548" lon="7.12009">
        <ele>996.40002441406</ele>
        <time>2021-05-22T11:57:18Z</time>
      </trkpt>
      <trkpt lat="47.88547" lon="7.12024">
        <ele>997</ele>
        <time>2021-05-22T11:57:21Z</time>
      </trkpt>
      <trkpt lat="47.88547" lon="7.12044">
        <ele>997.79998779297</ele>
        <time>2021-05-22T11:57:25Z</time>
      </trkpt>
      <trkpt lat="47.88548" lon="7.12054">
        <ele>998.20001220703</ele>
        <time>2021-05-22T11:57:27Z</time>
      </trkpt>
      <trkpt lat="47.88551" lon="7.12072">
        <ele>999.59997558594</ele>
        <time>2021-05-22T11:57:31Z</time>
      </trkpt>
      <trkpt lat="47.88553" lon="7.12077">
        <ele>999.79998779297</ele>
        <time>2021-05-22T11:57:32Z</time>
      </trkpt>
      <trkpt lat="47.88557" lon="7.12095">
        <ele>1000.5999755859</ele>
        <time>2021-05-22T11:57:36Z</time>
      </trkpt>
      <trkpt lat="47.88558" lon="7.12099">
        <ele>1001</ele>
        <time>2021-05-22T11:57:37Z</time>
      </trkpt>
      <trkpt lat="47.88561" lon="7.12107">
        <ele>1001.5999755859</ele>
        <time>2021-05-22T11:57:39Z</time>
      </trkpt>
      <trkpt lat="47.88567" lon="7.12118">
        <ele>1002.799987793</ele>
        <time>2021-05-22T11:57:42Z</time>
      </trkpt>
      <trkpt lat="47.88568" lon="7.12121">
        <ele>1003</ele>
        <time>2021-05-22T11:57:43Z</time>
      </trkpt>
      <trkpt lat="47.88572" lon="7.12126">
        <ele>1003.4000244141</ele>
        <time>2021-05-22T11:57:45Z</time>
      </trkpt>
      <trkpt lat="47.88576" lon="7.12137">
        <ele>1004</ele>
        <time>2021-05-22T11:57:48Z</time>
      </trkpt>
      <trkpt lat="47.88585" lon="7.12156">
        <ele>1005.4000244141</ele>
        <time>2021-05-22T11:57:53Z</time>
      </trkpt>
      <trkpt lat="47.88588" lon="7.1216">
        <ele>1005.5999755859</ele>
        <time>2021-05-22T11:57:54Z</time>
      </trkpt>
      <trkpt lat="47.88595" lon="7.12178">
        <ele>1006.5999755859</ele>
        <time>2021-05-22T11:57:59Z</time>
      </trkpt>
      <trkpt lat="47.88605" lon="7.12195">
        <ele>1007.5999755859</ele>
        <time>2021-05-22T11:58:04Z</time>
      </trkpt>
      <trkpt lat="47.88618" lon="7.12215">
        <ele>1008.799987793</ele>
        <time>2021-05-22T11:58:09Z</time>
      </trkpt>
      <trkpt lat="47.88619" lon="7.12219">
        <ele>1009.200012207</ele>
        <time>2021-05-22T11:58:10Z</time>
      </trkpt>
      <trkpt lat="47.88622" lon="7.12224">
        <ele>1010</ele>
        <time>2021-05-22T11:58:12Z</time>
      </trkpt>
      <trkpt lat="47.88627" lon="7.12237">
        <ele>1011</ele>
        <time>2021-05-22T11:58:16Z</time>
      </trkpt>
      <trkpt lat="47.88634" lon="7.12252">
        <ele>1012</ele>
        <time>2021-05-22T11:58:20Z</time>
      </trkpt>
      <trkpt lat="47.88639" lon="7.12263">
        <ele>1012.5999755859</ele>
        <time>2021-05-22T11:58:23Z</time>
      </trkpt>
      <trkpt lat="47.88642" lon="7.12272">
        <ele>1013</ele>
        <time>2021-05-22T11:58:26Z</time>
      </trkpt>
      <trkpt lat="47.88645" lon="7.12273">
        <ele>1013.200012207</ele>
        <time>2021-05-22T11:58:27Z</time>
      </trkpt>
      <trkpt lat="47.88651" lon="7.12279">
        <ele>1014.4000244141</ele>
        <time>2021-05-22T11:58:30Z</time>
      </trkpt>
      <trkpt lat="47.88654" lon="7.1228">
        <ele>1014.799987793</ele>
        <time>2021-05-22T11:58:31Z</time>
      </trkpt>
      <trkpt lat="47.88657" lon="7.12282">
        <ele>1015.5999755859</ele>
        <time>2021-05-22T11:58:33Z</time>
      </trkpt>
      <trkpt lat="47.88664" lon="7.12293">
        <ele>1016.200012207</ele>
        <time>2021-05-22T11:58:35Z</time>
      </trkpt>
      <trkpt lat="47.88668" lon="7.12301">
        <ele>1016.5999755859</ele>
        <time>2021-05-22T11:58:38Z</time>
      </trkpt>
      <trkpt lat="47.88676" lon="7.12314">
        <ele>1017.5999755859</ele>
        <time>2021-05-22T11:58:42Z</time>
      </trkpt>
      <trkpt lat="47.88678" lon="7.12316">
        <ele>1017.799987793</ele>
        <time>2021-05-22T11:58:43Z</time>
      </trkpt>
      <trkpt lat="47.8868" lon="7.12327">
        <ele>1019</ele>
        <time>2021-05-22T11:58:47Z</time>
      </trkpt>
      <trkpt lat="47.88684" lon="7.12329">
        <ele>1019.5999755859</ele>
        <time>2021-05-22T11:58:49Z</time>
      </trkpt>
      <trkpt lat="47.88685" lon="7.12331">
        <ele>1019.5999755859</ele>
        <time>2021-05-22T11:58:50Z</time>
      </trkpt>
      <trkpt lat="47.88687" lon="7.12336">
        <ele>1020</ele>
        <time>2021-05-22T11:58:52Z</time>
      </trkpt>
      <trkpt lat="47.88689" lon="7.1234">
        <ele>1020.799987793</ele>
        <time>2021-05-22T11:58:54Z</time>
      </trkpt>
      <trkpt lat="47.8869" lon="7.12342">
        <ele>1021.200012207</ele>
        <time>2021-05-22T11:58:55Z</time>
      </trkpt>
      <trkpt lat="47.88691" lon="7.12344">
        <ele>1021.4000244141</ele>
        <time>2021-05-22T11:58:56Z</time>
      </trkpt>
      <trkpt lat="47.88694" lon="7.12348">
        <ele>1022.200012207</ele>
        <time>2021-05-22T11:58:58Z</time>
      </trkpt>
      <trkpt lat="47.88696" lon="7.12349">
        <ele>1022.5999755859</ele>
        <time>2021-05-22T11:58:59Z</time>
      </trkpt>
      <trkpt lat="47.88705" lon="7.12357">
        <ele>1023.799987793</ele>
        <time>2021-05-22T11:59:03Z</time>
      </trkpt>
      <trkpt lat="47.88711" lon="7.12362">
        <ele>1024.1999511719</ele>
        <time>2021-05-22T11:59:05Z</time>
      </trkpt>
      <trkpt lat="47.88717" lon="7.12364">
        <ele>1025</ele>
        <time>2021-05-22T11:59:07Z</time>
      </trkpt>
      <trkpt lat="47.8873" lon="7.12366">
        <ele>1026.1999511719</ele>
        <time>2021-05-22T11:59:11Z</time>
      </trkpt>
      <trkpt lat="47.88754" lon="7.12361">
        <ele>1027.1999511719</ele>
        <time>2021-05-22T11:59:18Z</time>
      </trkpt>
      <trkpt lat="47.88758" lon="7.1236">
        <ele>1027.4000244141</ele>
        <time>2021-05-22T11:59:19Z</time>
      </trkpt>
      <trkpt lat="47.8877" lon="7.12353">
        <ele>1028.1999511719</ele>
        <time>2021-05-22T11:59:23Z</time>
      </trkpt>
      <trkpt lat="47.88775" lon="7.12346">
        <ele>1029.4000244141</ele>
        <time>2021-05-22T11:59:26Z</time>
      </trkpt>
      <trkpt lat="47.88778" lon="7.12342">
        <ele>1029.4000244141</ele>
        <time>2021-05-22T11:59:27Z</time>
      </trkpt>
      <trkpt lat="47.88783" lon="7.12335">
        <ele>1030.5999755859</ele>
        <time>2021-05-22T11:59:30Z</time>
      </trkpt>
      <trkpt lat="47.88788" lon="7.1232">
        <ele>1031.8000488281</ele>
        <time>2021-05-22T11:59:34Z</time>
      </trkpt>
      <trkpt lat="47.88793" lon="7.12308">
        <ele>1032.5999755859</ele>
        <time>2021-05-22T11:59:38Z</time>
      </trkpt>
      <trkpt lat="47.88794" lon="7.12305">
        <ele>1032.8000488281</ele>
        <time>2021-05-22T11:59:39Z</time>
      </trkpt>
      <trkpt lat="47.88795" lon="7.12301">
        <ele>1032.8000488281</ele>
        <time>2021-05-22T11:59:40Z</time>
      </trkpt>
      <trkpt lat="47.88801" lon="7.12287">
        <ele>1034</ele>
        <time>2021-05-22T11:59:44Z</time>
      </trkpt>
      <trkpt lat="47.88802" lon="7.12284">
        <ele>1034.1999511719</ele>
        <time>2021-05-22T11:59:45Z</time>
      </trkpt>
      <trkpt lat="47.88806" lon="7.12269">
        <ele>1035.4000244141</ele>
        <time>2021-05-22T11:59:49Z</time>
      </trkpt>
      <trkpt lat="47.8881" lon="7.12253">
        <ele>1036.1999511719</ele>
        <time>2021-05-22T11:59:54Z</time>
      </trkpt>
      <trkpt lat="47.88811" lon="7.1225">
        <ele>1036.5999755859</ele>
        <time>2021-05-22T11:59:55Z</time>
      </trkpt>
      <trkpt lat="47.88817" lon="7.12236">
        <ele>1037.8000488281</ele>
        <time>2021-05-22T12:00:00Z</time>
      </trkpt>
      <trkpt lat="47.88818" lon="7.12233">
        <ele>1038</ele>
        <time>2021-05-22T12:00:01Z</time>
      </trkpt>
      <trkpt lat="47.88825" lon="7.1222">
        <ele>1039</ele>
        <time>2021-05-22T12:00:06Z</time>
      </trkpt>
      <trkpt lat="47.88828" lon="7.12216">
        <ele>1039.5999755859</ele>
        <time>2021-05-22T12:00:08Z</time>
      </trkpt>
      <trkpt lat="47.88831" lon="7.12211">
        <ele>1040</ele>
        <time>2021-05-22T12:00:10Z</time>
      </trkpt>
      <trkpt lat="47.88837" lon="7.12197">
        <ele>1041.1999511719</ele>
        <time>2021-05-22T12:00:15Z</time>
      </trkpt>
      <trkpt lat="47.88843" lon="7.12188">
        <ele>1042.1999511719</ele>
        <time>2021-05-22T12:00:19Z</time>
      </trkpt>
      <trkpt lat="47.88844" lon="7.12185">
        <ele>1042.4000244141</ele>
        <time>2021-05-22T12:00:20Z</time>
      </trkpt>
      <trkpt lat="47.88849" lon="7.12174">
        <ele>1043.5999755859</ele>
        <time>2021-05-22T12:00:24Z</time>
      </trkpt>
      <trkpt lat="47.88854" lon="7.12165">
        <ele>1044.1999511719</ele>
        <time>2021-05-22T12:00:27Z</time>
      </trkpt>
      <trkpt lat="47.88857" lon="7.1216">
        <ele>1044.8000488281</ele>
        <time>2021-05-22T12:00:29Z</time>
      </trkpt>
      <trkpt lat="47.88864" lon="7.12147">
        <ele>1045.8000488281</ele>
        <time>2021-05-22T12:00:34Z</time>
      </trkpt>
      <trkpt lat="47.88873" lon="7.12126">
        <ele>1047</ele>
        <time>2021-05-22T12:00:41Z</time>
      </trkpt>
      <trkpt lat="47.88874" lon="7.12124">
        <ele>1047.1999511719</ele>
        <time>2021-05-22T12:00:42Z</time>
      </trkpt>
      <trkpt lat="47.88878" lon="7.12116">
        <ele>1048.1999511719</ele>
        <time>2021-05-22T12:00:45Z</time>
      </trkpt>
      <trkpt lat="47.88887" lon="7.12105">
        <ele>1048.8000488281</ele>
        <time>2021-05-22T12:00:49Z</time>
      </trkpt>
      <trkpt lat="47.88889" lon="7.12103">
        <ele>1049.4000244141</ele>
        <time>2021-05-22T12:00:50Z</time>
      </trkpt>
      <trkpt lat="47.88898" lon="7.12094">
        <ele>1050.5999755859</ele>
        <time>2021-05-22T12:00:55Z</time>
      </trkpt>
      <trkpt lat="47.889" lon="7.12092">
        <ele>1050.8000488281</ele>
        <time>2021-05-22T12:00:56Z</time>
      </trkpt>
      <trkpt lat="47.88906" lon="7.12087">
        <ele>1051.8000488281</ele>
        <time>2021-05-22T12:00:59Z</time>
      </trkpt>
      <trkpt lat="47.88911" lon="7.12083">
        <ele>1052.8000488281</ele>
        <time>2021-05-22T12:01:02Z</time>
      </trkpt>
      <trkpt lat="47.88913" lon="7.12082">
        <ele>1053</ele>
        <time>2021-05-22T12:01:03Z</time>
      </trkpt>
      <trkpt lat="47.88923" lon="7.12073">
        <ele>1054.1999511719</ele>
        <time>2021-05-22T12:01:08Z</time>
      </trkpt>
      <trkpt lat="47.88929" lon="7.12067">
        <ele>1055.1999511719</ele>
        <time>2021-05-22T12:01:11Z</time>
      </trkpt>
      <trkpt lat="47.88933" lon="7.12064">
        <ele>1055.8000488281</ele>
        <time>2021-05-22T12:01:13Z</time>
      </trkpt>
      <trkpt lat="47.88939" lon="7.12061">
        <ele>1056.4000244141</ele>
        <time>2021-05-22T12:01:16Z</time>
      </trkpt>
      <trkpt lat="47.88941" lon="7.12059">
        <ele>1056.5999755859</ele>
        <time>2021-05-22T12:01:17Z</time>
      </trkpt>
      <trkpt lat="47.88951" lon="7.12052">
        <ele>1057.4000244141</ele>
        <time>2021-05-22T12:01:21Z</time>
      </trkpt>
      <trkpt lat="47.88962" lon="7.12044">
        <ele>1058.5999755859</ele>
        <time>2021-05-22T12:01:26Z</time>
      </trkpt>
      <trkpt lat="47.88975" lon="7.12038">
        <ele>1059.8000488281</ele>
        <time>2021-05-22T12:01:31Z</time>
      </trkpt>
      <trkpt lat="47.88984" lon="7.12035">
        <ele>1060.4000244141</ele>
        <time>2021-05-22T12:01:34Z</time>
      </trkpt>
      <trkpt lat="47.89001" lon="7.12025">
        <ele>1060.5999755859</ele>
        <time>2021-05-22T12:01:41Z</time>
      </trkpt>
      <trkpt lat="47.89007" lon="7.12022">
        <ele>1060.8000488281</ele>
        <time>2021-05-22T12:01:43Z</time>
      </trkpt>
      <trkpt lat="47.89018" lon="7.12013">
        <ele>1061.1999511719</ele>
        <time>2021-05-22T12:01:47Z</time>
      </trkpt>
      <trkpt lat="47.89038" lon="7.11999">
        <ele>1062</ele>
        <time>2021-05-22T12:01:54Z</time>
      </trkpt>
      <trkpt lat="47.8904" lon="7.11997">
        <ele>1062.4000244141</ele>
        <time>2021-05-22T12:01:55Z</time>
      </trkpt>
      <trkpt lat="47.89046" lon="7.11992">
        <ele>1063.1999511719</ele>
        <time>2021-05-22T12:01:58Z</time>
      </trkpt>
      <trkpt lat="47.89054" lon="7.11984">
        <ele>1064.1999511719</ele>
        <time>2021-05-22T12:02:02Z</time>
      </trkpt>
      <trkpt lat="47.89058" lon="7.11981">
        <ele>1065.4000244141</ele>
        <time>2021-05-22T12:02:04Z</time>
      </trkpt>
      <trkpt lat="47.89065" lon="7.11975">
        <ele>1066.4000244141</ele>
        <time>2021-05-22T12:02:08Z</time>
      </trkpt>
      <trkpt lat="47.89075" lon="7.11966">
        <ele>1067.8000488281</ele>
        <time>2021-05-22T12:02:13Z</time>
      </trkpt>
      <trkpt lat="47.89082" lon="7.11961">
        <ele>1068</ele>
        <time>2021-05-22T12:02:16Z</time>
      </trkpt>
      <trkpt lat="47.8909" lon="7.11956">
        <ele>1069</ele>
        <time>2021-05-22T12:02:20Z</time>
      </trkpt>
      <trkpt lat="47.89098" lon="7.11949">
        <ele>1070.4000244141</ele>
        <time>2021-05-22T12:02:24Z</time>
      </trkpt>
      <trkpt lat="47.89111" lon="7.11937">
        <ele>1071.4000244141</ele>
        <time>2021-05-22T12:02:31Z</time>
      </trkpt>
      <trkpt lat="47.89117" lon="7.11931">
        <ele>1072</ele>
        <time>2021-05-22T12:02:34Z</time>
      </trkpt>
      <trkpt lat="47.89124" lon="7.11923">
        <ele>1072.5999755859</ele>
        <time>2021-05-22T12:02:38Z</time>
      </trkpt>
      <trkpt lat="47.8913" lon="7.11916">
        <ele>1073.5999755859</ele>
        <time>2021-05-22T12:02:41Z</time>
      </trkpt>
      <trkpt lat="47.89131" lon="7.11914">
        <ele>1073.8000488281</ele>
        <time>2021-05-22T12:02:42Z</time>
      </trkpt>
      <trkpt lat="47.89143" lon="7.11897">
        <ele>1074.5999755859</ele>
        <time>2021-05-22T12:02:49Z</time>
      </trkpt>
      <trkpt lat="47.89146" lon="7.11892">
        <ele>1075</ele>
        <time>2021-05-22T12:02:51Z</time>
      </trkpt>
      <trkpt lat="47.89152" lon="7.11883">
        <ele>1076</ele>
        <time>2021-05-22T12:02:54Z</time>
      </trkpt>
      <trkpt lat="47.89155" lon="7.11878">
        <ele>1076.5999755859</ele>
        <time>2021-05-22T12:02:56Z</time>
      </trkpt>
      <trkpt lat="47.89159" lon="7.11872">
        <ele>1077.1999511719</ele>
        <time>2021-05-22T12:02:58Z</time>
      </trkpt>
      <trkpt lat="47.89167" lon="7.1186">
        <ele>1078.4000244141</ele>
        <time>2021-05-22T12:03:03Z</time>
      </trkpt>
      <trkpt lat="47.89173" lon="7.1185">
        <ele>1079</ele>
        <time>2021-05-22T12:03:07Z</time>
      </trkpt>
      <trkpt lat="47.89175" lon="7.11847">
        <ele>1079.4000244141</ele>
        <time>2021-05-22T12:03:08Z</time>
      </trkpt>
      <trkpt lat="47.89181" lon="7.1184">
        <ele>1080.5999755859</ele>
        <time>2021-05-22T12:03:11Z</time>
      </trkpt>
      <trkpt lat="47.89185" lon="7.11837">
        <ele>1081.5999755859</ele>
        <time>2021-05-22T12:03:13Z</time>
      </trkpt>
      <trkpt lat="47.89192" lon="7.11832">
        <ele>1082.1999511719</ele>
        <time>2021-05-22T12:03:16Z</time>
      </trkpt>
      <trkpt lat="47.89196" lon="7.1183">
        <ele>1082.8000488281</ele>
        <time>2021-05-22T12:03:18Z</time>
      </trkpt>
      <trkpt lat="47.89201" lon="7.11829">
        <ele>1084</ele>
        <time>2021-05-22T12:03:20Z</time>
      </trkpt>
      <trkpt lat="47.89207" lon="7.11826">
        <ele>1084.5999755859</ele>
        <time>2021-05-22T12:03:23Z</time>
      </trkpt>
      <trkpt lat="47.89214" lon="7.11824">
        <ele>1085.1999511719</ele>
        <time>2021-05-22T12:03:26Z</time>
      </trkpt>
      <trkpt lat="47.89225" lon="7.1182">
        <ele>1086.1999511719</ele>
        <time>2021-05-22T12:03:31Z</time>
      </trkpt>
      <trkpt lat="47.89229" lon="7.1182">
        <ele>1086.5999755859</ele>
        <time>2021-05-22T12:03:33Z</time>
      </trkpt>
      <trkpt lat="47.89236" lon="7.11819">
        <ele>1087.4000244141</ele>
        <time>2021-05-22T12:03:36Z</time>
      </trkpt>
      <trkpt lat="47.89247" lon="7.11817">
        <ele>1088.4000244141</ele>
        <time>2021-05-22T12:03:40Z</time>
      </trkpt>
      <trkpt lat="47.89255" lon="7.11815">
        <ele>1089.8000488281</ele>
        <time>2021-05-22T12:03:43Z</time>
      </trkpt>
      <trkpt lat="47.89262" lon="7.11813">
        <ele>1091</ele>
        <time>2021-05-22T12:03:46Z</time>
      </trkpt>
      <trkpt lat="47.89267" lon="7.11811">
        <ele>1092.4000244141</ele>
        <time>2021-05-22T12:03:48Z</time>
      </trkpt>
      <trkpt lat="47.89275" lon="7.11808">
        <ele>1093</ele>
        <time>2021-05-22T12:03:51Z</time>
      </trkpt>
      <trkpt lat="47.89282" lon="7.11805">
        <ele>1093.4000244141</ele>
        <time>2021-05-22T12:03:54Z</time>
      </trkpt>
      <trkpt lat="47.89294" lon="7.11799">
        <ele>1094</ele>
        <time>2021-05-22T12:03:59Z</time>
      </trkpt>
      <trkpt lat="47.89299" lon="7.11797">
        <ele>1094.8000488281</ele>
        <time>2021-05-22T12:04:01Z</time>
      </trkpt>
      <trkpt lat="47.89315" lon="7.11793">
        <ele>1095.5999755859</ele>
        <time>2021-05-22T12:04:08Z</time>
      </trkpt>
      <trkpt lat="47.8932" lon="7.11792">
        <ele>1096</ele>
        <time>2021-05-22T12:04:10Z</time>
      </trkpt>
      <trkpt lat="47.8933" lon="7.11792">
        <ele>1097</ele>
        <time>2021-05-22T12:04:14Z</time>
      </trkpt>
      <trkpt lat="47.89337" lon="7.11793">
        <ele>1097.5999755859</ele>
        <time>2021-05-22T12:04:17Z</time>
      </trkpt>
      <trkpt lat="47.89347" lon="7.11791">
        <ele>1098.1999511719</ele>
        <time>2021-05-22T12:04:21Z</time>
      </trkpt>
      <trkpt lat="47.8935" lon="7.11791">
        <ele>1098.4000244141</ele>
        <time>2021-05-22T12:04:22Z</time>
      </trkpt>
      <trkpt lat="47.89357" lon="7.11789">
        <ele>1098.8000488281</ele>
        <time>2021-05-22T12:04:25Z</time>
      </trkpt>
      <trkpt lat="47.89362" lon="7.11786">
        <ele>1099.5999755859</ele>
        <time>2021-05-22T12:04:27Z</time>
      </trkpt>
      <trkpt lat="47.89368" lon="7.11779">
        <ele>1100.5999755859</ele>
        <time>2021-05-22T12:04:30Z</time>
      </trkpt>
      <trkpt lat="47.89369" lon="7.11775">
        <ele>1100.5999755859</ele>
        <time>2021-05-22T12:04:31Z</time>
      </trkpt>
      <trkpt lat="47.89365" lon="7.11755">
        <ele>1100.8000488281</ele>
        <time>2021-05-22T12:04:36Z</time>
      </trkpt>
      <trkpt lat="47.89352" lon="7.11739">
        <ele>1101</ele>
        <time>2021-05-22T12:04:42Z</time>
      </trkpt>
      <trkpt lat="47.89334" lon="7.11731">
        <ele>1101.5999755859</ele>
        <time>2021-05-22T12:04:48Z</time>
      </trkpt>
      <trkpt lat="47.89329" lon="7.11729">
        <ele>1102</ele>
        <time>2021-05-22T12:04:50Z</time>
      </trkpt>
      <trkpt lat="47.89321" lon="7.11727">
        <ele>1102.8000488281</ele>
        <time>2021-05-22T12:04:53Z</time>
      </trkpt>
      <trkpt lat="47.89309" lon="7.11724">
        <ele>1103.8000488281</ele>
        <time>2021-05-22T12:04:57Z</time>
      </trkpt>
      <trkpt lat="47.8929" lon="7.11715">
        <ele>1104.8000488281</ele>
        <time>2021-05-22T12:05:05Z</time>
      </trkpt>
      <trkpt lat="47.89288" lon="7.11713">
        <ele>1105</ele>
        <time>2021-05-22T12:05:06Z</time>
      </trkpt>
      <trkpt lat="47.89272" lon="7.11702">
        <ele>1105.8000488281</ele>
        <time>2021-05-22T12:05:13Z</time>
      </trkpt>
      <trkpt lat="47.8927" lon="7.11701">
        <ele>1106</ele>
        <time>2021-05-22T12:05:14Z</time>
      </trkpt>
      <trkpt lat="47.89261" lon="7.11693">
        <ele>1107</ele>
        <time>2021-05-22T12:05:18Z</time>
      </trkpt>
      <trkpt lat="47.89251" lon="7.11685">
        <ele>1108.4000244141</ele>
        <time>2021-05-22T12:05:23Z</time>
      </trkpt>
      <trkpt lat="47.89246" lon="7.11681">
        <ele>1109.8000488281</ele>
        <time>2021-05-22T12:05:26Z</time>
      </trkpt>
      <trkpt lat="47.89234" lon="7.11671">
        <ele>1110.5999755859</ele>
        <time>2021-05-22T12:05:32Z</time>
      </trkpt>
      <trkpt lat="47.89232" lon="7.11669">
        <ele>1110.8000488281</ele>
        <time>2021-05-22T12:05:33Z</time>
      </trkpt>
      <trkpt lat="47.89225" lon="7.11662">
        <ele>1111.8000488281</ele>
        <time>2021-05-22T12:05:37Z</time>
      </trkpt>
      <trkpt lat="47.89217" lon="7.11651">
        <ele>1112.4000244141</ele>
        <time>2021-05-22T12:05:41Z</time>
      </trkpt>
      <trkpt lat="47.89212" lon="7.11643">
        <ele>1113.1999511719</ele>
        <time>2021-05-22T12:05:44Z</time>
      </trkpt>
      <trkpt lat="47.89207" lon="7.11635">
        <ele>1113.5999755859</ele>
        <time>2021-05-22T12:05:47Z</time>
      </trkpt>
      <trkpt lat="47.89201" lon="7.11628">
        <ele>1114.1999511719</ele>
        <time>2021-05-22T12:05:50Z</time>
      </trkpt>
      <trkpt lat="47.89191" lon="7.11615">
        <ele>1115.1999511719</ele>
        <time>2021-05-22T12:05:56Z</time>
      </trkpt>
      <trkpt lat="47.89181" lon="7.11603">
        <ele>1116.4000244141</ele>
        <time>2021-05-22T12:06:02Z</time>
      </trkpt>
      <trkpt lat="47.89174" lon="7.11596">
        <ele>1117.1999511719</ele>
        <time>2021-05-22T12:06:06Z</time>
      </trkpt>
      <trkpt lat="47.89173" lon="7.11594">
        <ele>1117.4000244141</ele>
        <time>2021-05-22T12:06:07Z</time>
      </trkpt>
      <trkpt lat="47.89171" lon="7.11591">
        <ele>1117.5999755859</ele>
        <time>2021-05-22T12:06:09Z</time>
      </trkpt>
      <trkpt lat="47.89169" lon="7.11591">
        <ele>1118.1999511719</ele>
        <time>2021-05-22T12:06:11Z</time>
      </trkpt>
      <trkpt lat="47.89169" lon="7.11593">
        <ele>1118.4000244141</ele>
        <time>2021-05-22T12:06:12Z</time>
      </trkpt>
      <trkpt lat="47.8917" lon="7.11596">
        <ele>1118.5999755859</ele>
        <time>2021-05-22T12:06:13Z</time>
      </trkpt>
      <trkpt lat="47.89178" lon="7.11603">
        <ele>1119</ele>
        <time>2021-05-22T12:06:16Z</time>
      </trkpt>
      <trkpt lat="47.89187" lon="7.11608">
        <ele>1119.1999511719</ele>
        <time>2021-05-22T12:06:20Z</time>
      </trkpt>
      <trkpt lat="47.89187" lon="7.11609">
        <ele>1119.1999511719</ele>
        <time>2021-05-22T12:06:22Z</time>
      </trkpt>
      <trkpt lat="47.89171" lon="7.11588">
        <ele>1120.4000244141</ele>
        <time>2021-05-22T12:13:26Z</time>
      </trkpt>
      <trkpt lat="47.89169" lon="7.11586">
        <ele>1120.1999511719</ele>
        <time>2021-05-22T12:13:27Z</time>
      </trkpt>
      <trkpt lat="47.89154" lon="7.11569">
        <ele>1120.4000244141</ele>
        <time>2021-05-22T12:13:34Z</time>
      </trkpt>
      <trkpt lat="47.89142" lon="7.11554">
        <ele>1121.8000488281</ele>
        <time>2021-05-22T12:13:40Z</time>
      </trkpt>
      <trkpt lat="47.89138" lon="7.1155">
        <ele>1123</ele>
        <time>2021-05-22T12:13:42Z</time>
      </trkpt>
      <trkpt lat="47.89132" lon="7.11543">
        <ele>1124.4000244141</ele>
        <time>2021-05-22T12:13:45Z</time>
      </trkpt>
      <trkpt lat="47.89127" lon="7.11536">
        <ele>1125.4000244141</ele>
        <time>2021-05-22T12:13:48Z</time>
      </trkpt>
      <trkpt lat="47.89115" lon="7.11522">
        <ele>1126.8000488281</ele>
        <time>2021-05-22T12:13:55Z</time>
      </trkpt>
      <trkpt lat="47.89113" lon="7.1152">
        <ele>1127</ele>
        <time>2021-05-22T12:13:56Z</time>
      </trkpt>
      <trkpt lat="47.89105" lon="7.11511">
        <ele>1128</ele>
        <time>2021-05-22T12:14:01Z</time>
      </trkpt>
      <trkpt lat="47.89099" lon="7.11505">
        <ele>1129.4000244141</ele>
        <time>2021-05-22T12:14:05Z</time>
      </trkpt>
      <trkpt lat="47.89097" lon="7.11503">
        <ele>1129.4000244141</ele>
        <time>2021-05-22T12:14:06Z</time>
      </trkpt>
      <trkpt lat="47.8909" lon="7.11497">
        <ele>1130.4000244141</ele>
        <time>2021-05-22T12:14:10Z</time>
      </trkpt>
      <trkpt lat="47.89081" lon="7.11491">
        <ele>1131.5999755859</ele>
        <time>2021-05-22T12:14:15Z</time>
      </trkpt>
      <trkpt lat="47.89067" lon="7.11485">
        <ele>1132.8000488281</ele>
        <time>2021-05-22T12:14:22Z</time>
      </trkpt>
      <trkpt lat="47.89063" lon="7.11483">
        <ele>1133.5999755859</ele>
        <time>2021-05-22T12:14:24Z</time>
      </trkpt>
      <trkpt lat="47.89061" lon="7.11483">
        <ele>1134</ele>
        <time>2021-05-22T12:14:25Z</time>
      </trkpt>
      <trkpt lat="47.89048" lon="7.11481">
        <ele>1135.1999511719</ele>
        <time>2021-05-22T12:14:31Z</time>
      </trkpt>
      <trkpt lat="47.89043" lon="7.1148">
        <ele>1135.8000488281</ele>
        <time>2021-05-22T12:14:34Z</time>
      </trkpt>
      <trkpt lat="47.89036" lon="7.11478">
        <ele>1136.1999511719</ele>
        <time>2021-05-22T12:14:37Z</time>
      </trkpt>
      <trkpt lat="47.89027" lon="7.11475">
        <ele>1137.1999511719</ele>
        <time>2021-05-22T12:14:41Z</time>
      </trkpt>
      <trkpt lat="47.89023" lon="7.11473">
        <ele>1137.8000488281</ele>
        <time>2021-05-22T12:14:43Z</time>
      </trkpt>
      <trkpt lat="47.89016" lon="7.11471">
        <ele>1138.4000244141</ele>
        <time>2021-05-22T12:14:46Z</time>
      </trkpt>
      <trkpt lat="47.89005" lon="7.11462">
        <ele>1139.4000244141</ele>
        <time>2021-05-22T12:14:52Z</time>
      </trkpt>
      <trkpt lat="47.89" lon="7.11457">
        <ele>1140.5999755859</ele>
        <time>2021-05-22T12:14:55Z</time>
      </trkpt>
      <trkpt lat="47.88998" lon="7.11454">
        <ele>1140.8000488281</ele>
        <time>2021-05-22T12:14:56Z</time>
      </trkpt>
      <trkpt lat="47.88994" lon="7.11446">
        <ele>1141.4000244141</ele>
        <time>2021-05-22T12:14:59Z</time>
      </trkpt>
      <trkpt lat="47.88992" lon="7.1144">
        <ele>1142</ele>
        <time>2021-05-22T12:15:01Z</time>
      </trkpt>
      <trkpt lat="47.8899" lon="7.11432">
        <ele>1143.4000244141</ele>
        <time>2021-05-22T12:15:04Z</time>
      </trkpt>
      <trkpt lat="47.88989" lon="7.11422">
        <ele>1143.8000488281</ele>
        <time>2021-05-22T12:15:07Z</time>
      </trkpt>
      <trkpt lat="47.88988" lon="7.11416">
        <ele>1144.4000244141</ele>
        <time>2021-05-22T12:15:09Z</time>
      </trkpt>
      <trkpt lat="47.88989" lon="7.11393">
        <ele>1145.5999755859</ele>
        <time>2021-05-22T12:15:16Z</time>
      </trkpt>
      <trkpt lat="47.88991" lon="7.11374">
        <ele>1146.5999755859</ele>
        <time>2021-05-22T12:15:22Z</time>
      </trkpt>
      <trkpt lat="47.88995" lon="7.11357">
        <ele>1147.5999755859</ele>
        <time>2021-05-22T12:15:27Z</time>
      </trkpt>
      <trkpt lat="47.88996" lon="7.11353">
        <ele>1147.8000488281</ele>
        <time>2021-05-22T12:15:28Z</time>
      </trkpt>
      <trkpt lat="47.89005" lon="7.11332">
        <ele>1148.8000488281</ele>
        <time>2021-05-22T12:15:35Z</time>
      </trkpt>
      <trkpt lat="47.89006" lon="7.1133">
        <ele>1149</ele>
        <time>2021-05-22T12:15:36Z</time>
      </trkpt>
      <trkpt lat="47.89014" lon="7.11318">
        <ele>1149.8000488281</ele>
        <time>2021-05-22T12:15:41Z</time>
      </trkpt>
      <trkpt lat="47.89022" lon="7.11309">
        <ele>1150.8000488281</ele>
        <time>2021-05-22T12:15:45Z</time>
      </trkpt>
      <trkpt lat="47.89024" lon="7.11308">
        <ele>1151</ele>
        <time>2021-05-22T12:15:46Z</time>
      </trkpt>
      <trkpt lat="47.8903" lon="7.11302">
        <ele>1152</ele>
        <time>2021-05-22T12:15:49Z</time>
      </trkpt>
      <trkpt lat="47.8904" lon="7.11296">
        <ele>1153.1999511719</ele>
        <time>2021-05-22T12:15:53Z</time>
      </trkpt>
      <trkpt lat="47.89042" lon="7.11295">
        <ele>1153.4000244141</ele>
        <time>2021-05-22T12:15:54Z</time>
      </trkpt>
      <trkpt lat="47.89053" lon="7.1129">
        <ele>1154.4000244141</ele>
        <time>2021-05-22T12:15:59Z</time>
      </trkpt>
      <trkpt lat="47.89064" lon="7.11285">
        <ele>1155.4000244141</ele>
        <time>2021-05-22T12:16:04Z</time>
      </trkpt>
      <trkpt lat="47.89073" lon="7.11283">
        <ele>1156.4000244141</ele>
        <time>2021-05-22T12:16:08Z</time>
      </trkpt>
      <trkpt lat="47.89084" lon="7.1128">
        <ele>1157.5999755859</ele>
        <time>2021-05-22T12:16:13Z</time>
      </trkpt>
      <trkpt lat="47.89087" lon="7.1128">
        <ele>1157.8000488281</ele>
        <time>2021-05-22T12:16:14Z</time>
      </trkpt>
      <trkpt lat="47.89096" lon="7.11279">
        <ele>1158.8000488281</ele>
        <time>2021-05-22T12:16:18Z</time>
      </trkpt>
      <trkpt lat="47.8911" lon="7.11278">
        <ele>1160</ele>
        <time>2021-05-22T12:16:24Z</time>
      </trkpt>
      <trkpt lat="47.89115" lon="7.11279">
        <ele>1160.5999755859</ele>
        <time>2021-05-22T12:16:26Z</time>
      </trkpt>
      <trkpt lat="47.89122" lon="7.11281">
        <ele>1161</ele>
        <time>2021-05-22T12:16:29Z</time>
      </trkpt>
      <trkpt lat="47.89133" lon="7.11284">
        <ele>1162.4000244141</ele>
        <time>2021-05-22T12:16:33Z</time>
      </trkpt>
      <trkpt lat="47.89147" lon="7.11286">
        <ele>1163.4000244141</ele>
        <time>2021-05-22T12:16:38Z</time>
      </trkpt>
      <trkpt lat="47.8915" lon="7.11286">
        <ele>1163.5999755859</ele>
        <time>2021-05-22T12:16:39Z</time>
      </trkpt>
      <trkpt lat="47.8916" lon="7.11281">
        <ele>1164.5999755859</ele>
        <time>2021-05-22T12:16:43Z</time>
      </trkpt>
      <trkpt lat="47.89162" lon="7.11278">
        <ele>1164.5999755859</ele>
        <time>2021-05-22T12:16:44Z</time>
      </trkpt>
      <trkpt lat="47.89164" lon="7.11275">
        <ele>1164.8000488281</ele>
        <time>2021-05-22T12:16:45Z</time>
      </trkpt>
      <trkpt lat="47.89165" lon="7.11263">
        <ele>1165.1999511719</ele>
        <time>2021-05-22T12:16:48Z</time>
      </trkpt>
      <trkpt lat="47.89158" lon="7.11245">
        <ele>1166.1999511719</ele>
        <time>2021-05-22T12:16:53Z</time>
      </trkpt>
      <trkpt lat="47.8915" lon="7.11237">
        <ele>1167.5999755859</ele>
        <time>2021-05-22T12:16:56Z</time>
      </trkpt>
      <trkpt lat="47.89137" lon="7.11229">
        <ele>1168.1999511719</ele>
        <time>2021-05-22T12:17:01Z</time>
      </trkpt>
      <trkpt lat="47.89127" lon="7.11225">
        <ele>1169.1999511719</ele>
        <time>2021-05-22T12:17:05Z</time>
      </trkpt>
      <trkpt lat="47.89116" lon="7.11218">
        <ele>1170.1999511719</ele>
        <time>2021-05-22T12:17:10Z</time>
      </trkpt>
      <trkpt lat="47.89104" lon="7.1121">
        <ele>1171.1999511719</ele>
        <time>2021-05-22T12:17:16Z</time>
      </trkpt>
      <trkpt lat="47.891" lon="7.11207">
        <ele>1171.5999755859</ele>
        <time>2021-05-22T12:17:18Z</time>
      </trkpt>
      <trkpt lat="47.89096" lon="7.11203">
        <ele>1172.1999511719</ele>
        <time>2021-05-22T12:17:20Z</time>
      </trkpt>
      <trkpt lat="47.89087" lon="7.11197">
        <ele>1173.4000244141</ele>
        <time>2021-05-22T12:17:25Z</time>
      </trkpt>
      <trkpt lat="47.8908" lon="7.1119">
        <ele>1173.8000488281</ele>
        <time>2021-05-22T12:17:29Z</time>
      </trkpt>
      <trkpt lat="47.89078" lon="7.11188">
        <ele>1174.4000244141</ele>
        <time>2021-05-22T12:17:30Z</time>
      </trkpt>
      <trkpt lat="47.89071" lon="7.11181">
        <ele>1176</ele>
        <time>2021-05-22T12:17:34Z</time>
      </trkpt>
      <trkpt lat="47.89064" lon="7.11175">
        <ele>1177</ele>
        <time>2021-05-22T12:17:38Z</time>
      </trkpt>
      <trkpt lat="47.89057" lon="7.11168">
        <ele>1178</ele>
        <time>2021-05-22T12:17:42Z</time>
      </trkpt>
      <trkpt lat="47.89049" lon="7.11158">
        <ele>1179</ele>
        <time>2021-05-22T12:17:47Z</time>
      </trkpt>
      <trkpt lat="47.89047" lon="7.11156">
        <ele>1179.1999511719</ele>
        <time>2021-05-22T12:17:48Z</time>
      </trkpt>
      <trkpt lat="47.89039" lon="7.11145">
        <ele>1180.1999511719</ele>
        <time>2021-05-22T12:17:53Z</time>
      </trkpt>
      <trkpt lat="47.89033" lon="7.11136">
        <ele>1181.5999755859</ele>
        <time>2021-05-22T12:17:57Z</time>
      </trkpt>
      <trkpt lat="47.89021" lon="7.11117">
        <ele>1182.5999755859</ele>
        <time>2021-05-22T12:18:05Z</time>
      </trkpt>
      <trkpt lat="47.89015" lon="7.11107">
        <ele>1183.8000488281</ele>
        <time>2021-05-22T12:18:09Z</time>
      </trkpt>
      <trkpt lat="47.89008" lon="7.11095">
        <ele>1185</ele>
        <time>2021-05-22T12:18:14Z</time>
      </trkpt>
      <trkpt lat="47.89004" lon="7.11089">
        <ele>1186</ele>
        <time>2021-05-22T12:18:17Z</time>
      </trkpt>
      <trkpt lat="47.88992" lon="7.11068">
        <ele>1187</ele>
        <time>2021-05-22T12:18:26Z</time>
      </trkpt>
      <trkpt lat="47.88984" lon="7.11053">
        <ele>1188</ele>
        <time>2021-05-22T12:18:32Z</time>
      </trkpt>
      <trkpt lat="47.88977" lon="7.1104">
        <ele>1189.4000244141</ele>
        <time>2021-05-22T12:18:37Z</time>
      </trkpt>
      <trkpt lat="47.88972" lon="7.11028">
        <ele>1190.5999755859</ele>
        <time>2021-05-22T12:18:41Z</time>
      </trkpt>
      <trkpt lat="47.88966" lon="7.11016">
        <ele>1191.8000488281</ele>
        <time>2021-05-22T12:18:45Z</time>
      </trkpt>
      <trkpt lat="47.88961" lon="7.11004">
        <ele>1193</ele>
        <time>2021-05-22T12:18:49Z</time>
      </trkpt>
      <trkpt lat="47.88958" lon="7.10992">
        <ele>1194</ele>
        <time>2021-05-22T12:18:53Z</time>
      </trkpt>
      <trkpt lat="47.88958" lon="7.10986">
        <ele>1194.8000488281</ele>
        <time>2021-05-22T12:18:55Z</time>
      </trkpt>
      <trkpt lat="47.88957" lon="7.1098">
        <ele>1195.4000244141</ele>
        <time>2021-05-22T12:18:57Z</time>
      </trkpt>
      <trkpt lat="47.88958" lon="7.1097">
        <ele>1196.4000244141</ele>
        <time>2021-05-22T12:19:01Z</time>
      </trkpt>
      <trkpt lat="47.88958" lon="7.10967">
        <ele>1197</ele>
        <time>2021-05-22T12:19:02Z</time>
      </trkpt>
      <trkpt lat="47.88959" lon="7.10962">
        <ele>1197.4000244141</ele>
        <time>2021-05-22T12:19:04Z</time>
      </trkpt>
      <trkpt lat="47.88963" lon="7.10945">
        <ele>1198.5999755859</ele>
        <time>2021-05-22T12:19:10Z</time>
      </trkpt>
      <trkpt lat="47.88964" lon="7.1094">
        <ele>1199.1999511719</ele>
        <time>2021-05-22T12:19:12Z</time>
      </trkpt>
      <trkpt lat="47.88965" lon="7.10937">
        <ele>1199.5999755859</ele>
        <time>2021-05-22T12:19:13Z</time>
      </trkpt>
      <trkpt lat="47.88966" lon="7.10934">
        <ele>1200</ele>
        <time>2021-05-22T12:19:14Z</time>
      </trkpt>
      <trkpt lat="47.88973" lon="7.10917">
        <ele>1201.1999511719</ele>
        <time>2021-05-22T12:19:20Z</time>
      </trkpt>
      <trkpt lat="47.88981" lon="7.10903">
        <ele>1202.4000244141</ele>
        <time>2021-05-22T12:19:26Z</time>
      </trkpt>
      <trkpt lat="47.8899" lon="7.10892">
        <ele>1203.5999755859</ele>
        <time>2021-05-22T12:19:31Z</time>
      </trkpt>
      <trkpt lat="47.88993" lon="7.10889">
        <ele>1204.8000488281</ele>
        <time>2021-05-22T12:19:33Z</time>
      </trkpt>
      <trkpt lat="47.89003" lon="7.1088">
        <ele>1206</ele>
        <time>2021-05-22T12:19:38Z</time>
      </trkpt>
      <trkpt lat="47.89005" lon="7.10878">
        <ele>1206.1999511719</ele>
        <time>2021-05-22T12:19:39Z</time>
      </trkpt>
      <trkpt lat="47.89016" lon="7.10867">
        <ele>1207</ele>
        <time>2021-05-22T12:19:45Z</time>
      </trkpt>
      <trkpt lat="47.89025" lon="7.10859">
        <ele>1208.4000244141</ele>
        <time>2021-05-22T12:19:50Z</time>
      </trkpt>
      <trkpt lat="47.89029" lon="7.10855">
        <ele>1209</ele>
        <time>2021-05-22T12:19:52Z</time>
      </trkpt>
      <trkpt lat="47.89033" lon="7.10851">
        <ele>1209.8000488281</ele>
        <time>2021-05-22T12:19:54Z</time>
      </trkpt>
      <trkpt lat="47.89045" lon="7.1084">
        <ele>1210.8000488281</ele>
        <time>2021-05-22T12:20:00Z</time>
      </trkpt>
      <trkpt lat="47.89051" lon="7.10833">
        <ele>1211.5999755859</ele>
        <time>2021-05-22T12:20:03Z</time>
      </trkpt>
      <trkpt lat="47.89053" lon="7.10831">
        <ele>1211.8000488281</ele>
        <time>2021-05-22T12:20:04Z</time>
      </trkpt>
      <trkpt lat="47.8906" lon="7.10822">
        <ele>1213</ele>
        <time>2021-05-22T12:20:08Z</time>
      </trkpt>
      <trkpt lat="47.89067" lon="7.10816">
        <ele>1213.5999755859</ele>
        <time>2021-05-22T12:20:11Z</time>
      </trkpt>
      <trkpt lat="47.8907" lon="7.10812">
        <ele>1214</ele>
        <time>2021-05-22T12:20:13Z</time>
      </trkpt>
      <trkpt lat="47.89084" lon="7.10801">
        <ele>1215.1999511719</ele>
        <time>2021-05-22T12:20:20Z</time>
      </trkpt>
      <trkpt lat="47.89089" lon="7.10798">
        <ele>1215.5999755859</ele>
        <time>2021-05-22T12:20:22Z</time>
      </trkpt>
      <trkpt lat="47.89098" lon="7.1079">
        <ele>1216.5999755859</ele>
        <time>2021-05-22T12:20:26Z</time>
      </trkpt>
      <trkpt lat="47.89109" lon="7.10782">
        <ele>1217.4000244141</ele>
        <time>2021-05-22T12:20:31Z</time>
      </trkpt>
      <trkpt lat="47.89116" lon="7.10779">
        <ele>1217.5999755859</ele>
        <time>2021-05-22T12:20:34Z</time>
      </trkpt>
      <trkpt lat="47.89126" lon="7.10776">
        <ele>1218.8000488281</ele>
        <time>2021-05-22T12:20:38Z</time>
      </trkpt>
      <trkpt lat="47.89131" lon="7.10774">
        <ele>1219.1999511719</ele>
        <time>2021-05-22T12:20:40Z</time>
      </trkpt>
      <trkpt lat="47.89142" lon="7.10769">
        <ele>1220</ele>
        <time>2021-05-22T12:20:44Z</time>
      </trkpt>
      <trkpt lat="47.89157" lon="7.10762">
        <ele>1221</ele>
        <time>2021-05-22T12:20:50Z</time>
      </trkpt>
      <trkpt lat="47.89178" lon="7.10752">
        <ele>1222</ele>
        <time>2021-05-22T12:20:58Z</time>
      </trkpt>
      <trkpt lat="47.89185" lon="7.10749">
        <ele>1222.4000244141</ele>
        <time>2021-05-22T12:21:01Z</time>
      </trkpt>
      <trkpt lat="47.89197" lon="7.10743">
        <ele>1223.4000244141</ele>
        <time>2021-05-22T12:21:06Z</time>
      </trkpt>
      <trkpt lat="47.89213" lon="7.10735">
        <ele>1224.8000488281</ele>
        <time>2021-05-22T12:21:12Z</time>
      </trkpt>
      <trkpt lat="47.89222" lon="7.10731">
        <ele>1225.8000488281</ele>
        <time>2021-05-22T12:21:16Z</time>
      </trkpt>
      <trkpt lat="47.89228" lon="7.10728">
        <ele>1227</ele>
        <time>2021-05-22T12:21:19Z</time>
      </trkpt>
      <trkpt lat="47.89236" lon="7.10724">
        <ele>1227.4000244141</ele>
        <time>2021-05-22T12:21:23Z</time>
      </trkpt>
      <trkpt lat="47.89243" lon="7.10721">
        <ele>1228.1999511719</ele>
        <time>2021-05-22T12:21:26Z</time>
      </trkpt>
      <trkpt lat="47.89251" lon="7.10716">
        <ele>1229.4000244141</ele>
        <time>2021-05-22T12:21:30Z</time>
      </trkpt>
      <trkpt lat="47.89253" lon="7.10715">
        <ele>1229.8000488281</ele>
        <time>2021-05-22T12:21:31Z</time>
      </trkpt>
      <trkpt lat="47.8926" lon="7.10712">
        <ele>1230.1999511719</ele>
        <time>2021-05-22T12:21:34Z</time>
      </trkpt>
      <trkpt lat="47.89264" lon="7.10709">
        <ele>1230.5999755859</ele>
        <time>2021-05-22T12:21:36Z</time>
      </trkpt>
      <trkpt lat="47.89274" lon="7.10703">
        <ele>1231.5999755859</ele>
        <time>2021-05-22T12:21:41Z</time>
      </trkpt>
      <trkpt lat="47.89282" lon="7.10698">
        <ele>1233.1999511719</ele>
        <time>2021-05-22T12:21:45Z</time>
      </trkpt>
      <trkpt lat="47.8929" lon="7.10692">
        <ele>1234.1999511719</ele>
        <time>2021-05-22T12:21:49Z</time>
      </trkpt>
      <trkpt lat="47.893" lon="7.10683">
        <ele>1235.1999511719</ele>
        <time>2021-05-22T12:21:54Z</time>
      </trkpt>
      <trkpt lat="47.89304" lon="7.10679">
        <ele>1235.4000244141</ele>
        <time>2021-05-22T12:21:56Z</time>
      </trkpt>
      <trkpt lat="47.89312" lon="7.1067">
        <ele>1236</ele>
        <time>2021-05-22T12:22:00Z</time>
      </trkpt>
      <trkpt lat="47.89314" lon="7.10667">
        <ele>1236.4000244141</ele>
        <time>2021-05-22T12:22:01Z</time>
      </trkpt>
      <trkpt lat="47.89316" lon="7.10665">
        <ele>1236.8000488281</ele>
        <time>2021-05-22T12:22:02Z</time>
      </trkpt>
      <trkpt lat="47.89332" lon="7.10648">
        <ele>1237.5999755859</ele>
        <time>2021-05-22T12:22:09Z</time>
      </trkpt>
      <trkpt lat="47.89342" lon="7.10636">
        <ele>1238.8000488281</ele>
        <time>2021-05-22T12:22:14Z</time>
      </trkpt>
      <trkpt lat="47.89358" lon="7.10618">
        <ele>1239.8000488281</ele>
        <time>2021-05-22T12:22:21Z</time>
      </trkpt>
      <trkpt lat="47.89367" lon="7.10602">
        <ele>1240.4000244141</ele>
        <time>2021-05-22T12:22:26Z</time>
      </trkpt>
      <trkpt lat="47.89374" lon="7.10587">
        <ele>1240.8000488281</ele>
        <time>2021-05-22T12:22:30Z</time>
      </trkpt>
      <trkpt lat="47.89379" lon="7.1058">
        <ele>1241</ele>
        <time>2021-05-22T12:22:32Z</time>
      </trkpt>
      <trkpt lat="47.89382" lon="7.10576">
        <ele>1241.1999511719</ele>
        <time>2021-05-22T12:22:33Z</time>
      </trkpt>
      <trkpt lat="47.89391" lon="7.10572">
        <ele>1241.5999755859</ele>
        <time>2021-05-22T12:22:36Z</time>
      </trkpt>
      <trkpt lat="47.89394" lon="7.10574">
        <ele>1241.8000488281</ele>
        <time>2021-05-22T12:22:37Z</time>
      </trkpt>
      <trkpt lat="47.89397" lon="7.10577">
        <ele>1241.8000488281</ele>
        <time>2021-05-22T12:22:38Z</time>
      </trkpt>
      <trkpt lat="47.89398" lon="7.10581">
        <ele>1242.1999511719</ele>
        <time>2021-05-22T12:22:39Z</time>
      </trkpt>
      <trkpt lat="47.89399" lon="7.10586">
        <ele>1242.5999755859</ele>
        <time>2021-05-22T12:22:40Z</time>
      </trkpt>
      <trkpt lat="47.89394" lon="7.10604">
        <ele>1242.8000488281</ele>
        <time>2021-05-22T12:22:44Z</time>
      </trkpt>
      <trkpt lat="47.89384" lon="7.10627">
        <ele>1244</ele>
        <time>2021-05-22T12:22:49Z</time>
      </trkpt>
      <trkpt lat="47.8938" lon="7.1064">
        <ele>1245</ele>
        <time>2021-05-22T12:22:52Z</time>
      </trkpt>
      <trkpt lat="47.89378" lon="7.10644">
        <ele>1245.1999511719</ele>
        <time>2021-05-22T12:22:53Z</time>
      </trkpt>
      <trkpt lat="47.89377" lon="7.1065">
        <ele>1245.1999511719</ele>
        <time>2021-05-22T12:22:54Z</time>
      </trkpt>
      <trkpt lat="47.89373" lon="7.10669">
        <ele>1246.1999511719</ele>
        <time>2021-05-22T12:22:58Z</time>
      </trkpt>
      <trkpt lat="47.89372" lon="7.10676">
        <ele>1246.4000244141</ele>
        <time>2021-05-22T12:22:59Z</time>
      </trkpt>
      <trkpt lat="47.89373" lon="7.1069">
        <ele>1247.4000244141</ele>
        <time>2021-05-22T12:23:02Z</time>
      </trkpt>
      <trkpt lat="47.89376" lon="7.10705">
        <ele>1247.8000488281</ele>
        <time>2021-05-22T12:23:05Z</time>
      </trkpt>
      <trkpt lat="47.89382" lon="7.10721">
        <ele>1248.4000244141</ele>
        <time>2021-05-22T12:23:09Z</time>
      </trkpt>
      <trkpt lat="47.89387" lon="7.10728">
        <ele>1249</ele>
        <time>2021-05-22T12:23:11Z</time>
      </trkpt>
      <trkpt lat="47.89393" lon="7.10735">
        <ele>1249.5999755859</ele>
        <time>2021-05-22T12:23:13Z</time>
      </trkpt>
      <trkpt lat="47.89404" lon="7.10742">
        <ele>1250.8000488281</ele>
        <time>2021-05-22T12:23:16Z</time>
      </trkpt>
      <trkpt lat="47.89407" lon="7.10743">
        <ele>1251.1999511719</ele>
        <time>2021-05-22T12:23:17Z</time>
      </trkpt>
      <trkpt lat="47.89417" lon="7.10743">
        <ele>1252</ele>
        <time>2021-05-22T12:23:20Z</time>
      </trkpt>
      <trkpt lat="47.89431" lon="7.1074">
        <ele>1253</ele>
        <time>2021-05-22T12:23:24Z</time>
      </trkpt>
      <trkpt lat="47.89438" lon="7.10736">
        <ele>1253.1999511719</ele>
        <time>2021-05-22T12:23:26Z</time>
      </trkpt>
      <trkpt lat="47.89456" lon="7.10721">
        <ele>1253.4000244141</ele>
        <time>2021-05-22T12:23:32Z</time>
      </trkpt>
      <trkpt lat="47.89468" lon="7.10704">
        <ele>1254.1999511719</ele>
        <time>2021-05-22T12:23:37Z</time>
      </trkpt>
      <trkpt lat="47.8947" lon="7.107">
        <ele>1254.4000244141</ele>
        <time>2021-05-22T12:23:38Z</time>
      </trkpt>
      <trkpt lat="47.89472" lon="7.10696">
        <ele>1254.8000488281</ele>
        <time>2021-05-22T12:23:39Z</time>
      </trkpt>
      <trkpt lat="47.89478" lon="7.10684">
        <ele>1255.8000488281</ele>
        <time>2021-05-22T12:23:42Z</time>
      </trkpt>
      <trkpt lat="47.89485" lon="7.10668">
        <ele>1256.8000488281</ele>
        <time>2021-05-22T12:23:46Z</time>
      </trkpt>
      <trkpt lat="47.89487" lon="7.10664">
        <ele>1257</ele>
        <time>2021-05-22T12:23:47Z</time>
      </trkpt>
      <trkpt lat="47.89498" lon="7.10639">
        <ele>1257.8000488281</ele>
        <time>2021-05-22T12:23:54Z</time>
      </trkpt>
      <trkpt lat="47.89499" lon="7.10635">
        <ele>1258</ele>
        <time>2021-05-22T12:23:55Z</time>
      </trkpt>
      <trkpt lat="47.89507" lon="7.10619">
        <ele>1259.1999511719</ele>
        <time>2021-05-22T12:24:01Z</time>
      </trkpt>
      <trkpt lat="47.89511" lon="7.10611">
        <ele>1260.5999755859</ele>
        <time>2021-05-22T12:24:05Z</time>
      </trkpt>
      <trkpt lat="47.89514" lon="7.10606">
        <ele>1261.1999511719</ele>
        <time>2021-05-22T12:24:07Z</time>
      </trkpt>
      <trkpt lat="47.89516" lon="7.10601">
        <ele>1261.5999755859</ele>
        <time>2021-05-22T12:24:09Z</time>
      </trkpt>
      <trkpt lat="47.8952" lon="7.10591">
        <ele>1262.5999755859</ele>
        <time>2021-05-22T12:24:13Z</time>
      </trkpt>
      <trkpt lat="47.89523" lon="7.10585">
        <ele>1263</ele>
        <time>2021-05-22T12:24:15Z</time>
      </trkpt>
      <trkpt lat="47.89527" lon="7.10576">
        <ele>1263.8000488281</ele>
        <time>2021-05-22T12:24:18Z</time>
      </trkpt>
      <trkpt lat="47.89536" lon="7.1056">
        <ele>1264.8000488281</ele>
        <time>2021-05-22T12:24:24Z</time>
      </trkpt>
      <trkpt lat="47.89537" lon="7.10557">
        <ele>1265.1999511719</ele>
        <time>2021-05-22T12:24:25Z</time>
      </trkpt>
      <trkpt lat="47.89545" lon="7.10544">
        <ele>1266.1999511719</ele>
        <time>2021-05-22T12:24:30Z</time>
      </trkpt>
      <trkpt lat="47.89549" lon="7.10536">
        <ele>1266.5999755859</ele>
        <time>2021-05-22T12:24:33Z</time>
      </trkpt>
      <trkpt lat="47.89551" lon="7.10534">
        <ele>1266.8000488281</ele>
        <time>2021-05-22T12:24:34Z</time>
      </trkpt>
      <trkpt lat="47.89555" lon="7.10527">
        <ele>1267.1999511719</ele>
        <time>2021-05-22T12:24:37Z</time>
      </trkpt>
      <trkpt lat="47.89566" lon="7.10513">
        <ele>1268.1999511719</ele>
        <time>2021-05-22T12:24:43Z</time>
      </trkpt>
      <trkpt lat="47.89567" lon="7.10511">
        <ele>1268.4000244141</ele>
        <time>2021-05-22T12:24:44Z</time>
      </trkpt>
      <trkpt lat="47.89574" lon="7.10502">
        <ele>1270</ele>
        <time>2021-05-22T12:24:48Z</time>
      </trkpt>
      <trkpt lat="47.89579" lon="7.10495">
        <ele>1271</ele>
        <time>2021-05-22T12:24:51Z</time>
      </trkpt>
      <trkpt lat="47.89587" lon="7.10486">
        <ele>1272.1999511719</ele>
        <time>2021-05-22T12:24:55Z</time>
      </trkpt>
      <trkpt lat="47.89596" lon="7.10475">
        <ele>1273.4000244141</ele>
        <time>2021-05-22T12:25:00Z</time>
      </trkpt>
      <trkpt lat="47.89605" lon="7.10463">
        <ele>1274.1999511719</ele>
        <time>2021-05-22T12:25:06Z</time>
      </trkpt>
      <trkpt lat="47.89607" lon="7.10461">
        <ele>1274.8000488281</ele>
        <time>2021-05-22T12:25:07Z</time>
      </trkpt>
      <trkpt lat="47.89612" lon="7.10454">
        <ele>1275.8000488281</ele>
        <time>2021-05-22T12:25:10Z</time>
      </trkpt>
      <trkpt lat="47.89617" lon="7.10447">
        <ele>1277</ele>
        <time>2021-05-22T12:25:13Z</time>
      </trkpt>
      <trkpt lat="47.89624" lon="7.10439">
        <ele>1278</ele>
        <time>2021-05-22T12:25:17Z</time>
      </trkpt>
      <trkpt lat="47.89626" lon="7.10436">
        <ele>1278.1999511719</ele>
        <time>2021-05-22T12:25:18Z</time>
      </trkpt>
      <trkpt lat="47.8963" lon="7.10431">
        <ele>1278.5999755859</ele>
        <time>2021-05-22T12:25:20Z</time>
      </trkpt>
      <trkpt lat="47.89635" lon="7.10426">
        <ele>1279.1999511719</ele>
        <time>2021-05-22T12:25:23Z</time>
      </trkpt>
      <trkpt lat="47.89638" lon="7.10421">
        <ele>1279.8000488281</ele>
        <time>2021-05-22T12:25:25Z</time>
      </trkpt>
      <trkpt lat="47.89643" lon="7.10415">
        <ele>1280.5999755859</ele>
        <time>2021-05-22T12:25:28Z</time>
      </trkpt>
      <trkpt lat="47.8965" lon="7.10406">
        <ele>1281.5999755859</ele>
        <time>2021-05-22T12:25:32Z</time>
      </trkpt>
      <trkpt lat="47.89656" lon="7.10396">
        <ele>1282.5999755859</ele>
        <time>2021-05-22T12:25:36Z</time>
      </trkpt>
      <trkpt lat="47.89658" lon="7.10394">
        <ele>1283</ele>
        <time>2021-05-22T12:25:37Z</time>
      </trkpt>
      <trkpt lat="47.89665" lon="7.10384">
        <ele>1284.1999511719</ele>
        <time>2021-05-22T12:25:41Z</time>
      </trkpt>
      <trkpt lat="47.8967" lon="7.10377">
        <ele>1285.4000244141</ele>
        <time>2021-05-22T12:25:44Z</time>
      </trkpt>
      <trkpt lat="47.89675" lon="7.10369">
        <ele>1285.8000488281</ele>
        <time>2021-05-22T12:25:47Z</time>
      </trkpt>
      <trkpt lat="47.89681" lon="7.10359">
        <ele>1286.5999755859</ele>
        <time>2021-05-22T12:25:51Z</time>
      </trkpt>
      <trkpt lat="47.89689" lon="7.10349">
        <ele>1287.8000488281</ele>
        <time>2021-05-22T12:25:55Z</time>
      </trkpt>
      <trkpt lat="47.89694" lon="7.10343">
        <ele>1288.5999755859</ele>
        <time>2021-05-22T12:25:58Z</time>
      </trkpt>
      <trkpt lat="47.89696" lon="7.10341">
        <ele>1289.1999511719</ele>
        <time>2021-05-22T12:25:59Z</time>
      </trkpt>
      <trkpt lat="47.89707" lon="7.10333">
        <ele>1290.1999511719</ele>
        <time>2021-05-22T12:26:04Z</time>
      </trkpt>
      <trkpt lat="47.89714" lon="7.1033">
        <ele>1291.4000244141</ele>
        <time>2021-05-22T12:26:07Z</time>
      </trkpt>
      <trkpt lat="47.89728" lon="7.10329">
        <ele>1292.8000488281</ele>
        <time>2021-05-22T12:26:13Z</time>
      </trkpt>
      <trkpt lat="47.89735" lon="7.10328">
        <ele>1293.5999755859</ele>
        <time>2021-05-22T12:26:16Z</time>
      </trkpt>
      <trkpt lat="47.8974" lon="7.10328">
        <ele>1294</ele>
        <time>2021-05-22T12:26:18Z</time>
      </trkpt>
      <trkpt lat="47.89751" lon="7.10328">
        <ele>1295</ele>
        <time>2021-05-22T12:26:22Z</time>
      </trkpt>
      <trkpt lat="47.89753" lon="7.10328">
        <ele>1295.1999511719</ele>
        <time>2021-05-22T12:26:23Z</time>
      </trkpt>
      <trkpt lat="47.89779" lon="7.10331">
        <ele>1296</ele>
        <time>2021-05-22T12:26:32Z</time>
      </trkpt>
      <trkpt lat="47.89802" lon="7.10335">
        <ele>1297</ele>
        <time>2021-05-22T12:26:40Z</time>
      </trkpt>
      <trkpt lat="47.89813" lon="7.10337">
        <ele>1298.1999511719</ele>
        <time>2021-05-22T12:26:44Z</time>
      </trkpt>
      <trkpt lat="47.89824" lon="7.10338">
        <ele>1299</ele>
        <time>2021-05-22T12:26:48Z</time>
      </trkpt>
      <trkpt lat="47.8983" lon="7.10339">
        <ele>1299.4000244141</ele>
        <time>2021-05-22T12:26:50Z</time>
      </trkpt>
      <trkpt lat="47.89843" lon="7.10341">
        <ele>1300.8000488281</ele>
        <time>2021-05-22T12:26:55Z</time>
      </trkpt>
      <trkpt lat="47.89846" lon="7.10341">
        <ele>1300.8000488281</ele>
        <time>2021-05-22T12:26:56Z</time>
      </trkpt>
      <trkpt lat="47.89857" lon="7.10342">
        <ele>1301.8000488281</ele>
        <time>2021-05-22T12:27:00Z</time>
      </trkpt>
      <trkpt lat="47.8987" lon="7.1034">
        <ele>1302.5999755859</ele>
        <time>2021-05-22T12:27:05Z</time>
      </trkpt>
      <trkpt lat="47.89875" lon="7.1034">
        <ele>1303.1999511719</ele>
        <time>2021-05-22T12:27:07Z</time>
      </trkpt>
      <trkpt lat="47.89888" lon="7.10337">
        <ele>1304.1999511719</ele>
        <time>2021-05-22T12:27:12Z</time>
      </trkpt>
      <trkpt lat="47.89897" lon="7.10336">
        <ele>1305.1999511719</ele>
        <time>2021-05-22T12:27:15Z</time>
      </trkpt>
      <trkpt lat="47.89913" lon="7.10334">
        <ele>1306.4000244141</ele>
        <time>2021-05-22T12:27:21Z</time>
      </trkpt>
      <trkpt lat="47.89919" lon="7.10333">
        <ele>1306.5999755859</ele>
        <time>2021-05-22T12:27:23Z</time>
      </trkpt>
      <trkpt lat="47.89927" lon="7.10333">
        <ele>1307.4000244141</ele>
        <time>2021-05-22T12:27:26Z</time>
      </trkpt>
      <trkpt lat="47.89937" lon="7.10331">
        <ele>1307.8000488281</ele>
        <time>2021-05-22T12:27:30Z</time>
      </trkpt>
      <trkpt lat="47.89949" lon="7.10328">
        <ele>1308.5999755859</ele>
        <time>2021-05-22T12:27:34Z</time>
      </trkpt>
      <trkpt lat="47.89954" lon="7.10328">
        <ele>1309</ele>
        <time>2021-05-22T12:27:36Z</time>
      </trkpt>
      <trkpt lat="47.89956" lon="7.10327">
        <ele>1309.5999755859</ele>
        <time>2021-05-22T12:27:37Z</time>
      </trkpt>
      <trkpt lat="47.89969" lon="7.10325">
        <ele>1310.4000244141</ele>
        <time>2021-05-22T12:27:41Z</time>
      </trkpt>
      <trkpt lat="47.89973" lon="7.10324">
        <ele>1310.5999755859</ele>
        <time>2021-05-22T12:27:42Z</time>
      </trkpt>
      <trkpt lat="47.89988" lon="7.10323">
        <ele>1311.4000244141</ele>
        <time>2021-05-22T12:27:47Z</time>
      </trkpt>
      <trkpt lat="47.89996" lon="7.10322">
        <ele>1311.5999755859</ele>
        <time>2021-05-22T12:27:49Z</time>
      </trkpt>
      <trkpt lat="47.90006" lon="7.10321">
        <ele>1313.1999511719</ele>
        <time>2021-05-22T12:27:53Z</time>
      </trkpt>
      <trkpt lat="47.90013" lon="7.1032">
        <ele>1314</ele>
        <time>2021-05-22T12:27:56Z</time>
      </trkpt>
      <trkpt lat="47.90018" lon="7.10318">
        <ele>1314.4000244141</ele>
        <time>2021-05-22T12:27:58Z</time>
      </trkpt>
      <trkpt lat="47.90033" lon="7.10317">
        <ele>1315.5999755859</ele>
        <time>2021-05-22T12:28:04Z</time>
      </trkpt>
      <trkpt lat="47.90035" lon="7.10316">
        <ele>1315.8000488281</ele>
        <time>2021-05-22T12:28:05Z</time>
      </trkpt>
      <trkpt lat="47.90043" lon="7.10316">
        <ele>1316.8000488281</ele>
        <time>2021-05-22T12:28:08Z</time>
      </trkpt>
      <trkpt lat="47.90057" lon="7.10316">
        <ele>1318</ele>
        <time>2021-05-22T12:28:13Z</time>
      </trkpt>
      <trkpt lat="47.9006" lon="7.10316">
        <ele>1318.1999511719</ele>
        <time>2021-05-22T12:28:14Z</time>
      </trkpt>
      <trkpt lat="47.90063" lon="7.10317">
        <ele>1318.4000244141</ele>
        <time>2021-05-22T12:28:15Z</time>
      </trkpt>
      <trkpt lat="47.90071" lon="7.10317">
        <ele>1319.1999511719</ele>
        <time>2021-05-22T12:28:18Z</time>
      </trkpt>
      <trkpt lat="47.90089" lon="7.10322">
        <ele>1320.1999511719</ele>
        <time>2021-05-22T12:28:25Z</time>
      </trkpt>
      <trkpt lat="47.90091" lon="7.10323">
        <ele>1320.1999511719</ele>
        <time>2021-05-22T12:28:26Z</time>
      </trkpt>
      <trkpt lat="47.90101" lon="7.10328">
        <ele>1321.4000244141</ele>
        <time>2021-05-22T12:28:30Z</time>
      </trkpt>
      <trkpt lat="47.90112" lon="7.10331">
        <ele>1322.1999511719</ele>
        <time>2021-05-22T12:28:34Z</time>
      </trkpt>
      <trkpt lat="47.90117" lon="7.10332">
        <ele>1322.5999755859</ele>
        <time>2021-05-22T12:28:36Z</time>
      </trkpt>
      <trkpt lat="47.90137" lon="7.10333">
        <ele>1323.5999755859</ele>
        <time>2021-05-22T12:28:43Z</time>
      </trkpt>
      <trkpt lat="47.9014" lon="7.10333">
        <ele>1323.8000488281</ele>
        <time>2021-05-22T12:28:44Z</time>
      </trkpt>
      <trkpt lat="47.90146" lon="7.10333">
        <ele>1324.4000244141</ele>
        <time>2021-05-22T12:28:46Z</time>
      </trkpt>
      <trkpt lat="47.90153" lon="7.10333">
        <ele>1325</ele>
        <time>2021-05-22T12:28:48Z</time>
      </trkpt>
      <trkpt lat="47.90164" lon="7.10333">
        <ele>1326</ele>
        <time>2021-05-22T12:28:52Z</time>
      </trkpt>
      <trkpt lat="47.90172" lon="7.10333">
        <ele>1326.5999755859</ele>
        <time>2021-05-22T12:28:55Z</time>
      </trkpt>
      <trkpt lat="47.90178" lon="7.10332">
        <ele>1327.1999511719</ele>
        <time>2021-05-22T12:28:57Z</time>
      </trkpt>
      <trkpt lat="47.90187" lon="7.10332">
        <ele>1328.1999511719</ele>
        <time>2021-05-22T12:29:00Z</time>
      </trkpt>
      <trkpt lat="47.902" lon="7.10333">
        <ele>1329</ele>
        <time>2021-05-22T12:29:05Z</time>
      </trkpt>
      <trkpt lat="47.90208" lon="7.10334">
        <ele>1329.4000244141</ele>
        <time>2021-05-22T12:29:08Z</time>
      </trkpt>
      <trkpt lat="47.90216" lon="7.10334">
        <ele>1330.5999755859</ele>
        <time>2021-05-22T12:29:11Z</time>
      </trkpt>
      <trkpt lat="47.90228" lon="7.10334">
        <ele>1331.8000488281</ele>
        <time>2021-05-22T12:29:15Z</time>
      </trkpt>
      <trkpt lat="47.9023" lon="7.10335">
        <ele>1332.4000244141</ele>
        <time>2021-05-22T12:29:16Z</time>
      </trkpt>
      <trkpt lat="47.90236" lon="7.10336">
        <ele>1333.1999511719</ele>
        <time>2021-05-22T12:29:18Z</time>
      </trkpt>
      <trkpt lat="47.9025" lon="7.10337">
        <ele>1334.1999511719</ele>
        <time>2021-05-22T12:29:23Z</time>
      </trkpt>
      <trkpt lat="47.90258" lon="7.10336">
        <ele>1335</ele>
        <time>2021-05-22T12:29:26Z</time>
      </trkpt>
      <trkpt lat="47.90261" lon="7.10336">
        <ele>1335.4000244141</ele>
        <time>2021-05-22T12:29:27Z</time>
      </trkpt>
      <trkpt lat="47.90278" lon="7.10335">
        <ele>1336.4000244141</ele>
        <time>2021-05-22T12:29:33Z</time>
      </trkpt>
      <trkpt lat="47.90281" lon="7.10335">
        <ele>1336.5999755859</ele>
        <time>2021-05-22T12:29:34Z</time>
      </trkpt>
      <trkpt lat="47.90291" lon="7.10333">
        <ele>1338</ele>
        <time>2021-05-22T12:29:38Z</time>
      </trkpt>
      <trkpt lat="47.903" lon="7.10332">
        <ele>1338.8000488281</ele>
        <time>2021-05-22T12:29:41Z</time>
      </trkpt>
      <trkpt lat="47.90306" lon="7.10331">
        <ele>1339.1999511719</ele>
        <time>2021-05-22T12:29:43Z</time>
      </trkpt>
      <trkpt lat="47.90314" lon="7.10331">
        <ele>1340.1999511719</ele>
        <time>2021-05-22T12:29:46Z</time>
      </trkpt>
      <trkpt lat="47.90326" lon="7.10331">
        <ele>1341.1999511719</ele>
        <time>2021-05-22T12:29:50Z</time>
      </trkpt>
      <trkpt lat="47.90329" lon="7.10331">
        <ele>1341.4000244141</ele>
        <time>2021-05-22T12:29:51Z</time>
      </trkpt>
      <trkpt lat="47.9034" lon="7.10331">
        <ele>1342.4000244141</ele>
        <time>2021-05-22T12:29:56Z</time>
      </trkpt>
      <trkpt lat="47.90341" lon="7.10331">
        <ele>1342.5999755859</ele>
        <time>2021-05-22T12:29:57Z</time>
      </trkpt>
      <trkpt lat="47.90342" lon="7.10332">
        <ele>1342.8000488281</ele>
        <time>2021-05-22T12:30:00Z</time>
      </trkpt>
      <trkpt lat="47.90355" lon="7.10329">
        <ele>1343.4000244141</ele>
        <time>2021-05-22T12:34:53Z</time>
      </trkpt>
      <trkpt lat="47.90376" lon="7.10331">
        <ele>1343.4000244141</ele>
        <time>2021-05-22T12:35:00Z</time>
      </trkpt>
      <trkpt lat="47.90386" lon="7.10333">
        <ele>1344.5999755859</ele>
        <time>2021-05-22T12:35:06Z</time>
      </trkpt>
      <trkpt lat="47.90386" lon="7.10333">
        <ele>1345.5999755859</ele>
        <time>2021-05-22T12:35:09Z</time>
      </trkpt>
      <trkpt lat="47.90385" lon="7.10332">
        <ele>1344.8000488281</ele>
        <time>2021-05-22T12:37:37Z</time>
      </trkpt>
      <trkpt lat="47.90383" lon="7.10332">
        <ele>1344.5999755859</ele>
        <time>2021-05-22T12:37:38Z</time>
      </trkpt>
      <trkpt lat="47.90376" lon="7.10331">
        <ele>1344.4000244141</ele>
        <time>2021-05-22T12:37:40Z</time>
      </trkpt>
      <trkpt lat="47.90365" lon="7.10329">
        <ele>1344.1999511719</ele>
        <time>2021-05-22T12:37:43Z</time>
      </trkpt>
      <trkpt lat="47.90355" lon="7.10327">
        <ele>1343.4000244141</ele>
        <time>2021-05-22T12:37:47Z</time>
      </trkpt>
      <trkpt lat="47.90353" lon="7.10327">
        <ele>1343.1999511719</ele>
        <time>2021-05-22T12:37:48Z</time>
      </trkpt>
      <trkpt lat="47.90351" lon="7.10329">
        <ele>1342.5999755859</ele>
        <time>2021-05-22T12:37:53Z</time>
      </trkpt>
      <trkpt lat="47.90356" lon="7.10329">
        <ele>1342.5999755859</ele>
        <time>2021-05-22T12:39:38Z</time>
      </trkpt>
      <trkpt lat="47.90361" lon="7.1033">
        <ele>1342.8000488281</ele>
        <time>2021-05-22T12:39:40Z</time>
      </trkpt>
      <trkpt lat="47.90384" lon="7.10331">
        <ele>1343.5999755859</ele>
        <time>2021-05-22T12:39:49Z</time>
      </trkpt>
      <trkpt lat="47.90388" lon="7.10332">
        <ele>1344.1999511719</ele>
        <time>2021-05-22T12:39:51Z</time>
      </trkpt>
      <trkpt lat="47.9039" lon="7.10333">
        <ele>1344.5999755859</ele>
        <time>2021-05-22T12:39:54Z</time>
      </trkpt>
      <trkpt lat="47.9039" lon="7.10333">
        <ele>1344.8000488281</ele>
        <time>2021-05-22T12:39:55Z</time>
      </trkpt>
      <trkpt lat="47.90387" lon="7.10333">
        <ele>1344.1999511719</ele>
        <time>2021-05-22T12:42:14Z</time>
      </trkpt>
      <trkpt lat="47.90381" lon="7.10333">
        <ele>1344.1999511719</ele>
        <time>2021-05-22T12:42:16Z</time>
      </trkpt>
      <trkpt lat="47.90357" lon="7.10331">
        <ele>1343.8000488281</ele>
        <time>2021-05-22T12:42:23Z</time>
      </trkpt>
      <trkpt lat="47.90353" lon="7.10332">
        <ele>1343.1999511719</ele>
        <time>2021-05-22T12:42:26Z</time>
      </trkpt>
      <trkpt lat="47.90353" lon="7.10332">
        <ele>1342.8000488281</ele>
        <time>2021-05-22T12:42:28Z</time>
      </trkpt>
      <trkpt lat="47.90353" lon="7.10332">
        <ele>1342.5999755859</ele>
        <time>2021-05-22T12:42:29Z</time>
      </trkpt>
      <trkpt lat="47.90356" lon="7.10327">
        <ele>1342.1999511719</ele>
        <time>2021-05-22T12:46:26Z</time>
      </trkpt>
      <trkpt lat="47.90358" lon="7.10327">
        <ele>1342.1999511719</ele>
        <time>2021-05-22T12:46:28Z</time>
      </trkpt>
      <trkpt lat="47.90366" lon="7.10328">
        <ele>1342.5999755859</ele>
        <time>2021-05-22T12:46:35Z</time>
      </trkpt>
      <trkpt lat="47.90376" lon="7.10329">
        <ele>1343.8000488281</ele>
        <time>2021-05-22T12:46:43Z</time>
      </trkpt>
      <trkpt lat="47.90378" lon="7.10329">
        <ele>1344</ele>
        <time>2021-05-22T12:46:44Z</time>
      </trkpt>
      <trkpt lat="47.90388" lon="7.10329">
        <ele>1344.1999511719</ele>
        <time>2021-05-22T12:46:51Z</time>
      </trkpt>
      <trkpt lat="47.90395" lon="7.10329">
        <ele>1344.8000488281</ele>
        <time>2021-05-22T12:46:55Z</time>
      </trkpt>
      <trkpt lat="47.90405" lon="7.10328">
        <ele>1345</ele>
        <time>2021-05-22T12:47:01Z</time>
      </trkpt>
      <trkpt lat="47.9041" lon="7.10329">
        <ele>1345.4000244141</ele>
        <time>2021-05-22T12:47:04Z</time>
      </trkpt>
      <trkpt lat="47.90416" lon="7.10328">
        <ele>1345.5999755859</ele>
        <time>2021-05-22T12:47:07Z</time>
      </trkpt>
      <trkpt lat="47.90431" lon="7.10331">
        <ele>1345.5999755859</ele>
        <time>2021-05-22T12:47:15Z</time>
      </trkpt>
      <trkpt lat="47.90439" lon="7.10329">
        <ele>1345.5999755859</ele>
        <time>2021-05-22T12:47:19Z</time>
      </trkpt>
      <trkpt lat="47.90442" lon="7.1033">
        <ele>1345.5999755859</ele>
        <time>2021-05-22T12:47:21Z</time>
      </trkpt>
      <trkpt lat="47.90451" lon="7.1033">
        <ele>1345.1999511719</ele>
        <time>2021-05-22T12:47:27Z</time>
      </trkpt>
      <trkpt lat="47.90459" lon="7.10329">
        <ele>1345.1999511719</ele>
        <time>2021-05-22T12:47:32Z</time>
      </trkpt>
      <trkpt lat="47.90462" lon="7.1033">
        <ele>1345.1999511719</ele>
        <time>2021-05-22T12:47:34Z</time>
      </trkpt>
      <trkpt lat="47.90463" lon="7.1033">
        <ele>1345.1999511719</ele>
        <time>2021-05-22T12:47:35Z</time>
      </trkpt>
      <trkpt lat="47.90468" lon="7.1033">
        <ele>1345</ele>
        <time>2021-05-22T12:47:39Z</time>
      </trkpt>
      <trkpt lat="47.9047" lon="7.10329">
        <ele>1345</ele>
        <time>2021-05-22T12:47:40Z</time>
      </trkpt>
      <trkpt lat="47.90475" lon="7.10327">
        <ele>1345</ele>
        <time>2021-05-22T12:47:44Z</time>
      </trkpt>
      <trkpt lat="47.9049" lon="7.10312">
        <ele>1345</ele>
        <time>2021-05-22T12:47:51Z</time>
      </trkpt>
      <trkpt lat="47.90503" lon="7.10303">
        <ele>1344.5999755859</ele>
        <time>2021-05-22T12:47:56Z</time>
      </trkpt>
      <trkpt lat="47.90514" lon="7.10304">
        <ele>1343.8000488281</ele>
        <time>2021-05-22T12:47:58Z</time>
      </trkpt>
      <trkpt lat="47.90521" lon="7.10308">
        <ele>1343.4000244141</ele>
        <time>2021-05-22T12:47:59Z</time>
      </trkpt>
      <trkpt lat="47.90527" lon="7.10316">
        <ele>1342.8000488281</ele>
        <time>2021-05-22T12:48:00Z</time>
      </trkpt>
      <trkpt lat="47.90538" lon="7.10332">
        <ele>1341.8000488281</ele>
        <time>2021-05-22T12:48:02Z</time>
      </trkpt>
      <trkpt lat="47.90545" lon="7.10341">
        <ele>1341.4000244141</ele>
        <time>2021-05-22T12:48:03Z</time>
      </trkpt>
      <trkpt lat="47.90553" lon="7.10349">
        <ele>1341</ele>
        <time>2021-05-22T12:48:04Z</time>
      </trkpt>
      <trkpt lat="47.90568" lon="7.10363">
        <ele>1340.5999755859</ele>
        <time>2021-05-22T12:48:05Z</time>
      </trkpt>
      <trkpt lat="47.90585" lon="7.10378">
        <ele>1339.4000244141</ele>
        <time>2021-05-22T12:48:08Z</time>
      </trkpt>
      <trkpt lat="47.90599" lon="7.10389">
        <ele>1338.1999511719</ele>
        <time>2021-05-22T12:48:09Z</time>
      </trkpt>
      <trkpt lat="47.90618" lon="7.10402">
        <ele>1335.8000488281</ele>
        <time>2021-05-22T12:48:11Z</time>
      </trkpt>
      <trkpt lat="47.90627" lon="7.10408">
        <ele>1334.8000488281</ele>
        <time>2021-05-22T12:48:12Z</time>
      </trkpt>
      <trkpt lat="47.90635" lon="7.10414">
        <ele>1333.1999511719</ele>
        <time>2021-05-22T12:48:14Z</time>
      </trkpt>
      <trkpt lat="47.90659" lon="7.10427">
        <ele>1332.1999511719</ele>
        <time>2021-05-22T12:48:16Z</time>
      </trkpt>
      <trkpt lat="47.90667" lon="7.10428">
        <ele>1331.5999755859</ele>
        <time>2021-05-22T12:48:17Z</time>
      </trkpt>
      <trkpt lat="47.90673" lon="7.10426">
        <ele>1329.8000488281</ele>
        <time>2021-05-22T12:48:18Z</time>
      </trkpt>
      <trkpt lat="47.90679" lon="7.10422">
        <ele>1328</ele>
        <time>2021-05-22T12:48:20Z</time>
      </trkpt>
      <trkpt lat="47.90684" lon="7.10398">
        <ele>1327.1999511719</ele>
        <time>2021-05-22T12:48:22Z</time>
      </trkpt>
      <trkpt lat="47.90681" lon="7.10389">
        <ele>1326</ele>
        <time>2021-05-22T12:48:24Z</time>
      </trkpt>
      <trkpt lat="47.90663" lon="7.10373">
        <ele>1325.1999511719</ele>
        <time>2021-05-22T12:48:26Z</time>
      </trkpt>
      <trkpt lat="47.90656" lon="7.10367">
        <ele>1325</ele>
        <time>2021-05-22T12:48:27Z</time>
      </trkpt>
      <trkpt lat="47.90647" lon="7.10359">
        <ele>1324.5999755859</ele>
        <time>2021-05-22T12:48:28Z</time>
      </trkpt>
      <trkpt lat="47.90636" lon="7.10343">
        <ele>1324</ele>
        <time>2021-05-22T12:48:30Z</time>
      </trkpt>
      <trkpt lat="47.90631" lon="7.10331">
        <ele>1323.5999755859</ele>
        <time>2021-05-22T12:48:32Z</time>
      </trkpt>
      <trkpt lat="47.90623" lon="7.10306">
        <ele>1322.5999755859</ele>
        <time>2021-05-22T12:48:34Z</time>
      </trkpt>
      <trkpt lat="47.90614" lon="7.10278">
        <ele>1321.4000244141</ele>
        <time>2021-05-22T12:48:36Z</time>
      </trkpt>
      <trkpt lat="47.90602" lon="7.10234">
        <ele>1320</ele>
        <time>2021-05-22T12:48:38Z</time>
      </trkpt>
      <trkpt lat="47.90602" lon="7.10234">
        <ele>1318.4000244141</ele>
        <time>2021-05-22T12:48:39Z</time>
      </trkpt>
      <trkpt lat="47.90595" lon="7.10202">
        <ele>1316.1999511719</ele>
        <time>2021-05-22T12:48:41Z</time>
      </trkpt>
      <trkpt lat="47.90589" lon="7.10167">
        <ele>1315.4000244141</ele>
        <time>2021-05-22T12:48:42Z</time>
      </trkpt>
      <trkpt lat="47.90589" lon="7.10167">
        <ele>1314.4000244141</ele>
        <time>2021-05-22T12:48:43Z</time>
      </trkpt>
      <trkpt lat="47.90588" lon="7.10128">
        <ele>1313.4000244141</ele>
        <time>2021-05-22T12:48:44Z</time>
      </trkpt>
      <trkpt lat="47.90588" lon="7.10096">
        <ele>1311.5999755859</ele>
        <time>2021-05-22T12:48:46Z</time>
      </trkpt>
      <trkpt lat="47.90587" lon="7.10074">
        <ele>1310.5999755859</ele>
        <time>2021-05-22T12:48:47Z</time>
      </trkpt>
      <trkpt lat="47.90585" lon="7.10056">
        <ele>1309.1999511719</ele>
        <time>2021-05-22T12:48:48Z</time>
      </trkpt>
      <trkpt lat="47.90584" lon="7.10022">
        <ele>1308</ele>
        <time>2021-05-22T12:48:50Z</time>
      </trkpt>
      <trkpt lat="47.90583" lon="7.10004">
        <ele>1306.8000488281</ele>
        <time>2021-05-22T12:48:51Z</time>
      </trkpt>
      <trkpt lat="47.90583" lon="7.09987">
        <ele>1304.5999755859</ele>
        <time>2021-05-22T12:48:53Z</time>
      </trkpt>
      <trkpt lat="47.90582" lon="7.09954">
        <ele>1304</ele>
        <time>2021-05-22T12:48:54Z</time>
      </trkpt>
      <trkpt lat="47.90582" lon="7.09954">
        <ele>1302.5999755859</ele>
        <time>2021-05-22T12:48:55Z</time>
      </trkpt>
      <trkpt lat="47.90582" lon="7.09916">
        <ele>1301.5999755859</ele>
        <time>2021-05-22T12:48:56Z</time>
      </trkpt>
      <trkpt lat="47.90582" lon="7.09893">
        <ele>1299.8000488281</ele>
        <time>2021-05-22T12:48:58Z</time>
      </trkpt>
      <trkpt lat="47.90579" lon="7.0984">
        <ele>1298.1999511719</ele>
        <time>2021-05-22T12:49:00Z</time>
      </trkpt>
      <trkpt lat="47.90579" lon="7.09821">
        <ele>1295.4000244141</ele>
        <time>2021-05-22T12:49:02Z</time>
      </trkpt>
      <trkpt lat="47.90578" lon="7.09803">
        <ele>1293.4000244141</ele>
        <time>2021-05-22T12:49:03Z</time>
      </trkpt>
      <trkpt lat="47.90575" lon="7.09768">
        <ele>1291.1999511719</ele>
        <time>2021-05-22T12:49:05Z</time>
      </trkpt>
      <trkpt lat="47.90573" lon="7.09748">
        <ele>1289.8000488281</ele>
        <time>2021-05-22T12:49:06Z</time>
      </trkpt>
      <trkpt lat="47.90572" lon="7.09732">
        <ele>1287.5999755859</ele>
        <time>2021-05-22T12:49:07Z</time>
      </trkpt>
      <trkpt lat="47.90574" lon="7.09685">
        <ele>1285.5999755859</ele>
        <time>2021-05-22T12:49:09Z</time>
      </trkpt>
      <trkpt lat="47.90575" lon="7.09664">
        <ele>1284.5999755859</ele>
        <time>2021-05-22T12:49:10Z</time>
      </trkpt>
      <trkpt lat="47.90576" lon="7.09646">
        <ele>1284</ele>
        <time>2021-05-22T12:49:11Z</time>
      </trkpt>
      <trkpt lat="47.90576" lon="7.09628">
        <ele>1283</ele>
        <time>2021-05-22T12:49:12Z</time>
      </trkpt>
      <trkpt lat="47.90575" lon="7.09609">
        <ele>1282</ele>
        <time>2021-05-22T12:49:13Z</time>
      </trkpt>
      <trkpt lat="47.90574" lon="7.09592">
        <ele>1280</ele>
        <time>2021-05-22T12:49:14Z</time>
      </trkpt>
      <trkpt lat="47.90572" lon="7.09558">
        <ele>1277.1999511719</ele>
        <time>2021-05-22T12:49:16Z</time>
      </trkpt>
      <trkpt lat="47.90567" lon="7.09525">
        <ele>1274.1999511719</ele>
        <time>2021-05-22T12:49:18Z</time>
      </trkpt>
      <trkpt lat="47.90564" lon="7.09508">
        <ele>1271.8000488281</ele>
        <time>2021-05-22T12:49:19Z</time>
      </trkpt>
      <trkpt lat="47.90559" lon="7.09492">
        <ele>1270.1999511719</ele>
        <time>2021-05-22T12:49:20Z</time>
      </trkpt>
      <trkpt lat="47.90555" lon="7.09476">
        <ele>1268.4000244141</ele>
        <time>2021-05-22T12:49:21Z</time>
      </trkpt>
      <trkpt lat="47.90547" lon="7.09446">
        <ele>1267</ele>
        <time>2021-05-22T12:49:23Z</time>
      </trkpt>
      <trkpt lat="47.90535" lon="7.09402">
        <ele>1264.5999755859</ele>
        <time>2021-05-22T12:49:26Z</time>
      </trkpt>
      <trkpt lat="47.9053" lon="7.09388">
        <ele>1263.5999755859</ele>
        <time>2021-05-22T12:49:27Z</time>
      </trkpt>
      <trkpt lat="47.90527" lon="7.09378">
        <ele>1262.8000488281</ele>
        <time>2021-05-22T12:49:28Z</time>
      </trkpt>
      <trkpt lat="47.90512" lon="7.09338">
        <ele>1261.1999511719</ele>
        <time>2021-05-22T12:49:31Z</time>
      </trkpt>
      <trkpt lat="47.90506" lon="7.09321">
        <ele>1259.1999511719</ele>
        <time>2021-05-22T12:49:32Z</time>
      </trkpt>
      <trkpt lat="47.90501" lon="7.09307">
        <ele>1257.5999755859</ele>
        <time>2021-05-22T12:49:33Z</time>
      </trkpt>
      <trkpt lat="47.90492" lon="7.09283">
        <ele>1255.5999755859</ele>
        <time>2021-05-22T12:49:35Z</time>
      </trkpt>
      <trkpt lat="47.90482" lon="7.09253">
        <ele>1254.5999755859</ele>
        <time>2021-05-22T12:49:37Z</time>
      </trkpt>
      <trkpt lat="47.90478" lon="7.09241">
        <ele>1253.1999511719</ele>
        <time>2021-05-22T12:49:39Z</time>
      </trkpt>
      <trkpt lat="47.90475" lon="7.09229">
        <ele>1251.8000488281</ele>
        <time>2021-05-22T12:49:40Z</time>
      </trkpt>
      <trkpt lat="47.9047" lon="7.09207">
        <ele>1251.4000244141</ele>
        <time>2021-05-22T12:49:41Z</time>
      </trkpt>
      <trkpt lat="47.90467" lon="7.09195">
        <ele>1250.4000244141</ele>
        <time>2021-05-22T12:49:42Z</time>
      </trkpt>
      <trkpt lat="47.90464" lon="7.09181">
        <ele>1250</ele>
        <time>2021-05-22T12:49:43Z</time>
      </trkpt>
      <trkpt lat="47.90462" lon="7.09169">
        <ele>1249.1999511719</ele>
        <time>2021-05-22T12:49:44Z</time>
      </trkpt>
      <trkpt lat="47.90459" lon="7.09144">
        <ele>1247.8000488281</ele>
        <time>2021-05-22T12:49:46Z</time>
      </trkpt>
      <trkpt lat="47.9046" lon="7.0912">
        <ele>1246.5999755859</ele>
        <time>2021-05-22T12:49:48Z</time>
      </trkpt>
      <trkpt lat="47.90468" lon="7.09095">
        <ele>1245.5999755859</ele>
        <time>2021-05-22T12:49:50Z</time>
      </trkpt>
      <trkpt lat="47.90474" lon="7.09084">
        <ele>1244.5999755859</ele>
        <time>2021-05-22T12:49:51Z</time>
      </trkpt>
      <trkpt lat="47.90481" lon="7.09076">
        <ele>1244.4000244141</ele>
        <time>2021-05-22T12:49:52Z</time>
      </trkpt>
      <trkpt lat="47.90491" lon="7.09063">
        <ele>1243</ele>
        <time>2021-05-22T12:49:53Z</time>
      </trkpt>
      <trkpt lat="47.90497" lon="7.09055">
        <ele>1241.5999755859</ele>
        <time>2021-05-22T12:49:55Z</time>
      </trkpt>
      <trkpt lat="47.90506" lon="7.09044">
        <ele>1240.4000244141</ele>
        <time>2021-05-22T12:49:56Z</time>
      </trkpt>
      <trkpt lat="47.90525" lon="7.09021">
        <ele>1240.1999511719</ele>
        <time>2021-05-22T12:49:57Z</time>
      </trkpt>
      <trkpt lat="47.90537" lon="7.0901">
        <ele>1239</ele>
        <time>2021-05-22T12:49:58Z</time>
      </trkpt>
      <trkpt lat="47.90547" lon="7.09002">
        <ele>1238.5999755859</ele>
        <time>2021-05-22T12:49:59Z</time>
      </trkpt>
      <trkpt lat="47.90555" lon="7.08996">
        <ele>1237.5999755859</ele>
        <time>2021-05-22T12:50:00Z</time>
      </trkpt>
      <trkpt lat="47.90564" lon="7.08987">
        <ele>1236.8000488281</ele>
        <time>2021-05-22T12:50:01Z</time>
      </trkpt>
      <trkpt lat="47.90564" lon="7.08987">
        <ele>1236</ele>
        <time>2021-05-22T12:50:02Z</time>
      </trkpt>
      <trkpt lat="47.90579" lon="7.08963">
        <ele>1235.5999755859</ele>
        <time>2021-05-22T12:50:03Z</time>
      </trkpt>
      <trkpt lat="47.90589" lon="7.08921">
        <ele>1235</ele>
        <time>2021-05-22T12:50:06Z</time>
      </trkpt>
      <trkpt lat="47.90594" lon="7.08876">
        <ele>1235</ele>
        <time>2021-05-22T12:50:09Z</time>
      </trkpt>
      <trkpt lat="47.90597" lon="7.0885">
        <ele>1235</ele>
        <time>2021-05-22T12:50:11Z</time>
      </trkpt>
      <trkpt lat="47.90605" lon="7.0879">
        <ele>1234.8000488281</ele>
        <time>2021-05-22T12:50:16Z</time>
      </trkpt>
      <trkpt lat="47.90616" lon="7.08727">
        <ele>1234</ele>
        <time>2021-05-22T12:50:21Z</time>
      </trkpt>
      <trkpt lat="47.90621" lon="7.08715">
        <ele>1234</ele>
        <time>2021-05-22T12:50:22Z</time>
      </trkpt>
      <trkpt lat="47.90627" lon="7.08705">
        <ele>1233.8000488281</ele>
        <time>2021-05-22T12:50:23Z</time>
      </trkpt>
      <trkpt lat="47.90641" lon="7.08686">
        <ele>1233.4000244141</ele>
        <time>2021-05-22T12:50:25Z</time>
      </trkpt>
      <trkpt lat="47.90649" lon="7.08679">
        <ele>1233.1999511719</ele>
        <time>2021-05-22T12:50:26Z</time>
      </trkpt>
      <trkpt lat="47.90665" lon="7.08666">
        <ele>1232.8000488281</ele>
        <time>2021-05-22T12:50:28Z</time>
      </trkpt>
      <trkpt lat="47.9069" lon="7.08649">
        <ele>1232</ele>
        <time>2021-05-22T12:50:31Z</time>
      </trkpt>
      <trkpt lat="47.90699" lon="7.08647">
        <ele>1231.8000488281</ele>
        <time>2021-05-22T12:50:32Z</time>
      </trkpt>
      <trkpt lat="47.90739" lon="7.08641">
        <ele>1231.1999511719</ele>
        <time>2021-05-22T12:50:37Z</time>
      </trkpt>
      <trkpt lat="47.90762" lon="7.08643">
        <ele>1230.4000244141</ele>
        <time>2021-05-22T12:50:40Z</time>
      </trkpt>
      <trkpt lat="47.90769" lon="7.08644">
        <ele>1230.4000244141</ele>
        <time>2021-05-22T12:50:41Z</time>
      </trkpt>
      <trkpt lat="47.90776" lon="7.08642">
        <ele>1230</ele>
        <time>2021-05-22T12:50:42Z</time>
      </trkpt>
      <trkpt lat="47.90783" lon="7.08638">
        <ele>1230</ele>
        <time>2021-05-22T12:50:43Z</time>
      </trkpt>
      <trkpt lat="47.90796" lon="7.08623">
        <ele>1229.5999755859</ele>
        <time>2021-05-22T12:50:45Z</time>
      </trkpt>
      <trkpt lat="47.90806" lon="7.08603">
        <ele>1229.4000244141</ele>
        <time>2021-05-22T12:50:47Z</time>
      </trkpt>
      <trkpt lat="47.90811" lon="7.08581">
        <ele>1229.1999511719</ele>
        <time>2021-05-22T12:50:49Z</time>
      </trkpt>
      <trkpt lat="47.90817" lon="7.08529">
        <ele>1228</ele>
        <time>2021-05-22T12:50:54Z</time>
      </trkpt>
      <trkpt lat="47.90821" lon="7.08481">
        <ele>1227.4000244141</ele>
        <time>2021-05-22T12:50:57Z</time>
      </trkpt>
      <trkpt lat="47.90816" lon="7.0846">
        <ele>1226.8000488281</ele>
        <time>2021-05-22T12:51:00Z</time>
      </trkpt>
      <trkpt lat="47.9081" lon="7.08439">
        <ele>1226.5999755859</ele>
        <time>2021-05-22T12:51:01Z</time>
      </trkpt>
      <trkpt lat="47.9079" lon="7.08358">
        <ele>1226.4000244141</ele>
        <time>2021-05-22T12:51:08Z</time>
      </trkpt>
      <trkpt lat="47.90783" lon="7.08319">
        <ele>1226.4000244141</ele>
        <time>2021-05-22T12:51:11Z</time>
      </trkpt>
      <trkpt lat="47.90779" lon="7.08297">
        <ele>1226.4000244141</ele>
        <time>2021-05-22T12:51:13Z</time>
      </trkpt>
      <trkpt lat="47.90779" lon="7.08297">
        <ele>1226.4000244141</ele>
        <time>2021-05-22T12:51:14Z</time>
      </trkpt>
      <trkpt lat="47.90772" lon="7.08217">
        <ele>1225.8000488281</ele>
        <time>2021-05-22T12:51:20Z</time>
      </trkpt>
      <trkpt lat="47.9077" lon="7.08204">
        <ele>1225.5999755859</ele>
        <time>2021-05-22T12:51:21Z</time>
      </trkpt>
      <trkpt lat="47.90769" lon="7.08168">
        <ele>1225.4000244141</ele>
        <time>2021-05-22T12:51:24Z</time>
      </trkpt>
      <trkpt lat="47.90769" lon="7.08168">
        <ele>1225.4000244141</ele>
        <time>2021-05-22T12:51:25Z</time>
      </trkpt>
      <trkpt lat="47.90768" lon="7.08133">
        <ele>1225.1999511719</ele>
        <time>2021-05-22T12:51:27Z</time>
      </trkpt>
      <trkpt lat="47.90768" lon="7.08111">
        <ele>1224.8000488281</ele>
        <time>2021-05-22T12:51:29Z</time>
      </trkpt>
      <trkpt lat="47.90767" lon="7.081">
        <ele>1225</ele>
        <time>2021-05-22T12:51:30Z</time>
      </trkpt>
      <trkpt lat="47.90768" lon="7.08031">
        <ele>1224.5999755859</ele>
        <time>2021-05-22T12:51:36Z</time>
      </trkpt>
      <trkpt lat="47.9077" lon="7.0802">
        <ele>1224.4000244141</ele>
        <time>2021-05-22T12:51:37Z</time>
      </trkpt>
      <trkpt lat="47.90779" lon="7.07989">
        <ele>1224.1999511719</ele>
        <time>2021-05-22T12:51:40Z</time>
      </trkpt>
      <trkpt lat="47.90792" lon="7.07922">
        <ele>1223.5999755859</ele>
        <time>2021-05-22T12:51:46Z</time>
      </trkpt>
      <trkpt lat="47.90789" lon="7.07877">
        <ele>1223.4000244141</ele>
        <time>2021-05-22T12:51:50Z</time>
      </trkpt>
      <trkpt lat="47.90789" lon="7.07877">
        <ele>1223.1999511719</ele>
        <time>2021-05-22T12:51:51Z</time>
      </trkpt>
      <trkpt lat="47.90785" lon="7.07827">
        <ele>1223</ele>
        <time>2021-05-22T12:51:54Z</time>
      </trkpt>
      <trkpt lat="47.90786" lon="7.07782">
        <ele>1222.1999511719</ele>
        <time>2021-05-22T12:51:57Z</time>
      </trkpt>
      <trkpt lat="47.90785" lon="7.07768">
        <ele>1221.5999755859</ele>
        <time>2021-05-22T12:51:58Z</time>
      </trkpt>
      <trkpt lat="47.90785" lon="7.07755">
        <ele>1221.4000244141</ele>
        <time>2021-05-22T12:51:59Z</time>
      </trkpt>
      <trkpt lat="47.90786" lon="7.0774">
        <ele>1220.5999755859</ele>
        <time>2021-05-22T12:52:00Z</time>
      </trkpt>
      <trkpt lat="47.90788" lon="7.07728">
        <ele>1220</ele>
        <time>2021-05-22T12:52:01Z</time>
      </trkpt>
      <trkpt lat="47.90785" lon="7.07698">
        <ele>1219.4000244141</ele>
        <time>2021-05-22T12:52:03Z</time>
      </trkpt>
      <trkpt lat="47.90782" lon="7.07683">
        <ele>1219.1999511719</ele>
        <time>2021-05-22T12:52:04Z</time>
      </trkpt>
      <trkpt lat="47.9078" lon="7.07667">
        <ele>1218.8000488281</ele>
        <time>2021-05-22T12:52:05Z</time>
      </trkpt>
      <trkpt lat="47.90775" lon="7.0764">
        <ele>1217.1999511719</ele>
        <time>2021-05-22T12:52:07Z</time>
      </trkpt>
      <trkpt lat="47.9077" lon="7.07616">
        <ele>1215.4000244141</ele>
        <time>2021-05-22T12:52:09Z</time>
      </trkpt>
      <trkpt lat="47.90766" lon="7.076">
        <ele>1214.8000488281</ele>
        <time>2021-05-22T12:52:10Z</time>
      </trkpt>
      <trkpt lat="47.90758" lon="7.07575">
        <ele>1214.4000244141</ele>
        <time>2021-05-22T12:52:12Z</time>
      </trkpt>
      <trkpt lat="47.90747" lon="7.07542">
        <ele>1214.1999511719</ele>
        <time>2021-05-22T12:52:15Z</time>
      </trkpt>
      <trkpt lat="47.90726" lon="7.07476">
        <ele>1214.1999511719</ele>
        <time>2021-05-22T12:52:21Z</time>
      </trkpt>
      <trkpt lat="47.9072" lon="7.07414">
        <ele>1213.8000488281</ele>
        <time>2021-05-22T12:52:26Z</time>
      </trkpt>
      <trkpt lat="47.90719" lon="7.07391">
        <ele>1213.1999511719</ele>
        <time>2021-05-22T12:52:28Z</time>
      </trkpt>
      <trkpt lat="47.90718" lon="7.07314">
        <ele>1212.1999511719</ele>
        <time>2021-05-22T12:52:34Z</time>
      </trkpt>
      <trkpt lat="47.9072" lon="7.07301">
        <ele>1212</ele>
        <time>2021-05-22T12:52:35Z</time>
      </trkpt>
      <trkpt lat="47.90726" lon="7.0726">
        <ele>1211</ele>
        <time>2021-05-22T12:52:38Z</time>
      </trkpt>
      <trkpt lat="47.90726" lon="7.0726">
        <ele>1210.1999511719</ele>
        <time>2021-05-22T12:52:39Z</time>
      </trkpt>
      <trkpt lat="47.90729" lon="7.07232">
        <ele>1209</ele>
        <time>2021-05-22T12:52:40Z</time>
      </trkpt>
      <trkpt lat="47.9073" lon="7.07188">
        <ele>1208</ele>
        <time>2021-05-22T12:52:43Z</time>
      </trkpt>
      <trkpt lat="47.9073" lon="7.07188">
        <ele>1207.5999755859</ele>
        <time>2021-05-22T12:52:44Z</time>
      </trkpt>
      <trkpt lat="47.90731" lon="7.07146">
        <ele>1206.5999755859</ele>
        <time>2021-05-22T12:52:46Z</time>
      </trkpt>
      <trkpt lat="47.90732" lon="7.07131">
        <ele>1205.4000244141</ele>
        <time>2021-05-22T12:52:47Z</time>
      </trkpt>
      <trkpt lat="47.90735" lon="7.07114">
        <ele>1205</ele>
        <time>2021-05-22T12:52:48Z</time>
      </trkpt>
      <trkpt lat="47.90737" lon="7.07101">
        <ele>1204.1999511719</ele>
        <time>2021-05-22T12:52:49Z</time>
      </trkpt>
      <trkpt lat="47.9074" lon="7.0709">
        <ele>1203.8000488281</ele>
        <time>2021-05-22T12:52:50Z</time>
      </trkpt>
      <trkpt lat="47.90748" lon="7.07063">
        <ele>1203</ele>
        <time>2021-05-22T12:52:52Z</time>
      </trkpt>
      <trkpt lat="47.90754" lon="7.07033">
        <ele>1201.4000244141</ele>
        <time>2021-05-22T12:52:54Z</time>
      </trkpt>
      <trkpt lat="47.90759" lon="7.0701">
        <ele>1200.8000488281</ele>
        <time>2021-05-22T12:52:56Z</time>
      </trkpt>
      <trkpt lat="47.90766" lon="7.0697">
        <ele>1200.4000244141</ele>
        <time>2021-05-22T12:52:59Z</time>
      </trkpt>
      <trkpt lat="47.90775" lon="7.06926">
        <ele>1200</ele>
        <time>2021-05-22T12:53:03Z</time>
      </trkpt>
      <trkpt lat="47.90792" lon="7.06857">
        <ele>1200</ele>
        <time>2021-05-22T12:53:09Z</time>
      </trkpt>
      <trkpt lat="47.90814" lon="7.06813">
        <ele>1199.1999511719</ele>
        <time>2021-05-22T12:53:14Z</time>
      </trkpt>
      <trkpt lat="47.90857" lon="7.06755">
        <ele>1199</ele>
        <time>2021-05-22T12:53:21Z</time>
      </trkpt>
      <trkpt lat="47.90881" lon="7.06722">
        <ele>1198.8000488281</ele>
        <time>2021-05-22T12:53:25Z</time>
      </trkpt>
      <trkpt lat="47.90922" lon="7.06688">
        <ele>1198.4000244141</ele>
        <time>2021-05-22T12:53:31Z</time>
      </trkpt>
      <trkpt lat="47.90943" lon="7.06655">
        <ele>1198.4000244141</ele>
        <time>2021-05-22T12:53:35Z</time>
      </trkpt>
      <trkpt lat="47.90971" lon="7.0659">
        <ele>1198.4000244141</ele>
        <time>2021-05-22T12:53:42Z</time>
      </trkpt>
      <trkpt lat="47.90976" lon="7.06583">
        <ele>1198.1999511719</ele>
        <time>2021-05-22T12:53:43Z</time>
      </trkpt>
      <trkpt lat="47.90997" lon="7.06553">
        <ele>1198</ele>
        <time>2021-05-22T12:53:47Z</time>
      </trkpt>
      <trkpt lat="47.91026" lon="7.065">
        <ele>1197.1999511719</ele>
        <time>2021-05-22T12:53:54Z</time>
      </trkpt>
      <trkpt lat="47.9103" lon="7.06492">
        <ele>1197.1999511719</ele>
        <time>2021-05-22T12:53:55Z</time>
      </trkpt>
      <trkpt lat="47.91053" lon="7.0644">
        <ele>1196</ele>
        <time>2021-05-22T12:54:01Z</time>
      </trkpt>
      <trkpt lat="47.91061" lon="7.06422">
        <ele>1194.8000488281</ele>
        <time>2021-05-22T12:54:03Z</time>
      </trkpt>
      <trkpt lat="47.91084" lon="7.0637">
        <ele>1193.8000488281</ele>
        <time>2021-05-22T12:54:09Z</time>
      </trkpt>
      <trkpt lat="47.91084" lon="7.0637">
        <ele>1193.8000488281</ele>
        <time>2021-05-22T12:54:10Z</time>
      </trkpt>
      <trkpt lat="47.91092" lon="7.06345">
        <ele>1193.5999755859</ele>
        <time>2021-05-22T12:54:12Z</time>
      </trkpt>
      <trkpt lat="47.91096" lon="7.06318">
        <ele>1193.4000244141</ele>
        <time>2021-05-22T12:54:15Z</time>
      </trkpt>
      <trkpt lat="47.911" lon="7.06282">
        <ele>1192.8000488281</ele>
        <time>2021-05-22T12:54:19Z</time>
      </trkpt>
      <trkpt lat="47.91102" lon="7.06255">
        <ele>1192.5999755859</ele>
        <time>2021-05-22T12:54:22Z</time>
      </trkpt>
      <trkpt lat="47.91104" lon="7.06247">
        <ele>1192.4000244141</ele>
        <time>2021-05-22T12:54:23Z</time>
      </trkpt>
      <trkpt lat="47.91107" lon="7.0623">
        <ele>1192.1999511719</ele>
        <time>2021-05-22T12:54:25Z</time>
      </trkpt>
      <trkpt lat="47.9111" lon="7.06213">
        <ele>1192.1999511719</ele>
        <time>2021-05-22T12:54:27Z</time>
      </trkpt>
      <trkpt lat="47.91123" lon="7.06149">
        <ele>1192</ele>
        <time>2021-05-22T12:54:34Z</time>
      </trkpt>
      <trkpt lat="47.91124" lon="7.06139">
        <ele>1192</ele>
        <time>2021-05-22T12:54:35Z</time>
      </trkpt>
      <trkpt lat="47.91129" lon="7.06108">
        <ele>1191.8000488281</ele>
        <time>2021-05-22T12:54:38Z</time>
      </trkpt>
      <trkpt lat="47.9113" lon="7.06098">
        <ele>1191.4000244141</ele>
        <time>2021-05-22T12:54:39Z</time>
      </trkpt>
      <trkpt lat="47.91131" lon="7.06087">
        <ele>1191.1999511719</ele>
        <time>2021-05-22T12:54:40Z</time>
      </trkpt>
      <trkpt lat="47.91132" lon="7.06054">
        <ele>1191</ele>
        <time>2021-05-22T12:54:43Z</time>
      </trkpt>
      <trkpt lat="47.91129" lon="7.06032">
        <ele>1190.8000488281</ele>
        <time>2021-05-22T12:54:45Z</time>
      </trkpt>
      <trkpt lat="47.91121" lon="7.06013">
        <ele>1190.5999755859</ele>
        <time>2021-05-22T12:54:47Z</time>
      </trkpt>
      <trkpt lat="47.91117" lon="7.06005">
        <ele>1190.4000244141</ele>
        <time>2021-05-22T12:54:49Z</time>
      </trkpt>
      <trkpt lat="47.91108" lon="7.05988">
        <ele>1190.1999511719</ele>
        <time>2021-05-22T12:54:50Z</time>
      </trkpt>
      <trkpt lat="47.91091" lon="7.05944">
        <ele>1189.4000244141</ele>
        <time>2021-05-22T12:54:55Z</time>
      </trkpt>
      <trkpt lat="47.91088" lon="7.05935">
        <ele>1189</ele>
        <time>2021-05-22T12:54:56Z</time>
      </trkpt>
      <trkpt lat="47.91079" lon="7.05906">
        <ele>1188.4000244141</ele>
        <time>2021-05-22T12:55:00Z</time>
      </trkpt>
      <trkpt lat="47.91076" lon="7.05885">
        <ele>1187.8000488281</ele>
        <time>2021-05-22T12:55:03Z</time>
      </trkpt>
      <trkpt lat="47.91074" lon="7.05868">
        <ele>1187.8000488281</ele>
        <time>2021-05-22T12:55:05Z</time>
      </trkpt>
      <trkpt lat="47.91074" lon="7.05855">
        <ele>1187.4000244141</ele>
        <time>2021-05-22T12:55:07Z</time>
      </trkpt>
      <trkpt lat="47.91072" lon="7.0583">
        <ele>1187.1999511719</ele>
        <time>2021-05-22T12:55:10Z</time>
      </trkpt>
      <trkpt lat="47.91072" lon="7.05824">
        <ele>1187.1999511719</ele>
        <time>2021-05-22T12:55:11Z</time>
      </trkpt>
      <trkpt lat="47.91072" lon="7.05797">
        <ele>1187.1999511719</ele>
        <time>2021-05-22T12:55:14Z</time>
      </trkpt>
      <trkpt lat="47.91071" lon="7.05786">
        <ele>1187.1999511719</ele>
        <time>2021-05-22T12:55:15Z</time>
      </trkpt>
      <trkpt lat="47.9107" lon="7.05775">
        <ele>1187</ele>
        <time>2021-05-22T12:55:16Z</time>
      </trkpt>
      <trkpt lat="47.91068" lon="7.05763">
        <ele>1187</ele>
        <time>2021-05-22T12:55:17Z</time>
      </trkpt>
      <trkpt lat="47.91066" lon="7.05754">
        <ele>1187</ele>
        <time>2021-05-22T12:55:18Z</time>
      </trkpt>
      <trkpt lat="47.91065" lon="7.05744">
        <ele>1187.1999511719</ele>
        <time>2021-05-22T12:55:19Z</time>
      </trkpt>
      <trkpt lat="47.91064" lon="7.05726">
        <ele>1187</ele>
        <time>2021-05-22T12:55:21Z</time>
      </trkpt>
      <trkpt lat="47.91062" lon="7.05708">
        <ele>1187.1999511719</ele>
        <time>2021-05-22T12:55:23Z</time>
      </trkpt>
      <trkpt lat="47.91055" lon="7.05682">
        <ele>1187.5999755859</ele>
        <time>2021-05-22T12:55:26Z</time>
      </trkpt>
      <trkpt lat="47.9105" lon="7.05665">
        <ele>1187.8000488281</ele>
        <time>2021-05-22T12:55:28Z</time>
      </trkpt>
      <trkpt lat="47.91046" lon="7.0565">
        <ele>1188</ele>
        <time>2021-05-22T12:55:30Z</time>
      </trkpt>
      <trkpt lat="47.91043" lon="7.05642">
        <ele>1188</ele>
        <time>2021-05-22T12:55:31Z</time>
      </trkpt>
      <trkpt lat="47.91034" lon="7.05617">
        <ele>1188</ele>
        <time>2021-05-22T12:55:34Z</time>
      </trkpt>
      <trkpt lat="47.91031" lon="7.0561">
        <ele>1188</ele>
        <time>2021-05-22T12:55:35Z</time>
      </trkpt>
      <trkpt lat="47.91019" lon="7.05571">
        <ele>1186.5999755859</ele>
        <time>2021-05-22T12:55:39Z</time>
      </trkpt>
      <trkpt lat="47.91016" lon="7.05561">
        <ele>1186.1999511719</ele>
        <time>2021-05-22T12:55:40Z</time>
      </trkpt>
      <trkpt lat="47.91015" lon="7.05553">
        <ele>1186</ele>
        <time>2021-05-22T12:55:41Z</time>
      </trkpt>
      <trkpt lat="47.91009" lon="7.05522">
        <ele>1185.1999511719</ele>
        <time>2021-05-22T12:55:44Z</time>
      </trkpt>
      <trkpt lat="47.91003" lon="7.05471">
        <ele>1185.1999511719</ele>
        <time>2021-05-22T12:55:49Z</time>
      </trkpt>
      <trkpt lat="47.91011" lon="7.05435">
        <ele>1185</ele>
        <time>2021-05-22T12:55:52Z</time>
      </trkpt>
      <trkpt lat="47.91013" lon="7.05408">
        <ele>1184.8000488281</ele>
        <time>2021-05-22T12:55:54Z</time>
      </trkpt>
      <trkpt lat="47.91017" lon="7.05373">
        <ele>1184.1999511719</ele>
        <time>2021-05-22T12:55:57Z</time>
      </trkpt>
      <trkpt lat="47.91018" lon="7.05361">
        <ele>1183.5999755859</ele>
        <time>2021-05-22T12:55:58Z</time>
      </trkpt>
      <trkpt lat="47.91023" lon="7.05338">
        <ele>1183</ele>
        <time>2021-05-22T12:56:00Z</time>
      </trkpt>
      <trkpt lat="47.91025" lon="7.05325">
        <ele>1183</ele>
        <time>2021-05-22T12:56:01Z</time>
      </trkpt>
      <trkpt lat="47.9103" lon="7.05303">
        <ele>1182.5999755859</ele>
        <time>2021-05-22T12:56:03Z</time>
      </trkpt>
      <trkpt lat="47.91047" lon="7.05239">
        <ele>1182.4000244141</ele>
        <time>2021-05-22T12:56:09Z</time>
      </trkpt>
      <trkpt lat="47.91049" lon="7.05228">
        <ele>1182.8000488281</ele>
        <time>2021-05-22T12:56:10Z</time>
      </trkpt>
      <trkpt lat="47.91047" lon="7.05204">
        <ele>1182.8000488281</ele>
        <time>2021-05-22T12:56:12Z</time>
      </trkpt>
      <trkpt lat="47.9104" lon="7.05182">
        <ele>1182.8000488281</ele>
        <time>2021-05-22T12:56:14Z</time>
      </trkpt>
      <trkpt lat="47.91035" lon="7.05172">
        <ele>1182.8000488281</ele>
        <time>2021-05-22T12:56:15Z</time>
      </trkpt>
      <trkpt lat="47.91008" lon="7.05118">
        <ele>1181.5999755859</ele>
        <time>2021-05-22T12:56:21Z</time>
      </trkpt>
      <trkpt lat="47.90996" lon="7.05075">
        <ele>1180.8000488281</ele>
        <time>2021-05-22T12:56:26Z</time>
      </trkpt>
      <trkpt lat="47.90994" lon="7.05058">
        <ele>1180.5999755859</ele>
        <time>2021-05-22T12:56:28Z</time>
      </trkpt>
      <trkpt lat="47.90995" lon="7.0504">
        <ele>1180.5999755859</ele>
        <time>2021-05-22T12:56:30Z</time>
      </trkpt>
      <trkpt lat="47.90999" lon="7.05021">
        <ele>1180.4000244141</ele>
        <time>2021-05-22T12:56:32Z</time>
      </trkpt>
      <trkpt lat="47.91004" lon="7.05">
        <ele>1180.1999511719</ele>
        <time>2021-05-22T12:56:34Z</time>
      </trkpt>
      <trkpt lat="47.91011" lon="7.04981">
        <ele>1180.1999511719</ele>
        <time>2021-05-22T12:56:36Z</time>
      </trkpt>
      <trkpt lat="47.91017" lon="7.04973">
        <ele>1180</ele>
        <time>2021-05-22T12:56:37Z</time>
      </trkpt>
      <trkpt lat="47.91024" lon="7.04968">
        <ele>1180</ele>
        <time>2021-05-22T12:56:38Z</time>
      </trkpt>
      <trkpt lat="47.91047" lon="7.04961">
        <ele>1180</ele>
        <time>2021-05-22T12:56:41Z</time>
      </trkpt>
      <trkpt lat="47.91086" lon="7.04965">
        <ele>1179.8000488281</ele>
        <time>2021-05-22T12:56:46Z</time>
      </trkpt>
      <trkpt lat="47.91118" lon="7.04968">
        <ele>1180.1999511719</ele>
        <time>2021-05-22T12:56:50Z</time>
      </trkpt>
      <trkpt lat="47.91126" lon="7.04967">
        <ele>1180.4000244141</ele>
        <time>2021-05-22T12:56:51Z</time>
      </trkpt>
      <trkpt lat="47.91134" lon="7.04963">
        <ele>1180.4000244141</ele>
        <time>2021-05-22T12:56:52Z</time>
      </trkpt>
      <trkpt lat="47.9115" lon="7.04951">
        <ele>1180.4000244141</ele>
        <time>2021-05-22T12:56:54Z</time>
      </trkpt>
      <trkpt lat="47.91158" lon="7.04943">
        <ele>1180.1999511719</ele>
        <time>2021-05-22T12:56:55Z</time>
      </trkpt>
      <trkpt lat="47.91172" lon="7.04924">
        <ele>1180</ele>
        <time>2021-05-22T12:56:57Z</time>
      </trkpt>
      <trkpt lat="47.91201" lon="7.04884">
        <ele>1179</ele>
        <time>2021-05-22T12:57:01Z</time>
      </trkpt>
      <trkpt lat="47.91215" lon="7.04865">
        <ele>1178.1999511719</ele>
        <time>2021-05-22T12:57:03Z</time>
      </trkpt>
      <trkpt lat="47.91221" lon="7.04855">
        <ele>1177.8000488281</ele>
        <time>2021-05-22T12:57:04Z</time>
      </trkpt>
      <trkpt lat="47.91244" lon="7.04819">
        <ele>1177.4000244141</ele>
        <time>2021-05-22T12:57:08Z</time>
      </trkpt>
      <trkpt lat="47.9125" lon="7.04799">
        <ele>1177.1999511719</ele>
        <time>2021-05-22T12:57:10Z</time>
      </trkpt>
      <trkpt lat="47.91251" lon="7.04788">
        <ele>1177.1999511719</ele>
        <time>2021-05-22T12:57:11Z</time>
      </trkpt>
      <trkpt lat="47.91251" lon="7.04777">
        <ele>1177.1999511719</ele>
        <time>2021-05-22T12:57:12Z</time>
      </trkpt>
      <trkpt lat="47.91251" lon="7.04756">
        <ele>1176.8000488281</ele>
        <time>2021-05-22T12:57:14Z</time>
      </trkpt>
      <trkpt lat="47.91251" lon="7.04735">
        <ele>1176.8000488281</ele>
        <time>2021-05-22T12:57:16Z</time>
      </trkpt>
      <trkpt lat="47.91256" lon="7.04705">
        <ele>1176.8000488281</ele>
        <time>2021-05-22T12:57:19Z</time>
      </trkpt>
      <trkpt lat="47.91261" lon="7.04687">
        <ele>1176.8000488281</ele>
        <time>2021-05-22T12:57:21Z</time>
      </trkpt>
      <trkpt lat="47.91287" lon="7.04638">
        <ele>1177.1999511719</ele>
        <time>2021-05-22T12:57:27Z</time>
      </trkpt>
      <trkpt lat="47.91301" lon="7.04616">
        <ele>1177.8000488281</ele>
        <time>2021-05-22T12:57:30Z</time>
      </trkpt>
      <trkpt lat="47.91311" lon="7.046">
        <ele>1178</ele>
        <time>2021-05-22T12:57:32Z</time>
      </trkpt>
      <trkpt lat="47.91321" lon="7.04587">
        <ele>1178.1999511719</ele>
        <time>2021-05-22T12:57:34Z</time>
      </trkpt>
      <trkpt lat="47.91325" lon="7.04579">
        <ele>1178.1999511719</ele>
        <time>2021-05-22T12:57:35Z</time>
      </trkpt>
      <trkpt lat="47.91339" lon="7.04548">
        <ele>1178.1999511719</ele>
        <time>2021-05-22T12:57:39Z</time>
      </trkpt>
      <trkpt lat="47.91359" lon="7.04499">
        <ele>1177.8000488281</ele>
        <time>2021-05-22T12:57:45Z</time>
      </trkpt>
      <trkpt lat="47.9139" lon="7.04428">
        <ele>1177.1999511719</ele>
        <time>2021-05-22T12:57:54Z</time>
      </trkpt>
      <trkpt lat="47.914" lon="7.04416">
        <ele>1177</ele>
        <time>2021-05-22T12:57:56Z</time>
      </trkpt>
      <trkpt lat="47.91417" lon="7.04402">
        <ele>1177</ele>
        <time>2021-05-22T12:57:59Z</time>
      </trkpt>
      <trkpt lat="47.91429" lon="7.04394">
        <ele>1176.8000488281</ele>
        <time>2021-05-22T12:58:01Z</time>
      </trkpt>
      <trkpt lat="47.91455" lon="7.04383">
        <ele>1176.8000488281</ele>
        <time>2021-05-22T12:58:05Z</time>
      </trkpt>
      <trkpt lat="47.91515" lon="7.04369">
        <ele>1177</ele>
        <time>2021-05-22T12:58:14Z</time>
      </trkpt>
      <trkpt lat="47.91528" lon="7.04367">
        <ele>1177</ele>
        <time>2021-05-22T12:58:16Z</time>
      </trkpt>
      <trkpt lat="47.91575" lon="7.04353">
        <ele>1177.1999511719</ele>
        <time>2021-05-22T12:58:23Z</time>
      </trkpt>
      <trkpt lat="47.9161" lon="7.04328">
        <ele>1176.8000488281</ele>
        <time>2021-05-22T12:58:29Z</time>
      </trkpt>
      <trkpt lat="47.91623" lon="7.0432">
        <ele>1176.8000488281</ele>
        <time>2021-05-22T12:58:31Z</time>
      </trkpt>
      <trkpt lat="47.91646" lon="7.043">
        <ele>1176.5999755859</ele>
        <time>2021-05-22T12:58:35Z</time>
      </trkpt>
      <trkpt lat="47.91652" lon="7.04294">
        <ele>1176.5999755859</ele>
        <time>2021-05-22T12:58:36Z</time>
      </trkpt>
      <trkpt lat="47.91658" lon="7.04288">
        <ele>1176.5999755859</ele>
        <time>2021-05-22T12:58:37Z</time>
      </trkpt>
      <trkpt lat="47.91681" lon="7.04263">
        <ele>1176.5999755859</ele>
        <time>2021-05-22T12:58:41Z</time>
      </trkpt>
      <trkpt lat="47.91715" lon="7.04221">
        <ele>1177</ele>
        <time>2021-05-22T12:58:47Z</time>
      </trkpt>
      <trkpt lat="47.91761" lon="7.04161">
        <ele>1177.8000488281</ele>
        <time>2021-05-22T12:58:55Z</time>
      </trkpt>
      <trkpt lat="47.918" lon="7.0411">
        <ele>1178.4000244141</ele>
        <time>2021-05-22T12:59:02Z</time>
      </trkpt>
      <trkpt lat="47.91814" lon="7.041">
        <ele>1178.5999755859</ele>
        <time>2021-05-22T12:59:04Z</time>
      </trkpt>
      <trkpt lat="47.91851" lon="7.04091">
        <ele>1178.5999755859</ele>
        <time>2021-05-22T12:59:09Z</time>
      </trkpt>
      <trkpt lat="47.91888" lon="7.04078">
        <ele>1178</ele>
        <time>2021-05-22T12:59:14Z</time>
      </trkpt>
      <trkpt lat="47.91942" lon="7.04039">
        <ele>1176.8000488281</ele>
        <time>2021-05-22T12:59:22Z</time>
      </trkpt>
      <trkpt lat="47.91949" lon="7.04034">
        <ele>1176.5999755859</ele>
        <time>2021-05-22T12:59:23Z</time>
      </trkpt>
      <trkpt lat="47.91955" lon="7.04029">
        <ele>1176.8000488281</ele>
        <time>2021-05-22T12:59:24Z</time>
      </trkpt>
      <trkpt lat="47.92011" lon="7.03989">
        <ele>1176.8000488281</ele>
        <time>2021-05-22T12:59:32Z</time>
      </trkpt>
      <trkpt lat="47.92061" lon="7.03964">
        <ele>1177</ele>
        <time>2021-05-22T12:59:39Z</time>
      </trkpt>
      <trkpt lat="47.92105" lon="7.03941">
        <ele>1177</ele>
        <time>2021-05-22T12:59:45Z</time>
      </trkpt>
      <trkpt lat="47.92111" lon="7.03933">
        <ele>1177</ele>
        <time>2021-05-22T12:59:46Z</time>
      </trkpt>
      <trkpt lat="47.92117" lon="7.03923">
        <ele>1177</ele>
        <time>2021-05-22T12:59:47Z</time>
      </trkpt>
      <trkpt lat="47.92136" lon="7.03883">
        <ele>1177.4000244141</ele>
        <time>2021-05-22T12:59:51Z</time>
      </trkpt>
      <trkpt lat="47.92148" lon="7.03865">
        <ele>1177.8000488281</ele>
        <time>2021-05-22T12:59:53Z</time>
      </trkpt>
      <trkpt lat="47.92171" lon="7.03831">
        <ele>1178.8000488281</ele>
        <time>2021-05-22T12:59:57Z</time>
      </trkpt>
      <trkpt lat="47.92177" lon="7.03823">
        <ele>1179.1999511719</ele>
        <time>2021-05-22T12:59:58Z</time>
      </trkpt>
      <trkpt lat="47.92217" lon="7.03765">
        <ele>1178.5999755859</ele>
        <time>2021-05-22T13:00:05Z</time>
      </trkpt>
      <trkpt lat="47.92222" lon="7.03757">
        <ele>1178.5999755859</ele>
        <time>2021-05-22T13:00:06Z</time>
      </trkpt>
      <trkpt lat="47.92227" lon="7.03749">
        <ele>1178.4000244141</ele>
        <time>2021-05-22T13:00:07Z</time>
      </trkpt>
      <trkpt lat="47.92242" lon="7.03725">
        <ele>1178</ele>
        <time>2021-05-22T13:00:10Z</time>
      </trkpt>
      <trkpt lat="47.9226" lon="7.03694">
        <ele>1178</ele>
        <time>2021-05-22T13:00:14Z</time>
      </trkpt>
      <trkpt lat="47.92279" lon="7.03656">
        <ele>1178</ele>
        <time>2021-05-22T13:00:19Z</time>
      </trkpt>
      <trkpt lat="47.92282" lon="7.03647">
        <ele>1178</ele>
        <time>2021-05-22T13:00:20Z</time>
      </trkpt>
      <trkpt lat="47.92284" lon="7.03638">
        <ele>1178.1999511719</ele>
        <time>2021-05-22T13:00:21Z</time>
      </trkpt>
      <trkpt lat="47.92286" lon="7.03609">
        <ele>1178.4000244141</ele>
        <time>2021-05-22T13:00:24Z</time>
      </trkpt>
      <trkpt lat="47.92281" lon="7.03546">
        <ele>1178.4000244141</ele>
        <time>2021-05-22T13:00:30Z</time>
      </trkpt>
      <trkpt lat="47.92276" lon="7.03493">
        <ele>1177.5999755859</ele>
        <time>2021-05-22T13:00:35Z</time>
      </trkpt>
      <trkpt lat="47.92272" lon="7.03443">
        <ele>1177.1999511719</ele>
        <time>2021-05-22T13:00:40Z</time>
      </trkpt>
      <trkpt lat="47.92273" lon="7.03398">
        <ele>1177.8000488281</ele>
        <time>2021-05-22T13:00:45Z</time>
      </trkpt>
      <trkpt lat="47.92279" lon="7.0337">
        <ele>1178.8000488281</ele>
        <time>2021-05-22T13:00:49Z</time>
      </trkpt>
      <trkpt lat="47.92283" lon="7.03352">
        <ele>1179.5999755859</ele>
        <time>2021-05-22T13:00:52Z</time>
      </trkpt>
      <trkpt lat="47.92285" lon="7.0334">
        <ele>1180.5999755859</ele>
        <time>2021-05-22T13:00:54Z</time>
      </trkpt>
      <trkpt lat="47.92287" lon="7.0333">
        <ele>1181</ele>
        <time>2021-05-22T13:00:56Z</time>
      </trkpt>
      <trkpt lat="47.92291" lon="7.03314">
        <ele>1181.8000488281</ele>
        <time>2021-05-22T13:00:59Z</time>
      </trkpt>
      <trkpt lat="47.92296" lon="7.03288">
        <ele>1182.5999755859</ele>
        <time>2021-05-22T13:01:04Z</time>
      </trkpt>
      <trkpt lat="47.92297" lon="7.03283">
        <ele>1182.8000488281</ele>
        <time>2021-05-22T13:01:05Z</time>
      </trkpt>
      <trkpt lat="47.92304" lon="7.03244">
        <ele>1184</ele>
        <time>2021-05-22T13:01:12Z</time>
      </trkpt>
      <trkpt lat="47.92307" lon="7.03233">
        <ele>1184.4000244141</ele>
        <time>2021-05-22T13:01:14Z</time>
      </trkpt>
      <trkpt lat="47.9231" lon="7.03217">
        <ele>1185.1999511719</ele>
        <time>2021-05-22T13:01:17Z</time>
      </trkpt>
      <trkpt lat="47.92316" lon="7.03189">
        <ele>1186.4000244141</ele>
        <time>2021-05-22T13:01:22Z</time>
      </trkpt>
      <trkpt lat="47.92317" lon="7.03183">
        <ele>1186.5999755859</ele>
        <time>2021-05-22T13:01:23Z</time>
      </trkpt>
      <trkpt lat="47.92326" lon="7.03149">
        <ele>1187.4000244141</ele>
        <time>2021-05-22T13:01:29Z</time>
      </trkpt>
      <trkpt lat="47.92328" lon="7.03143">
        <ele>1187.8000488281</ele>
        <time>2021-05-22T13:01:30Z</time>
      </trkpt>
      <trkpt lat="47.92331" lon="7.03138">
        <ele>1188</ele>
        <time>2021-05-22T13:01:31Z</time>
      </trkpt>
      <trkpt lat="47.92343" lon="7.03113">
        <ele>1188.8000488281</ele>
        <time>2021-05-22T13:01:36Z</time>
      </trkpt>
      <trkpt lat="47.92352" lon="7.03099">
        <ele>1189.1999511719</ele>
        <time>2021-05-22T13:01:39Z</time>
      </trkpt>
      <trkpt lat="47.92377" lon="7.03068">
        <ele>1190</ele>
        <time>2021-05-22T13:01:46Z</time>
      </trkpt>
      <trkpt lat="47.92381" lon="7.03064">
        <ele>1190.5999755859</ele>
        <time>2021-05-22T13:01:47Z</time>
      </trkpt>
      <trkpt lat="47.92404" lon="7.0304">
        <ele>1191.1999511719</ele>
        <time>2021-05-22T13:01:53Z</time>
      </trkpt>
      <trkpt lat="47.92415" lon="7.0303">
        <ele>1191.8000488281</ele>
        <time>2021-05-22T13:01:56Z</time>
      </trkpt>
      <trkpt lat="47.92423" lon="7.03022">
        <ele>1192</ele>
        <time>2021-05-22T13:01:58Z</time>
      </trkpt>
      <trkpt lat="47.92436" lon="7.03012">
        <ele>1192.1999511719</ele>
        <time>2021-05-22T13:02:01Z</time>
      </trkpt>
      <trkpt lat="47.92444" lon="7.03007">
        <ele>1192.5999755859</ele>
        <time>2021-05-22T13:02:03Z</time>
      </trkpt>
      <trkpt lat="47.92462" lon="7.02999">
        <ele>1193.4000244141</ele>
        <time>2021-05-22T13:02:07Z</time>
      </trkpt>
      <trkpt lat="47.92481" lon="7.02993">
        <ele>1193.8000488281</ele>
        <time>2021-05-22T13:02:11Z</time>
      </trkpt>
      <trkpt lat="47.92505" lon="7.02986">
        <ele>1194.5999755859</ele>
        <time>2021-05-22T13:02:16Z</time>
      </trkpt>
      <trkpt lat="47.92528" lon="7.0298">
        <ele>1195.4000244141</ele>
        <time>2021-05-22T13:02:21Z</time>
      </trkpt>
      <trkpt lat="47.92537" lon="7.02977">
        <ele>1195.8000488281</ele>
        <time>2021-05-22T13:02:23Z</time>
      </trkpt>
      <trkpt lat="47.92576" lon="7.02967">
        <ele>1196.1999511719</ele>
        <time>2021-05-22T13:02:31Z</time>
      </trkpt>
      <trkpt lat="47.92581" lon="7.02966">
        <ele>1196.4000244141</ele>
        <time>2021-05-22T13:02:32Z</time>
      </trkpt>
      <trkpt lat="47.926" lon="7.02961">
        <ele>1197</ele>
        <time>2021-05-22T13:02:36Z</time>
      </trkpt>
      <trkpt lat="47.92614" lon="7.02958">
        <ele>1198</ele>
        <time>2021-05-22T13:02:39Z</time>
      </trkpt>
      <trkpt lat="47.92623" lon="7.02955">
        <ele>1198.5999755859</ele>
        <time>2021-05-22T13:02:41Z</time>
      </trkpt>
      <trkpt lat="47.92627" lon="7.02954">
        <ele>1199</ele>
        <time>2021-05-22T13:02:42Z</time>
      </trkpt>
      <trkpt lat="47.92645" lon="7.02949">
        <ele>1200.1999511719</ele>
        <time>2021-05-22T13:02:46Z</time>
      </trkpt>
      <trkpt lat="47.92659" lon="7.02945">
        <ele>1200.8000488281</ele>
        <time>2021-05-22T13:02:49Z</time>
      </trkpt>
      <trkpt lat="47.92668" lon="7.02942">
        <ele>1201.1999511719</ele>
        <time>2021-05-22T13:02:51Z</time>
      </trkpt>
      <trkpt lat="47.92686" lon="7.02935">
        <ele>1202.4000244141</ele>
        <time>2021-05-22T13:02:55Z</time>
      </trkpt>
      <trkpt lat="47.92698" lon="7.02929">
        <ele>1203</ele>
        <time>2021-05-22T13:02:58Z</time>
      </trkpt>
      <trkpt lat="47.92705" lon="7.02923">
        <ele>1203.4000244141</ele>
        <time>2021-05-22T13:03:00Z</time>
      </trkpt>
      <trkpt lat="47.92717" lon="7.02912">
        <ele>1204</ele>
        <time>2021-05-22T13:03:03Z</time>
      </trkpt>
      <trkpt lat="47.92724" lon="7.02904">
        <ele>1204.5999755859</ele>
        <time>2021-05-22T13:03:05Z</time>
      </trkpt>
      <trkpt lat="47.92727" lon="7.02899">
        <ele>1204.5999755859</ele>
        <time>2021-05-22T13:03:06Z</time>
      </trkpt>
      <trkpt lat="47.92731" lon="7.02893">
        <ele>1205</ele>
        <time>2021-05-22T13:03:07Z</time>
      </trkpt>
      <trkpt lat="47.92736" lon="7.02882">
        <ele>1205.1999511719</ele>
        <time>2021-05-22T13:03:09Z</time>
      </trkpt>
      <trkpt lat="47.9274" lon="7.02869">
        <ele>1205.5999755859</ele>
        <time>2021-05-22T13:03:11Z</time>
      </trkpt>
      <trkpt lat="47.92745" lon="7.02843">
        <ele>1206.1999511719</ele>
        <time>2021-05-22T13:03:15Z</time>
      </trkpt>
      <trkpt lat="47.92746" lon="7.02829">
        <ele>1206.5999755859</ele>
        <time>2021-05-22T13:03:17Z</time>
      </trkpt>
      <trkpt lat="47.92748" lon="7.02788">
        <ele>1207.8000488281</ele>
        <time>2021-05-22T13:03:23Z</time>
      </trkpt>
      <trkpt lat="47.92748" lon="7.02781">
        <ele>1207.8000488281</ele>
        <time>2021-05-22T13:03:24Z</time>
      </trkpt>
      <trkpt lat="47.92748" lon="7.02762">
        <ele>1208.5999755859</ele>
        <time>2021-05-22T13:03:27Z</time>
      </trkpt>
      <trkpt lat="47.92749" lon="7.02755">
        <ele>1209</ele>
        <time>2021-05-22T13:03:28Z</time>
      </trkpt>
      <trkpt lat="47.92749" lon="7.02725">
        <ele>1210.1999511719</ele>
        <time>2021-05-22T13:03:33Z</time>
      </trkpt>
      <trkpt lat="47.9275" lon="7.02682">
        <ele>1211.1999511719</ele>
        <time>2021-05-22T13:03:40Z</time>
      </trkpt>
      <trkpt lat="47.92752" lon="7.02651">
        <ele>1211.8000488281</ele>
        <time>2021-05-22T13:03:45Z</time>
      </trkpt>
      <trkpt lat="47.92753" lon="7.02645">
        <ele>1212</ele>
        <time>2021-05-22T13:03:46Z</time>
      </trkpt>
      <trkpt lat="47.92755" lon="7.02638">
        <ele>1212.4000244141</ele>
        <time>2021-05-22T13:03:47Z</time>
      </trkpt>
      <trkpt lat="47.92758" lon="7.02628">
        <ele>1212.5999755859</ele>
        <time>2021-05-22T13:03:49Z</time>
      </trkpt>
      <trkpt lat="47.92763" lon="7.02617">
        <ele>1212.8000488281</ele>
        <time>2021-05-22T13:03:51Z</time>
      </trkpt>
      <trkpt lat="47.92773" lon="7.02598">
        <ele>1213.5999755859</ele>
        <time>2021-05-22T13:03:55Z</time>
      </trkpt>
      <trkpt lat="47.92784" lon="7.02579">
        <ele>1214.1999511719</ele>
        <time>2021-05-22T13:03:59Z</time>
      </trkpt>
      <trkpt lat="47.9281" lon="7.02526">
        <ele>1214.4000244141</ele>
        <time>2021-05-22T13:04:09Z</time>
      </trkpt>
      <trkpt lat="47.92815" lon="7.02513">
        <ele>1214.5999755859</ele>
        <time>2021-05-22T13:04:11Z</time>
      </trkpt>
      <trkpt lat="47.92825" lon="7.02481">
        <ele>1215</ele>
        <time>2021-05-22T13:04:16Z</time>
      </trkpt>
      <trkpt lat="47.92831" lon="7.02463">
        <ele>1215.1999511719</ele>
        <time>2021-05-22T13:04:19Z</time>
      </trkpt>
      <trkpt lat="47.92836" lon="7.02436">
        <ele>1215.4000244141</ele>
        <time>2021-05-22T13:04:23Z</time>
      </trkpt>
      <trkpt lat="47.92839" lon="7.02415">
        <ele>1215.8000488281</ele>
        <time>2021-05-22T13:04:26Z</time>
      </trkpt>
      <trkpt lat="47.92842" lon="7.02379">
        <ele>1216.1999511719</ele>
        <time>2021-05-22T13:04:31Z</time>
      </trkpt>
      <trkpt lat="47.92846" lon="7.02324">
        <ele>1216.4000244141</ele>
        <time>2021-05-22T13:04:39Z</time>
      </trkpt>
      <trkpt lat="47.92851" lon="7.02262">
        <ele>1216</ele>
        <time>2021-05-22T13:04:48Z</time>
      </trkpt>
      <trkpt lat="47.92849" lon="7.02212">
        <ele>1216</ele>
        <time>2021-05-22T13:04:56Z</time>
      </trkpt>
      <trkpt lat="47.92836" lon="7.0216">
        <ele>1217.1999511719</ele>
        <time>2021-05-22T13:05:04Z</time>
      </trkpt>
      <trkpt lat="47.92834" lon="7.02153">
        <ele>1217.5999755859</ele>
        <time>2021-05-22T13:05:05Z</time>
      </trkpt>
      <trkpt lat="47.92822" lon="7.02113">
        <ele>1218.4000244141</ele>
        <time>2021-05-22T13:05:11Z</time>
      </trkpt>
      <trkpt lat="47.92813" lon="7.02086">
        <ele>1219.4000244141</ele>
        <time>2021-05-22T13:05:15Z</time>
      </trkpt>
      <trkpt lat="47.92809" lon="7.02072">
        <ele>1219.5999755859</ele>
        <time>2021-05-22T13:05:17Z</time>
      </trkpt>
      <trkpt lat="47.92798" lon="7.0203">
        <ele>1220.1999511719</ele>
        <time>2021-05-22T13:05:23Z</time>
      </trkpt>
      <trkpt lat="47.92795" lon="7.02014">
        <ele>1220.4000244141</ele>
        <time>2021-05-22T13:05:25Z</time>
      </trkpt>
      <trkpt lat="47.92797" lon="7.01998">
        <ele>1220.4000244141</ele>
        <time>2021-05-22T13:05:27Z</time>
      </trkpt>
      <trkpt lat="47.92803" lon="7.01985">
        <ele>1220.5999755859</ele>
        <time>2021-05-22T13:05:29Z</time>
      </trkpt>
      <trkpt lat="47.92807" lon="7.0198">
        <ele>1220.5999755859</ele>
        <time>2021-05-22T13:05:30Z</time>
      </trkpt>
      <trkpt lat="47.92812" lon="7.01975">
        <ele>1220.5999755859</ele>
        <time>2021-05-22T13:05:31Z</time>
      </trkpt>
      <trkpt lat="47.92823" lon="7.0197">
        <ele>1220.8000488281</ele>
        <time>2021-05-22T13:05:33Z</time>
      </trkpt>
      <trkpt lat="47.92828" lon="7.01969">
        <ele>1220.8000488281</ele>
        <time>2021-05-22T13:05:34Z</time>
      </trkpt>
      <trkpt lat="47.92863" lon="7.01974">
        <ele>1221</ele>
        <time>2021-05-22T13:05:40Z</time>
      </trkpt>
      <trkpt lat="47.92902" lon="7.01989">
        <ele>1221.4000244141</ele>
        <time>2021-05-22T13:05:46Z</time>
      </trkpt>
      <trkpt lat="47.92941" lon="7.02004">
        <ele>1221.4000244141</ele>
        <time>2021-05-22T13:05:52Z</time>
      </trkpt>
      <trkpt lat="47.92985" lon="7.02017">
        <ele>1221</ele>
        <time>2021-05-22T13:05:59Z</time>
      </trkpt>
      <trkpt lat="47.93045" lon="7.0202">
        <ele>1220</ele>
        <time>2021-05-22T13:06:08Z</time>
      </trkpt>
      <trkpt lat="47.93067" lon="7.02019">
        <ele>1219.4000244141</ele>
        <time>2021-05-22T13:06:11Z</time>
      </trkpt>
      <trkpt lat="47.93105" lon="7.02017">
        <ele>1218</ele>
        <time>2021-05-22T13:06:16Z</time>
      </trkpt>
      <trkpt lat="47.93135" lon="7.02007">
        <ele>1217</ele>
        <time>2021-05-22T13:06:20Z</time>
      </trkpt>
      <trkpt lat="47.93143" lon="7.02002">
        <ele>1216.8000488281</ele>
        <time>2021-05-22T13:06:21Z</time>
      </trkpt>
      <trkpt lat="47.93173" lon="7.01982">
        <ele>1215.8000488281</ele>
        <time>2021-05-22T13:06:25Z</time>
      </trkpt>
      <trkpt lat="47.93195" lon="7.01965">
        <ele>1214.5999755859</ele>
        <time>2021-05-22T13:06:28Z</time>
      </trkpt>
      <trkpt lat="47.93216" lon="7.01947">
        <ele>1213.5999755859</ele>
        <time>2021-05-22T13:06:31Z</time>
      </trkpt>
      <trkpt lat="47.9325" lon="7.01921">
        <ele>1212.4000244141</ele>
        <time>2021-05-22T13:06:36Z</time>
      </trkpt>
      <trkpt lat="47.93289" lon="7.01898">
        <ele>1211.8000488281</ele>
        <time>2021-05-22T13:06:42Z</time>
      </trkpt>
      <trkpt lat="47.93337" lon="7.0189">
        <ele>1212</ele>
        <time>2021-05-22T13:06:49Z</time>
      </trkpt>
      <trkpt lat="47.9338" lon="7.01896">
        <ele>1212.5999755859</ele>
        <time>2021-05-22T13:06:55Z</time>
      </trkpt>
      <trkpt lat="47.93396" lon="7.01902">
        <ele>1212.5999755859</ele>
        <time>2021-05-22T13:06:57Z</time>
      </trkpt>
      <trkpt lat="47.93417" lon="7.01913">
        <ele>1212.4000244141</ele>
        <time>2021-05-22T13:07:00Z</time>
      </trkpt>
      <trkpt lat="47.93467" lon="7.01945">
        <ele>1212.1999511719</ele>
        <time>2021-05-22T13:07:07Z</time>
      </trkpt>
      <trkpt lat="47.93489" lon="7.01958">
        <ele>1212.1999511719</ele>
        <time>2021-05-22T13:07:10Z</time>
      </trkpt>
      <trkpt lat="47.93538" lon="7.01991">
        <ele>1212.4000244141</ele>
        <time>2021-05-22T13:07:17Z</time>
      </trkpt>
      <trkpt lat="47.93553" lon="7.02">
        <ele>1212.4000244141</ele>
        <time>2021-05-22T13:07:19Z</time>
      </trkpt>
      <trkpt lat="47.93608" lon="7.02035">
        <ele>1211.8000488281</ele>
        <time>2021-05-22T13:07:26Z</time>
      </trkpt>
      <trkpt lat="47.93616" lon="7.0204">
        <ele>1211.5999755859</ele>
        <time>2021-05-22T13:07:27Z</time>
      </trkpt>
      <trkpt lat="47.93639" lon="7.02055">
        <ele>1211.4000244141</ele>
        <time>2021-05-22T13:07:30Z</time>
      </trkpt>
      <trkpt lat="47.93659" lon="7.02067">
        <ele>1211</ele>
        <time>2021-05-22T13:07:33Z</time>
      </trkpt>
      <trkpt lat="47.93697" lon="7.02092">
        <ele>1212.1999511719</ele>
        <time>2021-05-22T13:07:39Z</time>
      </trkpt>
      <trkpt lat="47.93709" lon="7.02102">
        <ele>1212.5999755859</ele>
        <time>2021-05-22T13:07:41Z</time>
      </trkpt>
      <trkpt lat="47.93734" lon="7.02128">
        <ele>1213</ele>
        <time>2021-05-22T13:07:45Z</time>
      </trkpt>
      <trkpt lat="47.93767" lon="7.0218">
        <ele>1213</ele>
        <time>2021-05-22T13:07:51Z</time>
      </trkpt>
      <trkpt lat="47.93785" lon="7.02207">
        <ele>1212.8000488281</ele>
        <time>2021-05-22T13:07:54Z</time>
      </trkpt>
      <trkpt lat="47.93791" lon="7.02211">
        <ele>1212.5999755859</ele>
        <time>2021-05-22T13:07:55Z</time>
      </trkpt>
      <trkpt lat="47.93798" lon="7.02216">
        <ele>1212.4000244141</ele>
        <time>2021-05-22T13:07:56Z</time>
      </trkpt>
      <trkpt lat="47.93813" lon="7.02217">
        <ele>1212.4000244141</ele>
        <time>2021-05-22T13:07:58Z</time>
      </trkpt>
      <trkpt lat="47.93827" lon="7.0221">
        <ele>1212</ele>
        <time>2021-05-22T13:08:00Z</time>
      </trkpt>
      <trkpt lat="47.93841" lon="7.02199">
        <ele>1211.8000488281</ele>
        <time>2021-05-22T13:08:02Z</time>
      </trkpt>
      <trkpt lat="47.93871" lon="7.0217">
        <ele>1212.1999511719</ele>
        <time>2021-05-22T13:08:07Z</time>
      </trkpt>
      <trkpt lat="47.93901" lon="7.02141">
        <ele>1212.8000488281</ele>
        <time>2021-05-22T13:08:13Z</time>
      </trkpt>
      <trkpt lat="47.93924" lon="7.02124">
        <ele>1213.8000488281</ele>
        <time>2021-05-22T13:08:18Z</time>
      </trkpt>
      <trkpt lat="47.93928" lon="7.02122">
        <ele>1214</ele>
        <time>2021-05-22T13:08:19Z</time>
      </trkpt>
      <trkpt lat="47.93946" lon="7.02118">
        <ele>1215</ele>
        <time>2021-05-22T13:08:23Z</time>
      </trkpt>
      <trkpt lat="47.93956" lon="7.02117">
        <ele>1215.5999755859</ele>
        <time>2021-05-22T13:08:25Z</time>
      </trkpt>
      <trkpt lat="47.93966" lon="7.02118">
        <ele>1216.4000244141</ele>
        <time>2021-05-22T13:08:27Z</time>
      </trkpt>
      <trkpt lat="47.93986" lon="7.02126">
        <ele>1217.1999511719</ele>
        <time>2021-05-22T13:08:31Z</time>
      </trkpt>
      <trkpt lat="47.93991" lon="7.02129">
        <ele>1217.4000244141</ele>
        <time>2021-05-22T13:08:32Z</time>
      </trkpt>
      <trkpt lat="47.94016" lon="7.02151">
        <ele>1218.1999511719</ele>
        <time>2021-05-22T13:08:37Z</time>
      </trkpt>
      <trkpt lat="47.94054" lon="7.02187">
        <ele>1218.5999755859</ele>
        <time>2021-05-22T13:08:44Z</time>
      </trkpt>
      <trkpt lat="47.94064" lon="7.02198">
        <ele>1219</ele>
        <time>2021-05-22T13:08:46Z</time>
      </trkpt>
      <trkpt lat="47.94095" lon="7.02248">
        <ele>1219</ele>
        <time>2021-05-22T13:08:53Z</time>
      </trkpt>
      <trkpt lat="47.94119" lon="7.02295">
        <ele>1218.8000488281</ele>
        <time>2021-05-22T13:08:59Z</time>
      </trkpt>
      <trkpt lat="47.9413" lon="7.02306">
        <ele>1219</ele>
        <time>2021-05-22T13:09:01Z</time>
      </trkpt>
      <trkpt lat="47.94143" lon="7.02313">
        <ele>1219</ele>
        <time>2021-05-22T13:09:03Z</time>
      </trkpt>
      <trkpt lat="47.9415" lon="7.02314">
        <ele>1219</ele>
        <time>2021-05-22T13:09:04Z</time>
      </trkpt>
      <trkpt lat="47.94157" lon="7.02314">
        <ele>1219.1999511719</ele>
        <time>2021-05-22T13:09:05Z</time>
      </trkpt>
      <trkpt lat="47.94171" lon="7.0231">
        <ele>1219.1999511719</ele>
        <time>2021-05-22T13:09:07Z</time>
      </trkpt>
      <trkpt lat="47.94176" lon="7.02306">
        <ele>1219.4000244141</ele>
        <time>2021-05-22T13:09:08Z</time>
      </trkpt>
      <trkpt lat="47.94182" lon="7.02301">
        <ele>1219.5999755859</ele>
        <time>2021-05-22T13:09:09Z</time>
      </trkpt>
      <trkpt lat="47.94187" lon="7.02295">
        <ele>1219.8000488281</ele>
        <time>2021-05-22T13:09:10Z</time>
      </trkpt>
      <trkpt lat="47.94191" lon="7.02289">
        <ele>1220</ele>
        <time>2021-05-22T13:09:11Z</time>
      </trkpt>
      <trkpt lat="47.94195" lon="7.02282">
        <ele>1220.1999511719</ele>
        <time>2021-05-22T13:09:12Z</time>
      </trkpt>
      <trkpt lat="47.94204" lon="7.02259">
        <ele>1220.8000488281</ele>
        <time>2021-05-22T13:09:15Z</time>
      </trkpt>
      <trkpt lat="47.94208" lon="7.02243">
        <ele>1221</ele>
        <time>2021-05-22T13:09:17Z</time>
      </trkpt>
      <trkpt lat="47.94211" lon="7.02235">
        <ele>1221.4000244141</ele>
        <time>2021-05-22T13:09:18Z</time>
      </trkpt>
      <trkpt lat="47.9422" lon="7.02208">
        <ele>1222</ele>
        <time>2021-05-22T13:09:22Z</time>
      </trkpt>
      <trkpt lat="47.94231" lon="7.02173">
        <ele>1223.1999511719</ele>
        <time>2021-05-22T13:09:28Z</time>
      </trkpt>
      <trkpt lat="47.94233" lon="7.02168">
        <ele>1223.5999755859</ele>
        <time>2021-05-22T13:09:29Z</time>
      </trkpt>
      <trkpt lat="47.9424" lon="7.02148">
        <ele>1224.4000244141</ele>
        <time>2021-05-22T13:09:33Z</time>
      </trkpt>
      <trkpt lat="47.94244" lon="7.02134">
        <ele>1225.4000244141</ele>
        <time>2021-05-22T13:09:36Z</time>
      </trkpt>
      <trkpt lat="47.94247" lon="7.02125">
        <ele>1226</ele>
        <time>2021-05-22T13:09:38Z</time>
      </trkpt>
      <trkpt lat="47.94251" lon="7.02116">
        <ele>1226.5999755859</ele>
        <time>2021-05-22T13:09:40Z</time>
      </trkpt>
      <trkpt lat="47.94259" lon="7.021">
        <ele>1227.5999755859</ele>
        <time>2021-05-22T13:09:44Z</time>
      </trkpt>
      <trkpt lat="47.94262" lon="7.02098">
        <ele>1228</ele>
        <time>2021-05-22T13:09:45Z</time>
      </trkpt>
      <trkpt lat="47.9427" lon="7.02094">
        <ele>1228.8000488281</ele>
        <time>2021-05-22T13:09:48Z</time>
      </trkpt>
      <trkpt lat="47.9428" lon="7.02089">
        <ele>1229.8000488281</ele>
        <time>2021-05-22T13:09:51Z</time>
      </trkpt>
      <trkpt lat="47.94291" lon="7.02077">
        <ele>1231</ele>
        <time>2021-05-22T13:09:55Z</time>
      </trkpt>
      <trkpt lat="47.94293" lon="7.02074">
        <ele>1231.1999511719</ele>
        <time>2021-05-22T13:09:56Z</time>
      </trkpt>
      <trkpt lat="47.94297" lon="7.02068">
        <ele>1232.4000244141</ele>
        <time>2021-05-22T13:09:59Z</time>
      </trkpt>
      <trkpt lat="47.94298" lon="7.02066">
        <ele>1232.5999755859</ele>
        <time>2021-05-22T13:10:00Z</time>
      </trkpt>
      <trkpt lat="47.94302" lon="7.02057">
        <ele>1233.8000488281</ele>
        <time>2021-05-22T13:10:05Z</time>
      </trkpt>
      <trkpt lat="47.94302" lon="7.02055">
        <ele>1234.1999511719</ele>
        <time>2021-05-22T13:10:06Z</time>
      </trkpt>
      <trkpt lat="47.94302" lon="7.02054">
        <ele>1234.4000244141</ele>
        <time>2021-05-22T13:10:07Z</time>
      </trkpt>
      <trkpt lat="47.94299" lon="7.02053">
        <ele>1234.8000488281</ele>
        <time>2021-05-22T13:10:10Z</time>
      </trkpt>
      <trkpt lat="47.94297" lon="7.02055">
        <ele>1235</ele>
        <time>2021-05-22T13:10:11Z</time>
      </trkpt>
      <trkpt lat="47.94291" lon="7.02066">
        <ele>1235.1999511719</ele>
        <time>2021-05-22T13:10:14Z</time>
      </trkpt>
      <trkpt lat="47.94283" lon="7.02081">
        <ele>1234.5999755859</ele>
        <time>2021-05-22T13:10:17Z</time>
      </trkpt>
      <trkpt lat="47.9428" lon="7.02084">
        <ele>1234.5999755859</ele>
        <time>2021-05-22T13:10:18Z</time>
      </trkpt>
      <trkpt lat="47.94276" lon="7.02086">
        <ele>1234.5999755859</ele>
        <time>2021-05-22T13:10:19Z</time>
      </trkpt>
      <trkpt lat="47.9427" lon="7.02085">
        <ele>1233.5999755859</ele>
        <time>2021-05-22T13:10:21Z</time>
      </trkpt>
      <trkpt lat="47.94269" lon="7.02083">
        <ele>1232.8000488281</ele>
        <time>2021-05-22T13:10:22Z</time>
      </trkpt>
      <trkpt lat="47.94267" lon="7.0208">
        <ele>1232.4000244141</ele>
        <time>2021-05-22T13:10:24Z</time>
      </trkpt>
      <trkpt lat="47.94266" lon="7.0208">
        <ele>1232.1999511719</ele>
        <time>2021-05-22T13:10:26Z</time>
      </trkpt>
      <trkpt lat="47.94272" lon="7.02084">
        <ele>1229.4000244141</ele>
        <time>2021-05-22T13:11:26Z</time>
      </trkpt>
      <trkpt lat="47.94275" lon="7.02086">
        <ele>1229</ele>
        <time>2021-05-22T13:11:28Z</time>
      </trkpt>
      <trkpt lat="47.94276" lon="7.02092">
        <ele>1228.8000488281</ele>
        <time>2021-05-22T13:11:30Z</time>
      </trkpt>
      <trkpt lat="47.9428" lon="7.02093">
        <ele>1228.8000488281</ele>
        <time>2021-05-22T13:11:32Z</time>
      </trkpt>
      <trkpt lat="47.94285" lon="7.02091">
        <ele>1229.5999755859</ele>
        <time>2021-05-22T13:11:37Z</time>
      </trkpt>
      <trkpt lat="47.94286" lon="7.02088">
        <ele>1231.8000488281</ele>
        <time>2021-05-22T13:11:58Z</time>
      </trkpt>
      <trkpt lat="47.9429" lon="7.02074">
        <ele>1231.5999755859</ele>
        <time>2021-05-22T13:12:02Z</time>
      </trkpt>
      <trkpt lat="47.94298" lon="7.02061">
        <ele>1232.4000244141</ele>
        <time>2021-05-22T13:12:08Z</time>
      </trkpt>
      <trkpt lat="47.943" lon="7.02055">
        <ele>1233.1999511719</ele>
        <time>2021-05-22T13:12:10Z</time>
      </trkpt>
      <trkpt lat="47.94306" lon="7.02044">
        <ele>1234.1999511719</ele>
        <time>2021-05-22T13:12:15Z</time>
      </trkpt>
      <trkpt lat="47.94309" lon="7.0204">
        <ele>1234.5999755859</ele>
        <time>2021-05-22T13:12:17Z</time>
      </trkpt>
      <trkpt lat="47.94315" lon="7.02032">
        <ele>1235.4000244141</ele>
        <time>2021-05-22T13:12:21Z</time>
      </trkpt>
      <trkpt lat="47.94319" lon="7.02028">
        <ele>1235.5999755859</ele>
        <time>2021-05-22T13:12:23Z</time>
      </trkpt>
      <trkpt lat="47.94332" lon="7.02017">
        <ele>1236.4000244141</ele>
        <time>2021-05-22T13:12:29Z</time>
      </trkpt>
      <trkpt lat="47.94337" lon="7.02015">
        <ele>1237.8000488281</ele>
        <time>2021-05-22T13:12:31Z</time>
      </trkpt>
      <trkpt lat="47.94349" lon="7.02011">
        <ele>1238.8000488281</ele>
        <time>2021-05-22T13:12:35Z</time>
      </trkpt>
      <trkpt lat="47.9436" lon="7.02008">
        <ele>1239.4000244141</ele>
        <time>2021-05-22T13:12:39Z</time>
      </trkpt>
      <trkpt lat="47.94368" lon="7.02006">
        <ele>1240.1999511719</ele>
        <time>2021-05-22T13:12:42Z</time>
      </trkpt>
      <trkpt lat="47.94375" lon="7.02003">
        <ele>1241.4000244141</ele>
        <time>2021-05-22T13:12:45Z</time>
      </trkpt>
      <trkpt lat="47.94386" lon="7.02002">
        <ele>1242.1999511719</ele>
        <time>2021-05-22T13:12:49Z</time>
      </trkpt>
      <trkpt lat="47.94389" lon="7.02002">
        <ele>1242.4000244141</ele>
        <time>2021-05-22T13:12:50Z</time>
      </trkpt>
      <trkpt lat="47.94404" lon="7.02001">
        <ele>1243</ele>
        <time>2021-05-22T13:12:56Z</time>
      </trkpt>
      <trkpt lat="47.94411" lon="7.02002">
        <ele>1243.5999755859</ele>
        <time>2021-05-22T13:12:59Z</time>
      </trkpt>
      <trkpt lat="47.94423" lon="7.02007">
        <ele>1244.1999511719</ele>
        <time>2021-05-22T13:13:04Z</time>
      </trkpt>
      <trkpt lat="47.94428" lon="7.02012">
        <ele>1244.8000488281</ele>
        <time>2021-05-22T13:13:06Z</time>
      </trkpt>
      <trkpt lat="47.94438" lon="7.02023">
        <ele>1245.8000488281</ele>
        <time>2021-05-22T13:13:10Z</time>
      </trkpt>
      <trkpt lat="47.94443" lon="7.02029">
        <ele>1246.5999755859</ele>
        <time>2021-05-22T13:13:12Z</time>
      </trkpt>
      <trkpt lat="47.94445" lon="7.02033">
        <ele>1246.8000488281</ele>
        <time>2021-05-22T13:13:13Z</time>
      </trkpt>
      <trkpt lat="47.94452" lon="7.0205">
        <ele>1247.8000488281</ele>
        <time>2021-05-22T13:13:17Z</time>
      </trkpt>
      <trkpt lat="47.94459" lon="7.02066">
        <ele>1248.4000244141</ele>
        <time>2021-05-22T13:13:21Z</time>
      </trkpt>
      <trkpt lat="47.94464" lon="7.02079">
        <ele>1249</ele>
        <time>2021-05-22T13:13:24Z</time>
      </trkpt>
      <trkpt lat="47.94473" lon="7.02098">
        <ele>1250.1999511719</ele>
        <time>2021-05-22T13:13:29Z</time>
      </trkpt>
      <trkpt lat="47.94477" lon="7.02106">
        <ele>1250.4000244141</ele>
        <time>2021-05-22T13:13:31Z</time>
      </trkpt>
      <trkpt lat="47.94486" lon="7.02125">
        <ele>1251.4000244141</ele>
        <time>2021-05-22T13:13:36Z</time>
      </trkpt>
      <trkpt lat="47.94493" lon="7.02139">
        <ele>1252.5999755859</ele>
        <time>2021-05-22T13:13:40Z</time>
      </trkpt>
      <trkpt lat="47.94501" lon="7.02152">
        <ele>1254</ele>
        <time>2021-05-22T13:13:44Z</time>
      </trkpt>
      <trkpt lat="47.94512" lon="7.02169">
        <ele>1255.1999511719</ele>
        <time>2021-05-22T13:13:49Z</time>
      </trkpt>
      <trkpt lat="47.94516" lon="7.02175">
        <ele>1255.5999755859</ele>
        <time>2021-05-22T13:13:51Z</time>
      </trkpt>
      <trkpt lat="47.94522" lon="7.02186">
        <ele>1256.4000244141</ele>
        <time>2021-05-22T13:13:54Z</time>
      </trkpt>
      <trkpt lat="47.94531" lon="7.02204">
        <ele>1257.4000244141</ele>
        <time>2021-05-22T13:13:59Z</time>
      </trkpt>
      <trkpt lat="47.94533" lon="7.02208">
        <ele>1257.5999755859</ele>
        <time>2021-05-22T13:14:00Z</time>
      </trkpt>
      <trkpt lat="47.94538" lon="7.0222">
        <ele>1259</ele>
        <time>2021-05-22T13:14:03Z</time>
      </trkpt>
      <trkpt lat="47.94546" lon="7.0224">
        <ele>1260.1999511719</ele>
        <time>2021-05-22T13:14:08Z</time>
      </trkpt>
      <trkpt lat="47.94547" lon="7.02244">
        <ele>1260.1999511719</ele>
        <time>2021-05-22T13:14:09Z</time>
      </trkpt>
      <trkpt lat="47.94553" lon="7.02263">
        <ele>1261.1999511719</ele>
        <time>2021-05-22T13:14:13Z</time>
      </trkpt>
      <trkpt lat="47.94554" lon="7.02273">
        <ele>1261.5999755859</ele>
        <time>2021-05-22T13:14:15Z</time>
      </trkpt>
      <trkpt lat="47.94558" lon="7.02291">
        <ele>1262.4000244141</ele>
        <time>2021-05-22T13:14:19Z</time>
      </trkpt>
      <trkpt lat="47.94562" lon="7.02309">
        <ele>1263.4000244141</ele>
        <time>2021-05-22T13:14:23Z</time>
      </trkpt>
      <trkpt lat="47.94566" lon="7.02327">
        <ele>1264.5999755859</ele>
        <time>2021-05-22T13:14:27Z</time>
      </trkpt>
      <trkpt lat="47.9457" lon="7.02349">
        <ele>1265.4000244141</ele>
        <time>2021-05-22T13:14:32Z</time>
      </trkpt>
      <trkpt lat="47.94571" lon="7.02354">
        <ele>1265.5999755859</ele>
        <time>2021-05-22T13:14:33Z</time>
      </trkpt>
      <trkpt lat="47.94574" lon="7.02371">
        <ele>1266.5999755859</ele>
        <time>2021-05-22T13:14:37Z</time>
      </trkpt>
      <trkpt lat="47.94578" lon="7.02384">
        <ele>1267.4000244141</ele>
        <time>2021-05-22T13:14:40Z</time>
      </trkpt>
      <trkpt lat="47.9458" lon="7.02399">
        <ele>1267.8000488281</ele>
        <time>2021-05-22T13:14:43Z</time>
      </trkpt>
      <trkpt lat="47.94584" lon="7.02418">
        <ele>1269</ele>
        <time>2021-05-22T13:14:47Z</time>
      </trkpt>
      <trkpt lat="47.94589" lon="7.02443">
        <ele>1269.1999511719</ele>
        <time>2021-05-22T13:14:52Z</time>
      </trkpt>
      <trkpt lat="47.946" lon="7.02497">
        <ele>1270.1999511719</ele>
        <time>2021-05-22T13:15:02Z</time>
      </trkpt>
      <trkpt lat="47.94601" lon="7.02503">
        <ele>1270.1999511719</ele>
        <time>2021-05-22T13:15:03Z</time>
      </trkpt>
      <trkpt lat="47.94607" lon="7.02532">
        <ele>1271.1999511719</ele>
        <time>2021-05-22T13:15:08Z</time>
      </trkpt>
      <trkpt lat="47.94613" lon="7.02563">
        <ele>1272.1999511719</ele>
        <time>2021-05-22T13:15:13Z</time>
      </trkpt>
      <trkpt lat="47.94615" lon="7.0257">
        <ele>1272.1999511719</ele>
        <time>2021-05-22T13:15:14Z</time>
      </trkpt>
      <trkpt lat="47.94628" lon="7.02613">
        <ele>1273.1999511719</ele>
        <time>2021-05-22T13:15:21Z</time>
      </trkpt>
      <trkpt lat="47.94633" lon="7.02624">
        <ele>1273.4000244141</ele>
        <time>2021-05-22T13:15:23Z</time>
      </trkpt>
      <trkpt lat="47.94645" lon="7.02644">
        <ele>1274.4000244141</ele>
        <time>2021-05-22T13:15:27Z</time>
      </trkpt>
      <trkpt lat="47.94657" lon="7.02665">
        <ele>1275.4000244141</ele>
        <time>2021-05-22T13:15:31Z</time>
      </trkpt>
      <trkpt lat="47.94669" lon="7.02684">
        <ele>1276</ele>
        <time>2021-05-22T13:15:35Z</time>
      </trkpt>
      <trkpt lat="47.94684" lon="7.02709">
        <ele>1276.8000488281</ele>
        <time>2021-05-22T13:15:40Z</time>
      </trkpt>
      <trkpt lat="47.94687" lon="7.02714">
        <ele>1276.8000488281</ele>
        <time>2021-05-22T13:15:41Z</time>
      </trkpt>
      <trkpt lat="47.947" lon="7.02734">
        <ele>1277.8000488281</ele>
        <time>2021-05-22T13:15:45Z</time>
      </trkpt>
      <trkpt lat="47.94714" lon="7.02753">
        <ele>1278.5999755859</ele>
        <time>2021-05-22T13:15:49Z</time>
      </trkpt>
      <trkpt lat="47.94717" lon="7.02758">
        <ele>1278.8000488281</ele>
        <time>2021-05-22T13:15:50Z</time>
      </trkpt>
      <trkpt lat="47.94721" lon="7.02763">
        <ele>1278.8000488281</ele>
        <time>2021-05-22T13:15:51Z</time>
      </trkpt>
      <trkpt lat="47.9474" lon="7.02783">
        <ele>1279.1999511719</ele>
        <time>2021-05-22T13:15:56Z</time>
      </trkpt>
      <trkpt lat="47.94751" lon="7.02795">
        <ele>1280</ele>
        <time>2021-05-22T13:15:59Z</time>
      </trkpt>
      <trkpt lat="47.94776" lon="7.02821">
        <ele>1280.5999755859</ele>
        <time>2021-05-22T13:16:05Z</time>
      </trkpt>
      <trkpt lat="47.9482" lon="7.02868">
        <ele>1280.5999755859</ele>
        <time>2021-05-22T13:16:15Z</time>
      </trkpt>
      <trkpt lat="47.94852" lon="7.02907">
        <ele>1280.1999511719</ele>
        <time>2021-05-22T13:16:21Z</time>
      </trkpt>
      <trkpt lat="47.94885" lon="7.02959">
        <ele>1279</ele>
        <time>2021-05-22T13:16:27Z</time>
      </trkpt>
      <trkpt lat="47.94891" lon="7.02968">
        <ele>1279</ele>
        <time>2021-05-22T13:16:28Z</time>
      </trkpt>
      <trkpt lat="47.94913" lon="7.0301">
        <ele>1277.5999755859</ele>
        <time>2021-05-22T13:16:32Z</time>
      </trkpt>
      <trkpt lat="47.94919" lon="7.0302">
        <ele>1277.4000244141</ele>
        <time>2021-05-22T13:16:33Z</time>
      </trkpt>
      <trkpt lat="47.94949" lon="7.03072">
        <ele>1276.4000244141</ele>
        <time>2021-05-22T13:16:38Z</time>
      </trkpt>
      <trkpt lat="47.9497" lon="7.03105">
        <ele>1275.1999511719</ele>
        <time>2021-05-22T13:16:41Z</time>
      </trkpt>
      <trkpt lat="47.94991" lon="7.03135">
        <ele>1273.5999755859</ele>
        <time>2021-05-22T13:16:44Z</time>
      </trkpt>
      <trkpt lat="47.95009" lon="7.03161">
        <ele>1272.8000488281</ele>
        <time>2021-05-22T13:16:46Z</time>
      </trkpt>
      <trkpt lat="47.95018" lon="7.03173">
        <ele>1272.4000244141</ele>
        <time>2021-05-22T13:16:47Z</time>
      </trkpt>
      <trkpt lat="47.95035" lon="7.03199">
        <ele>1270.5999755859</ele>
        <time>2021-05-22T13:16:49Z</time>
      </trkpt>
      <trkpt lat="47.95053" lon="7.03224">
        <ele>1269.1999511719</ele>
        <time>2021-05-22T13:16:51Z</time>
      </trkpt>
      <trkpt lat="47.95063" lon="7.03236">
        <ele>1268.5999755859</ele>
        <time>2021-05-22T13:16:52Z</time>
      </trkpt>
      <trkpt lat="47.95071" lon="7.03246">
        <ele>1268</ele>
        <time>2021-05-22T13:16:53Z</time>
      </trkpt>
      <trkpt lat="47.95094" lon="7.03268">
        <ele>1266</ele>
        <time>2021-05-22T13:16:55Z</time>
      </trkpt>
      <trkpt lat="47.95105" lon="7.03278">
        <ele>1264.5999755859</ele>
        <time>2021-05-22T13:16:56Z</time>
      </trkpt>
      <trkpt lat="47.95114" lon="7.03287">
        <ele>1263.8000488281</ele>
        <time>2021-05-22T13:16:57Z</time>
      </trkpt>
      <trkpt lat="47.95126" lon="7.03298">
        <ele>1262.5999755859</ele>
        <time>2021-05-22T13:16:58Z</time>
      </trkpt>
      <trkpt lat="47.95153" lon="7.03322">
        <ele>1260.4000244141</ele>
        <time>2021-05-22T13:17:00Z</time>
      </trkpt>
      <trkpt lat="47.95165" lon="7.03333">
        <ele>1259.4000244141</ele>
        <time>2021-05-22T13:17:01Z</time>
      </trkpt>
      <trkpt lat="47.95177" lon="7.03343">
        <ele>1257.5999755859</ele>
        <time>2021-05-22T13:17:02Z</time>
      </trkpt>
      <trkpt lat="47.95188" lon="7.03352">
        <ele>1256.1999511719</ele>
        <time>2021-05-22T13:17:03Z</time>
      </trkpt>
      <trkpt lat="47.95217" lon="7.03372">
        <ele>1254</ele>
        <time>2021-05-22T13:17:05Z</time>
      </trkpt>
      <trkpt lat="47.95228" lon="7.03376">
        <ele>1253.1999511719</ele>
        <time>2021-05-22T13:17:06Z</time>
      </trkpt>
      <trkpt lat="47.95243" lon="7.0338">
        <ele>1251.5999755859</ele>
        <time>2021-05-22T13:17:07Z</time>
      </trkpt>
      <trkpt lat="47.9526" lon="7.0338">
        <ele>1251</ele>
        <time>2021-05-22T13:17:08Z</time>
      </trkpt>
      <trkpt lat="47.95274" lon="7.03378">
        <ele>1250</ele>
        <time>2021-05-22T13:17:09Z</time>
      </trkpt>
      <trkpt lat="47.95297" lon="7.03371">
        <ele>1248.1999511719</ele>
        <time>2021-05-22T13:17:11Z</time>
      </trkpt>
      <trkpt lat="47.9531" lon="7.03367">
        <ele>1247</ele>
        <time>2021-05-22T13:17:12Z</time>
      </trkpt>
      <trkpt lat="47.95334" lon="7.03359">
        <ele>1245.5999755859</ele>
        <time>2021-05-22T13:17:14Z</time>
      </trkpt>
      <trkpt lat="47.95356" lon="7.03352">
        <ele>1245.1999511719</ele>
        <time>2021-05-22T13:17:16Z</time>
      </trkpt>
      <trkpt lat="47.95376" lon="7.03346">
        <ele>1244.5999755859</ele>
        <time>2021-05-22T13:17:18Z</time>
      </trkpt>
      <trkpt lat="47.95403" lon="7.03338">
        <ele>1244.4000244141</ele>
        <time>2021-05-22T13:17:21Z</time>
      </trkpt>
      <trkpt lat="47.9546" lon="7.0332">
        <ele>1244.8000488281</ele>
        <time>2021-05-22T13:17:28Z</time>
      </trkpt>
      <trkpt lat="47.95468" lon="7.03319">
        <ele>1245</ele>
        <time>2021-05-22T13:17:29Z</time>
      </trkpt>
      <trkpt lat="47.95508" lon="7.0332">
        <ele>1245.1999511719</ele>
        <time>2021-05-22T13:17:34Z</time>
      </trkpt>
      <trkpt lat="47.95514" lon="7.03322">
        <ele>1245.4000244141</ele>
        <time>2021-05-22T13:17:35Z</time>
      </trkpt>
      <trkpt lat="47.95535" lon="7.03335">
        <ele>1245.5999755859</ele>
        <time>2021-05-22T13:17:38Z</time>
      </trkpt>
      <trkpt lat="47.95542" lon="7.0334">
        <ele>1245.8000488281</ele>
        <time>2021-05-22T13:17:39Z</time>
      </trkpt>
      <trkpt lat="47.95566" lon="7.03365">
        <ele>1246.1999511719</ele>
        <time>2021-05-22T13:17:43Z</time>
      </trkpt>
      <trkpt lat="47.95572" lon="7.03374">
        <ele>1246.4000244141</ele>
        <time>2021-05-22T13:17:44Z</time>
      </trkpt>
      <trkpt lat="47.9558" lon="7.03389">
        <ele>1247.1999511719</ele>
        <time>2021-05-22T13:17:46Z</time>
      </trkpt>
      <trkpt lat="47.95589" lon="7.03409">
        <ele>1247.4000244141</ele>
        <time>2021-05-22T13:17:48Z</time>
      </trkpt>
      <trkpt lat="47.95621" lon="7.03483">
        <ele>1247.5999755859</ele>
        <time>2021-05-22T13:17:56Z</time>
      </trkpt>
      <trkpt lat="47.95649" lon="7.03528">
        <ele>1247</ele>
        <time>2021-05-22T13:18:01Z</time>
      </trkpt>
      <trkpt lat="47.95655" lon="7.03536">
        <ele>1247</ele>
        <time>2021-05-22T13:18:02Z</time>
      </trkpt>
      <trkpt lat="47.95662" lon="7.03543">
        <ele>1246.5999755859</ele>
        <time>2021-05-22T13:18:03Z</time>
      </trkpt>
      <trkpt lat="47.95694" lon="7.03572">
        <ele>1245.8000488281</ele>
        <time>2021-05-22T13:18:07Z</time>
      </trkpt>
      <trkpt lat="47.95708" lon="7.03583">
        <ele>1245.5999755859</ele>
        <time>2021-05-22T13:18:09Z</time>
      </trkpt>
      <trkpt lat="47.95739" lon="7.03609">
        <ele>1244.5999755859</ele>
        <time>2021-05-22T13:18:13Z</time>
      </trkpt>
      <trkpt lat="47.95745" lon="7.03614">
        <ele>1244.5999755859</ele>
        <time>2021-05-22T13:18:14Z</time>
      </trkpt>
      <trkpt lat="47.9575" lon="7.03617">
        <ele>1244.5999755859</ele>
        <time>2021-05-22T13:18:15Z</time>
      </trkpt>
      <trkpt lat="47.95776" lon="7.03632">
        <ele>1244.4000244141</ele>
        <time>2021-05-22T13:18:18Z</time>
      </trkpt>
      <trkpt lat="47.95824" lon="7.03668">
        <ele>1244.4000244141</ele>
        <time>2021-05-22T13:18:24Z</time>
      </trkpt>
      <trkpt lat="47.95841" lon="7.03676">
        <ele>1244.5999755859</ele>
        <time>2021-05-22T13:18:27Z</time>
      </trkpt>
      <trkpt lat="47.95848" lon="7.0368">
        <ele>1244.5999755859</ele>
        <time>2021-05-22T13:18:28Z</time>
      </trkpt>
      <trkpt lat="47.95864" lon="7.03693">
        <ele>1245.1999511719</ele>
        <time>2021-05-22T13:18:30Z</time>
      </trkpt>
      <trkpt lat="47.95884" lon="7.03706">
        <ele>1245.4000244141</ele>
        <time>2021-05-22T13:18:32Z</time>
      </trkpt>
      <trkpt lat="47.9591" lon="7.03714">
        <ele>1245.4000244141</ele>
        <time>2021-05-22T13:18:35Z</time>
      </trkpt>
      <trkpt lat="47.9593" lon="7.0372">
        <ele>1245.4000244141</ele>
        <time>2021-05-22T13:18:37Z</time>
      </trkpt>
      <trkpt lat="47.95962" lon="7.03728">
        <ele>1245.5999755859</ele>
        <time>2021-05-22T13:18:41Z</time>
      </trkpt>
      <trkpt lat="47.95993" lon="7.03736">
        <ele>1245.8000488281</ele>
        <time>2021-05-22T13:18:45Z</time>
      </trkpt>
      <trkpt lat="47.96013" lon="7.03739">
        <ele>1246.4000244141</ele>
        <time>2021-05-22T13:18:48Z</time>
      </trkpt>
      <trkpt lat="47.96039" lon="7.03744">
        <ele>1247.1999511719</ele>
        <time>2021-05-22T13:18:52Z</time>
      </trkpt>
      <trkpt lat="47.96049" lon="7.03746">
        <ele>1248.5999755859</ele>
        <time>2021-05-22T13:18:54Z</time>
      </trkpt>
      <trkpt lat="47.96055" lon="7.03747">
        <ele>1249.4000244141</ele>
        <time>2021-05-22T13:18:55Z</time>
      </trkpt>
      <trkpt lat="47.96062" lon="7.03748">
        <ele>1249.5999755859</ele>
        <time>2021-05-22T13:18:56Z</time>
      </trkpt>
      <trkpt lat="47.96079" lon="7.03748">
        <ele>1251</ele>
        <time>2021-05-22T13:18:59Z</time>
      </trkpt>
      <trkpt lat="47.96091" lon="7.03748">
        <ele>1251.5999755859</ele>
        <time>2021-05-22T13:19:01Z</time>
      </trkpt>
      <trkpt lat="47.96104" lon="7.03747">
        <ele>1252.1999511719</ele>
        <time>2021-05-22T13:19:03Z</time>
      </trkpt>
      <trkpt lat="47.96125" lon="7.03743">
        <ele>1252.8000488281</ele>
        <time>2021-05-22T13:19:06Z</time>
      </trkpt>
      <trkpt lat="47.96169" lon="7.03731">
        <ele>1252.8000488281</ele>
        <time>2021-05-22T13:19:12Z</time>
      </trkpt>
      <trkpt lat="47.96201" lon="7.03724">
        <ele>1251</ele>
        <time>2021-05-22T13:19:16Z</time>
      </trkpt>
      <trkpt lat="47.96209" lon="7.03723">
        <ele>1251</ele>
        <time>2021-05-22T13:19:17Z</time>
      </trkpt>
      <trkpt lat="47.96218" lon="7.03722">
        <ele>1250.8000488281</ele>
        <time>2021-05-22T13:19:18Z</time>
      </trkpt>
      <trkpt lat="47.96254" lon="7.03721">
        <ele>1250</ele>
        <time>2021-05-22T13:19:22Z</time>
      </trkpt>
      <trkpt lat="47.96263" lon="7.03722">
        <ele>1249.8000488281</ele>
        <time>2021-05-22T13:19:23Z</time>
      </trkpt>
      <trkpt lat="47.96292" lon="7.03722">
        <ele>1249.4000244141</ele>
        <time>2021-05-22T13:19:26Z</time>
      </trkpt>
      <trkpt lat="47.96302" lon="7.03718">
        <ele>1249</ele>
        <time>2021-05-22T13:19:27Z</time>
      </trkpt>
      <trkpt lat="47.96311" lon="7.03712">
        <ele>1248.8000488281</ele>
        <time>2021-05-22T13:19:28Z</time>
      </trkpt>
      <trkpt lat="47.96326" lon="7.03688">
        <ele>1248</ele>
        <time>2021-05-22T13:19:30Z</time>
      </trkpt>
      <trkpt lat="47.96331" lon="7.03673">
        <ele>1247.1999511719</ele>
        <time>2021-05-22T13:19:31Z</time>
      </trkpt>
      <trkpt lat="47.96341" lon="7.03642">
        <ele>1246.1999511719</ele>
        <time>2021-05-22T13:19:33Z</time>
      </trkpt>
      <trkpt lat="47.96346" lon="7.03629">
        <ele>1244.5999755859</ele>
        <time>2021-05-22T13:19:34Z</time>
      </trkpt>
      <trkpt lat="47.96359" lon="7.03602">
        <ele>1241.8000488281</ele>
        <time>2021-05-22T13:19:36Z</time>
      </trkpt>
      <trkpt lat="47.96375" lon="7.03579">
        <ele>1240</ele>
        <time>2021-05-22T13:19:38Z</time>
      </trkpt>
      <trkpt lat="47.96384" lon="7.03567">
        <ele>1237.8000488281</ele>
        <time>2021-05-22T13:19:39Z</time>
      </trkpt>
      <trkpt lat="47.96402" lon="7.03543">
        <ele>1235.5999755859</ele>
        <time>2021-05-22T13:19:41Z</time>
      </trkpt>
      <trkpt lat="47.9642" lon="7.03519">
        <ele>1233.5999755859</ele>
        <time>2021-05-22T13:19:43Z</time>
      </trkpt>
      <trkpt lat="47.96439" lon="7.03495">
        <ele>1231</ele>
        <time>2021-05-22T13:19:45Z</time>
      </trkpt>
      <trkpt lat="47.96458" lon="7.03474">
        <ele>1228.5999755859</ele>
        <time>2021-05-22T13:19:47Z</time>
      </trkpt>
      <trkpt lat="47.96469" lon="7.03464">
        <ele>1226.5999755859</ele>
        <time>2021-05-22T13:19:48Z</time>
      </trkpt>
      <trkpt lat="47.96479" lon="7.03456">
        <ele>1225.1999511719</ele>
        <time>2021-05-22T13:19:49Z</time>
      </trkpt>
      <trkpt lat="47.9649" lon="7.03448">
        <ele>1223.4000244141</ele>
        <time>2021-05-22T13:19:50Z</time>
      </trkpt>
      <trkpt lat="47.96512" lon="7.03434">
        <ele>1221</ele>
        <time>2021-05-22T13:19:52Z</time>
      </trkpt>
      <trkpt lat="47.96535" lon="7.03423">
        <ele>1217.5999755859</ele>
        <time>2021-05-22T13:19:54Z</time>
      </trkpt>
      <trkpt lat="47.96546" lon="7.03417">
        <ele>1216.1999511719</ele>
        <time>2021-05-22T13:19:55Z</time>
      </trkpt>
      <trkpt lat="47.96568" lon="7.03407">
        <ele>1214.1999511719</ele>
        <time>2021-05-22T13:19:57Z</time>
      </trkpt>
      <trkpt lat="47.96593" lon="7.03397">
        <ele>1212.1999511719</ele>
        <time>2021-05-22T13:19:59Z</time>
      </trkpt>
      <trkpt lat="47.96612" lon="7.0339">
        <ele>1210.8000488281</ele>
        <time>2021-05-22T13:20:01Z</time>
      </trkpt>
      <trkpt lat="47.96623" lon="7.03386">
        <ele>1210.1999511719</ele>
        <time>2021-05-22T13:20:02Z</time>
      </trkpt>
      <trkpt lat="47.96634" lon="7.03383">
        <ele>1209</ele>
        <time>2021-05-22T13:20:03Z</time>
      </trkpt>
      <trkpt lat="47.96647" lon="7.0338">
        <ele>1208</ele>
        <time>2021-05-22T13:20:04Z</time>
      </trkpt>
      <trkpt lat="47.96667" lon="7.03379">
        <ele>1205.5999755859</ele>
        <time>2021-05-22T13:20:06Z</time>
      </trkpt>
      <trkpt lat="47.96691" lon="7.03382">
        <ele>1204</ele>
        <time>2021-05-22T13:20:08Z</time>
      </trkpt>
      <trkpt lat="47.96701" lon="7.03385">
        <ele>1202.8000488281</ele>
        <time>2021-05-22T13:20:09Z</time>
      </trkpt>
      <trkpt lat="47.96712" lon="7.03389">
        <ele>1201.4000244141</ele>
        <time>2021-05-22T13:20:10Z</time>
      </trkpt>
      <trkpt lat="47.9672" lon="7.03394">
        <ele>1199.8000488281</ele>
        <time>2021-05-22T13:20:11Z</time>
      </trkpt>
      <trkpt lat="47.9674" lon="7.03411">
        <ele>1198.4000244141</ele>
        <time>2021-05-22T13:20:13Z</time>
      </trkpt>
      <trkpt lat="47.96757" lon="7.03436">
        <ele>1196.8000488281</ele>
        <time>2021-05-22T13:20:15Z</time>
      </trkpt>
      <trkpt lat="47.96764" lon="7.03451">
        <ele>1196.4000244141</ele>
        <time>2021-05-22T13:20:16Z</time>
      </trkpt>
      <trkpt lat="47.96771" lon="7.03468">
        <ele>1194.4000244141</ele>
        <time>2021-05-22T13:20:17Z</time>
      </trkpt>
      <trkpt lat="47.96782" lon="7.03505">
        <ele>1192.5999755859</ele>
        <time>2021-05-22T13:20:19Z</time>
      </trkpt>
      <trkpt lat="47.96787" lon="7.03525">
        <ele>1191.4000244141</ele>
        <time>2021-05-22T13:20:20Z</time>
      </trkpt>
      <trkpt lat="47.96797" lon="7.03564">
        <ele>1189.1999511719</ele>
        <time>2021-05-22T13:20:22Z</time>
      </trkpt>
      <trkpt lat="47.96801" lon="7.03584">
        <ele>1188.1999511719</ele>
        <time>2021-05-22T13:20:23Z</time>
      </trkpt>
      <trkpt lat="47.96805" lon="7.03604">
        <ele>1185.8000488281</ele>
        <time>2021-05-22T13:20:24Z</time>
      </trkpt>
      <trkpt lat="47.96809" lon="7.03625">
        <ele>1184.5999755859</ele>
        <time>2021-05-22T13:20:25Z</time>
      </trkpt>
      <trkpt lat="47.96811" lon="7.03647">
        <ele>1183</ele>
        <time>2021-05-22T13:20:26Z</time>
      </trkpt>
      <trkpt lat="47.96813" lon="7.0369">
        <ele>1181.5999755859</ele>
        <time>2021-05-22T13:20:28Z</time>
      </trkpt>
      <trkpt lat="47.96813" lon="7.03712">
        <ele>1178.5999755859</ele>
        <time>2021-05-22T13:20:29Z</time>
      </trkpt>
      <trkpt lat="47.96811" lon="7.03755">
        <ele>1175.8000488281</ele>
        <time>2021-05-22T13:20:31Z</time>
      </trkpt>
      <trkpt lat="47.96807" lon="7.03797">
        <ele>1174.1999511719</ele>
        <time>2021-05-22T13:20:33Z</time>
      </trkpt>
      <trkpt lat="47.96805" lon="7.03817">
        <ele>1173.8000488281</ele>
        <time>2021-05-22T13:20:34Z</time>
      </trkpt>
      <trkpt lat="47.96804" lon="7.03836">
        <ele>1173</ele>
        <time>2021-05-22T13:20:35Z</time>
      </trkpt>
      <trkpt lat="47.96804" lon="7.03855">
        <ele>1172.4000244141</ele>
        <time>2021-05-22T13:20:36Z</time>
      </trkpt>
      <trkpt lat="47.96805" lon="7.03873">
        <ele>1172.1999511719</ele>
        <time>2021-05-22T13:20:37Z</time>
      </trkpt>
      <trkpt lat="47.96807" lon="7.0389">
        <ele>1172.1999511719</ele>
        <time>2021-05-22T13:20:38Z</time>
      </trkpt>
      <trkpt lat="47.96811" lon="7.03922">
        <ele>1172</ele>
        <time>2021-05-22T13:20:40Z</time>
      </trkpt>
      <trkpt lat="47.96829" lon="7.0399">
        <ele>1172.5999755859</ele>
        <time>2021-05-22T13:20:45Z</time>
      </trkpt>
      <trkpt lat="47.96847" lon="7.04034">
        <ele>1174</ele>
        <time>2021-05-22T13:20:49Z</time>
      </trkpt>
      <trkpt lat="47.96858" lon="7.04048">
        <ele>1174.8000488281</ele>
        <time>2021-05-22T13:20:51Z</time>
      </trkpt>
      <trkpt lat="47.96863" lon="7.04055">
        <ele>1175.4000244141</ele>
        <time>2021-05-22T13:20:52Z</time>
      </trkpt>
      <trkpt lat="47.96874" lon="7.04069">
        <ele>1176.1999511719</ele>
        <time>2021-05-22T13:20:54Z</time>
      </trkpt>
      <trkpt lat="47.96884" lon="7.04081">
        <ele>1176.8000488281</ele>
        <time>2021-05-22T13:20:56Z</time>
      </trkpt>
      <trkpt lat="47.96889" lon="7.04087">
        <ele>1176.8000488281</ele>
        <time>2021-05-22T13:20:57Z</time>
      </trkpt>
      <trkpt lat="47.96897" lon="7.04099">
        <ele>1177.4000244141</ele>
        <time>2021-05-22T13:20:59Z</time>
      </trkpt>
      <trkpt lat="47.96904" lon="7.0411">
        <ele>1177.8000488281</ele>
        <time>2021-05-22T13:21:01Z</time>
      </trkpt>
      <trkpt lat="47.96909" lon="7.04119">
        <ele>1179</ele>
        <time>2021-05-22T13:21:03Z</time>
      </trkpt>
      <trkpt lat="47.96915" lon="7.04128">
        <ele>1180.1999511719</ele>
        <time>2021-05-22T13:21:05Z</time>
      </trkpt>
      <trkpt lat="47.96919" lon="7.04132">
        <ele>1180.8000488281</ele>
        <time>2021-05-22T13:21:06Z</time>
      </trkpt>
      <trkpt lat="47.96925" lon="7.0414">
        <ele>1181.4000244141</ele>
        <time>2021-05-22T13:21:08Z</time>
      </trkpt>
      <trkpt lat="47.96936" lon="7.04159">
        <ele>1182.4000244141</ele>
        <time>2021-05-22T13:21:12Z</time>
      </trkpt>
      <trkpt lat="47.96945" lon="7.04174">
        <ele>1183.5999755859</ele>
        <time>2021-05-22T13:21:15Z</time>
      </trkpt>
      <trkpt lat="47.96951" lon="7.04185">
        <ele>1184.4000244141</ele>
        <time>2021-05-22T13:21:17Z</time>
      </trkpt>
      <trkpt lat="47.96953" lon="7.0419">
        <ele>1184.8000488281</ele>
        <time>2021-05-22T13:21:18Z</time>
      </trkpt>
      <trkpt lat="47.96959" lon="7.04211">
        <ele>1185.8000488281</ele>
        <time>2021-05-22T13:21:21Z</time>
      </trkpt>
      <trkpt lat="47.9696" lon="7.04219">
        <ele>1186</ele>
        <time>2021-05-22T13:21:22Z</time>
      </trkpt>
      <trkpt lat="47.96961" lon="7.04226">
        <ele>1186.4000244141</ele>
        <time>2021-05-22T13:21:23Z</time>
      </trkpt>
      <trkpt lat="47.96959" lon="7.04249">
        <ele>1187</ele>
        <time>2021-05-22T13:21:26Z</time>
      </trkpt>
      <trkpt lat="47.96957" lon="7.04256">
        <ele>1187</ele>
        <time>2021-05-22T13:21:27Z</time>
      </trkpt>
      <trkpt lat="47.96954" lon="7.0427">
        <ele>1187.4000244141</ele>
        <time>2021-05-22T13:21:29Z</time>
      </trkpt>
      <trkpt lat="47.9695" lon="7.04289">
        <ele>1187.5999755859</ele>
        <time>2021-05-22T13:21:31Z</time>
      </trkpt>
      <trkpt lat="47.96939" lon="7.04333">
        <ele>1187.1999511719</ele>
        <time>2021-05-22T13:21:35Z</time>
      </trkpt>
      <trkpt lat="47.96937" lon="7.04345">
        <ele>1187.1999511719</ele>
        <time>2021-05-22T13:21:36Z</time>
      </trkpt>
      <trkpt lat="47.96938" lon="7.04373">
        <ele>1185.1999511719</ele>
        <time>2021-05-22T13:21:38Z</time>
      </trkpt>
      <trkpt lat="47.96948" lon="7.044">
        <ele>1184</ele>
        <time>2021-05-22T13:21:40Z</time>
      </trkpt>
      <trkpt lat="47.96964" lon="7.04423">
        <ele>1181.8000488281</ele>
        <time>2021-05-22T13:21:42Z</time>
      </trkpt>
      <trkpt lat="47.96973" lon="7.04434">
        <ele>1181.1999511719</ele>
        <time>2021-05-22T13:21:43Z</time>
      </trkpt>
      <trkpt lat="47.96984" lon="7.04444">
        <ele>1179.8000488281</ele>
        <time>2021-05-22T13:21:44Z</time>
      </trkpt>
      <trkpt lat="47.96995" lon="7.04452">
        <ele>1177.8000488281</ele>
        <time>2021-05-22T13:21:45Z</time>
      </trkpt>
      <trkpt lat="47.97008" lon="7.04459">
        <ele>1176.8000488281</ele>
        <time>2021-05-22T13:21:46Z</time>
      </trkpt>
      <trkpt lat="47.97022" lon="7.04463">
        <ele>1174.4000244141</ele>
        <time>2021-05-22T13:21:47Z</time>
      </trkpt>
      <trkpt lat="47.97036" lon="7.04468">
        <ele>1173.1999511719</ele>
        <time>2021-05-22T13:21:48Z</time>
      </trkpt>
      <trkpt lat="47.9705" lon="7.04473">
        <ele>1171.1999511719</ele>
        <time>2021-05-22T13:21:49Z</time>
      </trkpt>
      <trkpt lat="47.97078" lon="7.04485">
        <ele>1169.1999511719</ele>
        <time>2021-05-22T13:21:51Z</time>
      </trkpt>
      <trkpt lat="47.97092" lon="7.04493">
        <ele>1167.5999755859</ele>
        <time>2021-05-22T13:21:52Z</time>
      </trkpt>
      <trkpt lat="47.97119" lon="7.04509">
        <ele>1164.4000244141</ele>
        <time>2021-05-22T13:21:54Z</time>
      </trkpt>
      <trkpt lat="47.97132" lon="7.04517">
        <ele>1163</ele>
        <time>2021-05-22T13:21:55Z</time>
      </trkpt>
      <trkpt lat="47.97144" lon="7.04526">
        <ele>1161.4000244141</ele>
        <time>2021-05-22T13:21:56Z</time>
      </trkpt>
      <trkpt lat="47.97168" lon="7.04542">
        <ele>1159.5999755859</ele>
        <time>2021-05-22T13:21:58Z</time>
      </trkpt>
      <trkpt lat="47.9719" lon="7.04556">
        <ele>1157.4000244141</ele>
        <time>2021-05-22T13:22:00Z</time>
      </trkpt>
      <trkpt lat="47.97201" lon="7.04563">
        <ele>1155.8000488281</ele>
        <time>2021-05-22T13:22:01Z</time>
      </trkpt>
      <trkpt lat="47.97225" lon="7.04576">
        <ele>1152.8000488281</ele>
        <time>2021-05-22T13:22:03Z</time>
      </trkpt>
      <trkpt lat="47.97249" lon="7.0459">
        <ele>1150.4000244141</ele>
        <time>2021-05-22T13:22:05Z</time>
      </trkpt>
      <trkpt lat="47.9726" lon="7.04597">
        <ele>1149.4000244141</ele>
        <time>2021-05-22T13:22:06Z</time>
      </trkpt>
      <trkpt lat="47.97271" lon="7.04604">
        <ele>1147.8000488281</ele>
        <time>2021-05-22T13:22:07Z</time>
      </trkpt>
      <trkpt lat="47.97284" lon="7.04609">
        <ele>1146.1999511719</ele>
        <time>2021-05-22T13:22:08Z</time>
      </trkpt>
      <trkpt lat="47.97297" lon="7.04615">
        <ele>1145</ele>
        <time>2021-05-22T13:22:09Z</time>
      </trkpt>
      <trkpt lat="47.97308" lon="7.04621">
        <ele>1142.8000488281</ele>
        <time>2021-05-22T13:22:10Z</time>
      </trkpt>
      <trkpt lat="47.9732" lon="7.04625">
        <ele>1142</ele>
        <time>2021-05-22T13:22:11Z</time>
      </trkpt>
      <trkpt lat="47.97333" lon="7.0463">
        <ele>1139.8000488281</ele>
        <time>2021-05-22T13:22:12Z</time>
      </trkpt>
      <trkpt lat="47.97346" lon="7.04635">
        <ele>1138.4000244141</ele>
        <time>2021-05-22T13:22:13Z</time>
      </trkpt>
      <trkpt lat="47.97358" lon="7.0464">
        <ele>1135.5999755859</ele>
        <time>2021-05-22T13:22:14Z</time>
      </trkpt>
      <trkpt lat="47.9737" lon="7.04645">
        <ele>1133.5999755859</ele>
        <time>2021-05-22T13:22:15Z</time>
      </trkpt>
      <trkpt lat="47.97394" lon="7.04655">
        <ele>1131.4000244141</ele>
        <time>2021-05-22T13:22:17Z</time>
      </trkpt>
      <trkpt lat="47.97406" lon="7.04661">
        <ele>1130.4000244141</ele>
        <time>2021-05-22T13:22:18Z</time>
      </trkpt>
      <trkpt lat="47.97418" lon="7.04667">
        <ele>1128.5999755859</ele>
        <time>2021-05-22T13:22:19Z</time>
      </trkpt>
      <trkpt lat="47.97443" lon="7.04682">
        <ele>1125.5999755859</ele>
        <time>2021-05-22T13:22:21Z</time>
      </trkpt>
      <trkpt lat="47.97455" lon="7.0469">
        <ele>1124.1999511719</ele>
        <time>2021-05-22T13:22:22Z</time>
      </trkpt>
      <trkpt lat="47.97467" lon="7.04699">
        <ele>1122.1999511719</ele>
        <time>2021-05-22T13:22:23Z</time>
      </trkpt>
      <trkpt lat="47.97478" lon="7.04708">
        <ele>1120.4000244141</ele>
        <time>2021-05-22T13:22:24Z</time>
      </trkpt>
      <trkpt lat="47.97502" lon="7.04729">
        <ele>1118</ele>
        <time>2021-05-22T13:22:26Z</time>
      </trkpt>
      <trkpt lat="47.97513" lon="7.04739">
        <ele>1117</ele>
        <time>2021-05-22T13:22:27Z</time>
      </trkpt>
      <trkpt lat="47.97524" lon="7.04751">
        <ele>1114.1999511719</ele>
        <time>2021-05-22T13:22:28Z</time>
      </trkpt>
      <trkpt lat="47.97546" lon="7.04778">
        <ele>1110.8000488281</ele>
        <time>2021-05-22T13:22:30Z</time>
      </trkpt>
      <trkpt lat="47.97557" lon="7.04793">
        <ele>1108.4000244141</ele>
        <time>2021-05-22T13:22:31Z</time>
      </trkpt>
      <trkpt lat="47.97577" lon="7.04825">
        <ele>1105.5999755859</ele>
        <time>2021-05-22T13:22:33Z</time>
      </trkpt>
      <trkpt lat="47.97586" lon="7.04841">
        <ele>1104.4000244141</ele>
        <time>2021-05-22T13:22:34Z</time>
      </trkpt>
      <trkpt lat="47.97595" lon="7.04858">
        <ele>1102.4000244141</ele>
        <time>2021-05-22T13:22:35Z</time>
      </trkpt>
      <trkpt lat="47.97602" lon="7.04877">
        <ele>1100.1999511719</ele>
        <time>2021-05-22T13:22:36Z</time>
      </trkpt>
      <trkpt lat="47.97609" lon="7.04894">
        <ele>1098</ele>
        <time>2021-05-22T13:22:37Z</time>
      </trkpt>
      <trkpt lat="47.97622" lon="7.0493">
        <ele>1096.1999511719</ele>
        <time>2021-05-22T13:22:39Z</time>
      </trkpt>
      <trkpt lat="47.97625" lon="7.04951">
        <ele>1094.4000244141</ele>
        <time>2021-05-22T13:22:40Z</time>
      </trkpt>
      <trkpt lat="47.97628" lon="7.04972">
        <ele>1093.1999511719</ele>
        <time>2021-05-22T13:22:41Z</time>
      </trkpt>
      <trkpt lat="47.97631" lon="7.04993">
        <ele>1091.5999755859</ele>
        <time>2021-05-22T13:22:42Z</time>
      </trkpt>
      <trkpt lat="47.97633" lon="7.05014">
        <ele>1090.5999755859</ele>
        <time>2021-05-22T13:22:43Z</time>
      </trkpt>
      <trkpt lat="47.97635" lon="7.05034">
        <ele>1088</ele>
        <time>2021-05-22T13:22:44Z</time>
      </trkpt>
      <trkpt lat="47.97638" lon="7.05053">
        <ele>1086.5999755859</ele>
        <time>2021-05-22T13:22:45Z</time>
      </trkpt>
      <trkpt lat="47.97641" lon="7.05072">
        <ele>1084.1999511719</ele>
        <time>2021-05-22T13:22:46Z</time>
      </trkpt>
      <trkpt lat="47.97644" lon="7.0509">
        <ele>1082.5999755859</ele>
        <time>2021-05-22T13:22:47Z</time>
      </trkpt>
      <trkpt lat="47.97649" lon="7.05108">
        <ele>1082</ele>
        <time>2021-05-22T13:22:48Z</time>
      </trkpt>
      <trkpt lat="47.97654" lon="7.05125">
        <ele>1079.5999755859</ele>
        <time>2021-05-22T13:22:49Z</time>
      </trkpt>
      <trkpt lat="47.97668" lon="7.05161">
        <ele>1076.8000488281</ele>
        <time>2021-05-22T13:22:51Z</time>
      </trkpt>
      <trkpt lat="47.97677" lon="7.05177">
        <ele>1076.1999511719</ele>
        <time>2021-05-22T13:22:52Z</time>
      </trkpt>
      <trkpt lat="47.97686" lon="7.05193">
        <ele>1074.4000244141</ele>
        <time>2021-05-22T13:22:53Z</time>
      </trkpt>
      <trkpt lat="47.97695" lon="7.05207">
        <ele>1072.4000244141</ele>
        <time>2021-05-22T13:22:54Z</time>
      </trkpt>
      <trkpt lat="47.97715" lon="7.05236">
        <ele>1070</ele>
        <time>2021-05-22T13:22:56Z</time>
      </trkpt>
      <trkpt lat="47.97726" lon="7.0525">
        <ele>1069.1999511719</ele>
        <time>2021-05-22T13:22:57Z</time>
      </trkpt>
      <trkpt lat="47.97737" lon="7.05264">
        <ele>1067.1999511719</ele>
        <time>2021-05-22T13:22:58Z</time>
      </trkpt>
      <trkpt lat="47.97761" lon="7.05293">
        <ele>1064.4000244141</ele>
        <time>2021-05-22T13:23:00Z</time>
      </trkpt>
      <trkpt lat="47.97784" lon="7.05316">
        <ele>1062</ele>
        <time>2021-05-22T13:23:02Z</time>
      </trkpt>
      <trkpt lat="47.97795" lon="7.05325">
        <ele>1060.5999755859</ele>
        <time>2021-05-22T13:23:03Z</time>
      </trkpt>
      <trkpt lat="47.97807" lon="7.05331">
        <ele>1059.4000244141</ele>
        <time>2021-05-22T13:23:04Z</time>
      </trkpt>
      <trkpt lat="47.97819" lon="7.05334">
        <ele>1056</ele>
        <time>2021-05-22T13:23:05Z</time>
      </trkpt>
      <trkpt lat="47.9783" lon="7.05334">
        <ele>1055</ele>
        <time>2021-05-22T13:23:06Z</time>
      </trkpt>
      <trkpt lat="47.97841" lon="7.05333">
        <ele>1053.1999511719</ele>
        <time>2021-05-22T13:23:07Z</time>
      </trkpt>
      <trkpt lat="47.97852" lon="7.05329">
        <ele>1052.5999755859</ele>
        <time>2021-05-22T13:23:08Z</time>
      </trkpt>
      <trkpt lat="47.97862" lon="7.05323">
        <ele>1050.5999755859</ele>
        <time>2021-05-22T13:23:09Z</time>
      </trkpt>
      <trkpt lat="47.97872" lon="7.05315">
        <ele>1049.4000244141</ele>
        <time>2021-05-22T13:23:10Z</time>
      </trkpt>
      <trkpt lat="47.97881" lon="7.05304">
        <ele>1048.4000244141</ele>
        <time>2021-05-22T13:23:11Z</time>
      </trkpt>
      <trkpt lat="47.9789" lon="7.05291">
        <ele>1046.1999511719</ele>
        <time>2021-05-22T13:23:12Z</time>
      </trkpt>
      <trkpt lat="47.97899" lon="7.05278">
        <ele>1045</ele>
        <time>2021-05-22T13:23:13Z</time>
      </trkpt>
      <trkpt lat="47.97908" lon="7.05263">
        <ele>1043.5999755859</ele>
        <time>2021-05-22T13:23:14Z</time>
      </trkpt>
      <trkpt lat="47.97917" lon="7.05247">
        <ele>1042.1999511719</ele>
        <time>2021-05-22T13:23:15Z</time>
      </trkpt>
      <trkpt lat="47.97925" lon="7.0523">
        <ele>1040.8000488281</ele>
        <time>2021-05-22T13:23:16Z</time>
      </trkpt>
      <trkpt lat="47.97934" lon="7.05213">
        <ele>1039.5999755859</ele>
        <time>2021-05-22T13:23:17Z</time>
      </trkpt>
      <trkpt lat="47.97949" lon="7.05178">
        <ele>1037.1999511719</ele>
        <time>2021-05-22T13:23:19Z</time>
      </trkpt>
      <trkpt lat="47.97956" lon="7.05161">
        <ele>1036.5999755859</ele>
        <time>2021-05-22T13:23:20Z</time>
      </trkpt>
      <trkpt lat="47.97963" lon="7.05145">
        <ele>1035.4000244141</ele>
        <time>2021-05-22T13:23:21Z</time>
      </trkpt>
      <trkpt lat="47.97983" lon="7.05117">
        <ele>1033</ele>
        <time>2021-05-22T13:23:23Z</time>
      </trkpt>
      <trkpt lat="47.98006" lon="7.05097">
        <ele>1031.1999511719</ele>
        <time>2021-05-22T13:23:25Z</time>
      </trkpt>
      <trkpt lat="47.98017" lon="7.05091">
        <ele>1030.4000244141</ele>
        <time>2021-05-22T13:23:26Z</time>
      </trkpt>
      <trkpt lat="47.98028" lon="7.05085">
        <ele>1030</ele>
        <time>2021-05-22T13:23:27Z</time>
      </trkpt>
      <trkpt lat="47.98072" lon="7.05068">
        <ele>1029.1999511719</ele>
        <time>2021-05-22T13:23:31Z</time>
      </trkpt>
      <trkpt lat="47.98092" lon="7.05065">
        <ele>1029</ele>
        <time>2021-05-22T13:23:33Z</time>
      </trkpt>
      <trkpt lat="47.98112" lon="7.05062">
        <ele>1028.4000244141</ele>
        <time>2021-05-22T13:23:35Z</time>
      </trkpt>
      <trkpt lat="47.9813" lon="7.05058">
        <ele>1028</ele>
        <time>2021-05-22T13:23:37Z</time>
      </trkpt>
      <trkpt lat="47.98144" lon="7.05054">
        <ele>1027.8000488281</ele>
        <time>2021-05-22T13:23:39Z</time>
      </trkpt>
      <trkpt lat="47.98155" lon="7.05059">
        <ele>1027.8000488281</ele>
        <time>2021-05-22T13:23:41Z</time>
      </trkpt>
      <trkpt lat="47.98157" lon="7.05068">
        <ele>1027.5999755859</ele>
        <time>2021-05-22T13:23:43Z</time>
      </trkpt>
      <trkpt lat="47.98155" lon="7.05078">
        <ele>1027.4000244141</ele>
        <time>2021-05-22T13:23:47Z</time>
      </trkpt>
      <trkpt lat="47.98154" lon="7.05079">
        <ele>1026.8000488281</ele>
        <time>2021-05-22T13:23:50Z</time>
      </trkpt>
      <trkpt lat="47.98148" lon="7.05088">
        <ele>1025.8000488281</ele>
        <time>2021-05-22T13:24:00Z</time>
      </trkpt>
      <trkpt lat="47.98144" lon="7.05094">
        <ele>1025.4000244141</ele>
        <time>2021-05-22T13:24:04Z</time>
      </trkpt>
      <trkpt lat="47.98143" lon="7.05095">
        <ele>1025.1999511719</ele>
        <time>2021-05-22T13:24:05Z</time>
      </trkpt>
      <trkpt lat="47.98143" lon="7.05095">
        <ele>1025</ele>
        <time>2021-05-22T13:24:07Z</time>
      </trkpt>
      <trkpt lat="47.9814" lon="7.05095">
        <ele>1025</ele>
        <time>2021-05-22T13:25:47Z</time>
      </trkpt>
      <trkpt lat="47.98137" lon="7.05094">
        <ele>1024.8000488281</ele>
        <time>2021-05-22T13:25:48Z</time>
      </trkpt>
      <trkpt lat="47.98121" lon="7.05091">
        <ele>1024.8000488281</ele>
        <time>2021-05-22T13:25:51Z</time>
      </trkpt>
      <trkpt lat="47.98108" lon="7.05092">
        <ele>1024.5999755859</ele>
        <time>2021-05-22T13:25:53Z</time>
      </trkpt>
      <trkpt lat="47.98101" lon="7.05094">
        <ele>1024.1999511719</ele>
        <time>2021-05-22T13:25:54Z</time>
      </trkpt>
      <trkpt lat="47.98092" lon="7.05095">
        <ele>1023.799987793</ele>
        <time>2021-05-22T13:25:55Z</time>
      </trkpt>
      <trkpt lat="47.98077" lon="7.05098">
        <ele>1022.5999755859</ele>
        <time>2021-05-22T13:25:57Z</time>
      </trkpt>
      <trkpt lat="47.98062" lon="7.05103">
        <ele>1021.799987793</ele>
        <time>2021-05-22T13:25:59Z</time>
      </trkpt>
      <trkpt lat="47.98054" lon="7.05107">
        <ele>1021.5999755859</ele>
        <time>2021-05-22T13:26:00Z</time>
      </trkpt>
      <trkpt lat="47.98038" lon="7.05121">
        <ele>1019.799987793</ele>
        <time>2021-05-22T13:26:02Z</time>
      </trkpt>
      <trkpt lat="47.9803" lon="7.05129">
        <ele>1019.5999755859</ele>
        <time>2021-05-22T13:26:03Z</time>
      </trkpt>
      <trkpt lat="47.98022" lon="7.05137">
        <ele>1019.4000244141</ele>
        <time>2021-05-22T13:26:04Z</time>
      </trkpt>
      <trkpt lat="47.98006" lon="7.05161">
        <ele>1018.799987793</ele>
        <time>2021-05-22T13:26:06Z</time>
      </trkpt>
      <trkpt lat="47.97991" lon="7.05188">
        <ele>1017.799987793</ele>
        <time>2021-05-22T13:26:08Z</time>
      </trkpt>
      <trkpt lat="47.97979" lon="7.05216">
        <ele>1016.5999755859</ele>
        <time>2021-05-22T13:26:10Z</time>
      </trkpt>
      <trkpt lat="47.97965" lon="7.05245">
        <ele>1015.200012207</ele>
        <time>2021-05-22T13:26:12Z</time>
      </trkpt>
      <trkpt lat="47.97958" lon="7.0526">
        <ele>1013.799987793</ele>
        <time>2021-05-22T13:26:13Z</time>
      </trkpt>
      <trkpt lat="47.97947" lon="7.05292">
        <ele>1011.5999755859</ele>
        <time>2021-05-22T13:26:15Z</time>
      </trkpt>
      <trkpt lat="47.97941" lon="7.05309">
        <ele>1010.799987793</ele>
        <time>2021-05-22T13:26:16Z</time>
      </trkpt>
      <trkpt lat="47.9793" lon="7.05345">
        <ele>1010</ele>
        <time>2021-05-22T13:26:18Z</time>
      </trkpt>
      <trkpt lat="47.9792" lon="7.05384">
        <ele>1008.799987793</ele>
        <time>2021-05-22T13:26:20Z</time>
      </trkpt>
      <trkpt lat="47.97916" lon="7.05402">
        <ele>1008.4000244141</ele>
        <time>2021-05-22T13:26:21Z</time>
      </trkpt>
      <trkpt lat="47.97911" lon="7.05421">
        <ele>1007.200012207</ele>
        <time>2021-05-22T13:26:22Z</time>
      </trkpt>
      <trkpt lat="47.97907" lon="7.05437">
        <ele>1006.200012207</ele>
        <time>2021-05-22T13:26:23Z</time>
      </trkpt>
      <trkpt lat="47.97902" lon="7.05453">
        <ele>1005</ele>
        <time>2021-05-22T13:26:24Z</time>
      </trkpt>
      <trkpt lat="47.97897" lon="7.05469">
        <ele>1003.5999755859</ele>
        <time>2021-05-22T13:26:25Z</time>
      </trkpt>
      <trkpt lat="47.9789" lon="7.05482">
        <ele>1003.200012207</ele>
        <time>2021-05-22T13:26:26Z</time>
      </trkpt>
      <trkpt lat="47.97884" lon="7.05496">
        <ele>1001</ele>
        <time>2021-05-22T13:26:27Z</time>
      </trkpt>
      <trkpt lat="47.97871" lon="7.05517">
        <ele>999.20001220703</ele>
        <time>2021-05-22T13:26:29Z</time>
      </trkpt>
      <trkpt lat="47.97865" lon="7.05523">
        <ele>998.79998779297</ele>
        <time>2021-05-22T13:26:30Z</time>
      </trkpt>
      <trkpt lat="47.97859" lon="7.05529">
        <ele>998</ele>
        <time>2021-05-22T13:26:31Z</time>
      </trkpt>
      <trkpt lat="47.97854" lon="7.05534">
        <ele>997.59997558594</ele>
        <time>2021-05-22T13:26:32Z</time>
      </trkpt>
      <trkpt lat="47.97849" lon="7.05549">
        <ele>997.20001220703</ele>
        <time>2021-05-22T13:26:34Z</time>
      </trkpt>
      <trkpt lat="47.97855" lon="7.05563">
        <ele>996.79998779297</ele>
        <time>2021-05-22T13:26:36Z</time>
      </trkpt>
      <trkpt lat="47.97861" lon="7.05564">
        <ele>996.79998779297</ele>
        <time>2021-05-22T13:26:37Z</time>
      </trkpt>
      <trkpt lat="47.97869" lon="7.05562">
        <ele>996.20001220703</ele>
        <time>2021-05-22T13:26:38Z</time>
      </trkpt>
      <trkpt lat="47.97876" lon="7.05555">
        <ele>995.79998779297</ele>
        <time>2021-05-22T13:26:39Z</time>
      </trkpt>
      <trkpt lat="47.97894" lon="7.05533">
        <ele>994.20001220703</ele>
        <time>2021-05-22T13:26:41Z</time>
      </trkpt>
      <trkpt lat="47.97909" lon="7.05512">
        <ele>992.20001220703</ele>
        <time>2021-05-22T13:26:43Z</time>
      </trkpt>
      <trkpt lat="47.97927" lon="7.05482">
        <ele>990</ele>
        <time>2021-05-22T13:26:45Z</time>
      </trkpt>
      <trkpt lat="47.97935" lon="7.05466">
        <ele>989.20001220703</ele>
        <time>2021-05-22T13:26:46Z</time>
      </trkpt>
      <trkpt lat="47.97944" lon="7.0545">
        <ele>988.20001220703</ele>
        <time>2021-05-22T13:26:47Z</time>
      </trkpt>
      <trkpt lat="47.97952" lon="7.05434">
        <ele>987.20001220703</ele>
        <time>2021-05-22T13:26:48Z</time>
      </trkpt>
      <trkpt lat="47.97968" lon="7.05403">
        <ele>984.79998779297</ele>
        <time>2021-05-22T13:26:50Z</time>
      </trkpt>
      <trkpt lat="47.97977" lon="7.05388">
        <ele>983.79998779297</ele>
        <time>2021-05-22T13:26:51Z</time>
      </trkpt>
      <trkpt lat="47.97987" lon="7.05375">
        <ele>981.59997558594</ele>
        <time>2021-05-22T13:26:52Z</time>
      </trkpt>
      <trkpt lat="47.97999" lon="7.05363">
        <ele>980.20001220703</ele>
        <time>2021-05-22T13:26:53Z</time>
      </trkpt>
      <trkpt lat="47.98013" lon="7.05355">
        <ele>978.20001220703</ele>
        <time>2021-05-22T13:26:54Z</time>
      </trkpt>
      <trkpt lat="47.98027" lon="7.05348">
        <ele>976.20001220703</ele>
        <time>2021-05-22T13:26:55Z</time>
      </trkpt>
      <trkpt lat="47.98041" lon="7.05343">
        <ele>975</ele>
        <time>2021-05-22T13:26:56Z</time>
      </trkpt>
      <trkpt lat="47.98055" lon="7.05339">
        <ele>973</ele>
        <time>2021-05-22T13:26:57Z</time>
      </trkpt>
      <trkpt lat="47.98069" lon="7.05335">
        <ele>972.40002441406</ele>
        <time>2021-05-22T13:26:58Z</time>
      </trkpt>
      <trkpt lat="47.98082" lon="7.05331">
        <ele>970.40002441406</ele>
        <time>2021-05-22T13:26:59Z</time>
      </trkpt>
      <trkpt lat="47.98106" lon="7.05326">
        <ele>967.59997558594</ele>
        <time>2021-05-22T13:27:01Z</time>
      </trkpt>
      <trkpt lat="47.98118" lon="7.05327">
        <ele>966.20001220703</ele>
        <time>2021-05-22T13:27:02Z</time>
      </trkpt>
      <trkpt lat="47.98129" lon="7.05332">
        <ele>963.40002441406</ele>
        <time>2021-05-22T13:27:03Z</time>
      </trkpt>
      <trkpt lat="47.98141" lon="7.0534">
        <ele>961.20001220703</ele>
        <time>2021-05-22T13:27:04Z</time>
      </trkpt>
      <trkpt lat="47.98152" lon="7.0535">
        <ele>960.59997558594</ele>
        <time>2021-05-22T13:27:05Z</time>
      </trkpt>
      <trkpt lat="47.98159" lon="7.05358">
        <ele>959.40002441406</ele>
        <time>2021-05-22T13:27:06Z</time>
      </trkpt>
      <trkpt lat="47.98179" lon="7.05379">
        <ele>957.40002441406</ele>
        <time>2021-05-22T13:27:08Z</time>
      </trkpt>
      <trkpt lat="47.9819" lon="7.0539">
        <ele>956.20001220703</ele>
        <time>2021-05-22T13:27:09Z</time>
      </trkpt>
      <trkpt lat="47.98199" lon="7.05397">
        <ele>954.40002441406</ele>
        <time>2021-05-22T13:27:10Z</time>
      </trkpt>
      <trkpt lat="47.98213" lon="7.05407">
        <ele>951.79998779297</ele>
        <time>2021-05-22T13:27:11Z</time>
      </trkpt>
      <trkpt lat="47.98226" lon="7.05414">
        <ele>950.59997558594</ele>
        <time>2021-05-22T13:27:12Z</time>
      </trkpt>
      <trkpt lat="47.9824" lon="7.05421">
        <ele>948.59997558594</ele>
        <time>2021-05-22T13:27:13Z</time>
      </trkpt>
      <trkpt lat="47.98251" lon="7.05427">
        <ele>947.20001220703</ele>
        <time>2021-05-22T13:27:14Z</time>
      </trkpt>
      <trkpt lat="47.98268" lon="7.05437">
        <ele>945.40002441406</ele>
        <time>2021-05-22T13:27:15Z</time>
      </trkpt>
      <trkpt lat="47.98281" lon="7.05446">
        <ele>944.59997558594</ele>
        <time>2021-05-22T13:27:16Z</time>
      </trkpt>
      <trkpt lat="47.98293" lon="7.05455">
        <ele>942.79998779297</ele>
        <time>2021-05-22T13:27:17Z</time>
      </trkpt>
      <trkpt lat="47.98305" lon="7.05462">
        <ele>941</ele>
        <time>2021-05-22T13:27:18Z</time>
      </trkpt>
      <trkpt lat="47.98319" lon="7.05467">
        <ele>940.20001220703</ele>
        <time>2021-05-22T13:27:19Z</time>
      </trkpt>
      <trkpt lat="47.98332" lon="7.0547">
        <ele>937.59997558594</ele>
        <time>2021-05-22T13:27:20Z</time>
      </trkpt>
      <trkpt lat="47.98347" lon="7.05471">
        <ele>936.40002441406</ele>
        <time>2021-05-22T13:27:21Z</time>
      </trkpt>
      <trkpt lat="47.98362" lon="7.05472">
        <ele>934.59997558594</ele>
        <time>2021-05-22T13:27:22Z</time>
      </trkpt>
      <trkpt lat="47.98392" lon="7.05475">
        <ele>931.40002441406</ele>
        <time>2021-05-22T13:27:24Z</time>
      </trkpt>
      <trkpt lat="47.98408" lon="7.05477">
        <ele>930.59997558594</ele>
        <time>2021-05-22T13:27:25Z</time>
      </trkpt>
      <trkpt lat="47.98426" lon="7.0548">
        <ele>927.79998779297</ele>
        <time>2021-05-22T13:27:26Z</time>
      </trkpt>
      <trkpt lat="47.98443" lon="7.05484">
        <ele>926</ele>
        <time>2021-05-22T13:27:27Z</time>
      </trkpt>
      <trkpt lat="47.9846" lon="7.05492">
        <ele>925</ele>
        <time>2021-05-22T13:27:28Z</time>
      </trkpt>
      <trkpt lat="47.98477" lon="7.05505">
        <ele>923.20001220703</ele>
        <time>2021-05-22T13:27:29Z</time>
      </trkpt>
      <trkpt lat="47.98505" lon="7.05537">
        <ele>919.40002441406</ele>
        <time>2021-05-22T13:27:31Z</time>
      </trkpt>
      <trkpt lat="47.98517" lon="7.05553">
        <ele>918.40002441406</ele>
        <time>2021-05-22T13:27:32Z</time>
      </trkpt>
      <trkpt lat="47.9853" lon="7.05568">
        <ele>916.40002441406</ele>
        <time>2021-05-22T13:27:33Z</time>
      </trkpt>
      <trkpt lat="47.98544" lon="7.05582">
        <ele>914.40002441406</ele>
        <time>2021-05-22T13:27:34Z</time>
      </trkpt>
      <trkpt lat="47.98572" lon="7.0561">
        <ele>911</ele>
        <time>2021-05-22T13:27:36Z</time>
      </trkpt>
      <trkpt lat="47.98585" lon="7.05622">
        <ele>909.59997558594</ele>
        <time>2021-05-22T13:27:37Z</time>
      </trkpt>
      <trkpt lat="47.98599" lon="7.05633">
        <ele>907.20001220703</ele>
        <time>2021-05-22T13:27:38Z</time>
      </trkpt>
      <trkpt lat="47.98627" lon="7.05649">
        <ele>904.79998779297</ele>
        <time>2021-05-22T13:27:40Z</time>
      </trkpt>
      <trkpt lat="47.98642" lon="7.05655">
        <ele>903.20001220703</ele>
        <time>2021-05-22T13:27:41Z</time>
      </trkpt>
      <trkpt lat="47.98655" lon="7.05658">
        <ele>902</ele>
        <time>2021-05-22T13:27:42Z</time>
      </trkpt>
      <trkpt lat="47.98669" lon="7.05658">
        <ele>898.79998779297</ele>
        <time>2021-05-22T13:27:43Z</time>
      </trkpt>
      <trkpt lat="47.98684" lon="7.05653">
        <ele>897.20001220703</ele>
        <time>2021-05-22T13:27:44Z</time>
      </trkpt>
      <trkpt lat="47.98698" lon="7.05645">
        <ele>894.20001220703</ele>
        <time>2021-05-22T13:27:45Z</time>
      </trkpt>
      <trkpt lat="47.98711" lon="7.05635">
        <ele>892.79998779297</ele>
        <time>2021-05-22T13:27:46Z</time>
      </trkpt>
      <trkpt lat="47.98724" lon="7.05624">
        <ele>891.20001220703</ele>
        <time>2021-05-22T13:27:47Z</time>
      </trkpt>
      <trkpt lat="47.98737" lon="7.05612">
        <ele>889.20001220703</ele>
        <time>2021-05-22T13:27:48Z</time>
      </trkpt>
      <trkpt lat="47.98751" lon="7.056">
        <ele>887.20001220703</ele>
        <time>2021-05-22T13:27:49Z</time>
      </trkpt>
      <trkpt lat="47.98762" lon="7.05588">
        <ele>885.20001220703</ele>
        <time>2021-05-22T13:27:50Z</time>
      </trkpt>
      <trkpt lat="47.98772" lon="7.05576">
        <ele>884</ele>
        <time>2021-05-22T13:27:51Z</time>
      </trkpt>
      <trkpt lat="47.9878" lon="7.05564">
        <ele>882</ele>
        <time>2021-05-22T13:27:52Z</time>
      </trkpt>
      <trkpt lat="47.98787" lon="7.05554">
        <ele>881.40002441406</ele>
        <time>2021-05-22T13:27:53Z</time>
      </trkpt>
      <trkpt lat="47.98792" lon="7.05546">
        <ele>880.40002441406</ele>
        <time>2021-05-22T13:27:54Z</time>
      </trkpt>
      <trkpt lat="47.98798" lon="7.05541">
        <ele>879.79998779297</ele>
        <time>2021-05-22T13:27:55Z</time>
      </trkpt>
      <trkpt lat="47.98804" lon="7.0554">
        <ele>879</ele>
        <time>2021-05-22T13:27:56Z</time>
      </trkpt>
      <trkpt lat="47.98805" lon="7.05549">
        <ele>878</ele>
        <time>2021-05-22T13:27:57Z</time>
      </trkpt>
      <trkpt lat="47.98807" lon="7.05554">
        <ele>877.20001220703</ele>
        <time>2021-05-22T13:27:58Z</time>
      </trkpt>
      <trkpt lat="47.98807" lon="7.0557">
        <ele>876</ele>
        <time>2021-05-22T13:28:00Z</time>
      </trkpt>
      <trkpt lat="47.98803" lon="7.05578">
        <ele>875</ele>
        <time>2021-05-22T13:28:01Z</time>
      </trkpt>
      <trkpt lat="47.98796" lon="7.05586">
        <ele>874.59997558594</ele>
        <time>2021-05-22T13:28:02Z</time>
      </trkpt>
      <trkpt lat="47.98782" lon="7.05608">
        <ele>873.20001220703</ele>
        <time>2021-05-22T13:28:04Z</time>
      </trkpt>
      <trkpt lat="47.98774" lon="7.05621">
        <ele>872.20001220703</ele>
        <time>2021-05-22T13:28:05Z</time>
      </trkpt>
      <trkpt lat="47.98759" lon="7.0565">
        <ele>870.59997558594</ele>
        <time>2021-05-22T13:28:07Z</time>
      </trkpt>
      <trkpt lat="47.98752" lon="7.05666">
        <ele>868.20001220703</ele>
        <time>2021-05-22T13:28:08Z</time>
      </trkpt>
      <trkpt lat="47.98733" lon="7.05708">
        <ele>865.20001220703</ele>
        <time>2021-05-22T13:28:10Z</time>
      </trkpt>
      <trkpt lat="47.98724" lon="7.05727">
        <ele>864.40002441406</ele>
        <time>2021-05-22T13:28:11Z</time>
      </trkpt>
      <trkpt lat="47.98716" lon="7.05746">
        <ele>863.40002441406</ele>
        <time>2021-05-22T13:28:12Z</time>
      </trkpt>
      <trkpt lat="47.98708" lon="7.05765">
        <ele>862</ele>
        <time>2021-05-22T13:28:13Z</time>
      </trkpt>
      <trkpt lat="47.98692" lon="7.05796">
        <ele>860.40002441406</ele>
        <time>2021-05-22T13:28:15Z</time>
      </trkpt>
      <trkpt lat="47.98684" lon="7.05805">
        <ele>860</ele>
        <time>2021-05-22T13:28:16Z</time>
      </trkpt>
      <trkpt lat="47.98673" lon="7.05812">
        <ele>858.79998779297</ele>
        <time>2021-05-22T13:28:17Z</time>
      </trkpt>
      <trkpt lat="47.98665" lon="7.05813">
        <ele>858.20001220703</ele>
        <time>2021-05-22T13:28:18Z</time>
      </trkpt>
      <trkpt lat="47.98655" lon="7.05813">
        <ele>857.40002441406</ele>
        <time>2021-05-22T13:28:19Z</time>
      </trkpt>
      <trkpt lat="47.98633" lon="7.0581">
        <ele>857</ele>
        <time>2021-05-22T13:28:21Z</time>
      </trkpt>
      <trkpt lat="47.98603" lon="7.05803">
        <ele>856</ele>
        <time>2021-05-22T13:28:24Z</time>
      </trkpt>
      <trkpt lat="47.9859" lon="7.05798">
        <ele>855.59997558594</ele>
        <time>2021-05-22T13:28:25Z</time>
      </trkpt>
      <trkpt lat="47.9858" lon="7.05794">
        <ele>855.20001220703</ele>
        <time>2021-05-22T13:28:26Z</time>
      </trkpt>
      <trkpt lat="47.9856" lon="7.05784">
        <ele>854.59997558594</ele>
        <time>2021-05-22T13:28:28Z</time>
      </trkpt>
      <trkpt lat="47.98541" lon="7.05776">
        <ele>854</ele>
        <time>2021-05-22T13:28:30Z</time>
      </trkpt>
      <trkpt lat="47.98514" lon="7.05761">
        <ele>853.59997558594</ele>
        <time>2021-05-22T13:28:33Z</time>
      </trkpt>
      <trkpt lat="47.98504" lon="7.05756">
        <ele>853.59997558594</ele>
        <time>2021-05-22T13:28:34Z</time>
      </trkpt>
      <trkpt lat="47.98495" lon="7.05751">
        <ele>853.59997558594</ele>
        <time>2021-05-22T13:28:35Z</time>
      </trkpt>
      <trkpt lat="47.98478" lon="7.05742">
        <ele>853.40002441406</ele>
        <time>2021-05-22T13:28:37Z</time>
      </trkpt>
      <trkpt lat="47.98463" lon="7.05731">
        <ele>853.40002441406</ele>
        <time>2021-05-22T13:28:39Z</time>
      </trkpt>
      <trkpt lat="47.98448" lon="7.05724">
        <ele>853.20001220703</ele>
        <time>2021-05-22T13:28:41Z</time>
      </trkpt>
      <trkpt lat="47.98442" lon="7.05729">
        <ele>853</ele>
        <time>2021-05-22T13:28:42Z</time>
      </trkpt>
      <trkpt lat="47.98435" lon="7.05747">
        <ele>852.79998779297</ele>
        <time>2021-05-22T13:28:44Z</time>
      </trkpt>
      <trkpt lat="47.98436" lon="7.05756">
        <ele>852.59997558594</ele>
        <time>2021-05-22T13:28:45Z</time>
      </trkpt>
      <trkpt lat="47.98442" lon="7.05764">
        <ele>852.40002441406</ele>
        <time>2021-05-22T13:28:46Z</time>
      </trkpt>
      <trkpt lat="47.98448" lon="7.05771">
        <ele>851.59997558594</ele>
        <time>2021-05-22T13:28:47Z</time>
      </trkpt>
      <trkpt lat="47.98454" lon="7.05776">
        <ele>851.40002441406</ele>
        <time>2021-05-22T13:28:48Z</time>
      </trkpt>
      <trkpt lat="47.98462" lon="7.05782">
        <ele>850.40002441406</ele>
        <time>2021-05-22T13:28:49Z</time>
      </trkpt>
      <trkpt lat="47.98471" lon="7.05789">
        <ele>850</ele>
        <time>2021-05-22T13:28:50Z</time>
      </trkpt>
      <trkpt lat="47.98489" lon="7.05807">
        <ele>848.40002441406</ele>
        <time>2021-05-22T13:28:52Z</time>
      </trkpt>
      <trkpt lat="47.98508" lon="7.05827">
        <ele>846.40002441406</ele>
        <time>2021-05-22T13:28:54Z</time>
      </trkpt>
      <trkpt lat="47.98518" lon="7.05836">
        <ele>845.59997558594</ele>
        <time>2021-05-22T13:28:55Z</time>
      </trkpt>
      <trkpt lat="47.98528" lon="7.05847">
        <ele>844.40002441406</ele>
        <time>2021-05-22T13:28:56Z</time>
      </trkpt>
      <trkpt lat="47.98538" lon="7.05858">
        <ele>843.20001220703</ele>
        <time>2021-05-22T13:28:57Z</time>
      </trkpt>
      <trkpt lat="47.98548" lon="7.05869">
        <ele>841.40002441406</ele>
        <time>2021-05-22T13:28:58Z</time>
      </trkpt>
      <trkpt lat="47.98558" lon="7.0588">
        <ele>840.40002441406</ele>
        <time>2021-05-22T13:28:59Z</time>
      </trkpt>
      <trkpt lat="47.98567" lon="7.05889">
        <ele>839.59997558594</ele>
        <time>2021-05-22T13:29:00Z</time>
      </trkpt>
      <trkpt lat="47.98579" lon="7.05904">
        <ele>837.20001220703</ele>
        <time>2021-05-22T13:29:01Z</time>
      </trkpt>
      <trkpt lat="47.98589" lon="7.05917">
        <ele>836.20001220703</ele>
        <time>2021-05-22T13:29:02Z</time>
      </trkpt>
      <trkpt lat="47.98598" lon="7.05931">
        <ele>834.59997558594</ele>
        <time>2021-05-22T13:29:03Z</time>
      </trkpt>
      <trkpt lat="47.98607" lon="7.05944">
        <ele>833.40002441406</ele>
        <time>2021-05-22T13:29:04Z</time>
      </trkpt>
      <trkpt lat="47.98615" lon="7.05954">
        <ele>831.59997558594</ele>
        <time>2021-05-22T13:29:05Z</time>
      </trkpt>
      <trkpt lat="47.98628" lon="7.05969">
        <ele>830.40002441406</ele>
        <time>2021-05-22T13:29:06Z</time>
      </trkpt>
      <trkpt lat="47.98638" lon="7.05982">
        <ele>829.20001220703</ele>
        <time>2021-05-22T13:29:07Z</time>
      </trkpt>
      <trkpt lat="47.9865" lon="7.05994">
        <ele>827.20001220703</ele>
        <time>2021-05-22T13:29:08Z</time>
      </trkpt>
      <trkpt lat="47.98675" lon="7.06014">
        <ele>824.59997558594</ele>
        <time>2021-05-22T13:29:10Z</time>
      </trkpt>
      <trkpt lat="47.98687" lon="7.06021">
        <ele>823.59997558594</ele>
        <time>2021-05-22T13:29:11Z</time>
      </trkpt>
      <trkpt lat="47.98698" lon="7.06026">
        <ele>821.40002441406</ele>
        <time>2021-05-22T13:29:12Z</time>
      </trkpt>
      <trkpt lat="47.98709" lon="7.06027">
        <ele>820.20001220703</ele>
        <time>2021-05-22T13:29:13Z</time>
      </trkpt>
      <trkpt lat="47.98719" lon="7.06024">
        <ele>819</ele>
        <time>2021-05-22T13:29:14Z</time>
      </trkpt>
      <trkpt lat="47.9873" lon="7.06017">
        <ele>817.59997558594</ele>
        <time>2021-05-22T13:29:15Z</time>
      </trkpt>
      <trkpt lat="47.98741" lon="7.06005">
        <ele>816.59997558594</ele>
        <time>2021-05-22T13:29:16Z</time>
      </trkpt>
      <trkpt lat="47.98752" lon="7.0599">
        <ele>814.79998779297</ele>
        <time>2021-05-22T13:29:17Z</time>
      </trkpt>
      <trkpt lat="47.98775" lon="7.05963">
        <ele>812.79998779297</ele>
        <time>2021-05-22T13:29:19Z</time>
      </trkpt>
      <trkpt lat="47.98798" lon="7.05939">
        <ele>810.20001220703</ele>
        <time>2021-05-22T13:29:21Z</time>
      </trkpt>
      <trkpt lat="47.98811" lon="7.05928">
        <ele>808.40002441406</ele>
        <time>2021-05-22T13:29:22Z</time>
      </trkpt>
      <trkpt lat="47.98834" lon="7.05907">
        <ele>805.20001220703</ele>
        <time>2021-05-22T13:29:24Z</time>
      </trkpt>
      <trkpt lat="47.98861" lon="7.05886">
        <ele>802.40002441406</ele>
        <time>2021-05-22T13:29:26Z</time>
      </trkpt>
      <trkpt lat="47.98873" lon="7.05877">
        <ele>801.20001220703</ele>
        <time>2021-05-22T13:29:27Z</time>
      </trkpt>
      <trkpt lat="47.98886" lon="7.05869">
        <ele>799.79998779297</ele>
        <time>2021-05-22T13:29:28Z</time>
      </trkpt>
      <trkpt lat="47.98911" lon="7.05856">
        <ele>798.20001220703</ele>
        <time>2021-05-22T13:29:30Z</time>
      </trkpt>
      <trkpt lat="47.98937" lon="7.05839">
        <ele>795.59997558594</ele>
        <time>2021-05-22T13:29:32Z</time>
      </trkpt>
      <trkpt lat="47.98947" lon="7.05829">
        <ele>792.59997558594</ele>
        <time>2021-05-22T13:29:33Z</time>
      </trkpt>
      <trkpt lat="47.98957" lon="7.05818">
        <ele>791.20001220703</ele>
        <time>2021-05-22T13:29:34Z</time>
      </trkpt>
      <trkpt lat="47.98967" lon="7.05807">
        <ele>789.59997558594</ele>
        <time>2021-05-22T13:29:35Z</time>
      </trkpt>
      <trkpt lat="47.98977" lon="7.05799">
        <ele>789.20001220703</ele>
        <time>2021-05-22T13:29:36Z</time>
      </trkpt>
      <trkpt lat="47.98986" lon="7.05793">
        <ele>787.40002441406</ele>
        <time>2021-05-22T13:29:37Z</time>
      </trkpt>
      <trkpt lat="47.98995" lon="7.05789">
        <ele>786</ele>
        <time>2021-05-22T13:29:38Z</time>
      </trkpt>
      <trkpt lat="47.99006" lon="7.05787">
        <ele>785.40002441406</ele>
        <time>2021-05-22T13:29:39Z</time>
      </trkpt>
      <trkpt lat="47.99017" lon="7.05789">
        <ele>783.59997558594</ele>
        <time>2021-05-22T13:29:40Z</time>
      </trkpt>
      <trkpt lat="47.9904" lon="7.05797">
        <ele>782</ele>
        <time>2021-05-22T13:29:42Z</time>
      </trkpt>
      <trkpt lat="47.99061" lon="7.05813">
        <ele>779.20001220703</ele>
        <time>2021-05-22T13:29:44Z</time>
      </trkpt>
      <trkpt lat="47.99069" lon="7.05827">
        <ele>776.79998779297</ele>
        <time>2021-05-22T13:29:45Z</time>
      </trkpt>
      <trkpt lat="47.99075" lon="7.05842">
        <ele>776</ele>
        <time>2021-05-22T13:29:46Z</time>
      </trkpt>
      <trkpt lat="47.99079" lon="7.05857">
        <ele>774.20001220703</ele>
        <time>2021-05-22T13:29:47Z</time>
      </trkpt>
      <trkpt lat="47.99083" lon="7.05877">
        <ele>774</ele>
        <time>2021-05-22T13:29:48Z</time>
      </trkpt>
      <trkpt lat="47.99087" lon="7.05898">
        <ele>773</ele>
        <time>2021-05-22T13:29:49Z</time>
      </trkpt>
      <trkpt lat="47.99091" lon="7.05921">
        <ele>772</ele>
        <time>2021-05-22T13:29:50Z</time>
      </trkpt>
      <trkpt lat="47.99096" lon="7.05943">
        <ele>769.59997558594</ele>
        <time>2021-05-22T13:29:51Z</time>
      </trkpt>
      <trkpt lat="47.99101" lon="7.05966">
        <ele>768.20001220703</ele>
        <time>2021-05-22T13:29:52Z</time>
      </trkpt>
      <trkpt lat="47.99105" lon="7.05988">
        <ele>767</ele>
        <time>2021-05-22T13:29:53Z</time>
      </trkpt>
      <trkpt lat="47.9911" lon="7.06012">
        <ele>764.79998779297</ele>
        <time>2021-05-22T13:29:54Z</time>
      </trkpt>
      <trkpt lat="47.9912" lon="7.06061">
        <ele>762.20001220703</ele>
        <time>2021-05-22T13:29:56Z</time>
      </trkpt>
      <trkpt lat="47.99125" lon="7.06086">
        <ele>761.59997558594</ele>
        <time>2021-05-22T13:29:57Z</time>
      </trkpt>
      <trkpt lat="47.99131" lon="7.0611">
        <ele>758.40002441406</ele>
        <time>2021-05-22T13:29:58Z</time>
      </trkpt>
      <trkpt lat="47.99136" lon="7.06134">
        <ele>757.20001220703</ele>
        <time>2021-05-22T13:29:59Z</time>
      </trkpt>
      <trkpt lat="47.99141" lon="7.06156">
        <ele>754.59997558594</ele>
        <time>2021-05-22T13:30:00Z</time>
      </trkpt>
      <trkpt lat="47.99146" lon="7.06178">
        <ele>752.79998779297</ele>
        <time>2021-05-22T13:30:01Z</time>
      </trkpt>
      <trkpt lat="47.99152" lon="7.062">
        <ele>752</ele>
        <time>2021-05-22T13:30:02Z</time>
      </trkpt>
      <trkpt lat="47.99157" lon="7.06222">
        <ele>749.79998779297</ele>
        <time>2021-05-22T13:30:03Z</time>
      </trkpt>
      <trkpt lat="47.99162" lon="7.06245">
        <ele>748</ele>
        <time>2021-05-22T13:30:04Z</time>
      </trkpt>
      <trkpt lat="47.99168" lon="7.06267">
        <ele>745.40002441406</ele>
        <time>2021-05-22T13:30:05Z</time>
      </trkpt>
      <trkpt lat="47.99174" lon="7.06289">
        <ele>744</ele>
        <time>2021-05-22T13:30:06Z</time>
      </trkpt>
      <trkpt lat="47.99179" lon="7.06311">
        <ele>742.59997558594</ele>
        <time>2021-05-22T13:30:07Z</time>
      </trkpt>
      <trkpt lat="47.99185" lon="7.06332">
        <ele>739.20001220703</ele>
        <time>2021-05-22T13:30:08Z</time>
      </trkpt>
      <trkpt lat="47.99192" lon="7.06355">
        <ele>737.79998779297</ele>
        <time>2021-05-22T13:30:09Z</time>
      </trkpt>
      <trkpt lat="47.99199" lon="7.06376">
        <ele>736</ele>
        <time>2021-05-22T13:30:10Z</time>
      </trkpt>
      <trkpt lat="47.99208" lon="7.06398">
        <ele>735.40002441406</ele>
        <time>2021-05-22T13:30:11Z</time>
      </trkpt>
      <trkpt lat="47.99217" lon="7.06416">
        <ele>733.20001220703</ele>
        <time>2021-05-22T13:30:12Z</time>
      </trkpt>
      <trkpt lat="47.99239" lon="7.06451">
        <ele>731</ele>
        <time>2021-05-22T13:30:14Z</time>
      </trkpt>
      <trkpt lat="47.99251" lon="7.06468">
        <ele>728.40002441406</ele>
        <time>2021-05-22T13:30:15Z</time>
      </trkpt>
      <trkpt lat="47.99264" lon="7.06482">
        <ele>727.20001220703</ele>
        <time>2021-05-22T13:30:16Z</time>
      </trkpt>
      <trkpt lat="47.99278" lon="7.06494">
        <ele>725</ele>
        <time>2021-05-22T13:30:17Z</time>
      </trkpt>
      <trkpt lat="47.99306" lon="7.06516">
        <ele>722.20001220703</ele>
        <time>2021-05-22T13:30:19Z</time>
      </trkpt>
      <trkpt lat="47.99332" lon="7.06532">
        <ele>719</ele>
        <time>2021-05-22T13:30:21Z</time>
      </trkpt>
      <trkpt lat="47.99345" lon="7.06539">
        <ele>718</ele>
        <time>2021-05-22T13:30:22Z</time>
      </trkpt>
      <trkpt lat="47.99357" lon="7.06545">
        <ele>716.59997558594</ele>
        <time>2021-05-22T13:30:23Z</time>
      </trkpt>
      <trkpt lat="47.99368" lon="7.0655">
        <ele>714.59997558594</ele>
        <time>2021-05-22T13:30:24Z</time>
      </trkpt>
      <trkpt lat="47.9939" lon="7.06557">
        <ele>712.20001220703</ele>
        <time>2021-05-22T13:30:26Z</time>
      </trkpt>
      <trkpt lat="47.99401" lon="7.06554">
        <ele>711</ele>
        <time>2021-05-22T13:30:27Z</time>
      </trkpt>
      <trkpt lat="47.99412" lon="7.06549">
        <ele>709.59997558594</ele>
        <time>2021-05-22T13:30:28Z</time>
      </trkpt>
      <trkpt lat="47.99424" lon="7.06541">
        <ele>709</ele>
        <time>2021-05-22T13:30:29Z</time>
      </trkpt>
      <trkpt lat="47.99435" lon="7.06529">
        <ele>707.79998779297</ele>
        <time>2021-05-22T13:30:30Z</time>
      </trkpt>
      <trkpt lat="47.99444" lon="7.06512">
        <ele>706</ele>
        <time>2021-05-22T13:30:31Z</time>
      </trkpt>
      <trkpt lat="47.99459" lon="7.06475">
        <ele>704</ele>
        <time>2021-05-22T13:30:33Z</time>
      </trkpt>
      <trkpt lat="47.99474" lon="7.06437">
        <ele>701.40002441406</ele>
        <time>2021-05-22T13:30:35Z</time>
      </trkpt>
      <trkpt lat="47.99487" lon="7.06403">
        <ele>699.59997558594</ele>
        <time>2021-05-22T13:30:37Z</time>
      </trkpt>
      <trkpt lat="47.99492" lon="7.06389">
        <ele>697.79998779297</ele>
        <time>2021-05-22T13:30:38Z</time>
      </trkpt>
      <trkpt lat="47.99499" lon="7.06378">
        <ele>696.79998779297</ele>
        <time>2021-05-22T13:30:39Z</time>
      </trkpt>
      <trkpt lat="47.99505" lon="7.06372">
        <ele>695.40002441406</ele>
        <time>2021-05-22T13:30:40Z</time>
      </trkpt>
      <trkpt lat="47.9951" lon="7.06369">
        <ele>693.79998779297</ele>
        <time>2021-05-22T13:30:42Z</time>
      </trkpt>
      <trkpt lat="47.99518" lon="7.06381">
        <ele>692.40002441406</ele>
        <time>2021-05-22T13:30:44Z</time>
      </trkpt>
      <trkpt lat="47.99523" lon="7.06394">
        <ele>691.79998779297</ele>
        <time>2021-05-22T13:30:45Z</time>
      </trkpt>
      <trkpt lat="47.9953" lon="7.06408">
        <ele>690.20001220703</ele>
        <time>2021-05-22T13:30:46Z</time>
      </trkpt>
      <trkpt lat="47.99537" lon="7.06423">
        <ele>689.20001220703</ele>
        <time>2021-05-22T13:30:47Z</time>
      </trkpt>
      <trkpt lat="47.99544" lon="7.06438">
        <ele>688.40002441406</ele>
        <time>2021-05-22T13:30:48Z</time>
      </trkpt>
      <trkpt lat="47.99552" lon="7.06453">
        <ele>686.79998779297</ele>
        <time>2021-05-22T13:30:49Z</time>
      </trkpt>
      <trkpt lat="47.99567" lon="7.06482">
        <ele>684.79998779297</ele>
        <time>2021-05-22T13:30:51Z</time>
      </trkpt>
      <trkpt lat="47.99581" lon="7.0651">
        <ele>682.20001220703</ele>
        <time>2021-05-22T13:30:53Z</time>
      </trkpt>
      <trkpt lat="47.99584" lon="7.06524">
        <ele>680.40002441406</ele>
        <time>2021-05-22T13:30:54Z</time>
      </trkpt>
      <trkpt lat="47.99584" lon="7.06537">
        <ele>679.59997558594</ele>
        <time>2021-05-22T13:30:55Z</time>
      </trkpt>
      <trkpt lat="47.9958" lon="7.06547">
        <ele>678.40002441406</ele>
        <time>2021-05-22T13:30:56Z</time>
      </trkpt>
      <trkpt lat="47.99575" lon="7.06551">
        <ele>678</ele>
        <time>2021-05-22T13:30:57Z</time>
      </trkpt>
      <trkpt lat="47.9957" lon="7.06551">
        <ele>677.40002441406</ele>
        <time>2021-05-22T13:30:58Z</time>
      </trkpt>
      <trkpt lat="47.99568" lon="7.06543">
        <ele>677</ele>
        <time>2021-05-22T13:30:59Z</time>
      </trkpt>
      <trkpt lat="47.99564" lon="7.06533">
        <ele>676.40002441406</ele>
        <time>2021-05-22T13:31:00Z</time>
      </trkpt>
      <trkpt lat="47.99561" lon="7.06522">
        <ele>675.79998779297</ele>
        <time>2021-05-22T13:31:01Z</time>
      </trkpt>
      <trkpt lat="47.99553" lon="7.06498">
        <ele>674.20001220703</ele>
        <time>2021-05-22T13:31:03Z</time>
      </trkpt>
      <trkpt lat="47.99543" lon="7.06473">
        <ele>673.20001220703</ele>
        <time>2021-05-22T13:31:05Z</time>
      </trkpt>
      <trkpt lat="47.99537" lon="7.06462">
        <ele>672.79998779297</ele>
        <time>2021-05-22T13:31:06Z</time>
      </trkpt>
      <trkpt lat="47.99531" lon="7.06452">
        <ele>672.20001220703</ele>
        <time>2021-05-22T13:31:07Z</time>
      </trkpt>
      <trkpt lat="47.99523" lon="7.06446">
        <ele>672</ele>
        <time>2021-05-22T13:31:08Z</time>
      </trkpt>
      <trkpt lat="47.99516" lon="7.06444">
        <ele>671.40002441406</ele>
        <time>2021-05-22T13:31:09Z</time>
      </trkpt>
      <trkpt lat="47.9951" lon="7.06448">
        <ele>670.40002441406</ele>
        <time>2021-05-22T13:31:10Z</time>
      </trkpt>
      <trkpt lat="47.99506" lon="7.06457">
        <ele>670.20001220703</ele>
        <time>2021-05-22T13:31:11Z</time>
      </trkpt>
      <trkpt lat="47.99502" lon="7.06469">
        <ele>669.59997558594</ele>
        <time>2021-05-22T13:31:12Z</time>
      </trkpt>
      <trkpt lat="47.99497" lon="7.06498">
        <ele>669.20001220703</ele>
        <time>2021-05-22T13:31:14Z</time>
      </trkpt>
      <trkpt lat="47.99495" lon="7.06514">
        <ele>669</ele>
        <time>2021-05-22T13:31:15Z</time>
      </trkpt>
      <trkpt lat="47.99489" lon="7.06551">
        <ele>668.20001220703</ele>
        <time>2021-05-22T13:31:17Z</time>
      </trkpt>
      <trkpt lat="47.9948" lon="7.06587">
        <ele>667</ele>
        <time>2021-05-22T13:31:19Z</time>
      </trkpt>
      <trkpt lat="47.99474" lon="7.06605">
        <ele>666.79998779297</ele>
        <time>2021-05-22T13:31:20Z</time>
      </trkpt>
      <trkpt lat="47.99467" lon="7.06621">
        <ele>665.59997558594</ele>
        <time>2021-05-22T13:31:21Z</time>
      </trkpt>
      <trkpt lat="47.99453" lon="7.06652">
        <ele>664</ele>
        <time>2021-05-22T13:31:23Z</time>
      </trkpt>
      <trkpt lat="47.99445" lon="7.06667">
        <ele>662.79998779297</ele>
        <time>2021-05-22T13:31:24Z</time>
      </trkpt>
      <trkpt lat="47.99436" lon="7.0668">
        <ele>662.20001220703</ele>
        <time>2021-05-22T13:31:25Z</time>
      </trkpt>
      <trkpt lat="47.99426" lon="7.0669">
        <ele>661.59997558594</ele>
        <time>2021-05-22T13:31:26Z</time>
      </trkpt>
      <trkpt lat="47.99404" lon="7.06704">
        <ele>660.20001220703</ele>
        <time>2021-05-22T13:31:28Z</time>
      </trkpt>
      <trkpt lat="47.99381" lon="7.06711">
        <ele>658.20001220703</ele>
        <time>2021-05-22T13:31:30Z</time>
      </trkpt>
      <trkpt lat="47.99369" lon="7.06712">
        <ele>657.20001220703</ele>
        <time>2021-05-22T13:31:31Z</time>
      </trkpt>
      <trkpt lat="47.99357" lon="7.06712">
        <ele>656.59997558594</ele>
        <time>2021-05-22T13:31:32Z</time>
      </trkpt>
      <trkpt lat="47.99333" lon="7.0671">
        <ele>655</ele>
        <time>2021-05-22T13:31:34Z</time>
      </trkpt>
      <trkpt lat="47.9932" lon="7.06708">
        <ele>653.59997558594</ele>
        <time>2021-05-22T13:31:35Z</time>
      </trkpt>
      <trkpt lat="47.99297" lon="7.06703">
        <ele>652.59997558594</ele>
        <time>2021-05-22T13:31:37Z</time>
      </trkpt>
      <trkpt lat="47.99273" lon="7.067">
        <ele>651.40002441406</ele>
        <time>2021-05-22T13:31:39Z</time>
      </trkpt>
      <trkpt lat="47.9925" lon="7.06697">
        <ele>650.59997558594</ele>
        <time>2021-05-22T13:31:41Z</time>
      </trkpt>
      <trkpt lat="47.99238" lon="7.06696">
        <ele>650</ele>
        <time>2021-05-22T13:31:42Z</time>
      </trkpt>
      <trkpt lat="47.99227" lon="7.06694">
        <ele>650</ele>
        <time>2021-05-22T13:31:43Z</time>
      </trkpt>
      <trkpt lat="47.99203" lon="7.06693">
        <ele>649.20001220703</ele>
        <time>2021-05-22T13:31:45Z</time>
      </trkpt>
      <trkpt lat="47.99191" lon="7.06695">
        <ele>648.20001220703</ele>
        <time>2021-05-22T13:31:46Z</time>
      </trkpt>
      <trkpt lat="47.99179" lon="7.06699">
        <ele>647.40002441406</ele>
        <time>2021-05-22T13:31:47Z</time>
      </trkpt>
      <trkpt lat="47.99167" lon="7.06704">
        <ele>647.20001220703</ele>
        <time>2021-05-22T13:31:48Z</time>
      </trkpt>
      <trkpt lat="47.99156" lon="7.06709">
        <ele>646</ele>
        <time>2021-05-22T13:31:49Z</time>
      </trkpt>
      <trkpt lat="47.99133" lon="7.06716">
        <ele>643.79998779297</ele>
        <time>2021-05-22T13:31:51Z</time>
      </trkpt>
      <trkpt lat="47.99121" lon="7.06716">
        <ele>643.40002441406</ele>
        <time>2021-05-22T13:31:52Z</time>
      </trkpt>
      <trkpt lat="47.99109" lon="7.06714">
        <ele>641.79998779297</ele>
        <time>2021-05-22T13:31:53Z</time>
      </trkpt>
      <trkpt lat="47.99096" lon="7.0671">
        <ele>640.20001220703</ele>
        <time>2021-05-22T13:31:54Z</time>
      </trkpt>
      <trkpt lat="47.99083" lon="7.06706">
        <ele>639.40002441406</ele>
        <time>2021-05-22T13:31:55Z</time>
      </trkpt>
      <trkpt lat="47.99069" lon="7.06702">
        <ele>637.59997558594</ele>
        <time>2021-05-22T13:31:56Z</time>
      </trkpt>
      <trkpt lat="47.99056" lon="7.06698">
        <ele>636.59997558594</ele>
        <time>2021-05-22T13:31:57Z</time>
      </trkpt>
      <trkpt lat="47.99044" lon="7.06694">
        <ele>635.40002441406</ele>
        <time>2021-05-22T13:31:58Z</time>
      </trkpt>
      <trkpt lat="47.99017" lon="7.0669">
        <ele>633</ele>
        <time>2021-05-22T13:32:00Z</time>
      </trkpt>
      <trkpt lat="47.9899" lon="7.06697">
        <ele>630</ele>
        <time>2021-05-22T13:32:02Z</time>
      </trkpt>
      <trkpt lat="47.98977" lon="7.06704">
        <ele>628.59997558594</ele>
        <time>2021-05-22T13:32:03Z</time>
      </trkpt>
      <trkpt lat="47.98952" lon="7.06721">
        <ele>626.59997558594</ele>
        <time>2021-05-22T13:32:05Z</time>
      </trkpt>
      <trkpt lat="47.98928" lon="7.06738">
        <ele>624.59997558594</ele>
        <time>2021-05-22T13:32:07Z</time>
      </trkpt>
      <trkpt lat="47.98904" lon="7.06758">
        <ele>621.59997558594</ele>
        <time>2021-05-22T13:32:09Z</time>
      </trkpt>
      <trkpt lat="47.98893" lon="7.06767">
        <ele>620.20001220703</ele>
        <time>2021-05-22T13:32:10Z</time>
      </trkpt>
      <trkpt lat="47.98872" lon="7.06784">
        <ele>618.59997558594</ele>
        <time>2021-05-22T13:32:12Z</time>
      </trkpt>
      <trkpt lat="47.98862" lon="7.06794">
        <ele>617.20001220703</ele>
        <time>2021-05-22T13:32:13Z</time>
      </trkpt>
      <trkpt lat="47.98854" lon="7.06804">
        <ele>616</ele>
        <time>2021-05-22T13:32:14Z</time>
      </trkpt>
      <trkpt lat="47.9884" lon="7.06832">
        <ele>613.59997558594</ele>
        <time>2021-05-22T13:32:16Z</time>
      </trkpt>
      <trkpt lat="47.98835" lon="7.06849">
        <ele>612.59997558594</ele>
        <time>2021-05-22T13:32:17Z</time>
      </trkpt>
      <trkpt lat="47.98833" lon="7.06868">
        <ele>611.79998779297</ele>
        <time>2021-05-22T13:32:18Z</time>
      </trkpt>
      <trkpt lat="47.98834" lon="7.06885">
        <ele>610</ele>
        <time>2021-05-22T13:32:19Z</time>
      </trkpt>
      <trkpt lat="47.98842" lon="7.06901">
        <ele>609.20001220703</ele>
        <time>2021-05-22T13:32:20Z</time>
      </trkpt>
      <trkpt lat="47.9885" lon="7.06915">
        <ele>607.20001220703</ele>
        <time>2021-05-22T13:32:21Z</time>
      </trkpt>
      <trkpt lat="47.98862" lon="7.06925">
        <ele>606</ele>
        <time>2021-05-22T13:32:22Z</time>
      </trkpt>
      <trkpt lat="47.98875" lon="7.06931">
        <ele>604.20001220703</ele>
        <time>2021-05-22T13:32:23Z</time>
      </trkpt>
      <trkpt lat="47.98903" lon="7.0694">
        <ele>602.20001220703</ele>
        <time>2021-05-22T13:32:25Z</time>
      </trkpt>
      <trkpt lat="47.98917" lon="7.06946">
        <ele>600.20001220703</ele>
        <time>2021-05-22T13:32:26Z</time>
      </trkpt>
      <trkpt lat="47.98931" lon="7.06955">
        <ele>599.20001220703</ele>
        <time>2021-05-22T13:32:27Z</time>
      </trkpt>
      <trkpt lat="47.98945" lon="7.06964">
        <ele>597.79998779297</ele>
        <time>2021-05-22T13:32:28Z</time>
      </trkpt>
      <trkpt lat="47.98957" lon="7.06973">
        <ele>596.79998779297</ele>
        <time>2021-05-22T13:32:29Z</time>
      </trkpt>
      <trkpt lat="47.9897" lon="7.06983">
        <ele>595.20001220703</ele>
        <time>2021-05-22T13:32:30Z</time>
      </trkpt>
      <trkpt lat="47.98994" lon="7.06991">
        <ele>593.20001220703</ele>
        <time>2021-05-22T13:32:32Z</time>
      </trkpt>
      <trkpt lat="47.99006" lon="7.06994">
        <ele>591.79998779297</ele>
        <time>2021-05-22T13:32:33Z</time>
      </trkpt>
      <trkpt lat="47.99019" lon="7.06997">
        <ele>591.20001220703</ele>
        <time>2021-05-22T13:32:34Z</time>
      </trkpt>
      <trkpt lat="47.99031" lon="7.07">
        <ele>590.20001220703</ele>
        <time>2021-05-22T13:32:35Z</time>
      </trkpt>
      <trkpt lat="47.99056" lon="7.07002">
        <ele>589.20001220703</ele>
        <time>2021-05-22T13:32:37Z</time>
      </trkpt>
      <trkpt lat="47.99068" lon="7.07001">
        <ele>588.79998779297</ele>
        <time>2021-05-22T13:32:38Z</time>
      </trkpt>
      <trkpt lat="47.99081" lon="7.06997">
        <ele>588.20001220703</ele>
        <time>2021-05-22T13:32:39Z</time>
      </trkpt>
      <trkpt lat="47.99093" lon="7.06993">
        <ele>587.40002441406</ele>
        <time>2021-05-22T13:32:40Z</time>
      </trkpt>
      <trkpt lat="47.99118" lon="7.06986">
        <ele>586.20001220703</ele>
        <time>2021-05-22T13:32:42Z</time>
      </trkpt>
      <trkpt lat="47.9913" lon="7.06984">
        <ele>585.59997558594</ele>
        <time>2021-05-22T13:32:43Z</time>
      </trkpt>
      <trkpt lat="47.99142" lon="7.06981">
        <ele>584.59997558594</ele>
        <time>2021-05-22T13:32:44Z</time>
      </trkpt>
      <trkpt lat="47.99175" lon="7.06979">
        <ele>583.20001220703</ele>
        <time>2021-05-22T13:32:47Z</time>
      </trkpt>
      <trkpt lat="47.99185" lon="7.06981">
        <ele>582</ele>
        <time>2021-05-22T13:32:48Z</time>
      </trkpt>
      <trkpt lat="47.99205" lon="7.0699">
        <ele>580.79998779297</ele>
        <time>2021-05-22T13:32:50Z</time>
      </trkpt>
      <trkpt lat="47.99215" lon="7.06997">
        <ele>579.79998779297</ele>
        <time>2021-05-22T13:32:51Z</time>
      </trkpt>
      <trkpt lat="47.99235" lon="7.07014">
        <ele>578.20001220703</ele>
        <time>2021-05-22T13:32:53Z</time>
      </trkpt>
      <trkpt lat="47.99256" lon="7.0703">
        <ele>577.20001220703</ele>
        <time>2021-05-22T13:32:55Z</time>
      </trkpt>
      <trkpt lat="47.99268" lon="7.07039">
        <ele>576.20001220703</ele>
        <time>2021-05-22T13:32:56Z</time>
      </trkpt>
      <trkpt lat="47.99279" lon="7.07048">
        <ele>575.59997558594</ele>
        <time>2021-05-22T13:32:57Z</time>
      </trkpt>
      <trkpt lat="47.9929" lon="7.07056">
        <ele>573.59997558594</ele>
        <time>2021-05-22T13:32:58Z</time>
      </trkpt>
      <trkpt lat="47.99314" lon="7.07071">
        <ele>571.20001220703</ele>
        <time>2021-05-22T13:33:00Z</time>
      </trkpt>
      <trkpt lat="47.99327" lon="7.07077">
        <ele>570.40002441406</ele>
        <time>2021-05-22T13:33:01Z</time>
      </trkpt>
      <trkpt lat="47.9934" lon="7.07082">
        <ele>569.20001220703</ele>
        <time>2021-05-22T13:33:02Z</time>
      </trkpt>
      <trkpt lat="47.99352" lon="7.07087">
        <ele>568.20001220703</ele>
        <time>2021-05-22T13:33:03Z</time>
      </trkpt>
      <trkpt lat="47.99389" lon="7.071">
        <ele>566.79998779297</ele>
        <time>2021-05-22T13:33:06Z</time>
      </trkpt>
      <trkpt lat="47.994" lon="7.07104">
        <ele>566.40002441406</ele>
        <time>2021-05-22T13:33:07Z</time>
      </trkpt>
      <trkpt lat="47.99421" lon="7.07112">
        <ele>565.20001220703</ele>
        <time>2021-05-22T13:33:09Z</time>
      </trkpt>
      <trkpt lat="47.99431" lon="7.07117">
        <ele>564.59997558594</ele>
        <time>2021-05-22T13:33:10Z</time>
      </trkpt>
      <trkpt lat="47.99439" lon="7.07125">
        <ele>564</ele>
        <time>2021-05-22T13:33:11Z</time>
      </trkpt>
      <trkpt lat="47.99446" lon="7.07135">
        <ele>563.59997558594</ele>
        <time>2021-05-22T13:33:12Z</time>
      </trkpt>
      <trkpt lat="47.99452" lon="7.07147">
        <ele>563.40002441406</ele>
        <time>2021-05-22T13:33:13Z</time>
      </trkpt>
      <trkpt lat="47.99464" lon="7.07188">
        <ele>562.59997558594</ele>
        <time>2021-05-22T13:33:16Z</time>
      </trkpt>
      <trkpt lat="47.9947" lon="7.072">
        <ele>562.40002441406</ele>
        <time>2021-05-22T13:33:17Z</time>
      </trkpt>
      <trkpt lat="47.99477" lon="7.07211">
        <ele>561.79998779297</ele>
        <time>2021-05-22T13:33:18Z</time>
      </trkpt>
      <trkpt lat="47.99484" lon="7.0722">
        <ele>561.40002441406</ele>
        <time>2021-05-22T13:33:19Z</time>
      </trkpt>
      <trkpt lat="47.99493" lon="7.07228">
        <ele>561.20001220703</ele>
        <time>2021-05-22T13:33:20Z</time>
      </trkpt>
      <trkpt lat="47.99531" lon="7.07252">
        <ele>560.20001220703</ele>
        <time>2021-05-22T13:33:24Z</time>
      </trkpt>
      <trkpt lat="47.99542" lon="7.07256">
        <ele>559.79998779297</ele>
        <time>2021-05-22T13:33:25Z</time>
      </trkpt>
      <trkpt lat="47.99586" lon="7.07271">
        <ele>559</ele>
        <time>2021-05-22T13:33:28Z</time>
      </trkpt>
      <trkpt lat="47.99597" lon="7.07273">
        <ele>557.79998779297</ele>
        <time>2021-05-22T13:33:30Z</time>
      </trkpt>
      <trkpt lat="47.99619" lon="7.07277">
        <ele>556.20001220703</ele>
        <time>2021-05-22T13:33:32Z</time>
      </trkpt>
      <trkpt lat="47.99641" lon="7.07288">
        <ele>554.79998779297</ele>
        <time>2021-05-22T13:33:34Z</time>
      </trkpt>
      <trkpt lat="47.9966" lon="7.07306">
        <ele>553.79998779297</ele>
        <time>2021-05-22T13:33:36Z</time>
      </trkpt>
      <trkpt lat="47.99669" lon="7.07316">
        <ele>553.20001220703</ele>
        <time>2021-05-22T13:33:37Z</time>
      </trkpt>
      <trkpt lat="47.99686" lon="7.07338">
        <ele>552.40002441406</ele>
        <time>2021-05-22T13:33:39Z</time>
      </trkpt>
      <trkpt lat="47.9971" lon="7.0737">
        <ele>551.40002441406</ele>
        <time>2021-05-22T13:33:42Z</time>
      </trkpt>
      <trkpt lat="47.99718" lon="7.0738">
        <ele>551</ele>
        <time>2021-05-22T13:33:43Z</time>
      </trkpt>
      <trkpt lat="47.99746" lon="7.07403">
        <ele>550</ele>
        <time>2021-05-22T13:33:46Z</time>
      </trkpt>
      <trkpt lat="47.99775" lon="7.07421">
        <ele>548.40002441406</ele>
        <time>2021-05-22T13:33:49Z</time>
      </trkpt>
      <trkpt lat="47.99813" lon="7.07449">
        <ele>547.40002441406</ele>
        <time>2021-05-22T13:33:52Z</time>
      </trkpt>
      <trkpt lat="47.99813" lon="7.07449">
        <ele>547</ele>
        <time>2021-05-22T13:33:53Z</time>
      </trkpt>
      <trkpt lat="47.99842" lon="7.07466">
        <ele>546.20001220703</ele>
        <time>2021-05-22T13:33:56Z</time>
      </trkpt>
      <trkpt lat="47.99852" lon="7.07468">
        <ele>546.20001220703</ele>
        <time>2021-05-22T13:33:57Z</time>
      </trkpt>
      <trkpt lat="47.99862" lon="7.07469">
        <ele>546</ele>
        <time>2021-05-22T13:33:58Z</time>
      </trkpt>
      <trkpt lat="47.99894" lon="7.07468">
        <ele>545.40002441406</ele>
        <time>2021-05-22T13:34:01Z</time>
      </trkpt>
      <trkpt lat="47.99905" lon="7.07468">
        <ele>544.79998779297</ele>
        <time>2021-05-22T13:34:02Z</time>
      </trkpt>
      <trkpt lat="47.99927" lon="7.07466">
        <ele>543.79998779297</ele>
        <time>2021-05-22T13:34:04Z</time>
      </trkpt>
      <trkpt lat="47.99962" lon="7.07464">
        <ele>541.79998779297</ele>
        <time>2021-05-22T13:34:07Z</time>
      </trkpt>
      <trkpt lat="47.99986" lon="7.07467">
        <ele>540.40002441406</ele>
        <time>2021-05-22T13:34:09Z</time>
      </trkpt>
      <trkpt lat="48.0001" lon="7.07472">
        <ele>538.59997558594</ele>
        <time>2021-05-22T13:34:11Z</time>
      </trkpt>
      <trkpt lat="48.00032" lon="7.07479">
        <ele>537</ele>
        <time>2021-05-22T13:34:13Z</time>
      </trkpt>
      <trkpt lat="48.00065" lon="7.07487">
        <ele>535.79998779297</ele>
        <time>2021-05-22T13:34:15Z</time>
      </trkpt>
      <trkpt lat="48.00087" lon="7.07492">
        <ele>534.59997558594</ele>
        <time>2021-05-22T13:34:17Z</time>
      </trkpt>
      <trkpt lat="48.00087" lon="7.07492">
        <ele>534</ele>
        <time>2021-05-22T13:34:18Z</time>
      </trkpt>
      <trkpt lat="48.0011" lon="7.07495">
        <ele>533.59997558594</ele>
        <time>2021-05-22T13:34:20Z</time>
      </trkpt>
      <trkpt lat="48.00142" lon="7.07497">
        <ele>533</ele>
        <time>2021-05-22T13:34:23Z</time>
      </trkpt>
      <trkpt lat="48.00153" lon="7.07498">
        <ele>532.79998779297</ele>
        <time>2021-05-22T13:34:24Z</time>
      </trkpt>
      <trkpt lat="48.00163" lon="7.07498">
        <ele>532.40002441406</ele>
        <time>2021-05-22T13:34:25Z</time>
      </trkpt>
      <trkpt lat="48.00213" lon="7.07496">
        <ele>532</ele>
        <time>2021-05-22T13:34:29Z</time>
      </trkpt>
      <trkpt lat="48.00242" lon="7.07491">
        <ele>530.79998779297</ele>
        <time>2021-05-22T13:34:32Z</time>
      </trkpt>
      <trkpt lat="48.00262" lon="7.07487">
        <ele>529.59997558594</ele>
        <time>2021-05-22T13:34:34Z</time>
      </trkpt>
      <trkpt lat="48.00292" lon="7.0748">
        <ele>528.40002441406</ele>
        <time>2021-05-22T13:34:37Z</time>
      </trkpt>
      <trkpt lat="48.00329" lon="7.07466">
        <ele>527.20001220703</ele>
        <time>2021-05-22T13:34:41Z</time>
      </trkpt>
      <trkpt lat="48.00356" lon="7.07455">
        <ele>525.79998779297</ele>
        <time>2021-05-22T13:34:44Z</time>
      </trkpt>
      <trkpt lat="48.00365" lon="7.07451">
        <ele>525.59997558594</ele>
        <time>2021-05-22T13:34:45Z</time>
      </trkpt>
      <trkpt lat="48.00392" lon="7.0744">
        <ele>524.79998779297</ele>
        <time>2021-05-22T13:34:48Z</time>
      </trkpt>
      <trkpt lat="48.0041" lon="7.07432">
        <ele>524</ele>
        <time>2021-05-22T13:34:51Z</time>
      </trkpt>
      <trkpt lat="48.00435" lon="7.0742">
        <ele>523.79998779297</ele>
        <time>2021-05-22T13:34:53Z</time>
      </trkpt>
      <trkpt lat="48.00443" lon="7.07416">
        <ele>523.59997558594</ele>
        <time>2021-05-22T13:34:54Z</time>
      </trkpt>
      <trkpt lat="48.00486" lon="7.07399">
        <ele>522.59997558594</ele>
        <time>2021-05-22T13:34:59Z</time>
      </trkpt>
      <trkpt lat="48.00494" lon="7.07395">
        <ele>522.59997558594</ele>
        <time>2021-05-22T13:35:00Z</time>
      </trkpt>
      <trkpt lat="48.00553" lon="7.0737">
        <ele>521.40002441406</ele>
        <time>2021-05-22T13:35:07Z</time>
      </trkpt>
      <trkpt lat="48.00588" lon="7.07351">
        <ele>520.79998779297</ele>
        <time>2021-05-22T13:35:11Z</time>
      </trkpt>
      <trkpt lat="48.00606" lon="7.07339">
        <ele>520.40002441406</ele>
        <time>2021-05-22T13:35:13Z</time>
      </trkpt>
      <trkpt lat="48.00631" lon="7.07315">
        <ele>519.40002441406</ele>
        <time>2021-05-22T13:35:16Z</time>
      </trkpt>
      <trkpt lat="48.0064" lon="7.07307">
        <ele>518.79998779297</ele>
        <time>2021-05-22T13:35:17Z</time>
      </trkpt>
      <trkpt lat="48.00656" lon="7.07287">
        <ele>517.79998779297</ele>
        <time>2021-05-22T13:35:19Z</time>
      </trkpt>
      <trkpt lat="48.0067" lon="7.07265">
        <ele>516.20001220703</ele>
        <time>2021-05-22T13:35:21Z</time>
      </trkpt>
      <trkpt lat="48.00683" lon="7.07242">
        <ele>514.40002441406</ele>
        <time>2021-05-22T13:35:23Z</time>
      </trkpt>
      <trkpt lat="48.00695" lon="7.07216">
        <ele>513.20001220703</ele>
        <time>2021-05-22T13:35:26Z</time>
      </trkpt>
      <trkpt lat="48.00717" lon="7.07169">
        <ele>511.39999389648</ele>
        <time>2021-05-22T13:35:29Z</time>
      </trkpt>
      <trkpt lat="48.00723" lon="7.07159">
        <ele>510.79998779297</ele>
        <time>2021-05-22T13:35:30Z</time>
      </trkpt>
      <trkpt lat="48.0073" lon="7.07149">
        <ele>510.39999389648</ele>
        <time>2021-05-22T13:35:31Z</time>
      </trkpt>
      <trkpt lat="48.00737" lon="7.07141">
        <ele>509.79998779297</ele>
        <time>2021-05-22T13:35:32Z</time>
      </trkpt>
      <trkpt lat="48.00753" lon="7.07128">
        <ele>508.60000610352</ele>
        <time>2021-05-22T13:35:34Z</time>
      </trkpt>
      <trkpt lat="48.0077" lon="7.0712">
        <ele>507.79998779297</ele>
        <time>2021-05-22T13:35:36Z</time>
      </trkpt>
      <trkpt lat="48.00779" lon="7.07118">
        <ele>507</ele>
        <time>2021-05-22T13:35:37Z</time>
      </trkpt>
      <trkpt lat="48.00788" lon="7.07118">
        <ele>506.79998779297</ele>
        <time>2021-05-22T13:35:38Z</time>
      </trkpt>
      <trkpt lat="48.00807" lon="7.07121">
        <ele>506</ele>
        <time>2021-05-22T13:35:40Z</time>
      </trkpt>
      <trkpt lat="48.00816" lon="7.07124">
        <ele>505.20001220703</ele>
        <time>2021-05-22T13:35:41Z</time>
      </trkpt>
      <trkpt lat="48.00824" lon="7.07126">
        <ele>504.79998779297</ele>
        <time>2021-05-22T13:35:42Z</time>
      </trkpt>
      <trkpt lat="48.00845" lon="7.0713">
        <ele>503.60000610352</ele>
        <time>2021-05-22T13:35:45Z</time>
      </trkpt>
      <trkpt lat="48.00872" lon="7.0713">
        <ele>503</ele>
        <time>2021-05-22T13:35:47Z</time>
      </trkpt>
      <trkpt lat="48.00883" lon="7.07127">
        <ele>502.60000610352</ele>
        <time>2021-05-22T13:35:48Z</time>
      </trkpt>
      <trkpt lat="48.00923" lon="7.07111">
        <ele>501.60000610352</ele>
        <time>2021-05-22T13:35:52Z</time>
      </trkpt>
      <trkpt lat="48.00933" lon="7.07109">
        <ele>500.60000610352</ele>
        <time>2021-05-22T13:35:53Z</time>
      </trkpt>
      <trkpt lat="48.00953" lon="7.07106">
        <ele>499.20001220703</ele>
        <time>2021-05-22T13:35:55Z</time>
      </trkpt>
      <trkpt lat="48.00973" lon="7.07103">
        <ele>498.20001220703</ele>
        <time>2021-05-22T13:35:57Z</time>
      </trkpt>
      <trkpt lat="48.00983" lon="7.07102">
        <ele>498</ele>
        <time>2021-05-22T13:35:58Z</time>
      </trkpt>
      <trkpt lat="48.01011" lon="7.071">
        <ele>496.60000610352</ele>
        <time>2021-05-22T13:36:01Z</time>
      </trkpt>
      <trkpt lat="48.01011" lon="7.071">
        <ele>496.39999389648</ele>
        <time>2021-05-22T13:36:02Z</time>
      </trkpt>
      <trkpt lat="48.01028" lon="7.07095">
        <ele>496.20001220703</ele>
        <time>2021-05-22T13:36:03Z</time>
      </trkpt>
      <trkpt lat="48.01047" lon="7.07086">
        <ele>495.79998779297</ele>
        <time>2021-05-22T13:36:06Z</time>
      </trkpt>
      <trkpt lat="48.0107" lon="7.07073">
        <ele>495.39999389648</ele>
        <time>2021-05-22T13:36:08Z</time>
      </trkpt>
      <trkpt lat="48.01097" lon="7.07063">
        <ele>494.20001220703</ele>
        <time>2021-05-22T13:36:11Z</time>
      </trkpt>
      <trkpt lat="48.01112" lon="7.07064">
        <ele>493.60000610352</ele>
        <time>2021-05-22T13:36:13Z</time>
      </trkpt>
      <trkpt lat="48.01121" lon="7.07067">
        <ele>493.39999389648</ele>
        <time>2021-05-22T13:36:14Z</time>
      </trkpt>
      <trkpt lat="48.01148" lon="7.07079">
        <ele>493</ele>
        <time>2021-05-22T13:36:17Z</time>
      </trkpt>
      <trkpt lat="48.01164" lon="7.07089">
        <ele>492.60000610352</ele>
        <time>2021-05-22T13:36:19Z</time>
      </trkpt>
      <trkpt lat="48.01191" lon="7.07109">
        <ele>491.79998779297</ele>
        <time>2021-05-22T13:36:22Z</time>
      </trkpt>
      <trkpt lat="48.01199" lon="7.07115">
        <ele>490.60000610352</ele>
        <time>2021-05-22T13:36:24Z</time>
      </trkpt>
      <trkpt lat="48.01234" lon="7.07134">
        <ele>489.39999389648</ele>
        <time>2021-05-22T13:36:27Z</time>
      </trkpt>
      <trkpt lat="48.01258" lon="7.07146">
        <ele>488.39999389648</ele>
        <time>2021-05-22T13:36:30Z</time>
      </trkpt>
      <trkpt lat="48.01277" lon="7.07153">
        <ele>487.60000610352</ele>
        <time>2021-05-22T13:36:32Z</time>
      </trkpt>
      <trkpt lat="48.01286" lon="7.07154">
        <ele>487.60000610352</ele>
        <time>2021-05-22T13:36:33Z</time>
      </trkpt>
      <trkpt lat="48.01294" lon="7.07155">
        <ele>487.39999389648</ele>
        <time>2021-05-22T13:36:34Z</time>
      </trkpt>
      <trkpt lat="48.01327" lon="7.07157">
        <ele>487</ele>
        <time>2021-05-22T13:36:38Z</time>
      </trkpt>
      <trkpt lat="48.01375" lon="7.07154">
        <ele>486.20001220703</ele>
        <time>2021-05-22T13:36:44Z</time>
      </trkpt>
      <trkpt lat="48.01375" lon="7.07154">
        <ele>486.20001220703</ele>
        <time>2021-05-22T13:36:45Z</time>
      </trkpt>
      <trkpt lat="48.01389" lon="7.07154">
        <ele>486.20001220703</ele>
        <time>2021-05-22T13:36:46Z</time>
      </trkpt>
      <trkpt lat="48.01394" lon="7.07154">
        <ele>486.20001220703</ele>
        <time>2021-05-22T13:36:48Z</time>
      </trkpt>
      <trkpt lat="48.01409" lon="7.0716">
        <ele>486.20001220703</ele>
        <time>2021-05-22T13:36:49Z</time>
      </trkpt>
      <trkpt lat="48.01434" lon="7.07179">
        <ele>486.39999389648</ele>
        <time>2021-05-22T13:36:53Z</time>
      </trkpt>
      <trkpt lat="48.01439" lon="7.07184">
        <ele>486.60000610352</ele>
        <time>2021-05-22T13:36:54Z</time>
      </trkpt>
      <trkpt lat="48.01458" lon="7.07207">
        <ele>486.79998779297</ele>
        <time>2021-05-22T13:36:58Z</time>
      </trkpt>
      <trkpt lat="48.01462" lon="7.07214">
        <ele>487</ele>
        <time>2021-05-22T13:36:59Z</time>
      </trkpt>
      <trkpt lat="48.01467" lon="7.07219">
        <ele>487.20001220703</ele>
        <time>2021-05-22T13:37:00Z</time>
      </trkpt>
      <trkpt lat="48.01475" lon="7.07227">
        <ele>487.60000610352</ele>
        <time>2021-05-22T13:37:02Z</time>
      </trkpt>
      <trkpt lat="48.01481" lon="7.07232">
        <ele>487.79998779297</ele>
        <time>2021-05-22T13:37:03Z</time>
      </trkpt>
      <trkpt lat="48.01494" lon="7.07244">
        <ele>488.79998779297</ele>
        <time>2021-05-22T13:37:06Z</time>
      </trkpt>
      <trkpt lat="48.01513" lon="7.07262">
        <ele>489.20001220703</ele>
        <time>2021-05-22T13:37:10Z</time>
      </trkpt>
      <trkpt lat="48.01531" lon="7.07281">
        <ele>490</ele>
        <time>2021-05-22T13:37:14Z</time>
      </trkpt>
      <trkpt lat="48.0154" lon="7.07291">
        <ele>490.20001220703</ele>
        <time>2021-05-22T13:37:16Z</time>
      </trkpt>
      <trkpt lat="48.01582" lon="7.07325">
        <ele>491</ele>
        <time>2021-05-22T13:37:24Z</time>
      </trkpt>
      <trkpt lat="48.01618" lon="7.07346">
        <ele>492</ele>
        <time>2021-05-22T13:37:30Z</time>
      </trkpt>
      <trkpt lat="48.01624" lon="7.07349">
        <ele>492.20001220703</ele>
        <time>2021-05-22T13:37:31Z</time>
      </trkpt>
      <trkpt lat="48.01643" lon="7.07359">
        <ele>492.20001220703</ele>
        <time>2021-05-22T13:37:34Z</time>
      </trkpt>
      <trkpt lat="48.01649" lon="7.07362">
        <ele>492.20001220703</ele>
        <time>2021-05-22T13:37:35Z</time>
      </trkpt>
      <trkpt lat="48.01656" lon="7.07364">
        <ele>492.20001220703</ele>
        <time>2021-05-22T13:37:36Z</time>
      </trkpt>
      <trkpt lat="48.01691" lon="7.07379">
        <ele>492</ele>
        <time>2021-05-22T13:37:42Z</time>
      </trkpt>
      <trkpt lat="48.0173" lon="7.07399">
        <ele>491.20001220703</ele>
        <time>2021-05-22T13:37:46Z</time>
      </trkpt>
      <trkpt lat="48.01738" lon="7.07404">
        <ele>491.20001220703</ele>
        <time>2021-05-22T13:37:47Z</time>
      </trkpt>
      <trkpt lat="48.01788" lon="7.07441">
        <ele>490</ele>
        <time>2021-05-22T13:37:53Z</time>
      </trkpt>
      <trkpt lat="48.01797" lon="7.07447">
        <ele>489.60000610352</ele>
        <time>2021-05-22T13:37:54Z</time>
      </trkpt>
      <trkpt lat="48.01805" lon="7.07454">
        <ele>488.79998779297</ele>
        <time>2021-05-22T13:37:55Z</time>
      </trkpt>
      <trkpt lat="48.0184" lon="7.07477">
        <ele>487.79998779297</ele>
        <time>2021-05-22T13:38:00Z</time>
      </trkpt>
      <trkpt lat="48.01877" lon="7.07492">
        <ele>487.20001220703</ele>
        <time>2021-05-22T13:38:03Z</time>
      </trkpt>
      <trkpt lat="48.01889" lon="7.07495">
        <ele>486.79998779297</ele>
        <time>2021-05-22T13:38:04Z</time>
      </trkpt>
      <trkpt lat="48.01899" lon="7.07497">
        <ele>486.39999389648</ele>
        <time>2021-05-22T13:38:05Z</time>
      </trkpt>
      <trkpt lat="48.01961" lon="7.07508">
        <ele>485.60000610352</ele>
        <time>2021-05-22T13:38:11Z</time>
      </trkpt>
      <trkpt lat="48.01971" lon="7.07511">
        <ele>485.39999389648</ele>
        <time>2021-05-22T13:38:12Z</time>
      </trkpt>
      <trkpt lat="48.02011" lon="7.07531">
        <ele>484</ele>
        <time>2021-05-22T13:38:16Z</time>
      </trkpt>
      <trkpt lat="48.02051" lon="7.07557">
        <ele>482.79998779297</ele>
        <time>2021-05-22T13:38:21Z</time>
      </trkpt>
      <trkpt lat="48.02088" lon="7.07582">
        <ele>482.20001220703</ele>
        <time>2021-05-22T13:38:24Z</time>
      </trkpt>
      <trkpt lat="48.02149" lon="7.07627">
        <ele>481.79998779297</ele>
        <time>2021-05-22T13:38:31Z</time>
      </trkpt>
      <trkpt lat="48.02159" lon="7.07635">
        <ele>481.79998779297</ele>
        <time>2021-05-22T13:38:32Z</time>
      </trkpt>
      <trkpt lat="48.02212" lon="7.07685">
        <ele>480.39999389648</ele>
        <time>2021-05-22T13:38:38Z</time>
      </trkpt>
      <trkpt lat="48.02221" lon="7.07695">
        <ele>480</ele>
        <time>2021-05-22T13:38:39Z</time>
      </trkpt>
      <trkpt lat="48.02234" lon="7.07715">
        <ele>479.39999389648</ele>
        <time>2021-05-22T13:38:42Z</time>
      </trkpt>
      <trkpt lat="48.02265" lon="7.07766">
        <ele>478.79998779297</ele>
        <time>2021-05-22T13:38:45Z</time>
      </trkpt>
      <trkpt lat="48.02271" lon="7.07778">
        <ele>478.39999389648</ele>
        <time>2021-05-22T13:38:47Z</time>
      </trkpt>
      <trkpt lat="48.02306" lon="7.07837">
        <ele>477.20001220703</ele>
        <time>2021-05-22T13:38:51Z</time>
      </trkpt>
      <trkpt lat="48.02327" lon="7.07871">
        <ele>476.79998779297</ele>
        <time>2021-05-22T13:38:54Z</time>
      </trkpt>
      <trkpt lat="48.02369" lon="7.07937">
        <ele>476.20001220703</ele>
        <time>2021-05-22T13:39:00Z</time>
      </trkpt>
      <trkpt lat="48.02398" lon="7.07982">
        <ele>476</ele>
        <time>2021-05-22T13:39:04Z</time>
      </trkpt>
      <trkpt lat="48.02404" lon="7.07992">
        <ele>476</ele>
        <time>2021-05-22T13:39:05Z</time>
      </trkpt>
      <trkpt lat="48.02432" lon="7.08043">
        <ele>476.20001220703</ele>
        <time>2021-05-22T13:39:10Z</time>
      </trkpt>
      <trkpt lat="48.0245" lon="7.08086">
        <ele>477.20001220703</ele>
        <time>2021-05-22T13:39:15Z</time>
      </trkpt>
      <trkpt lat="48.02456" lon="7.08101">
        <ele>478.39999389648</ele>
        <time>2021-05-22T13:39:18Z</time>
      </trkpt>
      <trkpt lat="48.02465" lon="7.08124">
        <ele>479.79998779297</ele>
        <time>2021-05-22T13:39:20Z</time>
      </trkpt>
      <trkpt lat="48.02472" lon="7.08136">
        <ele>480.79998779297</ele>
        <time>2021-05-22T13:39:22Z</time>
      </trkpt>
      <trkpt lat="48.02479" lon="7.08148">
        <ele>481.39999389648</ele>
        <time>2021-05-22T13:39:24Z</time>
      </trkpt>
      <trkpt lat="48.02486" lon="7.0816">
        <ele>481.79998779297</ele>
        <time>2021-05-22T13:39:26Z</time>
      </trkpt>
      <trkpt lat="48.0249" lon="7.08166">
        <ele>482.20001220703</ele>
        <time>2021-05-22T13:39:27Z</time>
      </trkpt>
      <trkpt lat="48.02506" lon="7.08192">
        <ele>483.39999389648</ele>
        <time>2021-05-22T13:39:32Z</time>
      </trkpt>
      <trkpt lat="48.0251" lon="7.08198">
        <ele>483.39999389648</ele>
        <time>2021-05-22T13:39:33Z</time>
      </trkpt>
      <trkpt lat="48.02518" lon="7.0821">
        <ele>484.20001220703</ele>
        <time>2021-05-22T13:39:35Z</time>
      </trkpt>
      <trkpt lat="48.02524" lon="7.08221">
        <ele>484.60000610352</ele>
        <time>2021-05-22T13:39:37Z</time>
      </trkpt>
      <trkpt lat="48.02535" lon="7.08244">
        <ele>484.79998779297</ele>
        <time>2021-05-22T13:39:40Z</time>
      </trkpt>
      <trkpt lat="48.02541" lon="7.0826">
        <ele>484.79998779297</ele>
        <time>2021-05-22T13:39:42Z</time>
      </trkpt>
      <trkpt lat="48.02545" lon="7.0828">
        <ele>484.79998779297</ele>
        <time>2021-05-22T13:39:44Z</time>
      </trkpt>
      <trkpt lat="48.0255" lon="7.08328">
        <ele>484.20001220703</ele>
        <time>2021-05-22T13:39:48Z</time>
      </trkpt>
      <trkpt lat="48.0255" lon="7.08354">
        <ele>483.39999389648</ele>
        <time>2021-05-22T13:39:50Z</time>
      </trkpt>
      <trkpt lat="48.02549" lon="7.08396">
        <ele>482</ele>
        <time>2021-05-22T13:39:53Z</time>
      </trkpt>
      <trkpt lat="48.02548" lon="7.08439">
        <ele>480.20001220703</ele>
        <time>2021-05-22T13:39:56Z</time>
      </trkpt>
      <trkpt lat="48.02547" lon="7.08453">
        <ele>479</ele>
        <time>2021-05-22T13:39:57Z</time>
      </trkpt>
      <trkpt lat="48.02548" lon="7.08468">
        <ele>478</ele>
        <time>2021-05-22T13:39:58Z</time>
      </trkpt>
      <trkpt lat="48.02548" lon="7.08468">
        <ele>477.60000610352</ele>
        <time>2021-05-22T13:39:59Z</time>
      </trkpt>
      <trkpt lat="48.0255" lon="7.08498">
        <ele>477</ele>
        <time>2021-05-22T13:40:00Z</time>
      </trkpt>
      <trkpt lat="48.02552" lon="7.08513">
        <ele>476.79998779297</ele>
        <time>2021-05-22T13:40:01Z</time>
      </trkpt>
      <trkpt lat="48.02555" lon="7.08528">
        <ele>476.60000610352</ele>
        <time>2021-05-22T13:40:02Z</time>
      </trkpt>
      <trkpt lat="48.02566" lon="7.08571">
        <ele>475.39999389648</ele>
        <time>2021-05-22T13:40:05Z</time>
      </trkpt>
      <trkpt lat="48.0258" lon="7.08639">
        <ele>474.39999389648</ele>
        <time>2021-05-22T13:40:10Z</time>
      </trkpt>
      <trkpt lat="48.02582" lon="7.08652">
        <ele>474.20001220703</ele>
        <time>2021-05-22T13:40:11Z</time>
      </trkpt>
      <trkpt lat="48.02584" lon="7.08689">
        <ele>473.79998779297</ele>
        <time>2021-05-22T13:40:14Z</time>
      </trkpt>
      <trkpt lat="48.02584" lon="7.087">
        <ele>473.79998779297</ele>
        <time>2021-05-22T13:40:15Z</time>
      </trkpt>
      <trkpt lat="48.0258" lon="7.08751">
        <ele>473</ele>
        <time>2021-05-22T13:40:19Z</time>
      </trkpt>
      <trkpt lat="48.02578" lon="7.08764">
        <ele>472.79998779297</ele>
        <time>2021-05-22T13:40:20Z</time>
      </trkpt>
      <trkpt lat="48.02571" lon="7.0882">
        <ele>471.60000610352</ele>
        <time>2021-05-22T13:40:25Z</time>
      </trkpt>
      <trkpt lat="48.0257" lon="7.08851">
        <ele>470.79998779297</ele>
        <time>2021-05-22T13:40:26Z</time>
      </trkpt>
      <trkpt lat="48.0257" lon="7.08866">
        <ele>470.39999389648</ele>
        <time>2021-05-22T13:40:27Z</time>
      </trkpt>
      <trkpt lat="48.02573" lon="7.08913">
        <ele>468.79998779297</ele>
        <time>2021-05-22T13:40:30Z</time>
      </trkpt>
      <trkpt lat="48.02576" lon="7.08945">
        <ele>467.20001220703</ele>
        <time>2021-05-22T13:40:32Z</time>
      </trkpt>
      <trkpt lat="48.02579" lon="7.0896">
        <ele>466.79998779297</ele>
        <time>2021-05-22T13:40:33Z</time>
      </trkpt>
      <trkpt lat="48.02582" lon="7.08975">
        <ele>466.20001220703</ele>
        <time>2021-05-22T13:40:34Z</time>
      </trkpt>
      <trkpt lat="48.02588" lon="7.09004">
        <ele>465.20001220703</ele>
        <time>2021-05-22T13:40:36Z</time>
      </trkpt>
      <trkpt lat="48.02598" lon="7.09046">
        <ele>464.20001220703</ele>
        <time>2021-05-22T13:40:39Z</time>
      </trkpt>
      <trkpt lat="48.026" lon="7.0906">
        <ele>464</ele>
        <time>2021-05-22T13:40:40Z</time>
      </trkpt>
      <trkpt lat="48.02603" lon="7.09103">
        <ele>463.39999389648</ele>
        <time>2021-05-22T13:40:43Z</time>
      </trkpt>
      <trkpt lat="48.02602" lon="7.09132">
        <ele>463</ele>
        <time>2021-05-22T13:40:45Z</time>
      </trkpt>
      <trkpt lat="48.02599" lon="7.0919">
        <ele>462</ele>
        <time>2021-05-22T13:40:49Z</time>
      </trkpt>
      <trkpt lat="48.02598" lon="7.09206">
        <ele>461.60000610352</ele>
        <time>2021-05-22T13:40:50Z</time>
      </trkpt>
      <trkpt lat="48.02595" lon="7.09252">
        <ele>460.79998779297</ele>
        <time>2021-05-22T13:40:53Z</time>
      </trkpt>
      <trkpt lat="48.02594" lon="7.09284">
        <ele>459</ele>
        <time>2021-05-22T13:40:56Z</time>
      </trkpt>
      <trkpt lat="48.0259" lon="7.09333">
        <ele>457.79998779297</ele>
        <time>2021-05-22T13:40:58Z</time>
      </trkpt>
      <trkpt lat="48.02589" lon="7.09349">
        <ele>457.39999389648</ele>
        <time>2021-05-22T13:40:59Z</time>
      </trkpt>
      <trkpt lat="48.02589" lon="7.09365">
        <ele>456.79998779297</ele>
        <time>2021-05-22T13:41:00Z</time>
      </trkpt>
      <trkpt lat="48.02586" lon="7.09414">
        <ele>455.20001220703</ele>
        <time>2021-05-22T13:41:03Z</time>
      </trkpt>
      <trkpt lat="48.02585" lon="7.09478">
        <ele>454</ele>
        <time>2021-05-22T13:41:07Z</time>
      </trkpt>
      <trkpt lat="48.02588" lon="7.0951">
        <ele>453.39999389648</ele>
        <time>2021-05-22T13:41:09Z</time>
      </trkpt>
      <trkpt lat="48.02594" lon="7.0954">
        <ele>453</ele>
        <time>2021-05-22T13:41:11Z</time>
      </trkpt>
      <trkpt lat="48.02599" lon="7.09554">
        <ele>452.79998779297</ele>
        <time>2021-05-22T13:41:12Z</time>
      </trkpt>
      <trkpt lat="48.02618" lon="7.0961">
        <ele>451.79998779297</ele>
        <time>2021-05-22T13:41:16Z</time>
      </trkpt>
      <trkpt lat="48.02628" lon="7.09636">
        <ele>451.60000610352</ele>
        <time>2021-05-22T13:41:18Z</time>
      </trkpt>
      <trkpt lat="48.0265" lon="7.09704">
        <ele>450.39999389648</ele>
        <time>2021-05-22T13:41:23Z</time>
      </trkpt>
      <trkpt lat="48.02653" lon="7.09719">
        <ele>450.39999389648</ele>
        <time>2021-05-22T13:41:24Z</time>
      </trkpt>
      <trkpt lat="48.02662" lon="7.09778">
        <ele>449.39999389648</ele>
        <time>2021-05-22T13:41:28Z</time>
      </trkpt>
      <trkpt lat="48.02667" lon="7.09809">
        <ele>448.79998779297</ele>
        <time>2021-05-22T13:41:30Z</time>
      </trkpt>
      <trkpt lat="48.02676" lon="7.09868">
        <ele>448.20001220703</ele>
        <time>2021-05-22T13:41:34Z</time>
      </trkpt>
      <trkpt lat="48.02683" lon="7.09909">
        <ele>448</ele>
        <time>2021-05-22T13:41:37Z</time>
      </trkpt>
      <trkpt lat="48.02693" lon="7.09974">
        <ele>448.60000610352</ele>
        <time>2021-05-22T13:41:42Z</time>
      </trkpt>
      <trkpt lat="48.02696" lon="7.09986">
        <ele>448.60000610352</ele>
        <time>2021-05-22T13:41:43Z</time>
      </trkpt>
      <trkpt lat="48.02703" lon="7.1001">
        <ele>448.60000610352</ele>
        <time>2021-05-22T13:41:45Z</time>
      </trkpt>
      <trkpt lat="48.02713" lon="7.10032">
        <ele>448.60000610352</ele>
        <time>2021-05-22T13:41:47Z</time>
      </trkpt>
      <trkpt lat="48.02748" lon="7.1011">
        <ele>447.79998779297</ele>
        <time>2021-05-22T13:41:54Z</time>
      </trkpt>
      <trkpt lat="48.02764" lon="7.10147">
        <ele>447</ele>
        <time>2021-05-22T13:41:57Z</time>
      </trkpt>
      <trkpt lat="48.02773" lon="7.10175">
        <ele>446.20001220703</ele>
        <time>2021-05-22T13:41:59Z</time>
      </trkpt>
      <trkpt lat="48.02777" lon="7.1019">
        <ele>445.79998779297</ele>
        <time>2021-05-22T13:42:00Z</time>
      </trkpt>
      <trkpt lat="48.02787" lon="7.10237">
        <ele>444.39999389648</ele>
        <time>2021-05-22T13:42:03Z</time>
      </trkpt>
      <trkpt lat="48.02797" lon="7.10268">
        <ele>443.39999389648</ele>
        <time>2021-05-22T13:42:05Z</time>
      </trkpt>
      <trkpt lat="48.02801" lon="7.1028">
        <ele>443</ele>
        <time>2021-05-22T13:42:06Z</time>
      </trkpt>
      <trkpt lat="48.02809" lon="7.10296">
        <ele>441.79998779297</ele>
        <time>2021-05-22T13:42:07Z</time>
      </trkpt>
      <trkpt lat="48.02824" lon="7.10323">
        <ele>440.60000610352</ele>
        <time>2021-05-22T13:42:09Z</time>
      </trkpt>
      <trkpt lat="48.02852" lon="7.10373">
        <ele>439.60000610352</ele>
        <time>2021-05-22T13:42:13Z</time>
      </trkpt>
      <trkpt lat="48.02885" lon="7.10434">
        <ele>439.20001220703</ele>
        <time>2021-05-22T13:42:18Z</time>
      </trkpt>
      <trkpt lat="48.02923" lon="7.10506">
        <ele>438.60000610352</ele>
        <time>2021-05-22T13:42:24Z</time>
      </trkpt>
      <trkpt lat="48.02929" lon="7.10517">
        <ele>438.60000610352</ele>
        <time>2021-05-22T13:42:25Z</time>
      </trkpt>
      <trkpt lat="48.02942" lon="7.1054">
        <ele>438.39999389648</ele>
        <time>2021-05-22T13:42:27Z</time>
      </trkpt>
      <trkpt lat="48.02981" lon="7.10608">
        <ele>438</ele>
        <time>2021-05-22T13:42:33Z</time>
      </trkpt>
      <trkpt lat="48.02996" lon="7.10631">
        <ele>437.60000610352</ele>
        <time>2021-05-22T13:42:35Z</time>
      </trkpt>
      <trkpt lat="48.03011" lon="7.10654">
        <ele>437.20001220703</ele>
        <time>2021-05-22T13:42:37Z</time>
      </trkpt>
      <trkpt lat="48.0304" lon="7.10701">
        <ele>436.20001220703</ele>
        <time>2021-05-22T13:42:41Z</time>
      </trkpt>
      <trkpt lat="48.03061" lon="7.10739">
        <ele>435</ele>
        <time>2021-05-22T13:42:44Z</time>
      </trkpt>
      <trkpt lat="48.03079" lon="7.10781">
        <ele>434.60000610352</ele>
        <time>2021-05-22T13:42:47Z</time>
      </trkpt>
      <trkpt lat="48.03092" lon="7.1081">
        <ele>434</ele>
        <time>2021-05-22T13:42:49Z</time>
      </trkpt>
      <trkpt lat="48.03112" lon="7.10852">
        <ele>432.79998779297</ele>
        <time>2021-05-22T13:42:52Z</time>
      </trkpt>
      <trkpt lat="48.03127" lon="7.10879">
        <ele>431.79998779297</ele>
        <time>2021-05-22T13:42:54Z</time>
      </trkpt>
      <trkpt lat="48.03135" lon="7.10891">
        <ele>431.20001220703</ele>
        <time>2021-05-22T13:42:55Z</time>
      </trkpt>
      <trkpt lat="48.03151" lon="7.10913">
        <ele>430.60000610352</ele>
        <time>2021-05-22T13:42:57Z</time>
      </trkpt>
      <trkpt lat="48.03168" lon="7.10933">
        <ele>430.20001220703</ele>
        <time>2021-05-22T13:42:59Z</time>
      </trkpt>
      <trkpt lat="48.03177" lon="7.10943">
        <ele>430</ele>
        <time>2021-05-22T13:43:00Z</time>
      </trkpt>
      <trkpt lat="48.03208" lon="7.10973">
        <ele>429.79998779297</ele>
        <time>2021-05-22T13:43:04Z</time>
      </trkpt>
      <trkpt lat="48.03247" lon="7.11008">
        <ele>429.79998779297</ele>
        <time>2021-05-22T13:43:09Z</time>
      </trkpt>
      <trkpt lat="48.03254" lon="7.11017">
        <ele>429.79998779297</ele>
        <time>2021-05-22T13:43:10Z</time>
      </trkpt>
      <trkpt lat="48.0326" lon="7.11026">
        <ele>429.60000610352</ele>
        <time>2021-05-22T13:43:11Z</time>
      </trkpt>
      <trkpt lat="48.03269" lon="7.11049">
        <ele>429.60000610352</ele>
        <time>2021-05-22T13:43:13Z</time>
      </trkpt>
      <trkpt lat="48.03298" lon="7.11122">
        <ele>429.20001220703</ele>
        <time>2021-05-22T13:43:19Z</time>
      </trkpt>
      <trkpt lat="48.03304" lon="7.11133">
        <ele>429</ele>
        <time>2021-05-22T13:43:20Z</time>
      </trkpt>
      <trkpt lat="48.03317" lon="7.11156">
        <ele>427.79998779297</ele>
        <time>2021-05-22T13:43:22Z</time>
      </trkpt>
      <trkpt lat="48.03337" lon="7.11192">
        <ele>426.60000610352</ele>
        <time>2021-05-22T13:43:25Z</time>
      </trkpt>
      <trkpt lat="48.03349" lon="7.11218">
        <ele>426.20001220703</ele>
        <time>2021-05-22T13:43:27Z</time>
      </trkpt>
      <trkpt lat="48.03355" lon="7.11232">
        <ele>425.39999389648</ele>
        <time>2021-05-22T13:43:28Z</time>
      </trkpt>
      <trkpt lat="48.03371" lon="7.11277">
        <ele>424.20001220703</ele>
        <time>2021-05-22T13:43:31Z</time>
      </trkpt>
      <trkpt lat="48.03376" lon="7.11292">
        <ele>423.60000610352</ele>
        <time>2021-05-22T13:43:32Z</time>
      </trkpt>
      <trkpt lat="48.0338" lon="7.11308">
        <ele>423.20001220703</ele>
        <time>2021-05-22T13:43:33Z</time>
      </trkpt>
      <trkpt lat="48.03394" lon="7.11353">
        <ele>421.79998779297</ele>
        <time>2021-05-22T13:43:36Z</time>
      </trkpt>
      <trkpt lat="48.03398" lon="7.11369">
        <ele>420.79998779297</ele>
        <time>2021-05-22T13:43:37Z</time>
      </trkpt>
      <trkpt lat="48.03414" lon="7.11428">
        <ele>419.39999389648</ele>
        <time>2021-05-22T13:43:41Z</time>
      </trkpt>
      <trkpt lat="48.03432" lon="7.11515">
        <ele>418.39999389648</ele>
        <time>2021-05-22T13:43:47Z</time>
      </trkpt>
      <trkpt lat="48.0346" lon="7.11601">
        <ele>417.79998779297</ele>
        <time>2021-05-22T13:43:53Z</time>
      </trkpt>
      <trkpt lat="48.03486" lon="7.11672">
        <ele>417.20001220703</ele>
        <time>2021-05-22T13:43:58Z</time>
      </trkpt>
      <trkpt lat="48.03491" lon="7.11686">
        <ele>417</ele>
        <time>2021-05-22T13:43:59Z</time>
      </trkpt>
      <trkpt lat="48.03507" lon="7.11727">
        <ele>416.79998779297</ele>
        <time>2021-05-22T13:44:02Z</time>
      </trkpt>
      <trkpt lat="48.03537" lon="7.11807">
        <ele>416.79998779297</ele>
        <time>2021-05-22T13:44:08Z</time>
      </trkpt>
      <trkpt lat="48.03543" lon="7.11819">
        <ele>416.79998779297</ele>
        <time>2021-05-22T13:44:09Z</time>
      </trkpt>
      <trkpt lat="48.0357" lon="7.11865">
        <ele>416.20001220703</ele>
        <time>2021-05-22T13:44:13Z</time>
      </trkpt>
      <trkpt lat="48.03578" lon="7.11875">
        <ele>415.79998779297</ele>
        <time>2021-05-22T13:44:14Z</time>
      </trkpt>
      <trkpt lat="48.03624" lon="7.11937">
        <ele>415</ele>
        <time>2021-05-22T13:44:20Z</time>
      </trkpt>
      <trkpt lat="48.03645" lon="7.1197">
        <ele>414.39999389648</ele>
        <time>2021-05-22T13:44:23Z</time>
      </trkpt>
      <trkpt lat="48.03657" lon="7.11993">
        <ele>414</ele>
        <time>2021-05-22T13:44:25Z</time>
      </trkpt>
      <trkpt lat="48.03675" lon="7.12032">
        <ele>413.79998779297</ele>
        <time>2021-05-22T13:44:28Z</time>
      </trkpt>
      <trkpt lat="48.03698" lon="7.12106">
        <ele>413</ele>
        <time>2021-05-22T13:44:33Z</time>
      </trkpt>
      <trkpt lat="48.03712" lon="7.12164">
        <ele>411.60000610352</ele>
        <time>2021-05-22T13:44:37Z</time>
      </trkpt>
      <trkpt lat="48.03724" lon="7.12224">
        <ele>410</ele>
        <time>2021-05-22T13:44:41Z</time>
      </trkpt>
      <trkpt lat="48.03727" lon="7.12239">
        <ele>409</ele>
        <time>2021-05-22T13:44:42Z</time>
      </trkpt>
      <trkpt lat="48.03731" lon="7.12254">
        <ele>408.79998779297</ele>
        <time>2021-05-22T13:44:43Z</time>
      </trkpt>
      <trkpt lat="48.03741" lon="7.123">
        <ele>407.39999389648</ele>
        <time>2021-05-22T13:44:46Z</time>
      </trkpt>
      <trkpt lat="48.03755" lon="7.12363">
        <ele>406.60000610352</ele>
        <time>2021-05-22T13:44:50Z</time>
      </trkpt>
      <trkpt lat="48.03757" lon="7.12375">
        <ele>406.39999389648</ele>
        <time>2021-05-22T13:44:51Z</time>
      </trkpt>
      <trkpt lat="48.03776" lon="7.12449">
        <ele>405.79998779297</ele>
        <time>2021-05-22T13:44:56Z</time>
      </trkpt>
      <trkpt lat="48.03786" lon="7.12475">
        <ele>405</ele>
        <time>2021-05-22T13:44:58Z</time>
      </trkpt>
      <trkpt lat="48.03799" lon="7.125">
        <ele>404.60000610352</ele>
        <time>2021-05-22T13:45:00Z</time>
      </trkpt>
      <trkpt lat="48.03813" lon="7.12523">
        <ele>404</ele>
        <time>2021-05-22T13:45:02Z</time>
      </trkpt>
      <trkpt lat="48.03844" lon="7.12575">
        <ele>403.39999389648</ele>
        <time>2021-05-22T13:45:06Z</time>
      </trkpt>
      <trkpt lat="48.03861" lon="7.12612">
        <ele>402.79998779297</ele>
        <time>2021-05-22T13:45:09Z</time>
      </trkpt>
      <trkpt lat="48.03879" lon="7.12651">
        <ele>401.79998779297</ele>
        <time>2021-05-22T13:45:12Z</time>
      </trkpt>
      <trkpt lat="48.03885" lon="7.12663">
        <ele>401.60000610352</ele>
        <time>2021-05-22T13:45:13Z</time>
      </trkpt>
      <trkpt lat="48.03916" lon="7.12722">
        <ele>400.79998779297</ele>
        <time>2021-05-22T13:45:18Z</time>
      </trkpt>
      <trkpt lat="48.03922" lon="7.12733">
        <ele>400.20001220703</ele>
        <time>2021-05-22T13:45:19Z</time>
      </trkpt>
      <trkpt lat="48.03933" lon="7.12757">
        <ele>399.60000610352</ele>
        <time>2021-05-22T13:45:21Z</time>
      </trkpt>
      <trkpt lat="48.03947" lon="7.12786">
        <ele>399.20001220703</ele>
        <time>2021-05-22T13:45:24Z</time>
      </trkpt>
      <trkpt lat="48.03962" lon="7.12828">
        <ele>399.39999389648</ele>
        <time>2021-05-22T13:45:29Z</time>
      </trkpt>
      <trkpt lat="48.03968" lon="7.12849">
        <ele>399.79998779297</ele>
        <time>2021-05-22T13:45:32Z</time>
      </trkpt>
      <trkpt lat="48.0397" lon="7.12862">
        <ele>400</ele>
        <time>2021-05-22T13:45:34Z</time>
      </trkpt>
      <trkpt lat="48.03973" lon="7.12874">
        <ele>400</ele>
        <time>2021-05-22T13:45:36Z</time>
      </trkpt>
      <trkpt lat="48.03976" lon="7.12877">
        <ele>400</ele>
        <time>2021-05-22T13:45:37Z</time>
      </trkpt>
      <trkpt lat="48.03979" lon="7.12877">
        <ele>400</ele>
        <time>2021-05-22T13:45:38Z</time>
      </trkpt>
      <trkpt lat="48.03984" lon="7.12873">
        <ele>400.20001220703</ele>
        <time>2021-05-22T13:45:40Z</time>
      </trkpt>
      <trkpt lat="48.03996" lon="7.12861">
        <ele>400.60000610352</ele>
        <time>2021-05-22T13:45:45Z</time>
      </trkpt>
      <trkpt lat="48.03998" lon="7.12859">
        <ele>400.79998779297</ele>
        <time>2021-05-22T13:45:46Z</time>
      </trkpt>
      <trkpt lat="48.04004" lon="7.12861">
        <ele>401.39999389648</ele>
        <time>2021-05-22T13:45:49Z</time>
      </trkpt>
      <trkpt lat="48.04006" lon="7.12863">
        <ele>401.60000610352</ele>
        <time>2021-05-22T13:45:50Z</time>
      </trkpt>
      <trkpt lat="48.04007" lon="7.12868">
        <ele>401.79998779297</ele>
        <time>2021-05-22T13:45:52Z</time>
      </trkpt>
      <trkpt lat="48.04007" lon="7.12871">
        <ele>402</ele>
        <time>2021-05-22T13:45:53Z</time>
      </trkpt>
      <trkpt lat="48.04007" lon="7.12874">
        <ele>402.60000610352</ele>
        <time>2021-05-22T13:45:56Z</time>
      </trkpt>
      <trkpt lat="48.04008" lon="7.12879">
        <ele>402.60000610352</ele>
        <time>2021-05-22T13:46:52Z</time>
      </trkpt>
      <trkpt lat="48.04008" lon="7.12897">
        <ele>402.60000610352</ele>
        <time>2021-05-22T13:46:57Z</time>
      </trkpt>
      <trkpt lat="48.04006" lon="7.12917">
        <ele>402.79998779297</ele>
        <time>2021-05-22T13:47:02Z</time>
      </trkpt>
      <trkpt lat="48.0401" lon="7.1293">
        <ele>402.79998779297</ele>
        <time>2021-05-22T13:47:05Z</time>
      </trkpt>
      <trkpt lat="48.04017" lon="7.12946">
        <ele>403.20001220703</ele>
        <time>2021-05-22T13:47:09Z</time>
      </trkpt>
      <trkpt lat="48.04028" lon="7.12966">
        <ele>404</ele>
        <time>2021-05-22T13:47:14Z</time>
      </trkpt>
      <trkpt lat="48.04031" lon="7.1297">
        <ele>404.20001220703</ele>
        <time>2021-05-22T13:47:15Z</time>
      </trkpt>
      <trkpt lat="48.0405" lon="7.12985">
        <ele>405</ele>
        <time>2021-05-22T13:47:21Z</time>
      </trkpt>
      <trkpt lat="48.04053" lon="7.12987">
        <ele>405.20001220703</ele>
        <time>2021-05-22T13:47:22Z</time>
      </trkpt>
      <trkpt lat="48.04059" lon="7.12987">
        <ele>405.39999389648</ele>
        <time>2021-05-22T13:47:24Z</time>
      </trkpt>
      <trkpt lat="48.04066" lon="7.12985">
        <ele>405.60000610352</ele>
        <time>2021-05-22T13:47:26Z</time>
      </trkpt>
      <trkpt lat="48.04092" lon="7.12968">
        <ele>405.79998779297</ele>
        <time>2021-05-22T13:47:32Z</time>
      </trkpt>
      <trkpt lat="48.04099" lon="7.12962">
        <ele>405.20001220703</ele>
        <time>2021-05-22T13:47:35Z</time>
      </trkpt>
      <trkpt lat="48.041" lon="7.12961">
        <ele>405.20001220703</ele>
        <time>2021-05-22T13:47:36Z</time>
      </trkpt>
      <trkpt lat="48.041" lon="7.12961">
        <ele>405</ele>
        <time>2021-05-22T13:47:37Z</time>
      </trkpt>
      <trkpt lat="48.04105" lon="7.12959">
        <ele>404.39999389648</ele>
        <time>2021-05-22T13:47:42Z</time>
      </trkpt>
      <trkpt lat="48.0411" lon="7.12962">
        <ele>404.20001220703</ele>
        <time>2021-05-22T13:47:44Z</time>
      </trkpt>
      <trkpt lat="48.04113" lon="7.12965">
        <ele>403.79998779297</ele>
        <time>2021-05-22T13:47:45Z</time>
      </trkpt>
      <trkpt lat="48.04126" lon="7.12981">
        <ele>403.39999389648</ele>
        <time>2021-05-22T13:47:50Z</time>
      </trkpt>
      <trkpt lat="48.04137" lon="7.13001">
        <ele>402.79998779297</ele>
        <time>2021-05-22T13:47:54Z</time>
      </trkpt>
      <trkpt lat="48.04141" lon="7.13008">
        <ele>402.79998779297</ele>
        <time>2021-05-22T13:47:55Z</time>
      </trkpt>
      <trkpt lat="48.04152" lon="7.13029">
        <ele>402.20001220703</ele>
        <time>2021-05-22T13:47:58Z</time>
      </trkpt>
      <trkpt lat="48.04156" lon="7.13038">
        <ele>401.39999389648</ele>
        <time>2021-05-22T13:47:59Z</time>
      </trkpt>
      <trkpt lat="48.0416" lon="7.13048">
        <ele>400.79998779297</ele>
        <time>2021-05-22T13:48:00Z</time>
      </trkpt>
      <trkpt lat="48.04164" lon="7.13057">
        <ele>400.39999389648</ele>
        <time>2021-05-22T13:48:01Z</time>
      </trkpt>
      <trkpt lat="48.04171" lon="7.13078">
        <ele>399.60000610352</ele>
        <time>2021-05-22T13:48:03Z</time>
      </trkpt>
      <trkpt lat="48.04177" lon="7.131">
        <ele>399</ele>
        <time>2021-05-22T13:48:05Z</time>
      </trkpt>
      <trkpt lat="48.0418" lon="7.1311">
        <ele>398.79998779297</ele>
        <time>2021-05-22T13:48:06Z</time>
      </trkpt>
      <trkpt lat="48.0419" lon="7.13138">
        <ele>397.60000610352</ele>
        <time>2021-05-22T13:48:10Z</time>
      </trkpt>
      <trkpt lat="48.0419" lon="7.1314">
        <ele>397</ele>
        <time>2021-05-22T13:48:13Z</time>
      </trkpt>
      <trkpt lat="48.0419" lon="7.1314">
        <ele>396.79998779297</ele>
        <time>2021-05-22T13:48:15Z</time>
      </trkpt>
      <trkpt lat="48.04195" lon="7.13145">
        <ele>396.20001220703</ele>
        <time>2021-05-22T13:48:21Z</time>
      </trkpt>
      <trkpt lat="48.04198" lon="7.13146">
        <ele>396.20001220703</ele>
        <time>2021-05-22T13:48:22Z</time>
      </trkpt>
      <trkpt lat="48.04204" lon="7.13135">
        <ele>396</ele>
        <time>2021-05-22T13:48:25Z</time>
      </trkpt>
      <trkpt lat="48.04216" lon="7.131">
        <ele>395.79998779297</ele>
        <time>2021-05-22T13:48:32Z</time>
      </trkpt>
      <trkpt lat="48.04227" lon="7.13072">
        <ele>396.39999389648</ele>
        <time>2021-05-22T13:48:37Z</time>
      </trkpt>
      <trkpt lat="48.04234" lon="7.13052">
        <ele>397.20001220703</ele>
        <time>2021-05-22T13:48:40Z</time>
      </trkpt>
      <trkpt lat="48.04243" lon="7.13026">
        <ele>397.79998779297</ele>
        <time>2021-05-22T13:48:44Z</time>
      </trkpt>
      <trkpt lat="48.04247" lon="7.13013">
        <ele>398.20001220703</ele>
        <time>2021-05-22T13:48:46Z</time>
      </trkpt>
      <trkpt lat="48.04251" lon="7.12999">
        <ele>398.60000610352</ele>
        <time>2021-05-22T13:48:48Z</time>
      </trkpt>
      <trkpt lat="48.04258" lon="7.12978">
        <ele>399.20001220703</ele>
        <time>2021-05-22T13:48:51Z</time>
      </trkpt>
      <trkpt lat="48.0426" lon="7.12971">
        <ele>399.39999389648</ele>
        <time>2021-05-22T13:48:52Z</time>
      </trkpt>
      <trkpt lat="48.04264" lon="7.12955">
        <ele>400</ele>
        <time>2021-05-22T13:48:54Z</time>
      </trkpt>
      <trkpt lat="48.04271" lon="7.12934">
        <ele>400.39999389648</ele>
        <time>2021-05-22T13:48:57Z</time>
      </trkpt>
      <trkpt lat="48.04279" lon="7.12906">
        <ele>400.39999389648</ele>
        <time>2021-05-22T13:49:01Z</time>
      </trkpt>
      <trkpt lat="48.04286" lon="7.12888">
        <ele>401</ele>
        <time>2021-05-22T13:49:04Z</time>
      </trkpt>
      <trkpt lat="48.04297" lon="7.12864">
        <ele>401.60000610352</ele>
        <time>2021-05-22T13:49:08Z</time>
      </trkpt>
      <trkpt lat="48.04307" lon="7.12847">
        <ele>401.60000610352</ele>
        <time>2021-05-22T13:49:11Z</time>
      </trkpt>
      <trkpt lat="48.04339" lon="7.128">
        <ele>402.79998779297</ele>
        <time>2021-05-22T13:49:20Z</time>
      </trkpt>
      <trkpt lat="48.04366" lon="7.12765">
        <ele>403.39999389648</ele>
        <time>2021-05-22T13:49:28Z</time>
      </trkpt>
      <trkpt lat="48.0438" lon="7.12747">
        <ele>403.79998779297</ele>
        <time>2021-05-22T13:49:32Z</time>
      </trkpt>
      <trkpt lat="48.04396" lon="7.12723">
        <ele>404.20001220703</ele>
        <time>2021-05-22T13:49:37Z</time>
      </trkpt>
      <trkpt lat="48.0442" lon="7.1269">
        <ele>404.20001220703</ele>
        <time>2021-05-22T13:49:44Z</time>
      </trkpt>
      <trkpt lat="48.04441" lon="7.12649">
        <ele>404.60000610352</ele>
        <time>2021-05-22T13:49:51Z</time>
      </trkpt>
      <trkpt lat="48.04444" lon="7.12643">
        <ele>404.79998779297</ele>
        <time>2021-05-22T13:49:52Z</time>
      </trkpt>
      <trkpt lat="48.04455" lon="7.1262">
        <ele>405.20001220703</ele>
        <time>2021-05-22T13:49:56Z</time>
      </trkpt>
      <trkpt lat="48.04472" lon="7.12578">
        <ele>405.60000610352</ele>
        <time>2021-05-22T13:50:03Z</time>
      </trkpt>
      <trkpt lat="48.04474" lon="7.12572">
        <ele>405.79998779297</ele>
        <time>2021-05-22T13:50:04Z</time>
      </trkpt>
      <trkpt lat="48.04479" lon="7.1256">
        <ele>405.79998779297</ele>
        <time>2021-05-22T13:50:06Z</time>
      </trkpt>
      <trkpt lat="48.04499" lon="7.12511">
        <ele>406.20001220703</ele>
        <time>2021-05-22T13:50:14Z</time>
      </trkpt>
      <trkpt lat="48.04503" lon="7.12498">
        <ele>406.39999389648</ele>
        <time>2021-05-22T13:50:16Z</time>
      </trkpt>
      <trkpt lat="48.04507" lon="7.12486">
        <ele>407</ele>
        <time>2021-05-22T13:50:18Z</time>
      </trkpt>
      <trkpt lat="48.04511" lon="7.12474">
        <ele>407.39999389648</ele>
        <time>2021-05-22T13:50:20Z</time>
      </trkpt>
      <trkpt lat="48.04519" lon="7.12452">
        <ele>408.20001220703</ele>
        <time>2021-05-22T13:50:24Z</time>
      </trkpt>
      <trkpt lat="48.04526" lon="7.12435">
        <ele>409.39999389648</ele>
        <time>2021-05-22T13:50:27Z</time>
      </trkpt>
      <trkpt lat="48.04529" lon="7.1243">
        <ele>409.60000610352</ele>
        <time>2021-05-22T13:50:28Z</time>
      </trkpt>
      <trkpt lat="48.04539" lon="7.12406">
        <ele>410.20001220703</ele>
        <time>2021-05-22T13:50:32Z</time>
      </trkpt>
      <trkpt lat="48.04545" lon="7.12395">
        <ele>410.60000610352</ele>
        <time>2021-05-22T13:50:34Z</time>
      </trkpt>
      <trkpt lat="48.04551" lon="7.12385">
        <ele>410.79998779297</ele>
        <time>2021-05-22T13:50:36Z</time>
      </trkpt>
      <trkpt lat="48.04574" lon="7.12347">
        <ele>411.60000610352</ele>
        <time>2021-05-22T13:50:43Z</time>
      </trkpt>
      <trkpt lat="48.04587" lon="7.12327">
        <ele>412</ele>
        <time>2021-05-22T13:50:47Z</time>
      </trkpt>
      <trkpt lat="48.04609" lon="7.1229">
        <ele>412.60000610352</ele>
        <time>2021-05-22T13:50:54Z</time>
      </trkpt>
      <trkpt lat="48.04622" lon="7.12269">
        <ele>413</ele>
        <time>2021-05-22T13:50:58Z</time>
      </trkpt>
      <trkpt lat="48.04642" lon="7.12237">
        <ele>413.79998779297</ele>
        <time>2021-05-22T13:51:04Z</time>
      </trkpt>
      <trkpt lat="48.04655" lon="7.12215">
        <ele>414</ele>
        <time>2021-05-22T13:51:08Z</time>
      </trkpt>
      <trkpt lat="48.04673" lon="7.12186">
        <ele>414.39999389648</ele>
        <time>2021-05-22T13:51:14Z</time>
      </trkpt>
      <trkpt lat="48.04676" lon="7.12181">
        <ele>414.60000610352</ele>
        <time>2021-05-22T13:51:15Z</time>
      </trkpt>
      <trkpt lat="48.04685" lon="7.12164">
        <ele>414.79998779297</ele>
        <time>2021-05-22T13:51:18Z</time>
      </trkpt>
      <trkpt lat="48.04704" lon="7.12132">
        <ele>415.39999389648</ele>
        <time>2021-05-22T13:51:24Z</time>
      </trkpt>
      <trkpt lat="48.04719" lon="7.12107">
        <ele>415.79998779297</ele>
        <time>2021-05-22T13:51:29Z</time>
      </trkpt>
      <trkpt lat="48.04729" lon="7.12086">
        <ele>416</ele>
        <time>2021-05-22T13:51:33Z</time>
      </trkpt>
      <trkpt lat="48.04748" lon="7.12032">
        <ele>417</ele>
        <time>2021-05-22T13:51:42Z</time>
      </trkpt>
      <trkpt lat="48.04763" lon="7.11987">
        <ele>418</ele>
        <time>2021-05-22T13:51:50Z</time>
      </trkpt>
      <trkpt lat="48.04766" lon="7.1198">
        <ele>418.20001220703</ele>
        <time>2021-05-22T13:51:51Z</time>
      </trkpt>
      <trkpt lat="48.04782" lon="7.1193">
        <ele>419</ele>
        <time>2021-05-22T13:52:00Z</time>
      </trkpt>
      <trkpt lat="48.04784" lon="7.11924">
        <ele>419.39999389648</ele>
        <time>2021-05-22T13:52:01Z</time>
      </trkpt>
      <trkpt lat="48.04788" lon="7.11913">
        <ele>419.60000610352</ele>
        <time>2021-05-22T13:52:03Z</time>
      </trkpt>
      <trkpt lat="48.04795" lon="7.11899">
        <ele>420.20001220703</ele>
        <time>2021-05-22T13:52:06Z</time>
      </trkpt>
      <trkpt lat="48.048" lon="7.11892">
        <ele>420.60000610352</ele>
        <time>2021-05-22T13:52:08Z</time>
      </trkpt>
      <trkpt lat="48.04801" lon="7.11888">
        <ele>420.79998779297</ele>
        <time>2021-05-22T13:52:10Z</time>
      </trkpt>
      <trkpt lat="48.04802" lon="7.11887">
        <ele>421.39999389648</ele>
        <time>2021-05-22T13:52:14Z</time>
      </trkpt>
      <trkpt lat="48.04801" lon="7.11892">
        <ele>421</ele>
        <time>2021-05-22T13:52:58Z</time>
      </trkpt>
      <trkpt lat="48.04804" lon="7.1191">
        <ele>421</ele>
        <time>2021-05-22T13:53:02Z</time>
      </trkpt>
      <trkpt lat="48.04805" lon="7.11923">
        <ele>420.79998779297</ele>
        <time>2021-05-22T13:53:06Z</time>
      </trkpt>
      <trkpt lat="48.04808" lon="7.11927">
        <ele>420.79998779297</ele>
        <time>2021-05-22T13:53:07Z</time>
      </trkpt>
      <trkpt lat="48.04817" lon="7.11932">
        <ele>420.79998779297</ele>
        <time>2021-05-22T13:53:09Z</time>
      </trkpt>
      <trkpt lat="48.04852" lon="7.11951">
        <ele>420.60000610352</ele>
        <time>2021-05-22T13:53:16Z</time>
      </trkpt>
      <trkpt lat="48.04893" lon="7.11973">
        <ele>421</ele>
        <time>2021-05-22T13:53:24Z</time>
      </trkpt>
      <trkpt lat="48.04902" lon="7.11977">
        <ele>421</ele>
        <time>2021-05-22T13:53:26Z</time>
      </trkpt>
      <trkpt lat="48.04913" lon="7.11984">
        <ele>421.39999389648</ele>
        <time>2021-05-22T13:53:29Z</time>
      </trkpt>
      <trkpt lat="48.0492" lon="7.11991">
        <ele>422</ele>
        <time>2021-05-22T13:53:32Z</time>
      </trkpt>
      <trkpt lat="48.04922" lon="7.11992">
        <ele>422.20001220703</ele>
        <time>2021-05-22T13:53:34Z</time>
      </trkpt>
      <trkpt lat="48.04922" lon="7.11992">
        <ele>422.60000610352</ele>
        <time>2021-05-22T13:53:36Z</time>
      </trkpt>
      <trkpt lat="48.04922" lon="7.11991">
        <ele>424.39999389648</ele>
        <time>2021-05-22T13:56:20Z</time>
      </trkpt>
      <trkpt lat="48.04912" lon="7.11977">
        <ele>424</ele>
        <time>2021-05-22T13:56:24Z</time>
      </trkpt>
      <trkpt lat="48.04884" lon="7.11962">
        <ele>423.20001220703</ele>
        <time>2021-05-22T13:56:29Z</time>
      </trkpt>
      <trkpt lat="48.04878" lon="7.11958">
        <ele>422.79998779297</ele>
        <time>2021-05-22T13:56:30Z</time>
      </trkpt>
      <trkpt lat="48.0486" lon="7.11949">
        <ele>421.60000610352</ele>
        <time>2021-05-22T13:56:33Z</time>
      </trkpt>
      <trkpt lat="48.04844" lon="7.1194">
        <ele>421.20001220703</ele>
        <time>2021-05-22T13:56:36Z</time>
      </trkpt>
      <trkpt lat="48.04812" lon="7.11918">
        <ele>420.60000610352</ele>
        <time>2021-05-22T13:56:42Z</time>
      </trkpt>
      <trkpt lat="48.04805" lon="7.11908">
        <ele>420.79998779297</ele>
        <time>2021-05-22T13:56:44Z</time>
      </trkpt>
      <trkpt lat="48.04799" lon="7.11894">
        <ele>421</ele>
        <time>2021-05-22T13:56:46Z</time>
      </trkpt>
      <trkpt lat="48.04801" lon="7.11877">
        <ele>421</ele>
        <time>2021-05-22T13:56:49Z</time>
      </trkpt>
      <trkpt lat="48.04812" lon="7.11843">
        <ele>421.20001220703</ele>
        <time>2021-05-22T13:56:54Z</time>
      </trkpt>
      <trkpt lat="48.0483" lon="7.11789">
        <ele>421.60000610352</ele>
        <time>2021-05-22T13:57:01Z</time>
      </trkpt>
      <trkpt lat="48.04848" lon="7.11737">
        <ele>422.79998779297</ele>
        <time>2021-05-22T13:57:08Z</time>
      </trkpt>
      <trkpt lat="48.0485" lon="7.11731">
        <ele>423</ele>
        <time>2021-05-22T13:57:09Z</time>
      </trkpt>
      <trkpt lat="48.04862" lon="7.11694">
        <ele>424</ele>
        <time>2021-05-22T13:57:14Z</time>
      </trkpt>
      <trkpt lat="48.04874" lon="7.11658">
        <ele>424.79998779297</ele>
        <time>2021-05-22T13:57:19Z</time>
      </trkpt>
      <trkpt lat="48.0488" lon="7.11635">
        <ele>425</ele>
        <time>2021-05-22T13:57:22Z</time>
      </trkpt>
      <trkpt lat="48.04888" lon="7.11598">
        <ele>426</ele>
        <time>2021-05-22T13:57:27Z</time>
      </trkpt>
      <trkpt lat="48.0489" lon="7.11592">
        <ele>426.60000610352</ele>
        <time>2021-05-22T13:57:28Z</time>
      </trkpt>
      <trkpt lat="48.04894" lon="7.11579">
        <ele>427.20001220703</ele>
        <time>2021-05-22T13:57:30Z</time>
      </trkpt>
      <trkpt lat="48.04905" lon="7.11546">
        <ele>428.20001220703</ele>
        <time>2021-05-22T13:57:35Z</time>
      </trkpt>
      <trkpt lat="48.04907" lon="7.11539">
        <ele>428.39999389648</ele>
        <time>2021-05-22T13:57:36Z</time>
      </trkpt>
      <trkpt lat="48.04919" lon="7.11505">
        <ele>428.60000610352</ele>
        <time>2021-05-22T13:57:41Z</time>
      </trkpt>
      <trkpt lat="48.04935" lon="7.11456">
        <ele>429.20001220703</ele>
        <time>2021-05-22T13:57:48Z</time>
      </trkpt>
      <trkpt lat="48.04941" lon="7.11434">
        <ele>430</ele>
        <time>2021-05-22T13:57:51Z</time>
      </trkpt>
      <trkpt lat="48.04944" lon="7.11427">
        <ele>430.39999389648</ele>
        <time>2021-05-22T13:57:52Z</time>
      </trkpt>
      <trkpt lat="48.04961" lon="7.11371">
        <ele>431.39999389648</ele>
        <time>2021-05-22T13:58:00Z</time>
      </trkpt>
      <trkpt lat="48.04964" lon="7.11364">
        <ele>431.60000610352</ele>
        <time>2021-05-22T13:58:01Z</time>
      </trkpt>
      <trkpt lat="48.04968" lon="7.11351">
        <ele>431.79998779297</ele>
        <time>2021-05-22T13:58:03Z</time>
      </trkpt>
      <trkpt lat="48.04973" lon="7.11329">
        <ele>432</ele>
        <time>2021-05-22T13:58:06Z</time>
      </trkpt>
      <trkpt lat="48.0498" lon="7.11302">
        <ele>432.79998779297</ele>
        <time>2021-05-22T13:58:10Z</time>
      </trkpt>
      <trkpt lat="48.04989" lon="7.11275">
        <ele>433.79998779297</ele>
        <time>2021-05-22T13:58:14Z</time>
      </trkpt>
      <trkpt lat="48.04991" lon="7.11268">
        <ele>433.79998779297</ele>
        <time>2021-05-22T13:58:15Z</time>
      </trkpt>
      <trkpt lat="48.05008" lon="7.11217">
        <ele>434.79998779297</ele>
        <time>2021-05-22T13:58:23Z</time>
      </trkpt>
      <trkpt lat="48.0501" lon="7.11211">
        <ele>435.39999389648</ele>
        <time>2021-05-22T13:58:24Z</time>
      </trkpt>
      <trkpt lat="48.05024" lon="7.11168">
        <ele>436.60000610352</ele>
        <time>2021-05-22T13:58:31Z</time>
      </trkpt>
      <trkpt lat="48.05026" lon="7.11162">
        <ele>436.60000610352</ele>
        <time>2021-05-22T13:58:32Z</time>
      </trkpt>
      <trkpt lat="48.05046" lon="7.11097">
        <ele>437.39999389648</ele>
        <time>2021-05-22T13:58:42Z</time>
      </trkpt>
      <trkpt lat="48.05048" lon="7.11091">
        <ele>437.79998779297</ele>
        <time>2021-05-22T13:58:43Z</time>
      </trkpt>
      <trkpt lat="48.05063" lon="7.11047">
        <ele>438.79998779297</ele>
        <time>2021-05-22T13:58:50Z</time>
      </trkpt>
      <trkpt lat="48.05065" lon="7.1104">
        <ele>438.79998779297</ele>
        <time>2021-05-22T13:58:51Z</time>
      </trkpt>
      <trkpt lat="48.05075" lon="7.11007">
        <ele>440</ele>
        <time>2021-05-22T13:58:57Z</time>
      </trkpt>
      <trkpt lat="48.05077" lon="7.11002">
        <ele>440</ele>
        <time>2021-05-22T13:58:58Z</time>
      </trkpt>
      <trkpt lat="48.05088" lon="7.10966">
        <ele>441.20001220703</ele>
        <time>2021-05-22T13:59:04Z</time>
      </trkpt>
      <trkpt lat="48.05096" lon="7.10942">
        <ele>441.60000610352</ele>
        <time>2021-05-22T13:59:08Z</time>
      </trkpt>
      <trkpt lat="48.05105" lon="7.10912">
        <ele>442.20001220703</ele>
        <time>2021-05-22T13:59:13Z</time>
      </trkpt>
      <trkpt lat="48.05113" lon="7.10888">
        <ele>442.79998779297</ele>
        <time>2021-05-22T13:59:17Z</time>
      </trkpt>
      <trkpt lat="48.05121" lon="7.10865">
        <ele>443.20001220703</ele>
        <time>2021-05-22T13:59:21Z</time>
      </trkpt>
      <trkpt lat="48.05132" lon="7.10835">
        <ele>444</ele>
        <time>2021-05-22T13:59:26Z</time>
      </trkpt>
      <trkpt lat="48.05142" lon="7.108">
        <ele>444.39999389648</ele>
        <time>2021-05-22T13:59:32Z</time>
      </trkpt>
      <trkpt lat="48.05148" lon="7.10783">
        <ele>445.39999389648</ele>
        <time>2021-05-22T13:59:35Z</time>
      </trkpt>
      <trkpt lat="48.05158" lon="7.10749">
        <ele>446.39999389648</ele>
        <time>2021-05-22T13:59:41Z</time>
      </trkpt>
      <trkpt lat="48.05165" lon="7.10726">
        <ele>447</ele>
        <time>2021-05-22T13:59:45Z</time>
      </trkpt>
      <trkpt lat="48.0518" lon="7.10681">
        <ele>447.60000610352</ele>
        <time>2021-05-22T13:59:53Z</time>
      </trkpt>
      <trkpt lat="48.05185" lon="7.10665">
        <ele>448.20001220703</ele>
        <time>2021-05-22T13:59:56Z</time>
      </trkpt>
      <trkpt lat="48.0519" lon="7.10648">
        <ele>448.39999389648</ele>
        <time>2021-05-22T13:59:59Z</time>
      </trkpt>
      <trkpt lat="48.05196" lon="7.10627">
        <ele>448.60000610352</ele>
        <time>2021-05-22T14:00:03Z</time>
      </trkpt>
      <trkpt lat="48.05198" lon="7.10622">
        <ele>448.79998779297</ele>
        <time>2021-05-22T14:00:04Z</time>
      </trkpt>
      <trkpt lat="48.05207" lon="7.10596">
        <ele>449.79998779297</ele>
        <time>2021-05-22T14:00:09Z</time>
      </trkpt>
      <trkpt lat="48.05216" lon="7.10569">
        <ele>451</ele>
        <time>2021-05-22T14:00:14Z</time>
      </trkpt>
      <trkpt lat="48.05226" lon="7.10533">
        <ele>451.79998779297</ele>
        <time>2021-05-22T14:00:21Z</time>
      </trkpt>
      <trkpt lat="48.05229" lon="7.10523">
        <ele>452.20001220703</ele>
        <time>2021-05-22T14:00:23Z</time>
      </trkpt>
      <trkpt lat="48.0524" lon="7.10485">
        <ele>453</ele>
        <time>2021-05-22T14:00:30Z</time>
      </trkpt>
      <trkpt lat="48.05248" lon="7.10462">
        <ele>453</ele>
        <time>2021-05-22T14:00:34Z</time>
      </trkpt>
      <trkpt lat="48.05255" lon="7.10445">
        <ele>453</ele>
        <time>2021-05-22T14:00:37Z</time>
      </trkpt>
      <trkpt lat="48.05257" lon="7.10437">
        <ele>453</ele>
        <time>2021-05-22T14:00:38Z</time>
      </trkpt>
      <trkpt lat="48.05264" lon="7.10416">
        <ele>452.79998779297</ele>
        <time>2021-05-22T14:00:41Z</time>
      </trkpt>
      <trkpt lat="48.05275" lon="7.10379">
        <ele>453.39999389648</ele>
        <time>2021-05-22T14:00:46Z</time>
      </trkpt>
      <trkpt lat="48.0528" lon="7.10364">
        <ele>454</ele>
        <time>2021-05-22T14:00:48Z</time>
      </trkpt>
      <trkpt lat="48.05287" lon="7.10343">
        <ele>454.60000610352</ele>
        <time>2021-05-22T14:00:51Z</time>
      </trkpt>
      <trkpt lat="48.05302" lon="7.10294">
        <ele>455.79998779297</ele>
        <time>2021-05-22T14:00:58Z</time>
      </trkpt>
      <trkpt lat="48.05311" lon="7.10265">
        <ele>457.20001220703</ele>
        <time>2021-05-22T14:01:03Z</time>
      </trkpt>
      <trkpt lat="48.05323" lon="7.10228">
        <ele>458.20001220703</ele>
        <time>2021-05-22T14:01:10Z</time>
      </trkpt>
      <trkpt lat="48.05325" lon="7.10223">
        <ele>458.20001220703</ele>
        <time>2021-05-22T14:01:11Z</time>
      </trkpt>
      <trkpt lat="48.05339" lon="7.10176">
        <ele>458.60000610352</ele>
        <time>2021-05-22T14:01:19Z</time>
      </trkpt>
      <trkpt lat="48.05353" lon="7.10136">
        <ele>459.20001220703</ele>
        <time>2021-05-22T14:01:26Z</time>
      </trkpt>
      <trkpt lat="48.05358" lon="7.10118">
        <ele>459.79998779297</ele>
        <time>2021-05-22T14:01:29Z</time>
      </trkpt>
      <trkpt lat="48.05362" lon="7.10106">
        <ele>460.39999389648</ele>
        <time>2021-05-22T14:01:31Z</time>
      </trkpt>
      <trkpt lat="48.05374" lon="7.10073">
        <ele>461.39999389648</ele>
        <time>2021-05-22T14:01:37Z</time>
      </trkpt>
      <trkpt lat="48.05377" lon="7.10069">
        <ele>461.60000610352</ele>
        <time>2021-05-22T14:01:38Z</time>
      </trkpt>
      <trkpt lat="48.05384" lon="7.10063">
        <ele>461.79998779297</ele>
        <time>2021-05-22T14:01:40Z</time>
      </trkpt>
      <trkpt lat="48.05393" lon="7.1006">
        <ele>462</ele>
        <time>2021-05-22T14:01:42Z</time>
      </trkpt>
      <trkpt lat="48.05402" lon="7.10061">
        <ele>462.60000610352</ele>
        <time>2021-05-22T14:01:44Z</time>
      </trkpt>
      <trkpt lat="48.05411" lon="7.10068">
        <ele>463.39999389648</ele>
        <time>2021-05-22T14:01:46Z</time>
      </trkpt>
      <trkpt lat="48.05415" lon="7.10073">
        <ele>463.79998779297</ele>
        <time>2021-05-22T14:01:47Z</time>
      </trkpt>
      <trkpt lat="48.05418" lon="7.10079">
        <ele>464</ele>
        <time>2021-05-22T14:01:48Z</time>
      </trkpt>
      <trkpt lat="48.05422" lon="7.10092">
        <ele>464.39999389648</ele>
        <time>2021-05-22T14:01:50Z</time>
      </trkpt>
      <trkpt lat="48.05423" lon="7.10101">
        <ele>464.79998779297</ele>
        <time>2021-05-22T14:01:51Z</time>
      </trkpt>
      <trkpt lat="48.05425" lon="7.10121">
        <ele>466.20001220703</ele>
        <time>2021-05-22T14:01:54Z</time>
      </trkpt>
      <trkpt lat="48.05427" lon="7.10142">
        <ele>467</ele>
        <time>2021-05-22T14:01:57Z</time>
      </trkpt>
      <trkpt lat="48.05428" lon="7.10149">
        <ele>467.39999389648</ele>
        <time>2021-05-22T14:01:58Z</time>
      </trkpt>
      <trkpt lat="48.05431" lon="7.10175">
        <ele>468.39999389648</ele>
        <time>2021-05-22T14:02:02Z</time>
      </trkpt>
      <trkpt lat="48.05433" lon="7.10186">
        <ele>468.79998779297</ele>
        <time>2021-05-22T14:02:04Z</time>
      </trkpt>
      <trkpt lat="48.05438" lon="7.10205">
        <ele>469.60000610352</ele>
        <time>2021-05-22T14:02:08Z</time>
      </trkpt>
      <trkpt lat="48.05439" lon="7.10211">
        <ele>469.79998779297</ele>
        <time>2021-05-22T14:02:09Z</time>
      </trkpt>
      <trkpt lat="48.05446" lon="7.10237">
        <ele>470.79998779297</ele>
        <time>2021-05-22T14:02:14Z</time>
      </trkpt>
      <trkpt lat="48.05449" lon="7.10248">
        <ele>471.20001220703</ele>
        <time>2021-05-22T14:02:16Z</time>
      </trkpt>
      <trkpt lat="48.05454" lon="7.10265">
        <ele>472</ele>
        <time>2021-05-22T14:02:19Z</time>
      </trkpt>
      <trkpt lat="48.05465" lon="7.10293">
        <ele>472.60000610352</ele>
        <time>2021-05-22T14:02:24Z</time>
      </trkpt>
      <trkpt lat="48.05474" lon="7.10314">
        <ele>473</ele>
        <time>2021-05-22T14:02:28Z</time>
      </trkpt>
      <trkpt lat="48.05477" lon="7.10319">
        <ele>473.20001220703</ele>
        <time>2021-05-22T14:02:29Z</time>
      </trkpt>
      <trkpt lat="48.05479" lon="7.10323">
        <ele>473.39999389648</ele>
        <time>2021-05-22T14:02:30Z</time>
      </trkpt>
      <trkpt lat="48.05486" lon="7.10332">
        <ele>473.79998779297</ele>
        <time>2021-05-22T14:02:32Z</time>
      </trkpt>
      <trkpt lat="48.05496" lon="7.10343">
        <ele>474.39999389648</ele>
        <time>2021-05-22T14:02:35Z</time>
      </trkpt>
      <trkpt lat="48.05512" lon="7.10357">
        <ele>475.20001220703</ele>
        <time>2021-05-22T14:02:39Z</time>
      </trkpt>
      <trkpt lat="48.0553" lon="7.10366">
        <ele>475.60000610352</ele>
        <time>2021-05-22T14:02:43Z</time>
      </trkpt>
      <trkpt lat="48.05543" lon="7.10369">
        <ele>476.20001220703</ele>
        <time>2021-05-22T14:02:46Z</time>
      </trkpt>
      <trkpt lat="48.05547" lon="7.10369">
        <ele>476.39999389648</ele>
        <time>2021-05-22T14:02:47Z</time>
      </trkpt>
      <trkpt lat="48.05559" lon="7.10366">
        <ele>476.79998779297</ele>
        <time>2021-05-22T14:02:50Z</time>
      </trkpt>
      <trkpt lat="48.05568" lon="7.10363">
        <ele>477.39999389648</ele>
        <time>2021-05-22T14:02:52Z</time>
      </trkpt>
      <trkpt lat="48.05577" lon="7.10358">
        <ele>477.60000610352</ele>
        <time>2021-05-22T14:02:54Z</time>
      </trkpt>
      <trkpt lat="48.05585" lon="7.10354">
        <ele>477.79998779297</ele>
        <time>2021-05-22T14:02:56Z</time>
      </trkpt>
      <trkpt lat="48.05588" lon="7.10353">
        <ele>478</ele>
        <time>2021-05-22T14:02:57Z</time>
      </trkpt>
      <trkpt lat="48.05593" lon="7.10351">
        <ele>478.39999389648</ele>
        <time>2021-05-22T14:02:58Z</time>
      </trkpt>
      <trkpt lat="48.05597" lon="7.10349">
        <ele>478.39999389648</ele>
        <time>2021-05-22T14:02:59Z</time>
      </trkpt>
      <trkpt lat="48.05628" lon="7.10333">
        <ele>479.20001220703</ele>
        <time>2021-05-22T14:03:06Z</time>
      </trkpt>
      <trkpt lat="48.05633" lon="7.1033">
        <ele>479.39999389648</ele>
        <time>2021-05-22T14:03:07Z</time>
      </trkpt>
      <trkpt lat="48.05649" lon="7.10322">
        <ele>480.20001220703</ele>
        <time>2021-05-22T14:03:10Z</time>
      </trkpt>
      <trkpt lat="48.05654" lon="7.10319">
        <ele>480.39999389648</ele>
        <time>2021-05-22T14:03:11Z</time>
      </trkpt>
      <trkpt lat="48.05672" lon="7.1031">
        <ele>481</ele>
        <time>2021-05-22T14:03:15Z</time>
      </trkpt>
      <trkpt lat="48.05686" lon="7.10303">
        <ele>481.39999389648</ele>
        <time>2021-05-22T14:03:18Z</time>
      </trkpt>
      <trkpt lat="48.05704" lon="7.10293">
        <ele>482.39999389648</ele>
        <time>2021-05-22T14:03:22Z</time>
      </trkpt>
      <trkpt lat="48.05718" lon="7.10285">
        <ele>483</ele>
        <time>2021-05-22T14:03:25Z</time>
      </trkpt>
      <trkpt lat="48.05734" lon="7.10277">
        <ele>483.39999389648</ele>
        <time>2021-05-22T14:03:29Z</time>
      </trkpt>
      <trkpt lat="48.05743" lon="7.10272">
        <ele>484</ele>
        <time>2021-05-22T14:03:31Z</time>
      </trkpt>
      <trkpt lat="48.05755" lon="7.10264">
        <ele>484.60000610352</ele>
        <time>2021-05-22T14:03:34Z</time>
      </trkpt>
      <trkpt lat="48.05785" lon="7.10248">
        <ele>486</ele>
        <time>2021-05-22T14:03:41Z</time>
      </trkpt>
      <trkpt lat="48.05789" lon="7.10246">
        <ele>486</ele>
        <time>2021-05-22T14:03:42Z</time>
      </trkpt>
      <trkpt lat="48.05817" lon="7.10232">
        <ele>487</ele>
        <time>2021-05-22T14:03:48Z</time>
      </trkpt>
      <trkpt lat="48.05827" lon="7.10226">
        <ele>487.20001220703</ele>
        <time>2021-05-22T14:03:50Z</time>
      </trkpt>
      <trkpt lat="48.05845" lon="7.10214">
        <ele>488.20001220703</ele>
        <time>2021-05-22T14:03:55Z</time>
      </trkpt>
      <trkpt lat="48.05868" lon="7.102">
        <ele>489.20001220703</ele>
        <time>2021-05-22T14:03:59Z</time>
      </trkpt>
      <trkpt lat="48.05893" lon="7.10184">
        <ele>490.20001220703</ele>
        <time>2021-05-22T14:04:05Z</time>
      </trkpt>
      <trkpt lat="48.05906" lon="7.10175">
        <ele>491.60000610352</ele>
        <time>2021-05-22T14:04:08Z</time>
      </trkpt>
      <trkpt lat="48.05914" lon="7.1017">
        <ele>492</ele>
        <time>2021-05-22T14:04:10Z</time>
      </trkpt>
      <trkpt lat="48.05928" lon="7.10163">
        <ele>492.79998779297</ele>
        <time>2021-05-22T14:04:13Z</time>
      </trkpt>
      <trkpt lat="48.05941" lon="7.1016">
        <ele>493.39999389648</ele>
        <time>2021-05-22T14:04:16Z</time>
      </trkpt>
      <trkpt lat="48.05946" lon="7.1016">
        <ele>493.79998779297</ele>
        <time>2021-05-22T14:04:17Z</time>
      </trkpt>
      <trkpt lat="48.05963" lon="7.10162">
        <ele>494.79998779297</ele>
        <time>2021-05-22T14:04:21Z</time>
      </trkpt>
      <trkpt lat="48.05975" lon="7.10166">
        <ele>496</ele>
        <time>2021-05-22T14:04:24Z</time>
      </trkpt>
      <trkpt lat="48.05986" lon="7.10172">
        <ele>497.20001220703</ele>
        <time>2021-05-22T14:04:27Z</time>
      </trkpt>
      <trkpt lat="48.06009" lon="7.10184">
        <ele>498.20001220703</ele>
        <time>2021-05-22T14:04:33Z</time>
      </trkpt>
      <trkpt lat="48.06033" lon="7.10196">
        <ele>499.39999389648</ele>
        <time>2021-05-22T14:04:39Z</time>
      </trkpt>
      <trkpt lat="48.06049" lon="7.10204">
        <ele>500.20001220703</ele>
        <time>2021-05-22T14:04:43Z</time>
      </trkpt>
      <trkpt lat="48.06057" lon="7.10208">
        <ele>500.39999389648</ele>
        <time>2021-05-22T14:04:45Z</time>
      </trkpt>
      <trkpt lat="48.06061" lon="7.10211">
        <ele>500.79998779297</ele>
        <time>2021-05-22T14:04:46Z</time>
      </trkpt>
      <trkpt lat="48.06077" lon="7.10222">
        <ele>501.79998779297</ele>
        <time>2021-05-22T14:04:50Z</time>
      </trkpt>
      <trkpt lat="48.06111" lon="7.10243">
        <ele>502</ele>
        <time>2021-05-22T14:04:58Z</time>
      </trkpt>
      <trkpt lat="48.06161" lon="7.10274">
        <ele>501.39999389648</ele>
        <time>2021-05-22T14:05:09Z</time>
      </trkpt>
      <trkpt lat="48.06196" lon="7.10309">
        <ele>502</ele>
        <time>2021-05-22T14:05:17Z</time>
      </trkpt>
      <trkpt lat="48.0621" lon="7.10327">
        <ele>502.79998779297</ele>
        <time>2021-05-22T14:05:21Z</time>
      </trkpt>
      <trkpt lat="48.06228" lon="7.10349">
        <ele>503.39999389648</ele>
        <time>2021-05-22T14:05:26Z</time>
      </trkpt>
      <trkpt lat="48.06236" lon="7.10356">
        <ele>504</ele>
        <time>2021-05-22T14:05:28Z</time>
      </trkpt>
      <trkpt lat="48.06246" lon="7.1036">
        <ele>504.39999389648</ele>
        <time>2021-05-22T14:05:30Z</time>
      </trkpt>
      <trkpt lat="48.0625" lon="7.1036">
        <ele>504.60000610352</ele>
        <time>2021-05-22T14:05:31Z</time>
      </trkpt>
      <trkpt lat="48.06255" lon="7.10358">
        <ele>504.79998779297</ele>
        <time>2021-05-22T14:05:32Z</time>
      </trkpt>
      <trkpt lat="48.06265" lon="7.10354">
        <ele>505.20001220703</ele>
        <time>2021-05-22T14:05:34Z</time>
      </trkpt>
      <trkpt lat="48.0627" lon="7.10351">
        <ele>505.20001220703</ele>
        <time>2021-05-22T14:05:35Z</time>
      </trkpt>
      <trkpt lat="48.06288" lon="7.10337">
        <ele>506.20001220703</ele>
        <time>2021-05-22T14:05:39Z</time>
      </trkpt>
      <trkpt lat="48.06292" lon="7.10334">
        <ele>506.39999389648</ele>
        <time>2021-05-22T14:05:40Z</time>
      </trkpt>
      <trkpt lat="48.06296" lon="7.1033">
        <ele>506.60000610352</ele>
        <time>2021-05-22T14:05:41Z</time>
      </trkpt>
      <trkpt lat="48.06303" lon="7.10324">
        <ele>506.79998779297</ele>
        <time>2021-05-22T14:05:43Z</time>
      </trkpt>
      <trkpt lat="48.06315" lon="7.10314">
        <ele>507.79998779297</ele>
        <time>2021-05-22T14:05:46Z</time>
      </trkpt>
      <trkpt lat="48.06326" lon="7.10306">
        <ele>508.60000610352</ele>
        <time>2021-05-22T14:05:49Z</time>
      </trkpt>
      <trkpt lat="48.0633" lon="7.10303">
        <ele>509</ele>
        <time>2021-05-22T14:05:50Z</time>
      </trkpt>
      <trkpt lat="48.06342" lon="7.10293">
        <ele>510.39999389648</ele>
        <time>2021-05-22T14:05:53Z</time>
      </trkpt>
      <trkpt lat="48.06357" lon="7.10279">
        <ele>511.39999389648</ele>
        <time>2021-05-22T14:05:57Z</time>
      </trkpt>
      <trkpt lat="48.06373" lon="7.10266">
        <ele>512.20001220703</ele>
        <time>2021-05-22T14:06:01Z</time>
      </trkpt>
      <trkpt lat="48.06377" lon="7.10264">
        <ele>512.40002441406</ele>
        <time>2021-05-22T14:06:02Z</time>
      </trkpt>
      <trkpt lat="48.06381" lon="7.10261">
        <ele>512.59997558594</ele>
        <time>2021-05-22T14:06:03Z</time>
      </trkpt>
      <trkpt lat="48.06396" lon="7.1025">
        <ele>513.20001220703</ele>
        <time>2021-05-22T14:06:07Z</time>
      </trkpt>
      <trkpt lat="48.06399" lon="7.10248">
        <ele>513.40002441406</ele>
        <time>2021-05-22T14:06:08Z</time>
      </trkpt>
      <trkpt lat="48.06405" lon="7.10246">
        <ele>513.79998779297</ele>
        <time>2021-05-22T14:06:09Z</time>
      </trkpt>
      <trkpt lat="48.06409" lon="7.10247">
        <ele>513.79998779297</ele>
        <time>2021-05-22T14:06:10Z</time>
      </trkpt>
      <trkpt lat="48.06413" lon="7.1025">
        <ele>514.20001220703</ele>
        <time>2021-05-22T14:06:11Z</time>
      </trkpt>
      <trkpt lat="48.06417" lon="7.10253">
        <ele>514.20001220703</ele>
        <time>2021-05-22T14:06:12Z</time>
      </trkpt>
      <trkpt lat="48.06423" lon="7.10262">
        <ele>515</ele>
        <time>2021-05-22T14:06:14Z</time>
      </trkpt>
      <trkpt lat="48.06425" lon="7.10268">
        <ele>515</ele>
        <time>2021-05-22T14:06:15Z</time>
      </trkpt>
      <trkpt lat="48.06434" lon="7.1029">
        <ele>516</ele>
        <time>2021-05-22T14:06:19Z</time>
      </trkpt>
      <trkpt lat="48.06438" lon="7.10307">
        <ele>516.79998779297</ele>
        <time>2021-05-22T14:06:22Z</time>
      </trkpt>
      <trkpt lat="48.06439" lon="7.10313">
        <ele>517</ele>
        <time>2021-05-22T14:06:23Z</time>
      </trkpt>
      <trkpt lat="48.06439" lon="7.1032">
        <ele>517.20001220703</ele>
        <time>2021-05-22T14:06:24Z</time>
      </trkpt>
      <trkpt lat="48.06437" lon="7.10332">
        <ele>517.59997558594</ele>
        <time>2021-05-22T14:06:26Z</time>
      </trkpt>
      <trkpt lat="48.06435" lon="7.10338">
        <ele>518</ele>
        <time>2021-05-22T14:06:27Z</time>
      </trkpt>
      <trkpt lat="48.06432" lon="7.10343">
        <ele>518.20001220703</ele>
        <time>2021-05-22T14:06:28Z</time>
      </trkpt>
      <trkpt lat="48.06426" lon="7.10351">
        <ele>518.59997558594</ele>
        <time>2021-05-22T14:06:30Z</time>
      </trkpt>
      <trkpt lat="48.06422" lon="7.10354">
        <ele>518.59997558594</ele>
        <time>2021-05-22T14:06:31Z</time>
      </trkpt>
      <trkpt lat="48.06419" lon="7.10356">
        <ele>518.79998779297</ele>
        <time>2021-05-22T14:06:32Z</time>
      </trkpt>
      <trkpt lat="48.06404" lon="7.10362">
        <ele>519.20001220703</ele>
        <time>2021-05-22T14:06:36Z</time>
      </trkpt>
      <trkpt lat="48.06385" lon="7.10372">
        <ele>520.40002441406</ele>
        <time>2021-05-22T14:06:41Z</time>
      </trkpt>
      <trkpt lat="48.06374" lon="7.1038">
        <ele>521.20001220703</ele>
        <time>2021-05-22T14:06:44Z</time>
      </trkpt>
      <trkpt lat="48.06368" lon="7.10387">
        <ele>521.79998779297</ele>
        <time>2021-05-22T14:06:46Z</time>
      </trkpt>
      <trkpt lat="48.06354" lon="7.10405">
        <ele>523</ele>
        <time>2021-05-22T14:06:51Z</time>
      </trkpt>
      <trkpt lat="48.06351" lon="7.10409">
        <ele>523.20001220703</ele>
        <time>2021-05-22T14:06:52Z</time>
      </trkpt>
      <trkpt lat="48.06335" lon="7.10437">
        <ele>524</ele>
        <time>2021-05-22T14:06:58Z</time>
      </trkpt>
      <trkpt lat="48.06328" lon="7.10454">
        <ele>524.20001220703</ele>
        <time>2021-05-22T14:07:02Z</time>
      </trkpt>
      <trkpt lat="48.06324" lon="7.10481">
        <ele>525</ele>
        <time>2021-05-22T14:07:07Z</time>
      </trkpt>
      <trkpt lat="48.0633" lon="7.10504">
        <ele>526.40002441406</ele>
        <time>2021-05-22T14:07:11Z</time>
      </trkpt>
      <trkpt lat="48.06333" lon="7.10508">
        <ele>526.59997558594</ele>
        <time>2021-05-22T14:07:12Z</time>
      </trkpt>
      <trkpt lat="48.0634" lon="7.10514">
        <ele>527.20001220703</ele>
        <time>2021-05-22T14:07:14Z</time>
      </trkpt>
      <trkpt lat="48.06348" lon="7.10518">
        <ele>527.59997558594</ele>
        <time>2021-05-22T14:07:16Z</time>
      </trkpt>
      <trkpt lat="48.06352" lon="7.10519">
        <ele>527.79998779297</ele>
        <time>2021-05-22T14:07:17Z</time>
      </trkpt>
      <trkpt lat="48.06368" lon="7.10518">
        <ele>528.79998779297</ele>
        <time>2021-05-22T14:07:21Z</time>
      </trkpt>
      <trkpt lat="48.06384" lon="7.10517">
        <ele>529.40002441406</ele>
        <time>2021-05-22T14:07:25Z</time>
      </trkpt>
      <trkpt lat="48.06392" lon="7.10517">
        <ele>529.79998779297</ele>
        <time>2021-05-22T14:07:27Z</time>
      </trkpt>
      <trkpt lat="48.06404" lon="7.10514">
        <ele>530.79998779297</ele>
        <time>2021-05-22T14:07:30Z</time>
      </trkpt>
      <trkpt lat="48.06412" lon="7.10511">
        <ele>531.20001220703</ele>
        <time>2021-05-22T14:07:32Z</time>
      </trkpt>
      <trkpt lat="48.06423" lon="7.10503">
        <ele>531.40002441406</ele>
        <time>2021-05-22T14:07:35Z</time>
      </trkpt>
      <trkpt lat="48.06433" lon="7.10492">
        <ele>531.59997558594</ele>
        <time>2021-05-22T14:07:38Z</time>
      </trkpt>
      <trkpt lat="48.06436" lon="7.10487">
        <ele>531.79998779297</ele>
        <time>2021-05-22T14:07:39Z</time>
      </trkpt>
      <trkpt lat="48.06438" lon="7.10482">
        <ele>532</ele>
        <time>2021-05-22T14:07:40Z</time>
      </trkpt>
      <trkpt lat="48.06444" lon="7.10465">
        <ele>532.20001220703</ele>
        <time>2021-05-22T14:07:43Z</time>
      </trkpt>
      <trkpt lat="48.06453" lon="7.10442">
        <ele>532.40002441406</ele>
        <time>2021-05-22T14:07:47Z</time>
      </trkpt>
      <trkpt lat="48.06458" lon="7.10433">
        <ele>533.20001220703</ele>
        <time>2021-05-22T14:07:49Z</time>
      </trkpt>
      <trkpt lat="48.0646" lon="7.1043">
        <ele>533.40002441406</ele>
        <time>2021-05-22T14:07:50Z</time>
      </trkpt>
      <trkpt lat="48.06467" lon="7.10422">
        <ele>533.79998779297</ele>
        <time>2021-05-22T14:07:52Z</time>
      </trkpt>
      <trkpt lat="48.06474" lon="7.10417">
        <ele>534.20001220703</ele>
        <time>2021-05-22T14:07:54Z</time>
      </trkpt>
      <trkpt lat="48.06478" lon="7.10415">
        <ele>534.59997558594</ele>
        <time>2021-05-22T14:07:55Z</time>
      </trkpt>
      <trkpt lat="48.06489" lon="7.10411">
        <ele>535.59997558594</ele>
        <time>2021-05-22T14:07:58Z</time>
      </trkpt>
      <trkpt lat="48.065" lon="7.10411">
        <ele>536.59997558594</ele>
        <time>2021-05-22T14:08:01Z</time>
      </trkpt>
      <trkpt lat="48.06503" lon="7.10412">
        <ele>537.20001220703</ele>
        <time>2021-05-22T14:08:02Z</time>
      </trkpt>
      <trkpt lat="48.06515" lon="7.10419">
        <ele>538.40002441406</ele>
        <time>2021-05-22T14:08:05Z</time>
      </trkpt>
      <trkpt lat="48.06525" lon="7.10426">
        <ele>539</ele>
        <time>2021-05-22T14:08:08Z</time>
      </trkpt>
      <trkpt lat="48.06539" lon="7.10435">
        <ele>539.59997558594</ele>
        <time>2021-05-22T14:08:12Z</time>
      </trkpt>
      <trkpt lat="48.06558" lon="7.10442">
        <ele>540.79998779297</ele>
        <time>2021-05-22T14:08:17Z</time>
      </trkpt>
      <trkpt lat="48.06573" lon="7.10443">
        <ele>542.20001220703</ele>
        <time>2021-05-22T14:08:21Z</time>
      </trkpt>
      <trkpt lat="48.06593" lon="7.10444">
        <ele>543.40002441406</ele>
        <time>2021-05-22T14:08:26Z</time>
      </trkpt>
      <trkpt lat="48.06597" lon="7.10444">
        <ele>543.40002441406</ele>
        <time>2021-05-22T14:08:27Z</time>
      </trkpt>
      <trkpt lat="48.06625" lon="7.10441">
        <ele>544</ele>
        <time>2021-05-22T14:08:35Z</time>
      </trkpt>
      <trkpt lat="48.06632" lon="7.10439">
        <ele>544.59997558594</ele>
        <time>2021-05-22T14:08:37Z</time>
      </trkpt>
      <trkpt lat="48.06641" lon="7.10434">
        <ele>546.20001220703</ele>
        <time>2021-05-22T14:08:40Z</time>
      </trkpt>
      <trkpt lat="48.06652" lon="7.10428">
        <ele>547</ele>
        <time>2021-05-22T14:08:43Z</time>
      </trkpt>
      <trkpt lat="48.06659" lon="7.10423">
        <ele>547.40002441406</ele>
        <time>2021-05-22T14:08:45Z</time>
      </trkpt>
      <trkpt lat="48.06679" lon="7.10408">
        <ele>548.59997558594</ele>
        <time>2021-05-22T14:08:51Z</time>
      </trkpt>
      <trkpt lat="48.06682" lon="7.10406">
        <ele>548.79998779297</ele>
        <time>2021-05-22T14:08:52Z</time>
      </trkpt>
      <trkpt lat="48.06695" lon="7.10395">
        <ele>549.79998779297</ele>
        <time>2021-05-22T14:08:56Z</time>
      </trkpt>
      <trkpt lat="48.06704" lon="7.10388">
        <ele>550.79998779297</ele>
        <time>2021-05-22T14:08:59Z</time>
      </trkpt>
      <trkpt lat="48.06714" lon="7.10381">
        <ele>551.40002441406</ele>
        <time>2021-05-22T14:09:02Z</time>
      </trkpt>
      <trkpt lat="48.06731" lon="7.10373">
        <ele>552</ele>
        <time>2021-05-22T14:09:07Z</time>
      </trkpt>
      <trkpt lat="48.06735" lon="7.10372">
        <ele>552.20001220703</ele>
        <time>2021-05-22T14:09:08Z</time>
      </trkpt>
      <trkpt lat="48.06739" lon="7.10371">
        <ele>552.20001220703</ele>
        <time>2021-05-22T14:09:09Z</time>
      </trkpt>
      <trkpt lat="48.06762" lon="7.10356">
        <ele>553</ele>
        <time>2021-05-22T14:09:16Z</time>
      </trkpt>
      <trkpt lat="48.06778" lon="7.10345">
        <ele>553.59997558594</ele>
        <time>2021-05-22T14:09:21Z</time>
      </trkpt>
      <trkpt lat="48.06784" lon="7.10342">
        <ele>554.20001220703</ele>
        <time>2021-05-22T14:09:24Z</time>
      </trkpt>
      <trkpt lat="48.068" lon="7.10332">
        <ele>555.20001220703</ele>
        <time>2021-05-22T14:09:29Z</time>
      </trkpt>
      <trkpt lat="48.06807" lon="7.10328">
        <ele>555.40002441406</ele>
        <time>2021-05-22T14:09:30Z</time>
      </trkpt>
      <trkpt lat="48.06825" lon="7.10323">
        <ele>556.40002441406</ele>
        <time>2021-05-22T14:09:35Z</time>
      </trkpt>
      <trkpt lat="48.06828" lon="7.10323">
        <ele>556.59997558594</ele>
        <time>2021-05-22T14:09:36Z</time>
      </trkpt>
      <trkpt lat="48.0684" lon="7.10326">
        <ele>557.40002441406</ele>
        <time>2021-05-22T14:09:40Z</time>
      </trkpt>
      <trkpt lat="48.06851" lon="7.10333">
        <ele>558.20001220703</ele>
        <time>2021-05-22T14:09:43Z</time>
      </trkpt>
      <trkpt lat="48.06854" lon="7.10335">
        <ele>558.59997558594</ele>
        <time>2021-05-22T14:09:45Z</time>
      </trkpt>
      <trkpt lat="48.06875" lon="7.10353">
        <ele>559.59997558594</ele>
        <time>2021-05-22T14:09:51Z</time>
      </trkpt>
      <trkpt lat="48.06881" lon="7.10358">
        <ele>560.20001220703</ele>
        <time>2021-05-22T14:09:53Z</time>
      </trkpt>
      <trkpt lat="48.0689" lon="7.10364">
        <ele>561.20001220703</ele>
        <time>2021-05-22T14:09:56Z</time>
      </trkpt>
      <trkpt lat="48.06902" lon="7.10372">
        <ele>562.20001220703</ele>
        <time>2021-05-22T14:10:00Z</time>
      </trkpt>
      <trkpt lat="48.06905" lon="7.10373">
        <ele>562.40002441406</ele>
        <time>2021-05-22T14:10:01Z</time>
      </trkpt>
      <trkpt lat="48.0692" lon="7.10374">
        <ele>563.20001220703</ele>
        <time>2021-05-22T14:10:05Z</time>
      </trkpt>
      <trkpt lat="48.06927" lon="7.10373">
        <ele>563.59997558594</ele>
        <time>2021-05-22T14:10:07Z</time>
      </trkpt>
      <trkpt lat="48.0693" lon="7.10371">
        <ele>563.79998779297</ele>
        <time>2021-05-22T14:10:08Z</time>
      </trkpt>
      <trkpt lat="48.06945" lon="7.10355">
        <ele>564.40002441406</ele>
        <time>2021-05-22T14:10:13Z</time>
      </trkpt>
      <trkpt lat="48.06953" lon="7.10331">
        <ele>565.20001220703</ele>
        <time>2021-05-22T14:10:18Z</time>
      </trkpt>
      <trkpt lat="48.06957" lon="7.10322">
        <ele>565.59997558594</ele>
        <time>2021-05-22T14:10:21Z</time>
      </trkpt>
      <trkpt lat="48.06963" lon="7.10307">
        <ele>566.20001220703</ele>
        <time>2021-05-22T14:10:24Z</time>
      </trkpt>
      <trkpt lat="48.06968" lon="7.10301">
        <ele>566.59997558594</ele>
        <time>2021-05-22T14:10:26Z</time>
      </trkpt>
      <trkpt lat="48.0697" lon="7.10297">
        <ele>566.59997558594</ele>
        <time>2021-05-22T14:10:27Z</time>
      </trkpt>
      <trkpt lat="48.06972" lon="7.10293">
        <ele>566.59997558594</ele>
        <time>2021-05-22T14:10:28Z</time>
      </trkpt>
      <trkpt lat="48.0698" lon="7.10278">
        <ele>567.79998779297</ele>
        <time>2021-05-22T14:10:32Z</time>
      </trkpt>
      <trkpt lat="48.06988" lon="7.10267">
        <ele>568.20001220703</ele>
        <time>2021-05-22T14:10:35Z</time>
      </trkpt>
      <trkpt lat="48.06997" lon="7.10253">
        <ele>568.79998779297</ele>
        <time>2021-05-22T14:10:39Z</time>
      </trkpt>
      <trkpt lat="48.0701" lon="7.10234">
        <ele>570</ele>
        <time>2021-05-22T14:10:44Z</time>
      </trkpt>
      <trkpt lat="48.07022" lon="7.10215">
        <ele>571.20001220703</ele>
        <time>2021-05-22T14:10:48Z</time>
      </trkpt>
      <trkpt lat="48.07032" lon="7.10205">
        <ele>572</ele>
        <time>2021-05-22T14:10:51Z</time>
      </trkpt>
      <trkpt lat="48.07035" lon="7.10201">
        <ele>572.20001220703</ele>
        <time>2021-05-22T14:10:52Z</time>
      </trkpt>
      <trkpt lat="48.07044" lon="7.10191">
        <ele>573.59997558594</ele>
        <time>2021-05-22T14:10:55Z</time>
      </trkpt>
      <trkpt lat="48.07063" lon="7.1017">
        <ele>574.79998779297</ele>
        <time>2021-05-22T14:11:01Z</time>
      </trkpt>
      <trkpt lat="48.07069" lon="7.10163">
        <ele>575.20001220703</ele>
        <time>2021-05-22T14:11:03Z</time>
      </trkpt>
      <trkpt lat="48.07079" lon="7.10153">
        <ele>576.20001220703</ele>
        <time>2021-05-22T14:11:06Z</time>
      </trkpt>
      <trkpt lat="48.07096" lon="7.10137">
        <ele>577.20001220703</ele>
        <time>2021-05-22T14:11:11Z</time>
      </trkpt>
      <trkpt lat="48.07099" lon="7.10134">
        <ele>577.40002441406</ele>
        <time>2021-05-22T14:11:12Z</time>
      </trkpt>
      <trkpt lat="48.07112" lon="7.10122">
        <ele>578.40002441406</ele>
        <time>2021-05-22T14:11:16Z</time>
      </trkpt>
      <trkpt lat="48.07115" lon="7.10119">
        <ele>578.40002441406</ele>
        <time>2021-05-22T14:11:17Z</time>
      </trkpt>
      <trkpt lat="48.0712" lon="7.10112">
        <ele>578.79998779297</ele>
        <time>2021-05-22T14:11:19Z</time>
      </trkpt>
      <trkpt lat="48.07122" lon="7.10107">
        <ele>579.20001220703</ele>
        <time>2021-05-22T14:11:20Z</time>
      </trkpt>
      <trkpt lat="48.07128" lon="7.10096">
        <ele>579.79998779297</ele>
        <time>2021-05-22T14:11:22Z</time>
      </trkpt>
      <trkpt lat="48.0714" lon="7.10075">
        <ele>580.59997558594</ele>
        <time>2021-05-22T14:11:26Z</time>
      </trkpt>
      <trkpt lat="48.07143" lon="7.1007">
        <ele>580.79998779297</ele>
        <time>2021-05-22T14:11:27Z</time>
      </trkpt>
      <trkpt lat="48.0715" lon="7.10064">
        <ele>581.40002441406</ele>
        <time>2021-05-22T14:11:29Z</time>
      </trkpt>
      <trkpt lat="48.07158" lon="7.10062">
        <ele>581.79998779297</ele>
        <time>2021-05-22T14:11:31Z</time>
      </trkpt>
      <trkpt lat="48.07161" lon="7.10062">
        <ele>582.20001220703</ele>
        <time>2021-05-22T14:11:32Z</time>
      </trkpt>
      <trkpt lat="48.07171" lon="7.10064">
        <ele>582.59997558594</ele>
        <time>2021-05-22T14:11:34Z</time>
      </trkpt>
      <trkpt lat="48.0718" lon="7.10068">
        <ele>583.20001220703</ele>
        <time>2021-05-22T14:11:37Z</time>
      </trkpt>
      <trkpt lat="48.07205" lon="7.10076">
        <ele>584.40002441406</ele>
        <time>2021-05-22T14:11:43Z</time>
      </trkpt>
      <trkpt lat="48.0722" lon="7.10084">
        <ele>585</ele>
        <time>2021-05-22T14:11:47Z</time>
      </trkpt>
      <trkpt lat="48.07228" lon="7.10088">
        <ele>585.40002441406</ele>
        <time>2021-05-22T14:11:49Z</time>
      </trkpt>
      <trkpt lat="48.0724" lon="7.10094">
        <ele>586.59997558594</ele>
        <time>2021-05-22T14:11:52Z</time>
      </trkpt>
      <trkpt lat="48.07255" lon="7.10099">
        <ele>587.20001220703</ele>
        <time>2021-05-22T14:11:56Z</time>
      </trkpt>
      <trkpt lat="48.07258" lon="7.101">
        <ele>587.59997558594</ele>
        <time>2021-05-22T14:11:57Z</time>
      </trkpt>
      <trkpt lat="48.07274" lon="7.10097">
        <ele>588.59997558594</ele>
        <time>2021-05-22T14:12:01Z</time>
      </trkpt>
      <trkpt lat="48.07278" lon="7.10094">
        <ele>589</ele>
        <time>2021-05-22T14:12:02Z</time>
      </trkpt>
      <trkpt lat="48.07286" lon="7.10086">
        <ele>589.40002441406</ele>
        <time>2021-05-22T14:12:04Z</time>
      </trkpt>
      <trkpt lat="48.07289" lon="7.10082">
        <ele>589.79998779297</ele>
        <time>2021-05-22T14:12:05Z</time>
      </trkpt>
      <trkpt lat="48.07294" lon="7.10072">
        <ele>590</ele>
        <time>2021-05-22T14:12:07Z</time>
      </trkpt>
      <trkpt lat="48.07306" lon="7.10065">
        <ele>590.59997558594</ele>
        <time>2021-05-22T14:12:11Z</time>
      </trkpt>
      <trkpt lat="48.07309" lon="7.10066">
        <ele>590.79998779297</ele>
        <time>2021-05-22T14:12:12Z</time>
      </trkpt>
      <trkpt lat="48.0732" lon="7.10069">
        <ele>591</ele>
        <time>2021-05-22T14:12:16Z</time>
      </trkpt>
      <trkpt lat="48.07336" lon="7.1007">
        <ele>591.79998779297</ele>
        <time>2021-05-22T14:12:21Z</time>
      </trkpt>
      <trkpt lat="48.07343" lon="7.1007">
        <ele>592.40002441406</ele>
        <time>2021-05-22T14:12:24Z</time>
      </trkpt>
      <trkpt lat="48.07352" lon="7.10071">
        <ele>592.79998779297</ele>
        <time>2021-05-22T14:12:27Z</time>
      </trkpt>
      <trkpt lat="48.07361" lon="7.10072">
        <ele>593.79998779297</ele>
        <time>2021-05-22T14:12:31Z</time>
      </trkpt>
      <trkpt lat="48.07363" lon="7.10073">
        <ele>594</ele>
        <time>2021-05-22T14:12:32Z</time>
      </trkpt>
      <trkpt lat="48.07376" lon="7.10076">
        <ele>595</ele>
        <time>2021-05-22T14:12:37Z</time>
      </trkpt>
      <trkpt lat="48.07379" lon="7.10077">
        <ele>595.20001220703</ele>
        <time>2021-05-22T14:12:38Z</time>
      </trkpt>
      <trkpt lat="48.07393" lon="7.1008">
        <ele>596.20001220703</ele>
        <time>2021-05-22T14:12:43Z</time>
      </trkpt>
      <trkpt lat="48.07395" lon="7.1008">
        <ele>596.59997558594</ele>
        <time>2021-05-22T14:12:44Z</time>
      </trkpt>
      <trkpt lat="48.07403" lon="7.1008">
        <ele>597.59997558594</ele>
        <time>2021-05-22T14:12:47Z</time>
      </trkpt>
      <trkpt lat="48.07407" lon="7.1008">
        <ele>597.79998779297</ele>
        <time>2021-05-22T14:12:48Z</time>
      </trkpt>
      <trkpt lat="48.07417" lon="7.1008">
        <ele>598.79998779297</ele>
        <time>2021-05-22T14:12:51Z</time>
      </trkpt>
      <trkpt lat="48.07431" lon="7.10079">
        <ele>599.79998779297</ele>
        <time>2021-05-22T14:12:55Z</time>
      </trkpt>
      <trkpt lat="48.07445" lon="7.10073">
        <ele>600.79998779297</ele>
        <time>2021-05-22T14:12:59Z</time>
      </trkpt>
      <trkpt lat="48.07453" lon="7.10071">
        <ele>601.79998779297</ele>
        <time>2021-05-22T14:13:02Z</time>
      </trkpt>
      <trkpt lat="48.07456" lon="7.1007">
        <ele>602</ele>
        <time>2021-05-22T14:13:03Z</time>
      </trkpt>
      <trkpt lat="48.07472" lon="7.10063">
        <ele>603</ele>
        <time>2021-05-22T14:13:08Z</time>
      </trkpt>
      <trkpt lat="48.07476" lon="7.10062">
        <ele>603.20001220703</ele>
        <time>2021-05-22T14:13:09Z</time>
      </trkpt>
      <trkpt lat="48.07486" lon="7.10059">
        <ele>604.20001220703</ele>
        <time>2021-05-22T14:13:12Z</time>
      </trkpt>
      <trkpt lat="48.07498" lon="7.10054">
        <ele>605.20001220703</ele>
        <time>2021-05-22T14:13:16Z</time>
      </trkpt>
      <trkpt lat="48.07502" lon="7.10053">
        <ele>605.59997558594</ele>
        <time>2021-05-22T14:13:17Z</time>
      </trkpt>
      <trkpt lat="48.07508" lon="7.1005">
        <ele>606.20001220703</ele>
        <time>2021-05-22T14:13:19Z</time>
      </trkpt>
      <trkpt lat="48.07517" lon="7.10048">
        <ele>607.40002441406</ele>
        <time>2021-05-22T14:13:22Z</time>
      </trkpt>
      <trkpt lat="48.07527" lon="7.10048">
        <ele>608.40002441406</ele>
        <time>2021-05-22T14:13:25Z</time>
      </trkpt>
      <trkpt lat="48.0753" lon="7.10048">
        <ele>608.59997558594</ele>
        <time>2021-05-22T14:13:26Z</time>
      </trkpt>
      <trkpt lat="48.07545" lon="7.10047">
        <ele>609.79998779297</ele>
        <time>2021-05-22T14:13:31Z</time>
      </trkpt>
      <trkpt lat="48.07552" lon="7.10045">
        <ele>610.40002441406</ele>
        <time>2021-05-22T14:13:34Z</time>
      </trkpt>
      <trkpt lat="48.07561" lon="7.10044">
        <ele>610.79998779297</ele>
        <time>2021-05-22T14:13:37Z</time>
      </trkpt>
      <trkpt lat="48.07575" lon="7.10043">
        <ele>612.20001220703</ele>
        <time>2021-05-22T14:13:42Z</time>
      </trkpt>
      <trkpt lat="48.07581" lon="7.10043">
        <ele>612.59997558594</ele>
        <time>2021-05-22T14:13:44Z</time>
      </trkpt>
      <trkpt lat="48.07592" lon="7.10041">
        <ele>613.20001220703</ele>
        <time>2021-05-22T14:13:48Z</time>
      </trkpt>
      <trkpt lat="48.0761" lon="7.10034">
        <ele>614.20001220703</ele>
        <time>2021-05-22T14:13:54Z</time>
      </trkpt>
      <trkpt lat="48.07623" lon="7.10026">
        <ele>615.59997558594</ele>
        <time>2021-05-22T14:13:59Z</time>
      </trkpt>
      <trkpt lat="48.07632" lon="7.1002">
        <ele>616.59997558594</ele>
        <time>2021-05-22T14:14:02Z</time>
      </trkpt>
      <trkpt lat="48.07637" lon="7.10017">
        <ele>617.20001220703</ele>
        <time>2021-05-22T14:14:04Z</time>
      </trkpt>
      <trkpt lat="48.07643" lon="7.10013">
        <ele>617.79998779297</ele>
        <time>2021-05-22T14:14:06Z</time>
      </trkpt>
      <trkpt lat="48.07658" lon="7.10001">
        <ele>618.79998779297</ele>
        <time>2021-05-22T14:14:12Z</time>
      </trkpt>
      <trkpt lat="48.07661" lon="7.09999">
        <ele>619</ele>
        <time>2021-05-22T14:14:13Z</time>
      </trkpt>
      <trkpt lat="48.07671" lon="7.09989">
        <ele>620</ele>
        <time>2021-05-22T14:14:17Z</time>
      </trkpt>
      <trkpt lat="48.07681" lon="7.0998">
        <ele>621</ele>
        <time>2021-05-22T14:14:21Z</time>
      </trkpt>
      <trkpt lat="48.0769" lon="7.09973">
        <ele>622.20001220703</ele>
        <time>2021-05-22T14:14:24Z</time>
      </trkpt>
      <trkpt lat="48.07701" lon="7.09963">
        <ele>623</ele>
        <time>2021-05-22T14:14:28Z</time>
      </trkpt>
      <trkpt lat="48.07703" lon="7.09961">
        <ele>623.20001220703</ele>
        <time>2021-05-22T14:14:29Z</time>
      </trkpt>
      <trkpt lat="48.0771" lon="7.09952">
        <ele>623.59997558594</ele>
        <time>2021-05-22T14:14:32Z</time>
      </trkpt>
      <trkpt lat="48.0772" lon="7.09942">
        <ele>624.40002441406</ele>
        <time>2021-05-22T14:14:36Z</time>
      </trkpt>
      <trkpt lat="48.07727" lon="7.09934">
        <ele>624.79998779297</ele>
        <time>2021-05-22T14:14:39Z</time>
      </trkpt>
      <trkpt lat="48.07735" lon="7.09922">
        <ele>625.40002441406</ele>
        <time>2021-05-22T14:14:43Z</time>
      </trkpt>
      <trkpt lat="48.07742" lon="7.09912">
        <ele>625.79998779297</ele>
        <time>2021-05-22T14:14:46Z</time>
      </trkpt>
      <trkpt lat="48.07746" lon="7.09905">
        <ele>626.40002441406</ele>
        <time>2021-05-22T14:14:48Z</time>
      </trkpt>
      <trkpt lat="48.07759" lon="7.09881">
        <ele>627.20001220703</ele>
        <time>2021-05-22T14:14:54Z</time>
      </trkpt>
      <trkpt lat="48.07765" lon="7.09867">
        <ele>627.59997558594</ele>
        <time>2021-05-22T14:14:57Z</time>
      </trkpt>
      <trkpt lat="48.07778" lon="7.09848">
        <ele>628.59997558594</ele>
        <time>2021-05-22T14:15:02Z</time>
      </trkpt>
      <trkpt lat="48.07781" lon="7.09845">
        <ele>628.59997558594</ele>
        <time>2021-05-22T14:15:03Z</time>
      </trkpt>
      <trkpt lat="48.07794" lon="7.09836">
        <ele>629.79998779297</ele>
        <time>2021-05-22T14:15:08Z</time>
      </trkpt>
      <trkpt lat="48.078" lon="7.09836">
        <ele>630.20001220703</ele>
        <time>2021-05-22T14:15:09Z</time>
      </trkpt>
      <trkpt lat="48.07813" lon="7.09848">
        <ele>631.20001220703</ele>
        <time>2021-05-22T14:15:13Z</time>
      </trkpt>
      <trkpt lat="48.07816" lon="7.09851">
        <ele>631.20001220703</ele>
        <time>2021-05-22T14:15:14Z</time>
      </trkpt>
      <trkpt lat="48.07829" lon="7.09876">
        <ele>632.40002441406</ele>
        <time>2021-05-22T14:15:20Z</time>
      </trkpt>
      <trkpt lat="48.07831" lon="7.09903">
        <ele>633.20001220703</ele>
        <time>2021-05-22T14:15:25Z</time>
      </trkpt>
      <trkpt lat="48.0783" lon="7.09923">
        <ele>633.40002441406</ele>
        <time>2021-05-22T14:15:29Z</time>
      </trkpt>
      <trkpt lat="48.07829" lon="7.09945">
        <ele>633.79998779297</ele>
        <time>2021-05-22T14:15:33Z</time>
      </trkpt>
      <trkpt lat="48.07831" lon="7.09992">
        <ele>634.59997558594</ele>
        <time>2021-05-22T14:15:41Z</time>
      </trkpt>
      <trkpt lat="48.07836" lon="7.10041">
        <ele>635.40002441406</ele>
        <time>2021-05-22T14:15:49Z</time>
      </trkpt>
      <trkpt lat="48.07837" lon="7.10046">
        <ele>635.59997558594</ele>
        <time>2021-05-22T14:15:50Z</time>
      </trkpt>
      <trkpt lat="48.07842" lon="7.10087">
        <ele>636.59997558594</ele>
        <time>2021-05-22T14:15:57Z</time>
      </trkpt>
      <trkpt lat="48.07843" lon="7.10093">
        <ele>636.79998779297</ele>
        <time>2021-05-22T14:15:58Z</time>
      </trkpt>
      <trkpt lat="48.07849" lon="7.10133">
        <ele>637.79998779297</ele>
        <time>2021-05-22T14:16:05Z</time>
      </trkpt>
      <trkpt lat="48.07849" lon="7.10138">
        <ele>638</ele>
        <time>2021-05-22T14:16:06Z</time>
      </trkpt>
      <trkpt lat="48.07857" lon="7.10186">
        <ele>639.20001220703</ele>
        <time>2021-05-22T14:16:14Z</time>
      </trkpt>
      <trkpt lat="48.0786" lon="7.10211">
        <ele>640.20001220703</ele>
        <time>2021-05-22T14:16:18Z</time>
      </trkpt>
      <trkpt lat="48.07861" lon="7.10216">
        <ele>640.40002441406</ele>
        <time>2021-05-22T14:16:19Z</time>
      </trkpt>
      <trkpt lat="48.07861" lon="7.10238">
        <ele>641.40002441406</ele>
        <time>2021-05-22T14:16:23Z</time>
      </trkpt>
      <trkpt lat="48.07859" lon="7.10245">
        <ele>641.59997558594</ele>
        <time>2021-05-22T14:16:24Z</time>
      </trkpt>
      <trkpt lat="48.07847" lon="7.10254">
        <ele>642.20001220703</ele>
        <time>2021-05-22T14:16:28Z</time>
      </trkpt>
      <trkpt lat="48.07838" lon="7.10254">
        <ele>642.59997558594</ele>
        <time>2021-05-22T14:16:30Z</time>
      </trkpt>
      <trkpt lat="48.07834" lon="7.10255">
        <ele>642.79998779297</ele>
        <time>2021-05-22T14:16:31Z</time>
      </trkpt>
      <trkpt lat="48.07819" lon="7.10255">
        <ele>643.79998779297</ele>
        <time>2021-05-22T14:16:35Z</time>
      </trkpt>
      <trkpt lat="48.07793" lon="7.10257">
        <ele>644.79998779297</ele>
        <time>2021-05-22T14:16:42Z</time>
      </trkpt>
      <trkpt lat="48.07786" lon="7.10256">
        <ele>645.59997558594</ele>
        <time>2021-05-22T14:16:44Z</time>
      </trkpt>
      <trkpt lat="48.07776" lon="7.10256">
        <ele>646</ele>
        <time>2021-05-22T14:16:47Z</time>
      </trkpt>
      <trkpt lat="48.07754" lon="7.10257">
        <ele>647.20001220703</ele>
        <time>2021-05-22T14:16:53Z</time>
      </trkpt>
      <trkpt lat="48.07751" lon="7.10258">
        <ele>647</ele>
        <time>2021-05-22T14:16:54Z</time>
      </trkpt>
      <trkpt lat="48.07736" lon="7.10258">
        <ele>648.20001220703</ele>
        <time>2021-05-22T14:16:58Z</time>
      </trkpt>
      <trkpt lat="48.07723" lon="7.10258">
        <ele>649.40002441406</ele>
        <time>2021-05-22T14:17:02Z</time>
      </trkpt>
      <trkpt lat="48.07717" lon="7.10258">
        <ele>650</ele>
        <time>2021-05-22T14:17:04Z</time>
      </trkpt>
      <trkpt lat="48.0771" lon="7.10259">
        <ele>650.40002441406</ele>
        <time>2021-05-22T14:17:06Z</time>
      </trkpt>
      <trkpt lat="48.07682" lon="7.10263">
        <ele>652</ele>
        <time>2021-05-22T14:17:14Z</time>
      </trkpt>
      <trkpt lat="48.07678" lon="7.10264">
        <ele>652.20001220703</ele>
        <time>2021-05-22T14:17:15Z</time>
      </trkpt>
      <trkpt lat="48.07668" lon="7.10264">
        <ele>653</ele>
        <time>2021-05-22T14:17:18Z</time>
      </trkpt>
      <trkpt lat="48.0765" lon="7.10265">
        <ele>653.79998779297</ele>
        <time>2021-05-22T14:17:23Z</time>
      </trkpt>
      <trkpt lat="48.07647" lon="7.10265">
        <ele>654</ele>
        <time>2021-05-22T14:17:24Z</time>
      </trkpt>
      <trkpt lat="48.0764" lon="7.10265">
        <ele>654</ele>
        <time>2021-05-22T14:17:26Z</time>
      </trkpt>
      <trkpt lat="48.07621" lon="7.10267">
        <ele>655.20001220703</ele>
        <time>2021-05-22T14:17:31Z</time>
      </trkpt>
      <trkpt lat="48.07617" lon="7.10267">
        <ele>655.40002441406</ele>
        <time>2021-05-22T14:17:32Z</time>
      </trkpt>
      <trkpt lat="48.076" lon="7.10268">
        <ele>656.40002441406</ele>
        <time>2021-05-22T14:17:37Z</time>
      </trkpt>
      <trkpt lat="48.0759" lon="7.10268">
        <ele>657.20001220703</ele>
        <time>2021-05-22T14:17:40Z</time>
      </trkpt>
      <trkpt lat="48.07586" lon="7.10269">
        <ele>657.40002441406</ele>
        <time>2021-05-22T14:17:41Z</time>
      </trkpt>
      <trkpt lat="48.07572" lon="7.1027">
        <ele>658.59997558594</ele>
        <time>2021-05-22T14:17:45Z</time>
      </trkpt>
      <trkpt lat="48.07562" lon="7.10272">
        <ele>659</ele>
        <time>2021-05-22T14:17:48Z</time>
      </trkpt>
      <trkpt lat="48.07548" lon="7.10274">
        <ele>659.59997558594</ele>
        <time>2021-05-22T14:17:52Z</time>
      </trkpt>
      <trkpt lat="48.07535" lon="7.10278">
        <ele>660.79998779297</ele>
        <time>2021-05-22T14:17:56Z</time>
      </trkpt>
      <trkpt lat="48.07527" lon="7.10279">
        <ele>661.40002441406</ele>
        <time>2021-05-22T14:17:58Z</time>
      </trkpt>
      <trkpt lat="48.07521" lon="7.1028">
        <ele>661.79998779297</ele>
        <time>2021-05-22T14:18:00Z</time>
      </trkpt>
      <trkpt lat="48.07503" lon="7.10282">
        <ele>663</ele>
        <time>2021-05-22T14:18:05Z</time>
      </trkpt>
      <trkpt lat="48.07485" lon="7.10283">
        <ele>664.20001220703</ele>
        <time>2021-05-22T14:18:10Z</time>
      </trkpt>
      <trkpt lat="48.07467" lon="7.10284">
        <ele>665</ele>
        <time>2021-05-22T14:18:15Z</time>
      </trkpt>
      <trkpt lat="48.07456" lon="7.10285">
        <ele>665.20001220703</ele>
        <time>2021-05-22T14:18:18Z</time>
      </trkpt>
      <trkpt lat="48.07443" lon="7.10288">
        <ele>665.59997558594</ele>
        <time>2021-05-22T14:18:22Z</time>
      </trkpt>
      <trkpt lat="48.07429" lon="7.10293">
        <ele>666.40002441406</ele>
        <time>2021-05-22T14:18:26Z</time>
      </trkpt>
      <trkpt lat="48.07415" lon="7.10297">
        <ele>667.59997558594</ele>
        <time>2021-05-22T14:18:30Z</time>
      </trkpt>
      <trkpt lat="48.07408" lon="7.103">
        <ele>667.79998779297</ele>
        <time>2021-05-22T14:18:32Z</time>
      </trkpt>
      <trkpt lat="48.07396" lon="7.10303">
        <ele>668.59997558594</ele>
        <time>2021-05-22T14:18:36Z</time>
      </trkpt>
      <trkpt lat="48.07389" lon="7.10306">
        <ele>668.79998779297</ele>
        <time>2021-05-22T14:18:38Z</time>
      </trkpt>
      <trkpt lat="48.07375" lon="7.1031">
        <ele>669.79998779297</ele>
        <time>2021-05-22T14:18:42Z</time>
      </trkpt>
      <trkpt lat="48.07358" lon="7.10318">
        <ele>670.79998779297</ele>
        <time>2021-05-22T14:18:47Z</time>
      </trkpt>
      <trkpt lat="48.07346" lon="7.10337">
        <ele>671.59997558594</ele>
        <time>2021-05-22T14:18:52Z</time>
      </trkpt>
      <trkpt lat="48.07345" lon="7.10347">
        <ele>671.79998779297</ele>
        <time>2021-05-22T14:18:54Z</time>
      </trkpt>
      <trkpt lat="48.07348" lon="7.10357">
        <ele>672.20001220703</ele>
        <time>2021-05-22T14:18:56Z</time>
      </trkpt>
      <trkpt lat="48.07354" lon="7.10364">
        <ele>672.59997558594</ele>
        <time>2021-05-22T14:18:58Z</time>
      </trkpt>
      <trkpt lat="48.07361" lon="7.10365">
        <ele>672.79998779297</ele>
        <time>2021-05-22T14:19:00Z</time>
      </trkpt>
      <trkpt lat="48.07364" lon="7.10364">
        <ele>673</ele>
        <time>2021-05-22T14:19:01Z</time>
      </trkpt>
      <trkpt lat="48.07377" lon="7.10355">
        <ele>673.40002441406</ele>
        <time>2021-05-22T14:19:05Z</time>
      </trkpt>
      <trkpt lat="48.07397" lon="7.10341">
        <ele>674.20001220703</ele>
        <time>2021-05-22T14:19:11Z</time>
      </trkpt>
      <trkpt lat="48.07408" lon="7.10338">
        <ele>675.20001220703</ele>
        <time>2021-05-22T14:19:14Z</time>
      </trkpt>
      <trkpt lat="48.07419" lon="7.10339">
        <ele>676.59997558594</ele>
        <time>2021-05-22T14:19:17Z</time>
      </trkpt>
      <trkpt lat="48.07423" lon="7.10339">
        <ele>676.79998779297</ele>
        <time>2021-05-22T14:19:18Z</time>
      </trkpt>
      <trkpt lat="48.07434" lon="7.10339">
        <ele>677.59997558594</ele>
        <time>2021-05-22T14:19:21Z</time>
      </trkpt>
      <trkpt lat="48.07448" lon="7.10341">
        <ele>678</ele>
        <time>2021-05-22T14:19:25Z</time>
      </trkpt>
      <trkpt lat="48.07467" lon="7.10342">
        <ele>678.59997558594</ele>
        <time>2021-05-22T14:19:30Z</time>
      </trkpt>
      <trkpt lat="48.07481" lon="7.10345">
        <ele>679.40002441406</ele>
        <time>2021-05-22T14:19:34Z</time>
      </trkpt>
      <trkpt lat="48.07484" lon="7.10346">
        <ele>679.59997558594</ele>
        <time>2021-05-22T14:19:35Z</time>
      </trkpt>
      <trkpt lat="48.07498" lon="7.10349">
        <ele>680.79998779297</ele>
        <time>2021-05-22T14:19:39Z</time>
      </trkpt>
      <trkpt lat="48.07514" lon="7.1035">
        <ele>682</ele>
        <time>2021-05-22T14:19:43Z</time>
      </trkpt>
      <trkpt lat="48.07524" lon="7.10351">
        <ele>683.20001220703</ele>
        <time>2021-05-22T14:19:46Z</time>
      </trkpt>
      <trkpt lat="48.07541" lon="7.10355">
        <ele>684</ele>
        <time>2021-05-22T14:19:51Z</time>
      </trkpt>
      <trkpt lat="48.07544" lon="7.10356">
        <ele>684.40002441406</ele>
        <time>2021-05-22T14:19:52Z</time>
      </trkpt>
      <trkpt lat="48.07554" lon="7.10359">
        <ele>685.40002441406</ele>
        <time>2021-05-22T14:19:55Z</time>
      </trkpt>
      <trkpt lat="48.07564" lon="7.10363">
        <ele>686.20001220703</ele>
        <time>2021-05-22T14:19:58Z</time>
      </trkpt>
      <trkpt lat="48.07568" lon="7.10363">
        <ele>686.59997558594</ele>
        <time>2021-05-22T14:19:59Z</time>
      </trkpt>
      <trkpt lat="48.07583" lon="7.10366">
        <ele>687.59997558594</ele>
        <time>2021-05-22T14:20:03Z</time>
      </trkpt>
      <trkpt lat="48.07593" lon="7.10366">
        <ele>688.79998779297</ele>
        <time>2021-05-22T14:20:06Z</time>
      </trkpt>
      <trkpt lat="48.07608" lon="7.10368">
        <ele>689.79998779297</ele>
        <time>2021-05-22T14:20:10Z</time>
      </trkpt>
      <trkpt lat="48.07627" lon="7.10371">
        <ele>690.79998779297</ele>
        <time>2021-05-22T14:20:15Z</time>
      </trkpt>
      <trkpt lat="48.07631" lon="7.10371">
        <ele>691.20001220703</ele>
        <time>2021-05-22T14:20:16Z</time>
      </trkpt>
      <trkpt lat="48.07644" lon="7.10376">
        <ele>692</ele>
        <time>2021-05-22T14:20:20Z</time>
      </trkpt>
      <trkpt lat="48.07661" lon="7.10387">
        <ele>693</ele>
        <time>2021-05-22T14:20:25Z</time>
      </trkpt>
      <trkpt lat="48.07677" lon="7.10403">
        <ele>694.59997558594</ele>
        <time>2021-05-22T14:20:30Z</time>
      </trkpt>
      <trkpt lat="48.07686" lon="7.10411">
        <ele>695.20001220703</ele>
        <time>2021-05-22T14:20:33Z</time>
      </trkpt>
      <trkpt lat="48.07695" lon="7.10422">
        <ele>695.59997558594</ele>
        <time>2021-05-22T14:20:36Z</time>
      </trkpt>
      <trkpt lat="48.0771" lon="7.10436">
        <ele>696.79998779297</ele>
        <time>2021-05-22T14:20:41Z</time>
      </trkpt>
      <trkpt lat="48.07713" lon="7.10438">
        <ele>697</ele>
        <time>2021-05-22T14:20:42Z</time>
      </trkpt>
      <trkpt lat="48.07726" lon="7.1045">
        <ele>698.20001220703</ele>
        <time>2021-05-22T14:20:46Z</time>
      </trkpt>
      <trkpt lat="48.07747" lon="7.10461">
        <ele>699.20001220703</ele>
        <time>2021-05-22T14:20:52Z</time>
      </trkpt>
      <trkpt lat="48.07751" lon="7.10463">
        <ele>699.59997558594</ele>
        <time>2021-05-22T14:20:53Z</time>
      </trkpt>
      <trkpt lat="48.07771" lon="7.10473">
        <ele>700.59997558594</ele>
        <time>2021-05-22T14:20:59Z</time>
      </trkpt>
      <trkpt lat="48.07778" lon="7.10476">
        <ele>701.20001220703</ele>
        <time>2021-05-22T14:21:01Z</time>
      </trkpt>
      <trkpt lat="48.07789" lon="7.10481">
        <ele>702</ele>
        <time>2021-05-22T14:21:04Z</time>
      </trkpt>
      <trkpt lat="48.07808" lon="7.1049">
        <ele>703.20001220703</ele>
        <time>2021-05-22T14:21:10Z</time>
      </trkpt>
      <trkpt lat="48.07812" lon="7.10492">
        <ele>703.40002441406</ele>
        <time>2021-05-22T14:21:11Z</time>
      </trkpt>
      <trkpt lat="48.07829" lon="7.10501">
        <ele>704.40002441406</ele>
        <time>2021-05-22T14:21:16Z</time>
      </trkpt>
      <trkpt lat="48.07842" lon="7.10507">
        <ele>705.20001220703</ele>
        <time>2021-05-22T14:21:20Z</time>
      </trkpt>
      <trkpt lat="48.07845" lon="7.10509">
        <ele>705.59997558594</ele>
        <time>2021-05-22T14:21:21Z</time>
      </trkpt>
      <trkpt lat="48.07858" lon="7.10517">
        <ele>706.79998779297</ele>
        <time>2021-05-22T14:21:25Z</time>
      </trkpt>
      <trkpt lat="48.07871" lon="7.10525">
        <ele>708</ele>
        <time>2021-05-22T14:21:29Z</time>
      </trkpt>
      <trkpt lat="48.07881" lon="7.10532">
        <ele>708.59997558594</ele>
        <time>2021-05-22T14:21:32Z</time>
      </trkpt>
      <trkpt lat="48.07886" lon="7.10536">
        <ele>709.20001220703</ele>
        <time>2021-05-22T14:21:34Z</time>
      </trkpt>
      <trkpt lat="48.07902" lon="7.10547">
        <ele>710.20001220703</ele>
        <time>2021-05-22T14:21:39Z</time>
      </trkpt>
      <trkpt lat="48.07912" lon="7.10552">
        <ele>710.59997558594</ele>
        <time>2021-05-22T14:21:42Z</time>
      </trkpt>
      <trkpt lat="48.07925" lon="7.10558">
        <ele>711.40002441406</ele>
        <time>2021-05-22T14:21:46Z</time>
      </trkpt>
      <trkpt lat="48.07939" lon="7.10562">
        <ele>712.59997558594</ele>
        <time>2021-05-22T14:21:50Z</time>
      </trkpt>
      <trkpt lat="48.07956" lon="7.10566">
        <ele>713.40002441406</ele>
        <time>2021-05-22T14:21:55Z</time>
      </trkpt>
      <trkpt lat="48.07964" lon="7.10568">
        <ele>713.59997558594</ele>
        <time>2021-05-22T14:21:57Z</time>
      </trkpt>
      <trkpt lat="48.07978" lon="7.10571">
        <ele>714.59997558594</ele>
        <time>2021-05-22T14:22:01Z</time>
      </trkpt>
      <trkpt lat="48.07991" lon="7.10573">
        <ele>715.40002441406</ele>
        <time>2021-05-22T14:22:05Z</time>
      </trkpt>
      <trkpt lat="48.07998" lon="7.10574">
        <ele>715.79998779297</ele>
        <time>2021-05-22T14:22:07Z</time>
      </trkpt>
      <trkpt lat="48.08015" lon="7.10575">
        <ele>716.79998779297</ele>
        <time>2021-05-22T14:22:12Z</time>
      </trkpt>
      <trkpt lat="48.08025" lon="7.10575">
        <ele>717.40002441406</ele>
        <time>2021-05-22T14:22:15Z</time>
      </trkpt>
      <trkpt lat="48.08028" lon="7.10575">
        <ele>717.59997558594</ele>
        <time>2021-05-22T14:22:16Z</time>
      </trkpt>
      <trkpt lat="48.08034" lon="7.10576">
        <ele>717.79998779297</ele>
        <time>2021-05-22T14:22:18Z</time>
      </trkpt>
      <trkpt lat="48.08044" lon="7.10584">
        <ele>718.20001220703</ele>
        <time>2021-05-22T14:22:21Z</time>
      </trkpt>
      <trkpt lat="48.08046" lon="7.10602">
        <ele>718.79998779297</ele>
        <time>2021-05-22T14:22:25Z</time>
      </trkpt>
      <trkpt lat="48.08044" lon="7.10606">
        <ele>719</ele>
        <time>2021-05-22T14:22:26Z</time>
      </trkpt>
      <trkpt lat="48.08038" lon="7.10612">
        <ele>719.40002441406</ele>
        <time>2021-05-22T14:22:28Z</time>
      </trkpt>
      <trkpt lat="48.08034" lon="7.10613">
        <ele>719.40002441406</ele>
        <time>2021-05-22T14:22:29Z</time>
      </trkpt>
      <trkpt lat="48.08018" lon="7.10607">
        <ele>719.79998779297</ele>
        <time>2021-05-22T14:22:34Z</time>
      </trkpt>
      <trkpt lat="48.08013" lon="7.10605">
        <ele>720.40002441406</ele>
        <time>2021-05-22T14:22:35Z</time>
      </trkpt>
      <trkpt lat="48.07999" lon="7.10605">
        <ele>721.40002441406</ele>
        <time>2021-05-22T14:22:39Z</time>
      </trkpt>
      <trkpt lat="48.07989" lon="7.1061">
        <ele>722.59997558594</ele>
        <time>2021-05-22T14:22:42Z</time>
      </trkpt>
      <trkpt lat="48.07975" lon="7.10617">
        <ele>723.40002441406</ele>
        <time>2021-05-22T14:22:46Z</time>
      </trkpt>
      <trkpt lat="48.07972" lon="7.10619">
        <ele>723.59997558594</ele>
        <time>2021-05-22T14:22:47Z</time>
      </trkpt>
      <trkpt lat="48.07959" lon="7.10626">
        <ele>724.79998779297</ele>
        <time>2021-05-22T14:22:51Z</time>
      </trkpt>
      <trkpt lat="48.07942" lon="7.10631">
        <ele>726</ele>
        <time>2021-05-22T14:22:56Z</time>
      </trkpt>
      <trkpt lat="48.07938" lon="7.10632">
        <ele>726</ele>
        <time>2021-05-22T14:22:57Z</time>
      </trkpt>
      <trkpt lat="48.07914" lon="7.10631">
        <ele>726.79998779297</ele>
        <time>2021-05-22T14:23:04Z</time>
      </trkpt>
      <trkpt lat="48.07881" lon="7.10624">
        <ele>727.79998779297</ele>
        <time>2021-05-22T14:23:13Z</time>
      </trkpt>
      <trkpt lat="48.07878" lon="7.10623">
        <ele>728</ele>
        <time>2021-05-22T14:23:14Z</time>
      </trkpt>
      <trkpt lat="48.07862" lon="7.10617">
        <ele>729.40002441406</ele>
        <time>2021-05-22T14:23:19Z</time>
      </trkpt>
      <trkpt lat="48.07852" lon="7.10614">
        <ele>730.20001220703</ele>
        <time>2021-05-22T14:23:22Z</time>
      </trkpt>
      <trkpt lat="48.07848" lon="7.10613">
        <ele>730.20001220703</ele>
        <time>2021-05-22T14:23:23Z</time>
      </trkpt>
      <trkpt lat="48.07831" lon="7.10608">
        <ele>731.59997558594</ele>
        <time>2021-05-22T14:23:28Z</time>
      </trkpt>
      <trkpt lat="48.07824" lon="7.10607">
        <ele>732.20001220703</ele>
        <time>2021-05-22T14:23:30Z</time>
      </trkpt>
      <trkpt lat="48.07817" lon="7.10607">
        <ele>732.59997558594</ele>
        <time>2021-05-22T14:23:32Z</time>
      </trkpt>
      <trkpt lat="48.07803" lon="7.10607">
        <ele>733.79998779297</ele>
        <time>2021-05-22T14:23:36Z</time>
      </trkpt>
      <trkpt lat="48.07794" lon="7.10608">
        <ele>734.20001220703</ele>
        <time>2021-05-22T14:23:39Z</time>
      </trkpt>
      <trkpt lat="48.07775" lon="7.1061">
        <ele>735.20001220703</ele>
        <time>2021-05-22T14:23:45Z</time>
      </trkpt>
      <trkpt lat="48.0776" lon="7.10614">
        <ele>736.59997558594</ele>
        <time>2021-05-22T14:23:50Z</time>
      </trkpt>
      <trkpt lat="48.07757" lon="7.10616">
        <ele>737</ele>
        <time>2021-05-22T14:23:51Z</time>
      </trkpt>
      <trkpt lat="48.07748" lon="7.10622">
        <ele>737.79998779297</ele>
        <time>2021-05-22T14:23:54Z</time>
      </trkpt>
      <trkpt lat="48.07742" lon="7.10634">
        <ele>738.59997558594</ele>
        <time>2021-05-22T14:23:57Z</time>
      </trkpt>
      <trkpt lat="48.07742" lon="7.10638">
        <ele>738.79998779297</ele>
        <time>2021-05-22T14:23:58Z</time>
      </trkpt>
      <trkpt lat="48.07743" lon="7.10652">
        <ele>740.40002441406</ele>
        <time>2021-05-22T14:24:01Z</time>
      </trkpt>
      <trkpt lat="48.07752" lon="7.10667">
        <ele>741.20001220703</ele>
        <time>2021-05-22T14:24:05Z</time>
      </trkpt>
      <trkpt lat="48.07772" lon="7.10679">
        <ele>741.40002441406</ele>
        <time>2021-05-22T14:24:11Z</time>
      </trkpt>
      <trkpt lat="48.07786" lon="7.10686">
        <ele>741.79998779297</ele>
        <time>2021-05-22T14:24:15Z</time>
      </trkpt>
      <trkpt lat="48.07802" lon="7.10694">
        <ele>743</ele>
        <time>2021-05-22T14:24:20Z</time>
      </trkpt>
      <trkpt lat="48.07819" lon="7.10702">
        <ele>744.20001220703</ele>
        <time>2021-05-22T14:24:25Z</time>
      </trkpt>
      <trkpt lat="48.07839" lon="7.10712">
        <ele>745.20001220703</ele>
        <time>2021-05-22T14:24:31Z</time>
      </trkpt>
      <trkpt lat="48.07855" lon="7.10721">
        <ele>746.40002441406</ele>
        <time>2021-05-22T14:24:36Z</time>
      </trkpt>
      <trkpt lat="48.07873" lon="7.10733">
        <ele>747.20001220703</ele>
        <time>2021-05-22T14:24:42Z</time>
      </trkpt>
      <trkpt lat="48.07876" lon="7.10736">
        <ele>747.40002441406</ele>
        <time>2021-05-22T14:24:43Z</time>
      </trkpt>
      <trkpt lat="48.07884" lon="7.10743">
        <ele>748.59997558594</ele>
        <time>2021-05-22T14:24:46Z</time>
      </trkpt>
      <trkpt lat="48.07904" lon="7.10761">
        <ele>749.40002441406</ele>
        <time>2021-05-22T14:24:53Z</time>
      </trkpt>
      <trkpt lat="48.07909" lon="7.10767">
        <ele>750</ele>
        <time>2021-05-22T14:24:55Z</time>
      </trkpt>
      <trkpt lat="48.07926" lon="7.10785">
        <ele>751</ele>
        <time>2021-05-22T14:25:01Z</time>
      </trkpt>
      <trkpt lat="48.07933" lon="7.10794">
        <ele>752</ele>
        <time>2021-05-22T14:25:04Z</time>
      </trkpt>
      <trkpt lat="48.07936" lon="7.10797">
        <ele>752.20001220703</ele>
        <time>2021-05-22T14:25:05Z</time>
      </trkpt>
      <trkpt lat="48.07949" lon="7.10812">
        <ele>753.20001220703</ele>
        <time>2021-05-22T14:25:10Z</time>
      </trkpt>
      <trkpt lat="48.07963" lon="7.10824">
        <ele>754.40002441406</ele>
        <time>2021-05-22T14:25:15Z</time>
      </trkpt>
      <trkpt lat="48.07966" lon="7.10826">
        <ele>754.59997558594</ele>
        <time>2021-05-22T14:25:16Z</time>
      </trkpt>
      <trkpt lat="48.07979" lon="7.10834">
        <ele>755.40002441406</ele>
        <time>2021-05-22T14:25:20Z</time>
      </trkpt>
      <trkpt lat="48.07995" lon="7.10843">
        <ele>756.20001220703</ele>
        <time>2021-05-22T14:25:25Z</time>
      </trkpt>
      <trkpt lat="48.07998" lon="7.10845">
        <ele>756.59997558594</ele>
        <time>2021-05-22T14:25:26Z</time>
      </trkpt>
      <trkpt lat="48.08011" lon="7.10853">
        <ele>757.59997558594</ele>
        <time>2021-05-22T14:25:30Z</time>
      </trkpt>
      <trkpt lat="48.08023" lon="7.10861">
        <ele>758.59997558594</ele>
        <time>2021-05-22T14:25:34Z</time>
      </trkpt>
      <trkpt lat="48.08032" lon="7.10868">
        <ele>759.59997558594</ele>
        <time>2021-05-22T14:25:37Z</time>
      </trkpt>
      <trkpt lat="48.08044" lon="7.10876">
        <ele>760.79998779297</ele>
        <time>2021-05-22T14:25:41Z</time>
      </trkpt>
      <trkpt lat="48.08053" lon="7.10883">
        <ele>762.20001220703</ele>
        <time>2021-05-22T14:25:44Z</time>
      </trkpt>
      <trkpt lat="48.08062" lon="7.10891">
        <ele>762.59997558594</ele>
        <time>2021-05-22T14:25:47Z</time>
      </trkpt>
      <trkpt lat="48.0807" lon="7.10899">
        <ele>763.40002441406</ele>
        <time>2021-05-22T14:25:50Z</time>
      </trkpt>
      <trkpt lat="48.08077" lon="7.10908">
        <ele>764.40002441406</ele>
        <time>2021-05-22T14:25:53Z</time>
      </trkpt>
      <trkpt lat="48.08087" lon="7.1092">
        <ele>765.40002441406</ele>
        <time>2021-05-22T14:25:57Z</time>
      </trkpt>
      <trkpt lat="48.0809" lon="7.10924">
        <ele>765.59997558594</ele>
        <time>2021-05-22T14:25:58Z</time>
      </trkpt>
      <trkpt lat="48.081" lon="7.10937">
        <ele>766.59997558594</ele>
        <time>2021-05-22T14:26:02Z</time>
      </trkpt>
      <trkpt lat="48.0811" lon="7.10949">
        <ele>767.40002441406</ele>
        <time>2021-05-22T14:26:06Z</time>
      </trkpt>
      <trkpt lat="48.08112" lon="7.10952">
        <ele>767.59997558594</ele>
        <time>2021-05-22T14:26:07Z</time>
      </trkpt>
      <trkpt lat="48.08131" lon="7.10974">
        <ele>768.79998779297</ele>
        <time>2021-05-22T14:26:14Z</time>
      </trkpt>
      <trkpt lat="48.08136" lon="7.10979">
        <ele>769.20001220703</ele>
        <time>2021-05-22T14:26:16Z</time>
      </trkpt>
      <trkpt lat="48.08143" lon="7.10988">
        <ele>770</ele>
        <time>2021-05-22T14:26:19Z</time>
      </trkpt>
      <trkpt lat="48.08159" lon="7.11006">
        <ele>771.20001220703</ele>
        <time>2021-05-22T14:26:25Z</time>
      </trkpt>
      <trkpt lat="48.08161" lon="7.11008">
        <ele>771.40002441406</ele>
        <time>2021-05-22T14:26:26Z</time>
      </trkpt>
      <trkpt lat="48.08174" lon="7.11024">
        <ele>772.20001220703</ele>
        <time>2021-05-22T14:26:31Z</time>
      </trkpt>
      <trkpt lat="48.08185" lon="7.11037">
        <ele>773.40002441406</ele>
        <time>2021-05-22T14:26:35Z</time>
      </trkpt>
      <trkpt lat="48.08187" lon="7.11039">
        <ele>773.40002441406</ele>
        <time>2021-05-22T14:26:36Z</time>
      </trkpt>
      <trkpt lat="48.08197" lon="7.11051">
        <ele>774.59997558594</ele>
        <time>2021-05-22T14:26:40Z</time>
      </trkpt>
      <trkpt lat="48.08211" lon="7.11065">
        <ele>775.59997558594</ele>
        <time>2021-05-22T14:26:45Z</time>
      </trkpt>
      <trkpt lat="48.08218" lon="7.11073">
        <ele>776.59997558594</ele>
        <time>2021-05-22T14:26:48Z</time>
      </trkpt>
      <trkpt lat="48.08231" lon="7.11087">
        <ele>777.59997558594</ele>
        <time>2021-05-22T14:26:53Z</time>
      </trkpt>
      <trkpt lat="48.08234" lon="7.1109">
        <ele>777.79998779297</ele>
        <time>2021-05-22T14:26:54Z</time>
      </trkpt>
      <trkpt lat="48.08249" lon="7.11107">
        <ele>778.79998779297</ele>
        <time>2021-05-22T14:27:00Z</time>
      </trkpt>
      <trkpt lat="48.08263" lon="7.11119">
        <ele>779.59997558594</ele>
        <time>2021-05-22T14:27:05Z</time>
      </trkpt>
      <trkpt lat="48.08266" lon="7.11122">
        <ele>779.79998779297</ele>
        <time>2021-05-22T14:27:06Z</time>
      </trkpt>
      <trkpt lat="48.08277" lon="7.11131">
        <ele>781</ele>
        <time>2021-05-22T14:27:10Z</time>
      </trkpt>
      <trkpt lat="48.08292" lon="7.11144">
        <ele>782</ele>
        <time>2021-05-22T14:27:15Z</time>
      </trkpt>
      <trkpt lat="48.08295" lon="7.11146">
        <ele>782.20001220703</ele>
        <time>2021-05-22T14:27:16Z</time>
      </trkpt>
      <trkpt lat="48.0831" lon="7.11158">
        <ele>783.20001220703</ele>
        <time>2021-05-22T14:27:21Z</time>
      </trkpt>
      <trkpt lat="48.0832" lon="7.11168">
        <ele>784</ele>
        <time>2021-05-22T14:27:25Z</time>
      </trkpt>
      <trkpt lat="48.08323" lon="7.11171">
        <ele>784.20001220703</ele>
        <time>2021-05-22T14:27:26Z</time>
      </trkpt>
      <trkpt lat="48.08334" lon="7.11179">
        <ele>785.40002441406</ele>
        <time>2021-05-22T14:27:30Z</time>
      </trkpt>
      <trkpt lat="48.08343" lon="7.11185">
        <ele>785.79998779297</ele>
        <time>2021-05-22T14:27:33Z</time>
      </trkpt>
      <trkpt lat="48.08352" lon="7.1119">
        <ele>786.40002441406</ele>
        <time>2021-05-22T14:27:36Z</time>
      </trkpt>
      <trkpt lat="48.08362" lon="7.11192">
        <ele>787.20001220703</ele>
        <time>2021-05-22T14:27:39Z</time>
      </trkpt>
      <trkpt lat="48.08365" lon="7.11192">
        <ele>787.40002441406</ele>
        <time>2021-05-22T14:27:40Z</time>
      </trkpt>
      <trkpt lat="48.08382" lon="7.11191">
        <ele>788.59997558594</ele>
        <time>2021-05-22T14:27:45Z</time>
      </trkpt>
      <trkpt lat="48.08395" lon="7.11188">
        <ele>790</ele>
        <time>2021-05-22T14:27:49Z</time>
      </trkpt>
      <trkpt lat="48.08406" lon="7.11185">
        <ele>791.20001220703</ele>
        <time>2021-05-22T14:27:52Z</time>
      </trkpt>
      <trkpt lat="48.08409" lon="7.11185">
        <ele>791.59997558594</ele>
        <time>2021-05-22T14:27:53Z</time>
      </trkpt>
      <trkpt lat="48.08416" lon="7.11182">
        <ele>792.20001220703</ele>
        <time>2021-05-22T14:27:55Z</time>
      </trkpt>
      <trkpt lat="48.08438" lon="7.1117">
        <ele>793.20001220703</ele>
        <time>2021-05-22T14:28:02Z</time>
      </trkpt>
      <trkpt lat="48.08449" lon="7.11161">
        <ele>794.40002441406</ele>
        <time>2021-05-22T14:28:06Z</time>
      </trkpt>
      <trkpt lat="48.08458" lon="7.11156">
        <ele>795</ele>
        <time>2021-05-22T14:28:09Z</time>
      </trkpt>
      <trkpt lat="48.08461" lon="7.11156">
        <ele>795.59997558594</ele>
        <time>2021-05-22T14:28:10Z</time>
      </trkpt>
      <trkpt lat="48.08466" lon="7.1116">
        <ele>796</ele>
        <time>2021-05-22T14:28:12Z</time>
      </trkpt>
      <trkpt lat="48.08468" lon="7.11163">
        <ele>796.40002441406</ele>
        <time>2021-05-22T14:28:13Z</time>
      </trkpt>
      <trkpt lat="48.08468" lon="7.11172">
        <ele>796.59997558594</ele>
        <time>2021-05-22T14:28:15Z</time>
      </trkpt>
      <trkpt lat="48.08459" lon="7.11188">
        <ele>797.79998779297</ele>
        <time>2021-05-22T14:28:19Z</time>
      </trkpt>
      <trkpt lat="48.08446" lon="7.11196">
        <ele>799</ele>
        <time>2021-05-22T14:28:23Z</time>
      </trkpt>
      <trkpt lat="48.08437" lon="7.11199">
        <ele>800</ele>
        <time>2021-05-22T14:28:26Z</time>
      </trkpt>
      <trkpt lat="48.08434" lon="7.112">
        <ele>800.20001220703</ele>
        <time>2021-05-22T14:28:27Z</time>
      </trkpt>
      <trkpt lat="48.08421" lon="7.11205">
        <ele>801.40002441406</ele>
        <time>2021-05-22T14:28:31Z</time>
      </trkpt>
      <trkpt lat="48.08405" lon="7.11212">
        <ele>802.40002441406</ele>
        <time>2021-05-22T14:28:36Z</time>
      </trkpt>
      <trkpt lat="48.0839" lon="7.11217">
        <ele>803.59997558594</ele>
        <time>2021-05-22T14:28:41Z</time>
      </trkpt>
      <trkpt lat="48.08381" lon="7.11221">
        <ele>804.20001220703</ele>
        <time>2021-05-22T14:28:44Z</time>
      </trkpt>
      <trkpt lat="48.08375" lon="7.11222">
        <ele>804.79998779297</ele>
        <time>2021-05-22T14:28:46Z</time>
      </trkpt>
      <trkpt lat="48.08355" lon="7.11226">
        <ele>806</ele>
        <time>2021-05-22T14:28:52Z</time>
      </trkpt>
      <trkpt lat="48.08352" lon="7.11226">
        <ele>806.40002441406</ele>
        <time>2021-05-22T14:28:53Z</time>
      </trkpt>
      <trkpt lat="48.08329" lon="7.11225">
        <ele>807</ele>
        <time>2021-05-22T14:29:00Z</time>
      </trkpt>
      <trkpt lat="48.08326" lon="7.11225">
        <ele>807.20001220703</ele>
        <time>2021-05-22T14:29:01Z</time>
      </trkpt>
      <trkpt lat="48.0831" lon="7.11222">
        <ele>808</ele>
        <time>2021-05-22T14:29:06Z</time>
      </trkpt>
      <trkpt lat="48.0829" lon="7.11222">
        <ele>809</ele>
        <time>2021-05-22T14:29:12Z</time>
      </trkpt>
      <trkpt lat="48.08287" lon="7.11222">
        <ele>809.40002441406</ele>
        <time>2021-05-22T14:29:13Z</time>
      </trkpt>
      <trkpt lat="48.08254" lon="7.11222">
        <ele>810.40002441406</ele>
        <time>2021-05-22T14:29:23Z</time>
      </trkpt>
      <trkpt lat="48.08248" lon="7.11223">
        <ele>811</ele>
        <time>2021-05-22T14:29:25Z</time>
      </trkpt>
      <trkpt lat="48.08241" lon="7.11224">
        <ele>811.59997558594</ele>
        <time>2021-05-22T14:29:27Z</time>
      </trkpt>
      <trkpt lat="48.08226" lon="7.11227">
        <ele>812.59997558594</ele>
        <time>2021-05-22T14:29:32Z</time>
      </trkpt>
      <trkpt lat="48.08209" lon="7.1123">
        <ele>813.59997558594</ele>
        <time>2021-05-22T14:29:37Z</time>
      </trkpt>
      <trkpt lat="48.08206" lon="7.1123">
        <ele>813.59997558594</ele>
        <time>2021-05-22T14:29:38Z</time>
      </trkpt>
      <trkpt lat="48.08187" lon="7.11234">
        <ele>814.79998779297</ele>
        <time>2021-05-22T14:29:44Z</time>
      </trkpt>
      <trkpt lat="48.08173" lon="7.11237">
        <ele>815.40002441406</ele>
        <time>2021-05-22T14:29:48Z</time>
      </trkpt>
      <trkpt lat="48.0816" lon="7.11241">
        <ele>815.79998779297</ele>
        <time>2021-05-22T14:29:52Z</time>
      </trkpt>
      <trkpt lat="48.08147" lon="7.11247">
        <ele>817</ele>
        <time>2021-05-22T14:29:56Z</time>
      </trkpt>
      <trkpt lat="48.08138" lon="7.11253">
        <ele>817.40002441406</ele>
        <time>2021-05-22T14:29:59Z</time>
      </trkpt>
      <trkpt lat="48.08132" lon="7.11256">
        <ele>818</ele>
        <time>2021-05-22T14:30:01Z</time>
      </trkpt>
      <trkpt lat="48.08126" lon="7.11259">
        <ele>818.79998779297</ele>
        <time>2021-05-22T14:30:03Z</time>
      </trkpt>
      <trkpt lat="48.08119" lon="7.11261">
        <ele>819.20001220703</ele>
        <time>2021-05-22T14:30:05Z</time>
      </trkpt>
      <trkpt lat="48.08108" lon="7.11262">
        <ele>819.79998779297</ele>
        <time>2021-05-22T14:30:08Z</time>
      </trkpt>
      <trkpt lat="48.08105" lon="7.11262">
        <ele>820.20001220703</ele>
        <time>2021-05-22T14:30:09Z</time>
      </trkpt>
      <trkpt lat="48.08096" lon="7.1126">
        <ele>821.40002441406</ele>
        <time>2021-05-22T14:30:12Z</time>
      </trkpt>
      <trkpt lat="48.08084" lon="7.11254">
        <ele>822.40002441406</ele>
        <time>2021-05-22T14:30:16Z</time>
      </trkpt>
      <trkpt lat="48.08061" lon="7.11249">
        <ele>823.79998779297</ele>
        <time>2021-05-22T14:30:23Z</time>
      </trkpt>
      <trkpt lat="48.0805" lon="7.11263">
        <ele>824.79998779297</ele>
        <time>2021-05-22T14:30:27Z</time>
      </trkpt>
      <trkpt lat="48.0805" lon="7.11268">
        <ele>825</ele>
        <time>2021-05-22T14:30:28Z</time>
      </trkpt>
      <trkpt lat="48.08051" lon="7.11288">
        <ele>826</ele>
        <time>2021-05-22T14:30:32Z</time>
      </trkpt>
      <trkpt lat="48.08055" lon="7.11297">
        <ele>826.20001220703</ele>
        <time>2021-05-22T14:30:34Z</time>
      </trkpt>
      <trkpt lat="48.08061" lon="7.11303">
        <ele>826.40002441406</ele>
        <time>2021-05-22T14:30:36Z</time>
      </trkpt>
      <trkpt lat="48.08075" lon="7.11312">
        <ele>827.20001220703</ele>
        <time>2021-05-22T14:30:40Z</time>
      </trkpt>
      <trkpt lat="48.08093" lon="7.11321">
        <ele>827.59997558594</ele>
        <time>2021-05-22T14:30:45Z</time>
      </trkpt>
      <trkpt lat="48.08109" lon="7.11326">
        <ele>828.40002441406</ele>
        <time>2021-05-22T14:30:49Z</time>
      </trkpt>
      <trkpt lat="48.08127" lon="7.11328">
        <ele>829.40002441406</ele>
        <time>2021-05-22T14:30:54Z</time>
      </trkpt>
      <trkpt lat="48.08151" lon="7.11326">
        <ele>830.79998779297</ele>
        <time>2021-05-22T14:31:00Z</time>
      </trkpt>
      <trkpt lat="48.08162" lon="7.11325">
        <ele>831.59997558594</ele>
        <time>2021-05-22T14:31:03Z</time>
      </trkpt>
      <trkpt lat="48.08165" lon="7.11325">
        <ele>831.79998779297</ele>
        <time>2021-05-22T14:31:04Z</time>
      </trkpt>
      <trkpt lat="48.08176" lon="7.11326">
        <ele>832.79998779297</ele>
        <time>2021-05-22T14:31:07Z</time>
      </trkpt>
      <trkpt lat="48.08195" lon="7.1133">
        <ele>833.79998779297</ele>
        <time>2021-05-22T14:31:12Z</time>
      </trkpt>
      <trkpt lat="48.08198" lon="7.1133">
        <ele>834.20001220703</ele>
        <time>2021-05-22T14:31:13Z</time>
      </trkpt>
      <trkpt lat="48.08205" lon="7.11331">
        <ele>835</ele>
        <time>2021-05-22T14:31:15Z</time>
      </trkpt>
      <trkpt lat="48.08218" lon="7.11332">
        <ele>836.20001220703</ele>
        <time>2021-05-22T14:31:19Z</time>
      </trkpt>
      <trkpt lat="48.08222" lon="7.11332">
        <ele>836.40002441406</ele>
        <time>2021-05-22T14:31:20Z</time>
      </trkpt>
      <trkpt lat="48.08235" lon="7.11331">
        <ele>837.40002441406</ele>
        <time>2021-05-22T14:31:24Z</time>
      </trkpt>
      <trkpt lat="48.08252" lon="7.11329">
        <ele>838.59997558594</ele>
        <time>2021-05-22T14:31:29Z</time>
      </trkpt>
      <trkpt lat="48.08256" lon="7.11328">
        <ele>838.59997558594</ele>
        <time>2021-05-22T14:31:30Z</time>
      </trkpt>
      <trkpt lat="48.08258" lon="7.11328">
        <ele>839</ele>
        <time>2021-05-22T14:31:31Z</time>
      </trkpt>
      <trkpt lat="48.08268" lon="7.11327">
        <ele>839.79998779297</ele>
        <time>2021-05-22T14:31:34Z</time>
      </trkpt>
      <trkpt lat="48.0828" lon="7.11328">
        <ele>841</ele>
        <time>2021-05-22T14:31:38Z</time>
      </trkpt>
      <trkpt lat="48.08286" lon="7.11329">
        <ele>841.40002441406</ele>
        <time>2021-05-22T14:31:40Z</time>
      </trkpt>
      <trkpt lat="48.08302" lon="7.11332">
        <ele>842.20001220703</ele>
        <time>2021-05-22T14:31:45Z</time>
      </trkpt>
      <trkpt lat="48.08326" lon="7.11338">
        <ele>842.79998779297</ele>
        <time>2021-05-22T14:31:52Z</time>
      </trkpt>
      <trkpt lat="48.08338" lon="7.11342">
        <ele>843.20001220703</ele>
        <time>2021-05-22T14:31:56Z</time>
      </trkpt>
      <trkpt lat="48.08355" lon="7.11342">
        <ele>844.59997558594</ele>
        <time>2021-05-22T14:32:01Z</time>
      </trkpt>
      <trkpt lat="48.08383" lon="7.11342">
        <ele>845.59997558594</ele>
        <time>2021-05-22T14:32:09Z</time>
      </trkpt>
      <trkpt lat="48.08395" lon="7.11342">
        <ele>846.79998779297</ele>
        <time>2021-05-22T14:32:13Z</time>
      </trkpt>
      <trkpt lat="48.08399" lon="7.11343">
        <ele>846.79998779297</ele>
        <time>2021-05-22T14:32:14Z</time>
      </trkpt>
      <trkpt lat="48.08411" lon="7.11345">
        <ele>848</ele>
        <time>2021-05-22T14:32:18Z</time>
      </trkpt>
      <trkpt lat="48.08425" lon="7.11347">
        <ele>849.20001220703</ele>
        <time>2021-05-22T14:32:22Z</time>
      </trkpt>
      <trkpt lat="48.08431" lon="7.11349">
        <ele>849.79998779297</ele>
        <time>2021-05-22T14:32:24Z</time>
      </trkpt>
      <trkpt lat="48.08437" lon="7.1135">
        <ele>850.40002441406</ele>
        <time>2021-05-22T14:32:26Z</time>
      </trkpt>
      <trkpt lat="48.08455" lon="7.11352">
        <ele>851.40002441406</ele>
        <time>2021-05-22T14:32:31Z</time>
      </trkpt>
      <trkpt lat="48.08462" lon="7.11354">
        <ele>851.79998779297</ele>
        <time>2021-05-22T14:32:33Z</time>
      </trkpt>
      <trkpt lat="48.08468" lon="7.11354">
        <ele>852.59997558594</ele>
        <time>2021-05-22T14:32:35Z</time>
      </trkpt>
      <trkpt lat="48.08484" lon="7.11355">
        <ele>853.79998779297</ele>
        <time>2021-05-22T14:32:40Z</time>
      </trkpt>
      <trkpt lat="48.08495" lon="7.11355">
        <ele>854.59997558594</ele>
        <time>2021-05-22T14:32:43Z</time>
      </trkpt>
      <trkpt lat="48.08501" lon="7.11356">
        <ele>855.20001220703</ele>
        <time>2021-05-22T14:32:45Z</time>
      </trkpt>
      <trkpt lat="48.0852" lon="7.11357">
        <ele>856.20001220703</ele>
        <time>2021-05-22T14:32:50Z</time>
      </trkpt>
      <trkpt lat="48.08531" lon="7.11358">
        <ele>856.79998779297</ele>
        <time>2021-05-22T14:32:53Z</time>
      </trkpt>
      <trkpt lat="48.08537" lon="7.11359">
        <ele>857.59997558594</ele>
        <time>2021-05-22T14:32:55Z</time>
      </trkpt>
      <trkpt lat="48.08554" lon="7.11362">
        <ele>858.79998779297</ele>
        <time>2021-05-22T14:33:00Z</time>
      </trkpt>
      <trkpt lat="48.08561" lon="7.11363">
        <ele>859.20001220703</ele>
        <time>2021-05-22T14:33:02Z</time>
      </trkpt>
      <trkpt lat="48.08581" lon="7.11366">
        <ele>859.79998779297</ele>
        <time>2021-05-22T14:33:08Z</time>
      </trkpt>
      <trkpt lat="48.08592" lon="7.11368">
        <ele>861</ele>
        <time>2021-05-22T14:33:11Z</time>
      </trkpt>
      <trkpt lat="48.08595" lon="7.11369">
        <ele>861</ele>
        <time>2021-05-22T14:33:12Z</time>
      </trkpt>
      <trkpt lat="48.08607" lon="7.11372">
        <ele>862</ele>
        <time>2021-05-22T14:33:16Z</time>
      </trkpt>
      <trkpt lat="48.08621" lon="7.11376">
        <ele>863</ele>
        <time>2021-05-22T14:33:20Z</time>
      </trkpt>
      <trkpt lat="48.08631" lon="7.11379">
        <ele>864</ele>
        <time>2021-05-22T14:33:23Z</time>
      </trkpt>
      <trkpt lat="48.08634" lon="7.11381">
        <ele>864.20001220703</ele>
        <time>2021-05-22T14:33:24Z</time>
      </trkpt>
      <trkpt lat="48.08641" lon="7.11383">
        <ele>865</ele>
        <time>2021-05-22T14:33:26Z</time>
      </trkpt>
      <trkpt lat="48.0865" lon="7.11389">
        <ele>866</ele>
        <time>2021-05-22T14:33:29Z</time>
      </trkpt>
      <trkpt lat="48.08663" lon="7.11396">
        <ele>866.79998779297</ele>
        <time>2021-05-22T14:33:33Z</time>
      </trkpt>
      <trkpt lat="48.08666" lon="7.11398">
        <ele>867.20001220703</ele>
        <time>2021-05-22T14:33:34Z</time>
      </trkpt>
      <trkpt lat="48.0869" lon="7.11405">
        <ele>868.20001220703</ele>
        <time>2021-05-22T14:33:41Z</time>
      </trkpt>
      <trkpt lat="48.08698" lon="7.11406">
        <ele>868.59997558594</ele>
        <time>2021-05-22T14:33:43Z</time>
      </trkpt>
      <trkpt lat="48.087" lon="7.11406">
        <ele>868.79998779297</ele>
        <time>2021-05-22T14:33:44Z</time>
      </trkpt>
      <trkpt lat="48.08711" lon="7.11403">
        <ele>869.20001220703</ele>
        <time>2021-05-22T14:33:47Z</time>
      </trkpt>
      <trkpt lat="48.08721" lon="7.11398">
        <ele>869.59997558594</ele>
        <time>2021-05-22T14:33:50Z</time>
      </trkpt>
      <trkpt lat="48.08731" lon="7.1139">
        <ele>870.20001220703</ele>
        <time>2021-05-22T14:33:53Z</time>
      </trkpt>
      <trkpt lat="48.08739" lon="7.11381">
        <ele>871.20001220703</ele>
        <time>2021-05-22T14:33:56Z</time>
      </trkpt>
      <trkpt lat="48.08741" lon="7.11377">
        <ele>871.59997558594</ele>
        <time>2021-05-22T14:33:57Z</time>
      </trkpt>
      <trkpt lat="48.08749" lon="7.11355">
        <ele>873.20001220703</ele>
        <time>2021-05-22T14:34:02Z</time>
      </trkpt>
      <trkpt lat="48.08751" lon="7.1135">
        <ele>873.40002441406</ele>
        <time>2021-05-22T14:34:03Z</time>
      </trkpt>
      <trkpt lat="48.08758" lon="7.11323">
        <ele>874.20001220703</ele>
        <time>2021-05-22T14:34:09Z</time>
      </trkpt>
      <trkpt lat="48.08761" lon="7.11313">
        <ele>875</ele>
        <time>2021-05-22T14:34:11Z</time>
      </trkpt>
      <trkpt lat="48.08763" lon="7.11309">
        <ele>875.20001220703</ele>
        <time>2021-05-22T14:34:12Z</time>
      </trkpt>
      <trkpt lat="48.08769" lon="7.11304">
        <ele>876.20001220703</ele>
        <time>2021-05-22T14:34:14Z</time>
      </trkpt>
      <trkpt lat="48.08772" lon="7.11304">
        <ele>876.40002441406</ele>
        <time>2021-05-22T14:34:15Z</time>
      </trkpt>
      <trkpt lat="48.08783" lon="7.11314">
        <ele>876.79998779297</ele>
        <time>2021-05-22T14:34:19Z</time>
      </trkpt>
      <trkpt lat="48.08785" lon="7.11336">
        <ele>877.20001220703</ele>
        <time>2021-05-22T14:34:23Z</time>
      </trkpt>
      <trkpt lat="48.08785" lon="7.11343">
        <ele>877.40002441406</ele>
        <time>2021-05-22T14:34:24Z</time>
      </trkpt>
      <trkpt lat="48.08783" lon="7.11362">
        <ele>878.40002441406</ele>
        <time>2021-05-22T14:34:27Z</time>
      </trkpt>
      <trkpt lat="48.0878" lon="7.11389">
        <ele>879.20001220703</ele>
        <time>2021-05-22T14:34:31Z</time>
      </trkpt>
      <trkpt lat="48.08779" lon="7.11399">
        <ele>879.40002441406</ele>
        <time>2021-05-22T14:34:33Z</time>
      </trkpt>
      <trkpt lat="48.08776" lon="7.11418">
        <ele>880.59997558594</ele>
        <time>2021-05-22T14:34:36Z</time>
      </trkpt>
      <trkpt lat="48.08773" lon="7.11441">
        <ele>881.59997558594</ele>
        <time>2021-05-22T14:34:40Z</time>
      </trkpt>
      <trkpt lat="48.08772" lon="7.11452">
        <ele>882.20001220703</ele>
        <time>2021-05-22T14:34:42Z</time>
      </trkpt>
      <trkpt lat="48.08771" lon="7.11464">
        <ele>882.79998779297</ele>
        <time>2021-05-22T14:34:45Z</time>
      </trkpt>
      <trkpt lat="48.0877" lon="7.11468">
        <ele>883.20001220703</ele>
        <time>2021-05-22T14:34:48Z</time>
      </trkpt>
      <trkpt lat="48.0877" lon="7.11468">
        <ele>883.40002441406</ele>
        <time>2021-05-22T14:34:49Z</time>
      </trkpt>
      <trkpt lat="48.08769" lon="7.11475">
        <ele>884</ele>
        <time>2021-05-22T14:40:28Z</time>
      </trkpt>
      <trkpt lat="48.08769" lon="7.11484">
        <ele>884</ele>
        <time>2021-05-22T14:40:31Z</time>
      </trkpt>
      <trkpt lat="48.08771" lon="7.11508">
        <ele>884.40002441406</ele>
        <time>2021-05-22T14:40:37Z</time>
      </trkpt>
      <trkpt lat="48.08774" lon="7.11531">
        <ele>885.20001220703</ele>
        <time>2021-05-22T14:40:42Z</time>
      </trkpt>
      <trkpt lat="48.08776" lon="7.1154">
        <ele>885.40002441406</ele>
        <time>2021-05-22T14:40:44Z</time>
      </trkpt>
      <trkpt lat="48.08779" lon="7.11564">
        <ele>886.59997558594</ele>
        <time>2021-05-22T14:40:49Z</time>
      </trkpt>
      <trkpt lat="48.08781" lon="7.11577">
        <ele>887.20001220703</ele>
        <time>2021-05-22T14:40:52Z</time>
      </trkpt>
      <trkpt lat="48.08782" lon="7.11581">
        <ele>887.40002441406</ele>
        <time>2021-05-22T14:40:53Z</time>
      </trkpt>
      <trkpt lat="48.08784" lon="7.11592">
        <ele>888.79998779297</ele>
        <time>2021-05-22T14:40:56Z</time>
      </trkpt>
      <trkpt lat="48.08784" lon="7.11599">
        <ele>889.40002441406</ele>
        <time>2021-05-22T14:40:58Z</time>
      </trkpt>
      <trkpt lat="48.08786" lon="7.11605">
        <ele>889.59997558594</ele>
        <time>2021-05-22T14:41:01Z</time>
      </trkpt>
      <trkpt lat="48.08785" lon="7.11609">
        <ele>889.79998779297</ele>
        <time>2021-05-22T14:41:03Z</time>
      </trkpt>
      <trkpt lat="48.08784" lon="7.11618">
        <ele>890</ele>
        <time>2021-05-22T14:41:09Z</time>
      </trkpt>
      <trkpt lat="48.08785" lon="7.11621">
        <ele>890.20001220703</ele>
        <time>2021-05-22T14:41:11Z</time>
      </trkpt>
      <trkpt lat="48.08786" lon="7.11624">
        <ele>890.20001220703</ele>
        <time>2021-05-22T14:41:14Z</time>
      </trkpt>
      <trkpt lat="48.08786" lon="7.11625">
        <ele>890.20001220703</ele>
        <time>2021-05-22T14:41:15Z</time>
      </trkpt>
      <trkpt lat="48.08788" lon="7.11632">
        <ele>890.20001220703</ele>
        <time>2021-05-22T14:41:19Z</time>
      </trkpt>
      <trkpt lat="48.08791" lon="7.11632">
        <ele>890.20001220703</ele>
        <time>2021-05-22T14:41:21Z</time>
      </trkpt>
      <trkpt lat="48.08792" lon="7.11629">
        <ele>890.20001220703</ele>
        <time>2021-05-22T14:41:22Z</time>
      </trkpt>
      <trkpt lat="48.08793" lon="7.1162">
        <ele>889.79998779297</ele>
        <time>2021-05-22T14:41:25Z</time>
      </trkpt>
      <trkpt lat="48.08794" lon="7.11609">
        <ele>889.59997558594</ele>
        <time>2021-05-22T14:41:30Z</time>
      </trkpt>
      <trkpt lat="48.08794" lon="7.11608">
        <ele>889.59997558594</ele>
        <time>2021-05-22T14:41:33Z</time>
      </trkpt>
      <trkpt lat="48.08795" lon="7.11603">
        <ele>889.20001220703</ele>
        <time>2021-05-22T14:43:08Z</time>
      </trkpt>
      <trkpt lat="48.08798" lon="7.11599">
        <ele>889.20001220703</ele>
        <time>2021-05-22T14:43:10Z</time>
      </trkpt>
      <trkpt lat="48.08798" lon="7.11594">
        <ele>889.20001220703</ele>
        <time>2021-05-22T14:43:12Z</time>
      </trkpt>
      <trkpt lat="48.08798" lon="7.11593">
        <ele>889.79998779297</ele>
        <time>2021-05-22T14:43:16Z</time>
      </trkpt>
      <trkpt lat="48.08796" lon="7.11596">
        <ele>888</ele>
        <time>2021-05-22T14:52:59Z</time>
      </trkpt>
      <trkpt lat="48.08789" lon="7.1161">
        <ele>887.79998779297</ele>
        <time>2021-05-22T14:53:03Z</time>
      </trkpt>
      <trkpt lat="48.08789" lon="7.1163">
        <ele>887.79998779297</ele>
        <time>2021-05-22T14:53:08Z</time>
      </trkpt>
      <trkpt lat="48.08799" lon="7.11657">
        <ele>887.79998779297</ele>
        <time>2021-05-22T14:53:14Z</time>
      </trkpt>
      <trkpt lat="48.08815" lon="7.11697">
        <ele>887.40002441406</ele>
        <time>2021-05-22T14:53:20Z</time>
      </trkpt>
      <trkpt lat="48.08823" lon="7.11708">
        <ele>887.20001220703</ele>
        <time>2021-05-22T14:53:22Z</time>
      </trkpt>
      <trkpt lat="48.08833" lon="7.11717">
        <ele>887</ele>
        <time>2021-05-22T14:53:24Z</time>
      </trkpt>
      <trkpt lat="48.08861" lon="7.11736">
        <ele>885.79998779297</ele>
        <time>2021-05-22T14:53:29Z</time>
      </trkpt>
      <trkpt lat="48.08867" lon="7.11739">
        <ele>885.79998779297</ele>
        <time>2021-05-22T14:53:30Z</time>
      </trkpt>
      <trkpt lat="48.08884" lon="7.11748">
        <ele>885</ele>
        <time>2021-05-22T14:53:33Z</time>
      </trkpt>
      <trkpt lat="48.0889" lon="7.11751">
        <ele>884.79998779297</ele>
        <time>2021-05-22T14:53:34Z</time>
      </trkpt>
      <trkpt lat="48.08915" lon="7.11765">
        <ele>883.79998779297</ele>
        <time>2021-05-22T14:53:38Z</time>
      </trkpt>
      <trkpt lat="48.08928" lon="7.11774">
        <ele>883.40002441406</ele>
        <time>2021-05-22T14:53:40Z</time>
      </trkpt>
      <trkpt lat="48.0896" lon="7.11799">
        <ele>882.40002441406</ele>
        <time>2021-05-22T14:53:45Z</time>
      </trkpt>
      <trkpt lat="48.08974" lon="7.1181">
        <ele>882</ele>
        <time>2021-05-22T14:53:47Z</time>
      </trkpt>
      <trkpt lat="48.08995" lon="7.11824">
        <ele>881.40002441406</ele>
        <time>2021-05-22T14:53:50Z</time>
      </trkpt>
      <trkpt lat="48.09002" lon="7.11828">
        <ele>881.20001220703</ele>
        <time>2021-05-22T14:53:51Z</time>
      </trkpt>
      <trkpt lat="48.09019" lon="7.11834">
        <ele>880.79998779297</ele>
        <time>2021-05-22T14:53:53Z</time>
      </trkpt>
      <trkpt lat="48.09036" lon="7.11839">
        <ele>880.40002441406</ele>
        <time>2021-05-22T14:53:55Z</time>
      </trkpt>
      <trkpt lat="48.09064" lon="7.11842">
        <ele>879.79998779297</ele>
        <time>2021-05-22T14:53:58Z</time>
      </trkpt>
      <trkpt lat="48.09093" lon="7.11843">
        <ele>879.20001220703</ele>
        <time>2021-05-22T14:54:01Z</time>
      </trkpt>
      <trkpt lat="48.09103" lon="7.11845">
        <ele>878.59997558594</ele>
        <time>2021-05-22T14:54:02Z</time>
      </trkpt>
      <trkpt lat="48.09112" lon="7.11848">
        <ele>878</ele>
        <time>2021-05-22T14:54:03Z</time>
      </trkpt>
      <trkpt lat="48.09122" lon="7.11853">
        <ele>877.59997558594</ele>
        <time>2021-05-22T14:54:04Z</time>
      </trkpt>
      <trkpt lat="48.09132" lon="7.11873">
        <ele>876.79998779297</ele>
        <time>2021-05-22T14:54:06Z</time>
      </trkpt>
      <trkpt lat="48.09139" lon="7.11925">
        <ele>875</ele>
        <time>2021-05-22T14:54:10Z</time>
      </trkpt>
      <trkpt lat="48.09146" lon="7.11964">
        <ele>873.79998779297</ele>
        <time>2021-05-22T14:54:13Z</time>
      </trkpt>
      <trkpt lat="48.09149" lon="7.11989">
        <ele>873</ele>
        <time>2021-05-22T14:54:15Z</time>
      </trkpt>
      <trkpt lat="48.09149" lon="7.12015">
        <ele>872.59997558594</ele>
        <time>2021-05-22T14:54:17Z</time>
      </trkpt>
      <trkpt lat="48.09153" lon="7.12054">
        <ele>872</ele>
        <time>2021-05-22T14:54:20Z</time>
      </trkpt>
      <trkpt lat="48.09157" lon="7.12079">
        <ele>871.59997558594</ele>
        <time>2021-05-22T14:54:22Z</time>
      </trkpt>
      <trkpt lat="48.09166" lon="7.12142">
        <ele>870.59997558594</ele>
        <time>2021-05-22T14:54:27Z</time>
      </trkpt>
      <trkpt lat="48.09178" lon="7.12194">
        <ele>869</ele>
        <time>2021-05-22T14:54:31Z</time>
      </trkpt>
      <trkpt lat="48.09183" lon="7.1222">
        <ele>868.40002441406</ele>
        <time>2021-05-22T14:54:33Z</time>
      </trkpt>
      <trkpt lat="48.0919" lon="7.12244">
        <ele>868.20001220703</ele>
        <time>2021-05-22T14:54:35Z</time>
      </trkpt>
      <trkpt lat="48.09195" lon="7.12255">
        <ele>868</ele>
        <time>2021-05-22T14:54:36Z</time>
      </trkpt>
      <trkpt lat="48.092" lon="7.12266">
        <ele>867.79998779297</ele>
        <time>2021-05-22T14:54:37Z</time>
      </trkpt>
      <trkpt lat="48.09218" lon="7.12295">
        <ele>867</ele>
        <time>2021-05-22T14:54:40Z</time>
      </trkpt>
      <trkpt lat="48.09228" lon="7.12301">
        <ele>866.40002441406</ele>
        <time>2021-05-22T14:54:41Z</time>
      </trkpt>
      <trkpt lat="48.09238" lon="7.12304">
        <ele>866.20001220703</ele>
        <time>2021-05-22T14:54:42Z</time>
      </trkpt>
      <trkpt lat="48.09257" lon="7.12302">
        <ele>865.79998779297</ele>
        <time>2021-05-22T14:54:44Z</time>
      </trkpt>
      <trkpt lat="48.09274" lon="7.12294">
        <ele>865.20001220703</ele>
        <time>2021-05-22T14:54:46Z</time>
      </trkpt>
      <trkpt lat="48.09292" lon="7.12283">
        <ele>864</ele>
        <time>2021-05-22T14:54:48Z</time>
      </trkpt>
      <trkpt lat="48.093" lon="7.12278">
        <ele>863.59997558594</ele>
        <time>2021-05-22T14:54:49Z</time>
      </trkpt>
      <trkpt lat="48.09308" lon="7.12271">
        <ele>863</ele>
        <time>2021-05-22T14:54:50Z</time>
      </trkpt>
      <trkpt lat="48.09332" lon="7.12244">
        <ele>862.20001220703</ele>
        <time>2021-05-22T14:54:53Z</time>
      </trkpt>
      <trkpt lat="48.09339" lon="7.12234">
        <ele>861.79998779297</ele>
        <time>2021-05-22T14:54:54Z</time>
      </trkpt>
      <trkpt lat="48.09357" lon="7.122">
        <ele>860.40002441406</ele>
        <time>2021-05-22T14:54:57Z</time>
      </trkpt>
      <trkpt lat="48.09369" lon="7.12175">
        <ele>860.20001220703</ele>
        <time>2021-05-22T14:54:59Z</time>
      </trkpt>
      <trkpt lat="48.09385" lon="7.12136">
        <ele>859.40002441406</ele>
        <time>2021-05-22T14:55:02Z</time>
      </trkpt>
      <trkpt lat="48.09401" lon="7.12081">
        <ele>858.20001220703</ele>
        <time>2021-05-22T14:55:06Z</time>
      </trkpt>
      <trkpt lat="48.09404" lon="7.12067">
        <ele>857.79998779297</ele>
        <time>2021-05-22T14:55:07Z</time>
      </trkpt>
      <trkpt lat="48.09411" lon="7.12025">
        <ele>856.79998779297</ele>
        <time>2021-05-22T14:55:10Z</time>
      </trkpt>
      <trkpt lat="48.09416" lon="7.11996">
        <ele>856.20001220703</ele>
        <time>2021-05-22T14:55:12Z</time>
      </trkpt>
      <trkpt lat="48.09419" lon="7.11982">
        <ele>855.59997558594</ele>
        <time>2021-05-22T14:55:13Z</time>
      </trkpt>
      <trkpt lat="48.09428" lon="7.11954">
        <ele>854.59997558594</ele>
        <time>2021-05-22T14:55:15Z</time>
      </trkpt>
      <trkpt lat="48.09436" lon="7.11929">
        <ele>853.79998779297</ele>
        <time>2021-05-22T14:55:17Z</time>
      </trkpt>
      <trkpt lat="48.0944" lon="7.11919">
        <ele>853.40002441406</ele>
        <time>2021-05-22T14:55:18Z</time>
      </trkpt>
      <trkpt lat="48.09451" lon="7.11892">
        <ele>853</ele>
        <time>2021-05-22T14:55:20Z</time>
      </trkpt>
      <trkpt lat="48.09455" lon="7.11882">
        <ele>853</ele>
        <time>2021-05-22T14:55:21Z</time>
      </trkpt>
      <trkpt lat="48.09463" lon="7.11869">
        <ele>852.79998779297</ele>
        <time>2021-05-22T14:55:22Z</time>
      </trkpt>
      <trkpt lat="48.09476" lon="7.11852">
        <ele>852.59997558594</ele>
        <time>2021-05-22T14:55:24Z</time>
      </trkpt>
      <trkpt lat="48.09493" lon="7.11833">
        <ele>852.20001220703</ele>
        <time>2021-05-22T14:55:26Z</time>
      </trkpt>
      <trkpt lat="48.09501" lon="7.11825">
        <ele>852</ele>
        <time>2021-05-22T14:55:27Z</time>
      </trkpt>
      <trkpt lat="48.0952" lon="7.11816">
        <ele>851.40002441406</ele>
        <time>2021-05-22T14:55:29Z</time>
      </trkpt>
      <trkpt lat="48.09539" lon="7.1182">
        <ele>850.79998779297</ele>
        <time>2021-05-22T14:55:31Z</time>
      </trkpt>
      <trkpt lat="48.09547" lon="7.11827">
        <ele>850.59997558594</ele>
        <time>2021-05-22T14:55:32Z</time>
      </trkpt>
      <trkpt lat="48.09553" lon="7.11836">
        <ele>850</ele>
        <time>2021-05-22T14:55:33Z</time>
      </trkpt>
      <trkpt lat="48.09557" lon="7.1185">
        <ele>849.59997558594</ele>
        <time>2021-05-22T14:55:34Z</time>
      </trkpt>
      <trkpt lat="48.09561" lon="7.11868">
        <ele>849.40002441406</ele>
        <time>2021-05-22T14:55:35Z</time>
      </trkpt>
      <trkpt lat="48.09569" lon="7.11907">
        <ele>848.40002441406</ele>
        <time>2021-05-22T14:55:38Z</time>
      </trkpt>
      <trkpt lat="48.09577" lon="7.11952">
        <ele>847.40002441406</ele>
        <time>2021-05-22T14:55:41Z</time>
      </trkpt>
      <trkpt lat="48.09588" lon="7.12012">
        <ele>845.79998779297</ele>
        <time>2021-05-22T14:55:45Z</time>
      </trkpt>
      <trkpt lat="48.0959" lon="7.12027">
        <ele>845.20001220703</ele>
        <time>2021-05-22T14:55:46Z</time>
      </trkpt>
      <trkpt lat="48.09593" lon="7.12041">
        <ele>844.20001220703</ele>
        <time>2021-05-22T14:55:47Z</time>
      </trkpt>
      <trkpt lat="48.09598" lon="7.12071">
        <ele>843.20001220703</ele>
        <time>2021-05-22T14:55:49Z</time>
      </trkpt>
      <trkpt lat="48.09607" lon="7.12116">
        <ele>842.40002441406</ele>
        <time>2021-05-22T14:55:52Z</time>
      </trkpt>
      <trkpt lat="48.0961" lon="7.12132">
        <ele>842.20001220703</ele>
        <time>2021-05-22T14:55:53Z</time>
      </trkpt>
      <trkpt lat="48.09618" lon="7.12177">
        <ele>840.59997558594</ele>
        <time>2021-05-22T14:55:56Z</time>
      </trkpt>
      <trkpt lat="48.09628" lon="7.1222">
        <ele>839.59997558594</ele>
        <time>2021-05-22T14:55:59Z</time>
      </trkpt>
      <trkpt lat="48.09647" lon="7.12306">
        <ele>838.20001220703</ele>
        <time>2021-05-22T14:56:05Z</time>
      </trkpt>
      <trkpt lat="48.09657" lon="7.12349">
        <ele>837</ele>
        <time>2021-05-22T14:56:08Z</time>
      </trkpt>
      <trkpt lat="48.09665" lon="7.12377">
        <ele>835.79998779297</ele>
        <time>2021-05-22T14:56:10Z</time>
      </trkpt>
      <trkpt lat="48.09669" lon="7.12391">
        <ele>834.79998779297</ele>
        <time>2021-05-22T14:56:11Z</time>
      </trkpt>
      <trkpt lat="48.0968" lon="7.12417">
        <ele>834</ele>
        <time>2021-05-22T14:56:13Z</time>
      </trkpt>
      <trkpt lat="48.09693" lon="7.12441">
        <ele>833.20001220703</ele>
        <time>2021-05-22T14:56:15Z</time>
      </trkpt>
      <trkpt lat="48.09699" lon="7.12453">
        <ele>833</ele>
        <time>2021-05-22T14:56:16Z</time>
      </trkpt>
      <trkpt lat="48.09716" lon="7.12493">
        <ele>832</ele>
        <time>2021-05-22T14:56:19Z</time>
      </trkpt>
      <trkpt lat="48.09737" lon="7.12544">
        <ele>830.59997558594</ele>
        <time>2021-05-22T14:56:23Z</time>
      </trkpt>
      <trkpt lat="48.09752" lon="7.12582">
        <ele>829.59997558594</ele>
        <time>2021-05-22T14:56:26Z</time>
      </trkpt>
      <trkpt lat="48.09773" lon="7.12634">
        <ele>828.59997558594</ele>
        <time>2021-05-22T14:56:30Z</time>
      </trkpt>
      <trkpt lat="48.09778" lon="7.12647">
        <ele>828.20001220703</ele>
        <time>2021-05-22T14:56:31Z</time>
      </trkpt>
      <trkpt lat="48.09795" lon="7.12684">
        <ele>826.59997558594</ele>
        <time>2021-05-22T14:56:34Z</time>
      </trkpt>
      <trkpt lat="48.09807" lon="7.12707">
        <ele>826.20001220703</ele>
        <time>2021-05-22T14:56:36Z</time>
      </trkpt>
      <trkpt lat="48.09812" lon="7.12719">
        <ele>826.20001220703</ele>
        <time>2021-05-22T14:56:37Z</time>
      </trkpt>
      <trkpt lat="48.09817" lon="7.12731">
        <ele>825.59997558594</ele>
        <time>2021-05-22T14:56:38Z</time>
      </trkpt>
      <trkpt lat="48.09822" lon="7.12744">
        <ele>825.40002441406</ele>
        <time>2021-05-22T14:56:39Z</time>
      </trkpt>
      <trkpt lat="48.09826" lon="7.12757">
        <ele>825</ele>
        <time>2021-05-22T14:56:40Z</time>
      </trkpt>
      <trkpt lat="48.09833" lon="7.12786">
        <ele>824.40002441406</ele>
        <time>2021-05-22T14:56:42Z</time>
      </trkpt>
      <trkpt lat="48.09847" lon="7.12826">
        <ele>823.40002441406</ele>
        <time>2021-05-22T14:56:45Z</time>
      </trkpt>
      <trkpt lat="48.09858" lon="7.12853">
        <ele>822.79998779297</ele>
        <time>2021-05-22T14:56:47Z</time>
      </trkpt>
      <trkpt lat="48.09869" lon="7.12879">
        <ele>822</ele>
        <time>2021-05-22T14:56:49Z</time>
      </trkpt>
      <trkpt lat="48.09887" lon="7.12917">
        <ele>820.59997558594</ele>
        <time>2021-05-22T14:56:52Z</time>
      </trkpt>
      <trkpt lat="48.09894" lon="7.1293">
        <ele>820.40002441406</ele>
        <time>2021-05-22T14:56:53Z</time>
      </trkpt>
      <trkpt lat="48.09901" lon="7.1294">
        <ele>820.20001220703</ele>
        <time>2021-05-22T14:56:54Z</time>
      </trkpt>
      <trkpt lat="48.09909" lon="7.12949">
        <ele>820</ele>
        <time>2021-05-22T14:56:55Z</time>
      </trkpt>
      <trkpt lat="48.09918" lon="7.12956">
        <ele>819.40002441406</ele>
        <time>2021-05-22T14:56:56Z</time>
      </trkpt>
      <trkpt lat="48.09928" lon="7.12961">
        <ele>818.79998779297</ele>
        <time>2021-05-22T14:56:57Z</time>
      </trkpt>
      <trkpt lat="48.09948" lon="7.12969">
        <ele>818.40002441406</ele>
        <time>2021-05-22T14:56:59Z</time>
      </trkpt>
      <trkpt lat="48.09967" lon="7.12975">
        <ele>817.59997558594</ele>
        <time>2021-05-22T14:57:01Z</time>
      </trkpt>
      <trkpt lat="48.09988" lon="7.12976">
        <ele>817</ele>
        <time>2021-05-22T14:57:03Z</time>
      </trkpt>
      <trkpt lat="48.09998" lon="7.12974">
        <ele>816.79998779297</ele>
        <time>2021-05-22T14:57:04Z</time>
      </trkpt>
      <trkpt lat="48.10007" lon="7.12968">
        <ele>816.79998779297</ele>
        <time>2021-05-22T14:57:05Z</time>
      </trkpt>
      <trkpt lat="48.10026" lon="7.12955">
        <ele>816.20001220703</ele>
        <time>2021-05-22T14:57:07Z</time>
      </trkpt>
      <trkpt lat="48.10037" lon="7.12951">
        <ele>816</ele>
        <time>2021-05-22T14:57:08Z</time>
      </trkpt>
      <trkpt lat="48.10058" lon="7.12945">
        <ele>815</ele>
        <time>2021-05-22T14:57:10Z</time>
      </trkpt>
      <trkpt lat="48.10069" lon="7.12943">
        <ele>814.59997558594</ele>
        <time>2021-05-22T14:57:11Z</time>
      </trkpt>
      <trkpt lat="48.10088" lon="7.12937">
        <ele>813.79998779297</ele>
        <time>2021-05-22T14:57:13Z</time>
      </trkpt>
      <trkpt lat="48.10097" lon="7.12932">
        <ele>813.59997558594</ele>
        <time>2021-05-22T14:57:14Z</time>
      </trkpt>
      <trkpt lat="48.10106" lon="7.12926">
        <ele>813.40002441406</ele>
        <time>2021-05-22T14:57:15Z</time>
      </trkpt>
      <trkpt lat="48.10122" lon="7.12909">
        <ele>812.40002441406</ele>
        <time>2021-05-22T14:57:17Z</time>
      </trkpt>
      <trkpt lat="48.1013" lon="7.12899">
        <ele>812.20001220703</ele>
        <time>2021-05-22T14:57:18Z</time>
      </trkpt>
      <trkpt lat="48.10143" lon="7.12876">
        <ele>811.20001220703</ele>
        <time>2021-05-22T14:57:20Z</time>
      </trkpt>
      <trkpt lat="48.10161" lon="7.12824">
        <ele>810.40002441406</ele>
        <time>2021-05-22T14:57:24Z</time>
      </trkpt>
      <trkpt lat="48.10165" lon="7.12812">
        <ele>810.40002441406</ele>
        <time>2021-05-22T14:57:25Z</time>
      </trkpt>
      <trkpt lat="48.10169" lon="7.12799">
        <ele>809.79998779297</ele>
        <time>2021-05-22T14:57:26Z</time>
      </trkpt>
      <trkpt lat="48.10182" lon="7.12758">
        <ele>809</ele>
        <time>2021-05-22T14:57:29Z</time>
      </trkpt>
      <trkpt lat="48.10189" lon="7.12731">
        <ele>808.40002441406</ele>
        <time>2021-05-22T14:57:31Z</time>
      </trkpt>
      <trkpt lat="48.10197" lon="7.12692">
        <ele>807.40002441406</ele>
        <time>2021-05-22T14:57:34Z</time>
      </trkpt>
      <trkpt lat="48.102" lon="7.12679">
        <ele>807</ele>
        <time>2021-05-22T14:57:35Z</time>
      </trkpt>
      <trkpt lat="48.10206" lon="7.12653">
        <ele>806.59997558594</ele>
        <time>2021-05-22T14:57:37Z</time>
      </trkpt>
      <trkpt lat="48.1021" lon="7.12641">
        <ele>806.20001220703</ele>
        <time>2021-05-22T14:57:38Z</time>
      </trkpt>
      <trkpt lat="48.10216" lon="7.12615">
        <ele>804.59997558594</ele>
        <time>2021-05-22T14:57:40Z</time>
      </trkpt>
      <trkpt lat="48.1022" lon="7.12603">
        <ele>804</ele>
        <time>2021-05-22T14:57:41Z</time>
      </trkpt>
      <trkpt lat="48.10224" lon="7.1259">
        <ele>803.40002441406</ele>
        <time>2021-05-22T14:57:42Z</time>
      </trkpt>
      <trkpt lat="48.10239" lon="7.12553">
        <ele>802.40002441406</ele>
        <time>2021-05-22T14:57:45Z</time>
      </trkpt>
      <trkpt lat="48.10244" lon="7.12542">
        <ele>802.20001220703</ele>
        <time>2021-05-22T14:57:46Z</time>
      </trkpt>
      <trkpt lat="48.10261" lon="7.12508">
        <ele>801.20001220703</ele>
        <time>2021-05-22T14:57:49Z</time>
      </trkpt>
      <trkpt lat="48.10274" lon="7.1249">
        <ele>800.59997558594</ele>
        <time>2021-05-22T14:57:51Z</time>
      </trkpt>
      <trkpt lat="48.10289" lon="7.1247">
        <ele>800.20001220703</ele>
        <time>2021-05-22T14:57:53Z</time>
      </trkpt>
      <trkpt lat="48.10313" lon="7.12442">
        <ele>798.79998779297</ele>
        <time>2021-05-22T14:57:56Z</time>
      </trkpt>
      <trkpt lat="48.10322" lon="7.12433">
        <ele>798.40002441406</ele>
        <time>2021-05-22T14:57:57Z</time>
      </trkpt>
      <trkpt lat="48.10332" lon="7.12423">
        <ele>797.59997558594</ele>
        <time>2021-05-22T14:57:58Z</time>
      </trkpt>
      <trkpt lat="48.10358" lon="7.12402">
        <ele>796</ele>
        <time>2021-05-22T14:58:01Z</time>
      </trkpt>
      <trkpt lat="48.10368" lon="7.12396">
        <ele>795.40002441406</ele>
        <time>2021-05-22T14:58:02Z</time>
      </trkpt>
      <trkpt lat="48.1038" lon="7.12392">
        <ele>794.59997558594</ele>
        <time>2021-05-22T14:58:03Z</time>
      </trkpt>
      <trkpt lat="48.10398" lon="7.12389">
        <ele>793.40002441406</ele>
        <time>2021-05-22T14:58:05Z</time>
      </trkpt>
      <trkpt lat="48.10408" lon="7.12388">
        <ele>792.59997558594</ele>
        <time>2021-05-22T14:58:06Z</time>
      </trkpt>
      <trkpt lat="48.10427" lon="7.12384">
        <ele>792</ele>
        <time>2021-05-22T14:58:08Z</time>
      </trkpt>
      <trkpt lat="48.10447" lon="7.12378">
        <ele>791.59997558594</ele>
        <time>2021-05-22T14:58:10Z</time>
      </trkpt>
      <trkpt lat="48.10465" lon="7.12367">
        <ele>791.20001220703</ele>
        <time>2021-05-22T14:58:12Z</time>
      </trkpt>
      <trkpt lat="48.10475" lon="7.12359">
        <ele>791</ele>
        <time>2021-05-22T14:58:13Z</time>
      </trkpt>
      <trkpt lat="48.1049" lon="7.12345">
        <ele>789.59997558594</ele>
        <time>2021-05-22T14:58:15Z</time>
      </trkpt>
      <trkpt lat="48.10505" lon="7.12332">
        <ele>788.59997558594</ele>
        <time>2021-05-22T14:58:17Z</time>
      </trkpt>
      <trkpt lat="48.10531" lon="7.12311">
        <ele>787.40002441406</ele>
        <time>2021-05-22T14:58:20Z</time>
      </trkpt>
      <trkpt lat="48.10547" lon="7.12297">
        <ele>786.20001220703</ele>
        <time>2021-05-22T14:58:22Z</time>
      </trkpt>
      <trkpt lat="48.10554" lon="7.1229">
        <ele>785.79998779297</ele>
        <time>2021-05-22T14:58:23Z</time>
      </trkpt>
      <trkpt lat="48.10561" lon="7.12285">
        <ele>784.59997558594</ele>
        <time>2021-05-22T14:58:24Z</time>
      </trkpt>
      <trkpt lat="48.10573" lon="7.12276">
        <ele>783.79998779297</ele>
        <time>2021-05-22T14:58:26Z</time>
      </trkpt>
      <trkpt lat="48.10579" lon="7.12276">
        <ele>783.40002441406</ele>
        <time>2021-05-22T14:58:27Z</time>
      </trkpt>
      <trkpt lat="48.1059" lon="7.12285">
        <ele>782.40002441406</ele>
        <time>2021-05-22T14:58:29Z</time>
      </trkpt>
      <trkpt lat="48.10594" lon="7.12294">
        <ele>782.20001220703</ele>
        <time>2021-05-22T14:58:30Z</time>
      </trkpt>
      <trkpt lat="48.10597" lon="7.12304">
        <ele>781.79998779297</ele>
        <time>2021-05-22T14:58:31Z</time>
      </trkpt>
      <trkpt lat="48.10599" lon="7.12316">
        <ele>781.20001220703</ele>
        <time>2021-05-22T14:58:33Z</time>
      </trkpt>
      <trkpt lat="48.10604" lon="7.12341">
        <ele>781</ele>
        <time>2021-05-22T14:58:34Z</time>
      </trkpt>
      <trkpt lat="48.10612" lon="7.12381">
        <ele>780</ele>
        <time>2021-05-22T14:58:37Z</time>
      </trkpt>
      <trkpt lat="48.1062" lon="7.12417">
        <ele>778.59997558594</ele>
        <time>2021-05-22T14:58:40Z</time>
      </trkpt>
      <trkpt lat="48.10624" lon="7.12439">
        <ele>777.59997558594</ele>
        <time>2021-05-22T14:58:42Z</time>
      </trkpt>
      <trkpt lat="48.10628" lon="7.12461">
        <ele>776</ele>
        <time>2021-05-22T14:58:45Z</time>
      </trkpt>
      <trkpt lat="48.10641" lon="7.12522">
        <ele>775</ele>
        <time>2021-05-22T14:58:49Z</time>
      </trkpt>
      <trkpt lat="48.10644" lon="7.12535">
        <ele>774.79998779297</ele>
        <time>2021-05-22T14:58:50Z</time>
      </trkpt>
      <trkpt lat="48.10647" lon="7.12562">
        <ele>774.20001220703</ele>
        <time>2021-05-22T14:58:52Z</time>
      </trkpt>
      <trkpt lat="48.10647" lon="7.12576">
        <ele>774</ele>
        <time>2021-05-22T14:58:53Z</time>
      </trkpt>
      <trkpt lat="48.10645" lon="7.12591">
        <ele>773.59997558594</ele>
        <time>2021-05-22T14:58:54Z</time>
      </trkpt>
      <trkpt lat="48.10642" lon="7.12619">
        <ele>773.20001220703</ele>
        <time>2021-05-22T14:58:56Z</time>
      </trkpt>
      <trkpt lat="48.10633" lon="7.12644">
        <ele>773</ele>
        <time>2021-05-22T14:58:58Z</time>
      </trkpt>
      <trkpt lat="48.10623" lon="7.12665">
        <ele>772.40002441406</ele>
        <time>2021-05-22T14:59:00Z</time>
      </trkpt>
      <trkpt lat="48.10616" lon="7.12675">
        <ele>772.20001220703</ele>
        <time>2021-05-22T14:59:01Z</time>
      </trkpt>
      <trkpt lat="48.106" lon="7.12692">
        <ele>771.40002441406</ele>
        <time>2021-05-22T14:59:03Z</time>
      </trkpt>
      <trkpt lat="48.10591" lon="7.12699">
        <ele>771</ele>
        <time>2021-05-22T14:59:04Z</time>
      </trkpt>
      <trkpt lat="48.10582" lon="7.12707">
        <ele>770</ele>
        <time>2021-05-22T14:59:05Z</time>
      </trkpt>
      <trkpt lat="48.10555" lon="7.12728">
        <ele>768.79998779297</ele>
        <time>2021-05-22T14:59:08Z</time>
      </trkpt>
      <trkpt lat="48.10526" lon="7.12751">
        <ele>768</ele>
        <time>2021-05-22T14:59:11Z</time>
      </trkpt>
      <trkpt lat="48.10517" lon="7.12758">
        <ele>767.40002441406</ele>
        <time>2021-05-22T14:59:12Z</time>
      </trkpt>
      <trkpt lat="48.10497" lon="7.12771">
        <ele>766.20001220703</ele>
        <time>2021-05-22T14:59:14Z</time>
      </trkpt>
      <trkpt lat="48.10487" lon="7.12778">
        <ele>765</ele>
        <time>2021-05-22T14:59:15Z</time>
      </trkpt>
      <trkpt lat="48.10467" lon="7.12793">
        <ele>763.59997558594</ele>
        <time>2021-05-22T14:59:17Z</time>
      </trkpt>
      <trkpt lat="48.10447" lon="7.12811">
        <ele>762</ele>
        <time>2021-05-22T14:59:19Z</time>
      </trkpt>
      <trkpt lat="48.10429" lon="7.12834">
        <ele>760.20001220703</ele>
        <time>2021-05-22T14:59:21Z</time>
      </trkpt>
      <trkpt lat="48.10422" lon="7.12849">
        <ele>759.20001220703</ele>
        <time>2021-05-22T14:59:22Z</time>
      </trkpt>
      <trkpt lat="48.10415" lon="7.12866">
        <ele>758.79998779297</ele>
        <time>2021-05-22T14:59:23Z</time>
      </trkpt>
      <trkpt lat="48.10405" lon="7.12902">
        <ele>757.59997558594</ele>
        <time>2021-05-22T14:59:25Z</time>
      </trkpt>
      <trkpt lat="48.10389" lon="7.12955">
        <ele>756.40002441406</ele>
        <time>2021-05-22T14:59:28Z</time>
      </trkpt>
      <trkpt lat="48.10377" lon="7.12988">
        <ele>755</ele>
        <time>2021-05-22T14:59:30Z</time>
      </trkpt>
      <trkpt lat="48.10359" lon="7.13032">
        <ele>753.79998779297</ele>
        <time>2021-05-22T14:59:33Z</time>
      </trkpt>
      <trkpt lat="48.10346" lon="7.13058">
        <ele>753.40002441406</ele>
        <time>2021-05-22T14:59:35Z</time>
      </trkpt>
      <trkpt lat="48.10317" lon="7.13102">
        <ele>753</ele>
        <time>2021-05-22T14:59:39Z</time>
      </trkpt>
      <trkpt lat="48.10291" lon="7.13132">
        <ele>752.59997558594</ele>
        <time>2021-05-22T14:59:42Z</time>
      </trkpt>
      <trkpt lat="48.10263" lon="7.13163">
        <ele>751</ele>
        <time>2021-05-22T14:59:45Z</time>
      </trkpt>
      <trkpt lat="48.10242" lon="7.13185">
        <ele>749.79998779297</ele>
        <time>2021-05-22T14:59:47Z</time>
      </trkpt>
      <trkpt lat="48.10221" lon="7.13205">
        <ele>748.59997558594</ele>
        <time>2021-05-22T14:59:49Z</time>
      </trkpt>
      <trkpt lat="48.10209" lon="7.13213">
        <ele>747.79998779297</ele>
        <time>2021-05-22T14:59:50Z</time>
      </trkpt>
      <trkpt lat="48.10196" lon="7.13217">
        <ele>746.20001220703</ele>
        <time>2021-05-22T14:59:51Z</time>
      </trkpt>
      <trkpt lat="48.1017" lon="7.13222">
        <ele>743.79998779297</ele>
        <time>2021-05-22T14:59:53Z</time>
      </trkpt>
      <trkpt lat="48.10157" lon="7.13224">
        <ele>742.40002441406</ele>
        <time>2021-05-22T14:59:54Z</time>
      </trkpt>
      <trkpt lat="48.10145" lon="7.13227">
        <ele>741.59997558594</ele>
        <time>2021-05-22T14:59:55Z</time>
      </trkpt>
      <trkpt lat="48.10132" lon="7.13233">
        <ele>740.40002441406</ele>
        <time>2021-05-22T14:59:56Z</time>
      </trkpt>
      <trkpt lat="48.10121" lon="7.13242">
        <ele>740</ele>
        <time>2021-05-22T14:59:57Z</time>
      </trkpt>
      <trkpt lat="48.1011" lon="7.13252">
        <ele>739</ele>
        <time>2021-05-22T14:59:58Z</time>
      </trkpt>
      <trkpt lat="48.10088" lon="7.13272">
        <ele>737.40002441406</ele>
        <time>2021-05-22T15:00:00Z</time>
      </trkpt>
      <trkpt lat="48.10078" lon="7.13282">
        <ele>736.20001220703</ele>
        <time>2021-05-22T15:00:01Z</time>
      </trkpt>
      <trkpt lat="48.10058" lon="7.13302">
        <ele>735.20001220703</ele>
        <time>2021-05-22T15:00:03Z</time>
      </trkpt>
      <trkpt lat="48.10038" lon="7.13324">
        <ele>734.20001220703</ele>
        <time>2021-05-22T15:00:05Z</time>
      </trkpt>
      <trkpt lat="48.1002" lon="7.13347">
        <ele>733</ele>
        <time>2021-05-22T15:00:07Z</time>
      </trkpt>
      <trkpt lat="48.0999" lon="7.13376">
        <ele>731.59997558594</ele>
        <time>2021-05-22T15:00:10Z</time>
      </trkpt>
      <trkpt lat="48.09979" lon="7.13384">
        <ele>731.20001220703</ele>
        <time>2021-05-22T15:00:11Z</time>
      </trkpt>
      <trkpt lat="48.09968" lon="7.1339">
        <ele>730.40002441406</ele>
        <time>2021-05-22T15:00:12Z</time>
      </trkpt>
      <trkpt lat="48.09946" lon="7.134">
        <ele>728.79998779297</ele>
        <time>2021-05-22T15:00:14Z</time>
      </trkpt>
      <trkpt lat="48.09934" lon="7.13403">
        <ele>728</ele>
        <time>2021-05-22T15:00:15Z</time>
      </trkpt>
      <trkpt lat="48.09923" lon="7.13407">
        <ele>727.20001220703</ele>
        <time>2021-05-22T15:00:16Z</time>
      </trkpt>
      <trkpt lat="48.09901" lon="7.13414">
        <ele>726</ele>
        <time>2021-05-22T15:00:18Z</time>
      </trkpt>
      <trkpt lat="48.09881" lon="7.13425">
        <ele>725</ele>
        <time>2021-05-22T15:00:20Z</time>
      </trkpt>
      <trkpt lat="48.09873" lon="7.13432">
        <ele>724.40002441406</ele>
        <time>2021-05-22T15:00:21Z</time>
      </trkpt>
      <trkpt lat="48.09865" lon="7.1344">
        <ele>724.40002441406</ele>
        <time>2021-05-22T15:00:22Z</time>
      </trkpt>
      <trkpt lat="48.09859" lon="7.1345">
        <ele>724.20001220703</ele>
        <time>2021-05-22T15:00:23Z</time>
      </trkpt>
      <trkpt lat="48.09853" lon="7.13461">
        <ele>723.79998779297</ele>
        <time>2021-05-22T15:00:24Z</time>
      </trkpt>
      <trkpt lat="48.09845" lon="7.13485">
        <ele>723.59997558594</ele>
        <time>2021-05-22T15:00:26Z</time>
      </trkpt>
      <trkpt lat="48.09842" lon="7.13497">
        <ele>723.59997558594</ele>
        <time>2021-05-22T15:00:27Z</time>
      </trkpt>
      <trkpt lat="48.09838" lon="7.1351">
        <ele>723.40002441406</ele>
        <time>2021-05-22T15:00:28Z</time>
      </trkpt>
      <trkpt lat="48.09826" lon="7.13562">
        <ele>722.59997558594</ele>
        <time>2021-05-22T15:00:32Z</time>
      </trkpt>
      <trkpt lat="48.09822" lon="7.13573">
        <ele>722.20001220703</ele>
        <time>2021-05-22T15:00:33Z</time>
      </trkpt>
      <trkpt lat="48.09817" lon="7.13582">
        <ele>722</ele>
        <time>2021-05-22T15:00:34Z</time>
      </trkpt>
      <trkpt lat="48.09809" lon="7.13588">
        <ele>720.79998779297</ele>
        <time>2021-05-22T15:00:35Z</time>
      </trkpt>
      <trkpt lat="48.09802" lon="7.13591">
        <ele>720.20001220703</ele>
        <time>2021-05-22T15:00:36Z</time>
      </trkpt>
      <trkpt lat="48.09794" lon="7.13588">
        <ele>719.59997558594</ele>
        <time>2021-05-22T15:00:37Z</time>
      </trkpt>
      <trkpt lat="48.09767" lon="7.1357">
        <ele>718</ele>
        <time>2021-05-22T15:00:40Z</time>
      </trkpt>
      <trkpt lat="48.09749" lon="7.13559">
        <ele>717.40002441406</ele>
        <time>2021-05-22T15:00:42Z</time>
      </trkpt>
      <trkpt lat="48.09741" lon="7.13551">
        <ele>717</ele>
        <time>2021-05-22T15:00:43Z</time>
      </trkpt>
      <trkpt lat="48.09727" lon="7.13531">
        <ele>715.79998779297</ele>
        <time>2021-05-22T15:00:45Z</time>
      </trkpt>
      <trkpt lat="48.09712" lon="7.13491">
        <ele>714.40002441406</ele>
        <time>2021-05-22T15:00:48Z</time>
      </trkpt>
      <trkpt lat="48.09708" lon="7.13477">
        <ele>713.59997558594</ele>
        <time>2021-05-22T15:00:49Z</time>
      </trkpt>
      <trkpt lat="48.09704" lon="7.13463">
        <ele>713</ele>
        <time>2021-05-22T15:00:50Z</time>
      </trkpt>
      <trkpt lat="48.09694" lon="7.13435">
        <ele>711.79998779297</ele>
        <time>2021-05-22T15:00:52Z</time>
      </trkpt>
      <trkpt lat="48.09683" lon="7.13407">
        <ele>710.79998779297</ele>
        <time>2021-05-22T15:00:54Z</time>
      </trkpt>
      <trkpt lat="48.09668" lon="7.13364">
        <ele>709.59997558594</ele>
        <time>2021-05-22T15:00:57Z</time>
      </trkpt>
      <trkpt lat="48.09655" lon="7.13343">
        <ele>708.59997558594</ele>
        <time>2021-05-22T15:00:59Z</time>
      </trkpt>
      <trkpt lat="48.09642" lon="7.13329">
        <ele>706.59997558594</ele>
        <time>2021-05-22T15:01:01Z</time>
      </trkpt>
      <trkpt lat="48.09636" lon="7.13326">
        <ele>706.20001220703</ele>
        <time>2021-05-22T15:01:02Z</time>
      </trkpt>
      <trkpt lat="48.09631" lon="7.13341">
        <ele>705.79998779297</ele>
        <time>2021-05-22T15:01:03Z</time>
      </trkpt>
      <trkpt lat="48.09628" lon="7.13355">
        <ele>705.59997558594</ele>
        <time>2021-05-22T15:01:04Z</time>
      </trkpt>
      <trkpt lat="48.09628" lon="7.1337">
        <ele>705</ele>
        <time>2021-05-22T15:01:05Z</time>
      </trkpt>
      <trkpt lat="48.09631" lon="7.13398">
        <ele>704.20001220703</ele>
        <time>2021-05-22T15:01:07Z</time>
      </trkpt>
      <trkpt lat="48.09634" lon="7.1343">
        <ele>703.59997558594</ele>
        <time>2021-05-22T15:01:09Z</time>
      </trkpt>
      <trkpt lat="48.09635" lon="7.13447">
        <ele>703.20001220703</ele>
        <time>2021-05-22T15:01:10Z</time>
      </trkpt>
      <trkpt lat="48.0964" lon="7.13482">
        <ele>701.59997558594</ele>
        <time>2021-05-22T15:01:12Z</time>
      </trkpt>
      <trkpt lat="48.09646" lon="7.13517">
        <ele>700.59997558594</ele>
        <time>2021-05-22T15:01:14Z</time>
      </trkpt>
      <trkpt lat="48.09649" lon="7.13534">
        <ele>699.40002441406</ele>
        <time>2021-05-22T15:01:15Z</time>
      </trkpt>
      <trkpt lat="48.09652" lon="7.1355">
        <ele>698.20001220703</ele>
        <time>2021-05-22T15:01:16Z</time>
      </trkpt>
      <trkpt lat="48.09655" lon="7.13569">
        <ele>696.59997558594</ele>
        <time>2021-05-22T15:01:17Z</time>
      </trkpt>
      <trkpt lat="48.0966" lon="7.13597">
        <ele>694.20001220703</ele>
        <time>2021-05-22T15:01:19Z</time>
      </trkpt>
      <trkpt lat="48.09665" lon="7.13624">
        <ele>693</ele>
        <time>2021-05-22T15:01:21Z</time>
      </trkpt>
      <trkpt lat="48.09669" lon="7.13649">
        <ele>691.79998779297</ele>
        <time>2021-05-22T15:01:23Z</time>
      </trkpt>
      <trkpt lat="48.09673" lon="7.13661">
        <ele>691</ele>
        <time>2021-05-22T15:01:24Z</time>
      </trkpt>
      <trkpt lat="48.09678" lon="7.13684">
        <ele>690.20001220703</ele>
        <time>2021-05-22T15:01:26Z</time>
      </trkpt>
      <trkpt lat="48.09683" lon="7.13705">
        <ele>689.79998779297</ele>
        <time>2021-05-22T15:01:28Z</time>
      </trkpt>
      <trkpt lat="48.09688" lon="7.13713">
        <ele>689.59997558594</ele>
        <time>2021-05-22T15:01:29Z</time>
      </trkpt>
      <trkpt lat="48.09694" lon="7.1372">
        <ele>688.59997558594</ele>
        <time>2021-05-22T15:01:30Z</time>
      </trkpt>
      <trkpt lat="48.09701" lon="7.13723">
        <ele>687.79998779297</ele>
        <time>2021-05-22T15:01:31Z</time>
      </trkpt>
      <trkpt lat="48.09708" lon="7.13722">
        <ele>687.59997558594</ele>
        <time>2021-05-22T15:01:32Z</time>
      </trkpt>
      <trkpt lat="48.09716" lon="7.1372">
        <ele>687</ele>
        <time>2021-05-22T15:01:33Z</time>
      </trkpt>
      <trkpt lat="48.09732" lon="7.13715">
        <ele>686.20001220703</ele>
        <time>2021-05-22T15:01:35Z</time>
      </trkpt>
      <trkpt lat="48.0975" lon="7.1371">
        <ele>685</ele>
        <time>2021-05-22T15:01:37Z</time>
      </trkpt>
      <trkpt lat="48.09765" lon="7.13705">
        <ele>683.79998779297</ele>
        <time>2021-05-22T15:01:39Z</time>
      </trkpt>
      <trkpt lat="48.09776" lon="7.13703">
        <ele>683.20001220703</ele>
        <time>2021-05-22T15:01:40Z</time>
      </trkpt>
      <trkpt lat="48.09785" lon="7.13703">
        <ele>682.59997558594</ele>
        <time>2021-05-22T15:01:41Z</time>
      </trkpt>
      <trkpt lat="48.09811" lon="7.13704">
        <ele>681.20001220703</ele>
        <time>2021-05-22T15:01:44Z</time>
      </trkpt>
      <trkpt lat="48.09842" lon="7.13693">
        <ele>679.79998779297</ele>
        <time>2021-05-22T15:01:47Z</time>
      </trkpt>
      <trkpt lat="48.09849" lon="7.13689">
        <ele>679.59997558594</ele>
        <time>2021-05-22T15:01:48Z</time>
      </trkpt>
      <trkpt lat="48.09858" lon="7.13682">
        <ele>679</ele>
        <time>2021-05-22T15:01:49Z</time>
      </trkpt>
      <trkpt lat="48.09868" lon="7.13672">
        <ele>678.40002441406</ele>
        <time>2021-05-22T15:01:50Z</time>
      </trkpt>
      <trkpt lat="48.09885" lon="7.13653">
        <ele>677.59997558594</ele>
        <time>2021-05-22T15:01:52Z</time>
      </trkpt>
      <trkpt lat="48.09892" lon="7.13645">
        <ele>677</ele>
        <time>2021-05-22T15:01:53Z</time>
      </trkpt>
      <trkpt lat="48.09918" lon="7.13613">
        <ele>675.79998779297</ele>
        <time>2021-05-22T15:01:56Z</time>
      </trkpt>
      <trkpt lat="48.09936" lon="7.13595">
        <ele>674.79998779297</ele>
        <time>2021-05-22T15:01:58Z</time>
      </trkpt>
      <trkpt lat="48.09955" lon="7.13586">
        <ele>673.79998779297</ele>
        <time>2021-05-22T15:02:00Z</time>
      </trkpt>
      <trkpt lat="48.09969" lon="7.13582">
        <ele>673.40002441406</ele>
        <time>2021-05-22T15:02:01Z</time>
      </trkpt>
      <trkpt lat="48.10004" lon="7.13576">
        <ele>672.20001220703</ele>
        <time>2021-05-22T15:02:04Z</time>
      </trkpt>
      <trkpt lat="48.10029" lon="7.13572">
        <ele>670.79998779297</ele>
        <time>2021-05-22T15:02:06Z</time>
      </trkpt>
      <trkpt lat="48.10054" lon="7.13569">
        <ele>668.40002441406</ele>
        <time>2021-05-22T15:02:08Z</time>
      </trkpt>
      <trkpt lat="48.10081" lon="7.13569">
        <ele>666.79998779297</ele>
        <time>2021-05-22T15:02:10Z</time>
      </trkpt>
      <trkpt lat="48.1011" lon="7.13571">
        <ele>664.59997558594</ele>
        <time>2021-05-22T15:02:12Z</time>
      </trkpt>
      <trkpt lat="48.10136" lon="7.13573">
        <ele>662.59997558594</ele>
        <time>2021-05-22T15:02:14Z</time>
      </trkpt>
      <trkpt lat="48.1015" lon="7.13574">
        <ele>661.59997558594</ele>
        <time>2021-05-22T15:02:15Z</time>
      </trkpt>
      <trkpt lat="48.10178" lon="7.13578">
        <ele>660</ele>
        <time>2021-05-22T15:02:17Z</time>
      </trkpt>
      <trkpt lat="48.10191" lon="7.1358">
        <ele>659</ele>
        <time>2021-05-22T15:02:18Z</time>
      </trkpt>
      <trkpt lat="48.10204" lon="7.13583">
        <ele>657.59997558594</ele>
        <time>2021-05-22T15:02:19Z</time>
      </trkpt>
      <trkpt lat="48.10229" lon="7.13592">
        <ele>656</ele>
        <time>2021-05-22T15:02:21Z</time>
      </trkpt>
      <trkpt lat="48.10244" lon="7.13603">
        <ele>655.59997558594</ele>
        <time>2021-05-22T15:02:22Z</time>
      </trkpt>
      <trkpt lat="48.10254" lon="7.13616">
        <ele>654.59997558594</ele>
        <time>2021-05-22T15:02:23Z</time>
      </trkpt>
      <trkpt lat="48.10269" lon="7.13644">
        <ele>653</ele>
        <time>2021-05-22T15:02:25Z</time>
      </trkpt>
      <trkpt lat="48.10277" lon="7.13665">
        <ele>651.79998779297</ele>
        <time>2021-05-22T15:02:26Z</time>
      </trkpt>
      <trkpt lat="48.10285" lon="7.13682">
        <ele>651.20001220703</ele>
        <time>2021-05-22T15:02:27Z</time>
      </trkpt>
      <trkpt lat="48.10293" lon="7.13698">
        <ele>650</ele>
        <time>2021-05-22T15:02:28Z</time>
      </trkpt>
      <trkpt lat="48.103" lon="7.1371">
        <ele>649.40002441406</ele>
        <time>2021-05-22T15:02:29Z</time>
      </trkpt>
      <trkpt lat="48.1031" lon="7.13724">
        <ele>648.59997558594</ele>
        <time>2021-05-22T15:02:30Z</time>
      </trkpt>
      <trkpt lat="48.10333" lon="7.13753">
        <ele>647.20001220703</ele>
        <time>2021-05-22T15:02:32Z</time>
      </trkpt>
      <trkpt lat="48.10345" lon="7.13766">
        <ele>646</ele>
        <time>2021-05-22T15:02:33Z</time>
      </trkpt>
      <trkpt lat="48.10364" lon="7.13789">
        <ele>644.59997558594</ele>
        <time>2021-05-22T15:02:35Z</time>
      </trkpt>
      <trkpt lat="48.10377" lon="7.13804">
        <ele>644.40002441406</ele>
        <time>2021-05-22T15:02:36Z</time>
      </trkpt>
      <trkpt lat="48.10387" lon="7.13816">
        <ele>643.59997558594</ele>
        <time>2021-05-22T15:02:37Z</time>
      </trkpt>
      <trkpt lat="48.10407" lon="7.13842">
        <ele>642</ele>
        <time>2021-05-22T15:02:39Z</time>
      </trkpt>
      <trkpt lat="48.10416" lon="7.13857">
        <ele>641.20001220703</ele>
        <time>2021-05-22T15:02:40Z</time>
      </trkpt>
      <trkpt lat="48.10426" lon="7.13874">
        <ele>640.79998779297</ele>
        <time>2021-05-22T15:02:41Z</time>
      </trkpt>
      <trkpt lat="48.10435" lon="7.13887">
        <ele>639.59997558594</ele>
        <time>2021-05-22T15:02:42Z</time>
      </trkpt>
      <trkpt lat="48.10446" lon="7.13899">
        <ele>639.20001220703</ele>
        <time>2021-05-22T15:02:43Z</time>
      </trkpt>
      <trkpt lat="48.10459" lon="7.13908">
        <ele>637.79998779297</ele>
        <time>2021-05-22T15:02:44Z</time>
      </trkpt>
      <trkpt lat="48.1047" lon="7.13913">
        <ele>636.59997558594</ele>
        <time>2021-05-22T15:02:45Z</time>
      </trkpt>
      <trkpt lat="48.10483" lon="7.1392">
        <ele>635.79998779297</ele>
        <time>2021-05-22T15:02:46Z</time>
      </trkpt>
      <trkpt lat="48.10498" lon="7.1393">
        <ele>634.59997558594</ele>
        <time>2021-05-22T15:02:47Z</time>
      </trkpt>
      <trkpt lat="48.10521" lon="7.1395">
        <ele>632.79998779297</ele>
        <time>2021-05-22T15:02:49Z</time>
      </trkpt>
      <trkpt lat="48.10547" lon="7.13975">
        <ele>631.20001220703</ele>
        <time>2021-05-22T15:02:51Z</time>
      </trkpt>
      <trkpt lat="48.10571" lon="7.13998">
        <ele>629.20001220703</ele>
        <time>2021-05-22T15:02:53Z</time>
      </trkpt>
      <trkpt lat="48.10582" lon="7.14009">
        <ele>627.40002441406</ele>
        <time>2021-05-22T15:02:54Z</time>
      </trkpt>
      <trkpt lat="48.10593" lon="7.14021">
        <ele>626.79998779297</ele>
        <time>2021-05-22T15:02:55Z</time>
      </trkpt>
      <trkpt lat="48.10605" lon="7.14033">
        <ele>626</ele>
        <time>2021-05-22T15:02:56Z</time>
      </trkpt>
      <trkpt lat="48.10626" lon="7.14055">
        <ele>623.79998779297</ele>
        <time>2021-05-22T15:02:58Z</time>
      </trkpt>
      <trkpt lat="48.10647" lon="7.14078">
        <ele>621.79998779297</ele>
        <time>2021-05-22T15:03:00Z</time>
      </trkpt>
      <trkpt lat="48.10657" lon="7.1409">
        <ele>620.79998779297</ele>
        <time>2021-05-22T15:03:01Z</time>
      </trkpt>
      <trkpt lat="48.10666" lon="7.14103">
        <ele>620.40002441406</ele>
        <time>2021-05-22T15:03:02Z</time>
      </trkpt>
      <trkpt lat="48.10683" lon="7.14131">
        <ele>619.40002441406</ele>
        <time>2021-05-22T15:03:04Z</time>
      </trkpt>
      <trkpt lat="48.1069" lon="7.14145">
        <ele>618.20001220703</ele>
        <time>2021-05-22T15:03:05Z</time>
      </trkpt>
      <trkpt lat="48.10698" lon="7.1416">
        <ele>617.40002441406</ele>
        <time>2021-05-22T15:03:06Z</time>
      </trkpt>
      <trkpt lat="48.10705" lon="7.14174">
        <ele>616</ele>
        <time>2021-05-22T15:03:07Z</time>
      </trkpt>
      <trkpt lat="48.1072" lon="7.14204">
        <ele>614.59997558594</ele>
        <time>2021-05-22T15:03:09Z</time>
      </trkpt>
      <trkpt lat="48.10726" lon="7.14216">
        <ele>613.20001220703</ele>
        <time>2021-05-22T15:03:10Z</time>
      </trkpt>
      <trkpt lat="48.10733" lon="7.14229">
        <ele>612.79998779297</ele>
        <time>2021-05-22T15:03:11Z</time>
      </trkpt>
      <trkpt lat="48.10742" lon="7.14243">
        <ele>611.59997558594</ele>
        <time>2021-05-22T15:03:12Z</time>
      </trkpt>
      <trkpt lat="48.10752" lon="7.14252">
        <ele>611</ele>
        <time>2021-05-22T15:03:13Z</time>
      </trkpt>
      <trkpt lat="48.10762" lon="7.14261">
        <ele>610.20001220703</ele>
        <time>2021-05-22T15:03:14Z</time>
      </trkpt>
      <trkpt lat="48.10782" lon="7.14275">
        <ele>608.79998779297</ele>
        <time>2021-05-22T15:03:16Z</time>
      </trkpt>
      <trkpt lat="48.10795" lon="7.14285">
        <ele>607.59997558594</ele>
        <time>2021-05-22T15:03:17Z</time>
      </trkpt>
      <trkpt lat="48.10816" lon="7.14302">
        <ele>606.59997558594</ele>
        <time>2021-05-22T15:03:19Z</time>
      </trkpt>
      <trkpt lat="48.10835" lon="7.14318">
        <ele>605.40002441406</ele>
        <time>2021-05-22T15:03:21Z</time>
      </trkpt>
      <trkpt lat="48.10855" lon="7.14335">
        <ele>603.40002441406</ele>
        <time>2021-05-22T15:03:23Z</time>
      </trkpt>
      <trkpt lat="48.10901" lon="7.1437">
        <ele>602.20001220703</ele>
        <time>2021-05-22T15:03:28Z</time>
      </trkpt>
      <trkpt lat="48.10944" lon="7.14399">
        <ele>601.59997558594</ele>
        <time>2021-05-22T15:03:33Z</time>
      </trkpt>
      <trkpt lat="48.10972" lon="7.14411">
        <ele>601</ele>
        <time>2021-05-22T15:03:36Z</time>
      </trkpt>
      <trkpt lat="48.10992" lon="7.14418">
        <ele>600.40002441406</ele>
        <time>2021-05-22T15:03:38Z</time>
      </trkpt>
      <trkpt lat="48.11022" lon="7.1443">
        <ele>600</ele>
        <time>2021-05-22T15:03:41Z</time>
      </trkpt>
      <trkpt lat="48.11043" lon="7.14436">
        <ele>598.59997558594</ele>
        <time>2021-05-22T15:03:43Z</time>
      </trkpt>
      <trkpt lat="48.11052" lon="7.14437">
        <ele>597.79998779297</ele>
        <time>2021-05-22T15:03:44Z</time>
      </trkpt>
      <trkpt lat="48.11064" lon="7.14438">
        <ele>597.20001220703</ele>
        <time>2021-05-22T15:03:45Z</time>
      </trkpt>
      <trkpt lat="48.11089" lon="7.14433">
        <ele>595.40002441406</ele>
        <time>2021-05-22T15:03:47Z</time>
      </trkpt>
      <trkpt lat="48.11101" lon="7.14429">
        <ele>594.79998779297</ele>
        <time>2021-05-22T15:03:48Z</time>
      </trkpt>
      <trkpt lat="48.11111" lon="7.14425">
        <ele>593.59997558594</ele>
        <time>2021-05-22T15:03:49Z</time>
      </trkpt>
      <trkpt lat="48.11137" lon="7.14413">
        <ele>592.20001220703</ele>
        <time>2021-05-22T15:03:51Z</time>
      </trkpt>
      <trkpt lat="48.1115" lon="7.1441">
        <ele>592</ele>
        <time>2021-05-22T15:03:52Z</time>
      </trkpt>
      <trkpt lat="48.11163" lon="7.14408">
        <ele>591</ele>
        <time>2021-05-22T15:03:53Z</time>
      </trkpt>
      <trkpt lat="48.11187" lon="7.14408">
        <ele>589.79998779297</ele>
        <time>2021-05-22T15:03:55Z</time>
      </trkpt>
      <trkpt lat="48.11203" lon="7.14408">
        <ele>588.20001220703</ele>
        <time>2021-05-22T15:03:56Z</time>
      </trkpt>
      <trkpt lat="48.11227" lon="7.14407">
        <ele>586.79998779297</ele>
        <time>2021-05-22T15:03:58Z</time>
      </trkpt>
      <trkpt lat="48.11257" lon="7.14405">
        <ele>585.59997558594</ele>
        <time>2021-05-22T15:04:01Z</time>
      </trkpt>
      <trkpt lat="48.11299" lon="7.14407">
        <ele>585</ele>
        <time>2021-05-22T15:04:05Z</time>
      </trkpt>
      <trkpt lat="48.11332" lon="7.14417">
        <ele>585</ele>
        <time>2021-05-22T15:04:09Z</time>
      </trkpt>
      <trkpt lat="48.11346" lon="7.14421">
        <ele>585.20001220703</ele>
        <time>2021-05-22T15:04:11Z</time>
      </trkpt>
      <trkpt lat="48.11378" lon="7.14435">
        <ele>584.79998779297</ele>
        <time>2021-05-22T15:04:15Z</time>
      </trkpt>
      <trkpt lat="48.11414" lon="7.14446">
        <ele>585</ele>
        <time>2021-05-22T15:04:20Z</time>
      </trkpt>
      <trkpt lat="48.11423" lon="7.14446">
        <ele>585</ele>
        <time>2021-05-22T15:04:21Z</time>
      </trkpt>
      <trkpt lat="48.11444" lon="7.1444">
        <ele>584.79998779297</ele>
        <time>2021-05-22T15:04:24Z</time>
      </trkpt>
      <trkpt lat="48.11458" lon="7.14431">
        <ele>584.79998779297</ele>
        <time>2021-05-22T15:04:26Z</time>
      </trkpt>
      <trkpt lat="48.11473" lon="7.14419">
        <ele>584.59997558594</ele>
        <time>2021-05-22T15:04:28Z</time>
      </trkpt>
      <trkpt lat="48.11513" lon="7.14393">
        <ele>584.40002441406</ele>
        <time>2021-05-22T15:04:33Z</time>
      </trkpt>
      <trkpt lat="48.11521" lon="7.1439">
        <ele>584.20001220703</ele>
        <time>2021-05-22T15:04:34Z</time>
      </trkpt>
      <trkpt lat="48.1154" lon="7.14389">
        <ele>584.20001220703</ele>
        <time>2021-05-22T15:04:36Z</time>
      </trkpt>
      <trkpt lat="48.1155" lon="7.14392">
        <ele>583.59997558594</ele>
        <time>2021-05-22T15:04:37Z</time>
      </trkpt>
      <trkpt lat="48.11569" lon="7.14401">
        <ele>582.79998779297</ele>
        <time>2021-05-22T15:04:39Z</time>
      </trkpt>
      <trkpt lat="48.11579" lon="7.14406">
        <ele>582.40002441406</ele>
        <time>2021-05-22T15:04:40Z</time>
      </trkpt>
      <trkpt lat="48.11599" lon="7.14416">
        <ele>581.40002441406</ele>
        <time>2021-05-22T15:04:42Z</time>
      </trkpt>
      <trkpt lat="48.1161" lon="7.14417">
        <ele>581.20001220703</ele>
        <time>2021-05-22T15:04:43Z</time>
      </trkpt>
      <trkpt lat="48.11622" lon="7.14417">
        <ele>580.20001220703</ele>
        <time>2021-05-22T15:04:44Z</time>
      </trkpt>
      <trkpt lat="48.11646" lon="7.14411">
        <ele>578.79998779297</ele>
        <time>2021-05-22T15:04:46Z</time>
      </trkpt>
      <trkpt lat="48.11678" lon="7.14399">
        <ele>577.20001220703</ele>
        <time>2021-05-22T15:04:49Z</time>
      </trkpt>
      <trkpt lat="48.11686" lon="7.14396">
        <ele>576.59997558594</ele>
        <time>2021-05-22T15:04:50Z</time>
      </trkpt>
      <trkpt lat="48.11695" lon="7.14393">
        <ele>575.79998779297</ele>
        <time>2021-05-22T15:04:51Z</time>
      </trkpt>
      <trkpt lat="48.11712" lon="7.14386">
        <ele>573.79998779297</ele>
        <time>2021-05-22T15:04:53Z</time>
      </trkpt>
      <trkpt lat="48.11728" lon="7.1438">
        <ele>572.40002441406</ele>
        <time>2021-05-22T15:04:55Z</time>
      </trkpt>
      <trkpt lat="48.11749" lon="7.14372">
        <ele>570.79998779297</ele>
        <time>2021-05-22T15:04:58Z</time>
      </trkpt>
      <trkpt lat="48.11768" lon="7.14364">
        <ele>569.59997558594</ele>
        <time>2021-05-22T15:05:01Z</time>
      </trkpt>
      <trkpt lat="48.11783" lon="7.14359">
        <ele>569.20001220703</ele>
        <time>2021-05-22T15:05:04Z</time>
      </trkpt>
      <trkpt lat="48.11787" lon="7.14358">
        <ele>569.20001220703</ele>
        <time>2021-05-22T15:05:05Z</time>
      </trkpt>
      <trkpt lat="48.11803" lon="7.14357">
        <ele>568.79998779297</ele>
        <time>2021-05-22T15:05:10Z</time>
      </trkpt>
      <trkpt lat="48.11814" lon="7.14367">
        <ele>569</ele>
        <time>2021-05-22T15:05:15Z</time>
      </trkpt>
      <trkpt lat="48.11817" lon="7.14373">
        <ele>569</ele>
        <time>2021-05-22T15:05:18Z</time>
      </trkpt>
      <trkpt lat="48.11817" lon="7.14375">
        <ele>568.79998779297</ele>
        <time>2021-05-22T15:05:20Z</time>
      </trkpt>
      <trkpt lat="48.11817" lon="7.14375">
        <ele>568.79998779297</ele>
        <time>2021-05-22T15:05:21Z</time>
      </trkpt>
      <trkpt lat="48.11817" lon="7.14375">
        <ele>568.79998779297</ele>
        <time>2021-05-22T15:05:22Z</time>
      </trkpt>
      <trkpt lat="48.1182" lon="7.14382">
        <ele>568.40002441406</ele>
        <time>2021-05-22T15:05:33Z</time>
      </trkpt>
      <trkpt lat="48.11821" lon="7.14386">
        <ele>568.40002441406</ele>
        <time>2021-05-22T15:05:34Z</time>
      </trkpt>
      <trkpt lat="48.1183" lon="7.14417">
        <ele>567.79998779297</ele>
        <time>2021-05-22T15:05:39Z</time>
      </trkpt>
      <trkpt lat="48.11839" lon="7.14441">
        <ele>567.20001220703</ele>
        <time>2021-05-22T15:05:42Z</time>
      </trkpt>
      <trkpt lat="48.11848" lon="7.14458">
        <ele>566.40002441406</ele>
        <time>2021-05-22T15:05:44Z</time>
      </trkpt>
      <trkpt lat="48.11854" lon="7.14467">
        <ele>566</ele>
        <time>2021-05-22T15:05:45Z</time>
      </trkpt>
      <trkpt lat="48.11873" lon="7.14492">
        <ele>565.59997558594</ele>
        <time>2021-05-22T15:05:48Z</time>
      </trkpt>
      <trkpt lat="48.11888" lon="7.14507">
        <ele>564.79998779297</ele>
        <time>2021-05-22T15:05:50Z</time>
      </trkpt>
      <trkpt lat="48.11905" lon="7.14521">
        <ele>563.40002441406</ele>
        <time>2021-05-22T15:05:52Z</time>
      </trkpt>
      <trkpt lat="48.11914" lon="7.14527">
        <ele>563</ele>
        <time>2021-05-22T15:05:53Z</time>
      </trkpt>
      <trkpt lat="48.11923" lon="7.14534">
        <ele>562</ele>
        <time>2021-05-22T15:05:54Z</time>
      </trkpt>
      <trkpt lat="48.11941" lon="7.14548">
        <ele>560.79998779297</ele>
        <time>2021-05-22T15:05:56Z</time>
      </trkpt>
      <trkpt lat="48.11957" lon="7.14563">
        <ele>559.20001220703</ele>
        <time>2021-05-22T15:05:58Z</time>
      </trkpt>
      <trkpt lat="48.11964" lon="7.14571">
        <ele>559</ele>
        <time>2021-05-22T15:05:59Z</time>
      </trkpt>
      <trkpt lat="48.11976" lon="7.14592">
        <ele>558.40002441406</ele>
        <time>2021-05-22T15:06:01Z</time>
      </trkpt>
      <trkpt lat="48.11981" lon="7.14604">
        <ele>557.79998779297</ele>
        <time>2021-05-22T15:06:02Z</time>
      </trkpt>
      <trkpt lat="48.11998" lon="7.14639">
        <ele>556.20001220703</ele>
        <time>2021-05-22T15:06:05Z</time>
      </trkpt>
      <trkpt lat="48.12009" lon="7.1466">
        <ele>555</ele>
        <time>2021-05-22T15:06:07Z</time>
      </trkpt>
      <trkpt lat="48.12014" lon="7.14669">
        <ele>554.20001220703</ele>
        <time>2021-05-22T15:06:08Z</time>
      </trkpt>
      <trkpt lat="48.1202" lon="7.14679">
        <ele>553.79998779297</ele>
        <time>2021-05-22T15:06:09Z</time>
      </trkpt>
      <trkpt lat="48.12036" lon="7.14707">
        <ele>552.79998779297</ele>
        <time>2021-05-22T15:06:12Z</time>
      </trkpt>
      <trkpt lat="48.12052" lon="7.14739">
        <ele>551.20001220703</ele>
        <time>2021-05-22T15:06:15Z</time>
      </trkpt>
      <trkpt lat="48.12061" lon="7.14762">
        <ele>550.79998779297</ele>
        <time>2021-05-22T15:06:17Z</time>
      </trkpt>
      <trkpt lat="48.12071" lon="7.14786">
        <ele>549.59997558594</ele>
        <time>2021-05-22T15:06:19Z</time>
      </trkpt>
      <trkpt lat="48.12081" lon="7.14808">
        <ele>548.40002441406</ele>
        <time>2021-05-22T15:06:21Z</time>
      </trkpt>
      <trkpt lat="48.12091" lon="7.14827">
        <ele>547</ele>
        <time>2021-05-22T15:06:23Z</time>
      </trkpt>
      <trkpt lat="48.12101" lon="7.14846">
        <ele>545.79998779297</ele>
        <time>2021-05-22T15:06:25Z</time>
      </trkpt>
      <trkpt lat="48.12115" lon="7.14873">
        <ele>544.40002441406</ele>
        <time>2021-05-22T15:06:28Z</time>
      </trkpt>
      <trkpt lat="48.12125" lon="7.14892">
        <ele>543.40002441406</ele>
        <time>2021-05-22T15:06:30Z</time>
      </trkpt>
      <trkpt lat="48.12142" lon="7.14923">
        <ele>541.79998779297</ele>
        <time>2021-05-22T15:06:33Z</time>
      </trkpt>
      <trkpt lat="48.12153" lon="7.14946">
        <ele>540.20001220703</ele>
        <time>2021-05-22T15:06:35Z</time>
      </trkpt>
      <trkpt lat="48.12165" lon="7.14967">
        <ele>538.79998779297</ele>
        <time>2021-05-22T15:06:37Z</time>
      </trkpt>
      <trkpt lat="48.12183" lon="7.14996">
        <ele>537.20001220703</ele>
        <time>2021-05-22T15:06:40Z</time>
      </trkpt>
      <trkpt lat="48.12189" lon="7.15005">
        <ele>537</ele>
        <time>2021-05-22T15:06:41Z</time>
      </trkpt>
      <trkpt lat="48.12213" lon="7.15046">
        <ele>536</ele>
        <time>2021-05-22T15:06:45Z</time>
      </trkpt>
      <trkpt lat="48.12226" lon="7.15069">
        <ele>535.40002441406</ele>
        <time>2021-05-22T15:06:47Z</time>
      </trkpt>
      <trkpt lat="48.12238" lon="7.15093">
        <ele>534.20001220703</ele>
        <time>2021-05-22T15:06:49Z</time>
      </trkpt>
      <trkpt lat="48.1225" lon="7.15117">
        <ele>533.20001220703</ele>
        <time>2021-05-22T15:06:51Z</time>
      </trkpt>
      <trkpt lat="48.12257" lon="7.15129">
        <ele>532.20001220703</ele>
        <time>2021-05-22T15:06:52Z</time>
      </trkpt>
      <trkpt lat="48.12263" lon="7.15141">
        <ele>532</ele>
        <time>2021-05-22T15:06:53Z</time>
      </trkpt>
      <trkpt lat="48.12277" lon="7.15165">
        <ele>530.59997558594</ele>
        <time>2021-05-22T15:06:55Z</time>
      </trkpt>
      <trkpt lat="48.12284" lon="7.15177">
        <ele>529.40002441406</ele>
        <time>2021-05-22T15:06:56Z</time>
      </trkpt>
      <trkpt lat="48.12297" lon="7.15201">
        <ele>528.20001220703</ele>
        <time>2021-05-22T15:06:58Z</time>
      </trkpt>
      <trkpt lat="48.12317" lon="7.15236">
        <ele>526.59997558594</ele>
        <time>2021-05-22T15:07:01Z</time>
      </trkpt>
      <trkpt lat="48.12331" lon="7.15256">
        <ele>525.79998779297</ele>
        <time>2021-05-22T15:07:03Z</time>
      </trkpt>
      <trkpt lat="48.12338" lon="7.15264">
        <ele>525.59997558594</ele>
        <time>2021-05-22T15:07:04Z</time>
      </trkpt>
      <trkpt lat="48.12347" lon="7.15273">
        <ele>525.20001220703</ele>
        <time>2021-05-22T15:07:05Z</time>
      </trkpt>
      <trkpt lat="48.12363" lon="7.15281">
        <ele>524.79998779297</ele>
        <time>2021-05-22T15:07:07Z</time>
      </trkpt>
      <trkpt lat="48.12372" lon="7.15284">
        <ele>524</ele>
        <time>2021-05-22T15:07:08Z</time>
      </trkpt>
      <trkpt lat="48.1239" lon="7.15286">
        <ele>523</ele>
        <time>2021-05-22T15:07:10Z</time>
      </trkpt>
      <trkpt lat="48.12399" lon="7.15287">
        <ele>522.79998779297</ele>
        <time>2021-05-22T15:07:11Z</time>
      </trkpt>
      <trkpt lat="48.12425" lon="7.15289">
        <ele>521.59997558594</ele>
        <time>2021-05-22T15:07:14Z</time>
      </trkpt>
      <trkpt lat="48.12449" lon="7.15294">
        <ele>520.59997558594</ele>
        <time>2021-05-22T15:07:17Z</time>
      </trkpt>
      <trkpt lat="48.12457" lon="7.15297">
        <ele>520.59997558594</ele>
        <time>2021-05-22T15:07:18Z</time>
      </trkpt>
      <trkpt lat="48.12479" lon="7.15309">
        <ele>520.20001220703</ele>
        <time>2021-05-22T15:07:21Z</time>
      </trkpt>
      <trkpt lat="48.12486" lon="7.15315">
        <ele>519.59997558594</ele>
        <time>2021-05-22T15:07:22Z</time>
      </trkpt>
      <trkpt lat="48.12493" lon="7.15321">
        <ele>519.40002441406</ele>
        <time>2021-05-22T15:07:23Z</time>
      </trkpt>
      <trkpt lat="48.12517" lon="7.15354">
        <ele>519</ele>
        <time>2021-05-22T15:07:27Z</time>
      </trkpt>
      <trkpt lat="48.12527" lon="7.15374">
        <ele>518.40002441406</ele>
        <time>2021-05-22T15:07:29Z</time>
      </trkpt>
      <trkpt lat="48.12535" lon="7.15396">
        <ele>518</ele>
        <time>2021-05-22T15:07:31Z</time>
      </trkpt>
      <trkpt lat="48.12541" lon="7.15417">
        <ele>517</ele>
        <time>2021-05-22T15:07:33Z</time>
      </trkpt>
      <trkpt lat="48.12547" lon="7.15443">
        <ele>515.59997558594</ele>
        <time>2021-05-22T15:07:36Z</time>
      </trkpt>
      <trkpt lat="48.1255" lon="7.15459">
        <ele>514.59997558594</ele>
        <time>2021-05-22T15:07:38Z</time>
      </trkpt>
      <trkpt lat="48.12551" lon="7.15475">
        <ele>513.59997558594</ele>
        <time>2021-05-22T15:07:40Z</time>
      </trkpt>
      <trkpt lat="48.12551" lon="7.15484">
        <ele>513.40002441406</ele>
        <time>2021-05-22T15:07:41Z</time>
      </trkpt>
      <trkpt lat="48.12551" lon="7.15494">
        <ele>512.79998779297</ele>
        <time>2021-05-22T15:07:42Z</time>
      </trkpt>
      <trkpt lat="48.1255" lon="7.15514">
        <ele>512</ele>
        <time>2021-05-22T15:07:44Z</time>
      </trkpt>
      <trkpt lat="48.1255" lon="7.15526">
        <ele>511.39999389648</ele>
        <time>2021-05-22T15:07:45Z</time>
      </trkpt>
      <trkpt lat="48.12552" lon="7.15537">
        <ele>511.20001220703</ele>
        <time>2021-05-22T15:07:46Z</time>
      </trkpt>
      <trkpt lat="48.12554" lon="7.15547">
        <ele>510.79998779297</ele>
        <time>2021-05-22T15:07:47Z</time>
      </trkpt>
      <trkpt lat="48.12564" lon="7.15566">
        <ele>510.20001220703</ele>
        <time>2021-05-22T15:07:49Z</time>
      </trkpt>
      <trkpt lat="48.12576" lon="7.15581">
        <ele>509.39999389648</ele>
        <time>2021-05-22T15:07:51Z</time>
      </trkpt>
      <trkpt lat="48.12594" lon="7.15601">
        <ele>508.20001220703</ele>
        <time>2021-05-22T15:07:54Z</time>
      </trkpt>
      <trkpt lat="48.12599" lon="7.15607">
        <ele>508</ele>
        <time>2021-05-22T15:07:55Z</time>
      </trkpt>
      <trkpt lat="48.12608" lon="7.15624">
        <ele>507</ele>
        <time>2021-05-22T15:07:57Z</time>
      </trkpt>
      <trkpt lat="48.12611" lon="7.15641">
        <ele>505.79998779297</ele>
        <time>2021-05-22T15:07:59Z</time>
      </trkpt>
      <trkpt lat="48.12611" lon="7.1566">
        <ele>505</ele>
        <time>2021-05-22T15:08:01Z</time>
      </trkpt>
      <trkpt lat="48.12611" lon="7.1567">
        <ele>504.60000610352</ele>
        <time>2021-05-22T15:08:02Z</time>
      </trkpt>
      <trkpt lat="48.12612" lon="7.15701">
        <ele>503.39999389648</ele>
        <time>2021-05-22T15:08:05Z</time>
      </trkpt>
      <trkpt lat="48.12612" lon="7.1572">
        <ele>502.60000610352</ele>
        <time>2021-05-22T15:08:07Z</time>
      </trkpt>
      <trkpt lat="48.12613" lon="7.15745">
        <ele>502.39999389648</ele>
        <time>2021-05-22T15:08:10Z</time>
      </trkpt>
      <trkpt lat="48.12614" lon="7.15754">
        <ele>502.39999389648</ele>
        <time>2021-05-22T15:08:11Z</time>
      </trkpt>
      <trkpt lat="48.12617" lon="7.1578">
        <ele>501.79998779297</ele>
        <time>2021-05-22T15:08:14Z</time>
      </trkpt>
      <trkpt lat="48.12617" lon="7.15798">
        <ele>501.79998779297</ele>
        <time>2021-05-22T15:08:16Z</time>
      </trkpt>
      <trkpt lat="48.12624" lon="7.15829">
        <ele>501.20001220703</ele>
        <time>2021-05-22T15:08:19Z</time>
      </trkpt>
      <trkpt lat="48.12629" lon="7.1585">
        <ele>501</ele>
        <time>2021-05-22T15:08:21Z</time>
      </trkpt>
      <trkpt lat="48.12639" lon="7.15908">
        <ele>500.20001220703</ele>
        <time>2021-05-22T15:08:26Z</time>
      </trkpt>
      <trkpt lat="48.12641" lon="7.15957">
        <ele>499</ele>
        <time>2021-05-22T15:08:31Z</time>
      </trkpt>
      <trkpt lat="48.1264" lon="7.15979">
        <ele>498.39999389648</ele>
        <time>2021-05-22T15:08:35Z</time>
      </trkpt>
      <trkpt lat="48.12638" lon="7.15993">
        <ele>497.79998779297</ele>
        <time>2021-05-22T15:08:40Z</time>
      </trkpt>
      <trkpt lat="48.12637" lon="7.15994">
        <ele>497.60000610352</ele>
        <time>2021-05-22T15:08:41Z</time>
      </trkpt>
      <trkpt lat="48.12632" lon="7.15993">
        <ele>497.20001220703</ele>
        <time>2021-05-22T15:08:44Z</time>
      </trkpt>
      <trkpt lat="48.12626" lon="7.15992">
        <ele>497.20001220703</ele>
        <time>2021-05-22T15:08:48Z</time>
      </trkpt>
      <trkpt lat="48.12625" lon="7.15991">
        <ele>497.20001220703</ele>
        <time>2021-05-22T15:08:49Z</time>
      </trkpt>
      <trkpt lat="48.1262" lon="7.1599">
        <ele>497.39999389648</ele>
        <time>2021-05-22T15:08:52Z</time>
      </trkpt>
      <trkpt lat="48.1262" lon="7.15989">
        <ele>497.60000610352</ele>
        <time>2021-05-22T15:08:54Z</time>
      </trkpt>
      <trkpt lat="48.1262" lon="7.15989">
        <ele>497.79998779297</ele>
        <time>2021-05-22T15:08:56Z</time>
      </trkpt>
      <trkpt lat="48.12614" lon="7.15981">
        <ele>498.39999389648</ele>
        <time>2021-05-22T15:09:02Z</time>
      </trkpt>
      <trkpt lat="48.12611" lon="7.1598">
        <ele>498.39999389648</ele>
        <time>2021-05-22T15:09:04Z</time>
      </trkpt>
      <trkpt lat="48.12611" lon="7.1598">
        <ele>498.20001220703</ele>
        <time>2021-05-22T15:09:10Z</time>
      </trkpt>
      <trkpt lat="48.12611" lon="7.1598">
        <ele>498.39999389648</ele>
        <time>2021-05-22T15:09:14Z</time>
      </trkpt>
    </trkseg>
  </trk>
</gpx>